<?xml version='1.0' encoding='UTF-8'?><gpx version="1.1" creator="JPX - https://github.com/jenetics/jpx" xmlns="http://www.topografix.com/GPX/1/1"><trk><trkseg><trkpt lat="45.0307673" lon="9.6914615"><ele>62.25</ele><time>2026-04-03T15:26:47.106Z</time></trkpt><trkpt lat="45.0308767" lon="9.6915183"><ele>62.5</ele><time>2026-04-03T15:26:49.103Z</time></trkpt><trkpt lat="45.0309619" lon="9.6915166"><ele>62.75</ele><time>2026-04-03T15:26:51.103Z</time></trkpt><trkpt lat="45.0310302" lon="9.6912823"><ele>63.0</ele><time>2026-04-03T15:26:58.112Z</time></trkpt><trkpt lat="45.0310274" lon="9.6911748"><ele>63.0</ele><time>2026-04-03T15:26:59.103Z</time></trkpt><trkpt lat="45.0310237" lon="9.6910632"><ele>63.0</ele><time>2026-04-03T15:27:00.102Z</time></trkpt><trkpt lat="45.0310205" lon="9.6909544"><ele>63.0</ele><time>2026-04-03T15:27:01.11Z</time></trkpt><trkpt lat="45.0310181" lon="9.690837"><ele>63.0</ele><time>2026-04-03T15:27:02.105Z</time></trkpt><trkpt lat="45.0310203" lon="9.6907209"><ele>63.0</ele><time>2026-04-03T15:27:03.104Z</time></trkpt><trkpt lat="45.031023" lon="9.6906038"><ele>63.0</ele><time>2026-04-03T15:27:04.112Z</time></trkpt><trkpt lat="45.0310241" lon="9.6904831"><ele>63.0</ele><time>2026-04-03T15:27:05.118Z</time></trkpt><trkpt lat="45.0310225" lon="9.6903616"><ele>63.0</ele><time>2026-04-03T15:27:06.115Z</time></trkpt><trkpt lat="45.03102" lon="9.6902401"><ele>63.0</ele><time>2026-04-03T15:27:07.112Z</time></trkpt><trkpt lat="45.0310149" lon="9.6901161"><ele>63.0</ele><time>2026-04-03T15:27:08.115Z</time></trkpt><trkpt lat="45.031016" lon="9.6900001"><ele>63.0</ele><time>2026-04-03T15:27:09.116Z</time></trkpt><trkpt lat="45.0310179" lon="9.6898837"><ele>63.0</ele><time>2026-04-03T15:27:10.107Z</time></trkpt><trkpt lat="45.0310195" lon="9.6897655"><ele>63.25</ele><time>2026-04-03T15:27:11.11Z</time></trkpt><trkpt lat="45.0310206" lon="9.6896434"><ele>63.5</ele><time>2026-04-03T15:27:12.106Z</time></trkpt><trkpt lat="45.03102" lon="9.6893785"><ele>63.75</ele><time>2026-04-03T15:27:14.103Z</time></trkpt><trkpt lat="45.0310165" lon="9.6892428"><ele>64.0</ele><time>2026-04-03T15:27:15.107Z</time></trkpt><trkpt lat="45.031015" lon="9.689108"><ele>64.0</ele><time>2026-04-03T15:27:16.106Z</time></trkpt><trkpt lat="45.0310131" lon="9.6889769"><ele>64.0</ele><time>2026-04-03T15:27:17.108Z</time></trkpt><trkpt lat="45.0310126" lon="9.6888465"><ele>64.0</ele><time>2026-04-03T15:27:18.108Z</time></trkpt><trkpt lat="45.0310117" lon="9.688712"><ele>64.0</ele><time>2026-04-03T15:27:19.108Z</time></trkpt><trkpt lat="45.03101" lon="9.6885747"><ele>64.0</ele><time>2026-04-03T15:27:20.101Z</time></trkpt><trkpt lat="45.0310078" lon="9.6884362"><ele>64.0</ele><time>2026-04-03T15:27:21.1Z</time></trkpt><trkpt lat="45.0310001" lon="9.688298"><ele>64.0</ele><time>2026-04-03T15:27:22.107Z</time></trkpt><trkpt lat="45.0309805" lon="9.6881609"><ele>64.0</ele><time>2026-04-03T15:27:23.108Z</time></trkpt><trkpt lat="45.0309537" lon="9.6880233"><ele>64.0</ele><time>2026-04-03T15:27:24.107Z</time></trkpt><trkpt lat="45.0309237" lon="9.6878845"><ele>64.0</ele><time>2026-04-03T15:27:25.102Z</time></trkpt><trkpt lat="45.0308951" lon="9.6877456"><ele>64.0</ele><time>2026-04-03T15:27:26.108Z</time></trkpt><trkpt lat="45.0308673" lon="9.687606"><ele>64.0</ele><time>2026-04-03T15:27:27.104Z</time></trkpt><trkpt lat="45.0308392" lon="9.6874654"><ele>64.0</ele><time>2026-04-03T15:27:28.107Z</time></trkpt><trkpt lat="45.0308126" lon="9.6873214"><ele>64.0</ele><time>2026-04-03T15:27:29.111Z</time></trkpt><trkpt lat="45.0307862" lon="9.6871801"><ele>64.0</ele><time>2026-04-03T15:27:30.107Z</time></trkpt><trkpt lat="45.0307622" lon="9.6870472"><ele>64.2</ele><time>2026-04-03T15:27:31.103Z</time></trkpt><trkpt lat="45.0307416" lon="9.6869247"><ele>64.4</ele><time>2026-04-03T15:27:32.104Z</time></trkpt><trkpt lat="45.0307214" lon="9.686815"><ele>64.6</ele><time>2026-04-03T15:27:33.11Z</time></trkpt><trkpt lat="45.0306724" lon="9.6865636"><ele>64.8</ele><time>2026-04-03T15:27:36.114Z</time></trkpt><trkpt lat="45.0306536" lon="9.6864616"><ele>65.0</ele><time>2026-04-03T15:27:38.106Z</time></trkpt><trkpt lat="45.0306373" lon="9.6863484"><ele>65.0</ele><time>2026-04-03T15:27:41.108Z</time></trkpt><trkpt lat="45.0306221" lon="9.6862401"><ele>65.0</ele><time>2026-04-03T15:27:51.098Z</time></trkpt><trkpt lat="45.0306133" lon="9.6861404"><ele>65.0</ele><time>2026-04-03T15:27:54.103Z</time></trkpt><trkpt lat="45.0306724" lon="9.6859194"><ele>65.0</ele><time>2026-04-03T15:28:04.106Z</time></trkpt><trkpt lat="45.0306558" lon="9.6857763"><ele>65.0</ele><time>2026-04-03T15:28:06.108Z</time></trkpt><trkpt lat="45.0305644" lon="9.6856923"><ele>65.0</ele><time>2026-04-03T15:28:08.117Z</time></trkpt><trkpt lat="45.0304654" lon="9.6857949"><ele>65.0</ele><time>2026-04-03T15:28:10.115Z</time></trkpt><trkpt lat="45.0304209" lon="9.6858984"><ele>65.0</ele><time>2026-04-03T15:28:11.099Z</time></trkpt><trkpt lat="45.0303639" lon="9.6860093"><ele>65.0</ele><time>2026-04-03T15:28:12.101Z</time></trkpt><trkpt lat="45.0302869" lon="9.6861089"><ele>65.0</ele><time>2026-04-03T15:28:13.115Z</time></trkpt><trkpt lat="45.0301847" lon="9.6861764"><ele>65.0</ele><time>2026-04-03T15:28:14.111Z</time></trkpt><trkpt lat="45.0300794" lon="9.6862147"><ele>65.0</ele><time>2026-04-03T15:28:15.105Z</time></trkpt><trkpt lat="45.0298448" lon="9.6862949"><ele>65.0</ele><time>2026-04-03T15:28:17.106Z</time></trkpt><trkpt lat="45.0297244" lon="9.6863297"><ele>65.25</ele><time>2026-04-03T15:28:18.105Z</time></trkpt><trkpt lat="45.0296034" lon="9.6863724"><ele>65.5</ele><time>2026-04-03T15:28:19.103Z</time></trkpt><trkpt lat="45.0294811" lon="9.6864206"><ele>65.75</ele><time>2026-04-03T15:28:20.1Z</time></trkpt><trkpt lat="45.0293573" lon="9.6864658"><ele>66.0</ele><time>2026-04-03T15:28:21.104Z</time></trkpt><trkpt lat="45.0292365" lon="9.6865103"><ele>66.2</ele><time>2026-04-03T15:28:22.104Z</time></trkpt><trkpt lat="45.0291202" lon="9.6865526"><ele>66.39999999999999</ele><time>2026-04-03T15:28:23.111Z</time></trkpt><trkpt lat="45.0290118" lon="9.6865954"><ele>66.6</ele><time>2026-04-03T15:28:24.1Z</time></trkpt><trkpt lat="45.0289096" lon="9.6866351"><ele>66.8</ele><time>2026-04-03T15:28:25.106Z</time></trkpt><trkpt lat="45.0288166" lon="9.6866706"><ele>67.0</ele><time>2026-04-03T15:28:26.105Z</time></trkpt><trkpt lat="45.0287305" lon="9.6867049"><ele>67.0</ele><time>2026-04-03T15:28:27.105Z</time></trkpt><trkpt lat="45.0286428" lon="9.6867374"><ele>67.0</ele><time>2026-04-03T15:28:28.099Z</time></trkpt><trkpt lat="45.0285482" lon="9.6867771"><ele>67.0</ele><time>2026-04-03T15:28:29.106Z</time></trkpt><trkpt lat="45.0284448" lon="9.6868194"><ele>67.0</ele><time>2026-04-03T15:28:30.103Z</time></trkpt><trkpt lat="45.0283342" lon="9.6868589"><ele>67.0</ele><time>2026-04-03T15:28:31.112Z</time></trkpt><trkpt lat="45.0282165" lon="9.6869071"><ele>67.0</ele><time>2026-04-03T15:28:32.11Z</time></trkpt><trkpt lat="45.0280955" lon="9.6869582"><ele>67.0</ele><time>2026-04-03T15:28:33.106Z</time></trkpt><trkpt lat="45.0279766" lon="9.6870068"><ele>67.0</ele><time>2026-04-03T15:28:34.108Z</time></trkpt><trkpt lat="45.0278611" lon="9.6870538"><ele>67.0</ele><time>2026-04-03T15:28:35.105Z</time></trkpt><trkpt lat="45.027746" lon="9.6870961"><ele>67.0</ele><time>2026-04-03T15:28:36.107Z</time></trkpt><trkpt lat="45.0275193" lon="9.6871859"><ele>67.0</ele><time>2026-04-03T15:28:38.115Z</time></trkpt><trkpt lat="45.0274042" lon="9.6872296"><ele>67.0</ele><time>2026-04-03T15:28:39.11Z</time></trkpt><trkpt lat="45.0272864" lon="9.6872761"><ele>66.25</ele><time>2026-04-03T15:28:40.107Z</time></trkpt><trkpt lat="45.0271651" lon="9.687323"><ele>65.5</ele><time>2026-04-03T15:28:41.105Z</time></trkpt><trkpt lat="45.0270412" lon="9.6873696"><ele>64.75</ele><time>2026-04-03T15:28:42.101Z</time></trkpt><trkpt lat="45.0269165" lon="9.6874158"><ele>64.0</ele><time>2026-04-03T15:28:43.108Z</time></trkpt><trkpt lat="45.0267933" lon="9.6874619"><ele>64.0</ele><time>2026-04-03T15:28:44.103Z</time></trkpt><trkpt lat="45.0266715" lon="9.6875094"><ele>64.0</ele><time>2026-04-03T15:28:45.101Z</time></trkpt><trkpt lat="45.0265467" lon="9.6875566"><ele>64.0</ele><time>2026-04-03T15:28:46.112Z</time></trkpt><trkpt lat="45.02642" lon="9.6876031"><ele>64.0</ele><time>2026-04-03T15:28:47.109Z</time></trkpt><trkpt lat="45.0262953" lon="9.6876508"><ele>64.25</ele><time>2026-04-03T15:28:48.105Z</time></trkpt><trkpt lat="45.0261721" lon="9.6876986"><ele>64.5</ele><time>2026-04-03T15:28:49.101Z</time></trkpt><trkpt lat="45.0260532" lon="9.6877452"><ele>64.75</ele><time>2026-04-03T15:28:50.11Z</time></trkpt><trkpt lat="45.0259434" lon="9.6877886"><ele>65.0</ele><time>2026-04-03T15:28:51.102Z</time></trkpt><trkpt lat="45.025838" lon="9.6878286"><ele>65.0</ele><time>2026-04-03T15:28:52.103Z</time></trkpt><trkpt lat="45.0257297" lon="9.6878696"><ele>65.0</ele><time>2026-04-03T15:28:53.112Z</time></trkpt><trkpt lat="45.0256171" lon="9.6879157"><ele>65.0</ele><time>2026-04-03T15:28:54.109Z</time></trkpt><trkpt lat="45.0255018" lon="9.6879642"><ele>65.0</ele><time>2026-04-03T15:28:55.106Z</time></trkpt><trkpt lat="45.025383" lon="9.6880103"><ele>65.0</ele><time>2026-04-03T15:28:56.112Z</time></trkpt><trkpt lat="45.0252635" lon="9.6880572"><ele>65.0</ele><time>2026-04-03T15:28:57.111Z</time></trkpt><trkpt lat="45.0250282" lon="9.6881541"><ele>65.0</ele><time>2026-04-03T15:28:59.112Z</time></trkpt><trkpt lat="45.0249102" lon="9.6882033"><ele>65.5</ele><time>2026-04-03T15:29:00.109Z</time></trkpt><trkpt lat="45.0247932" lon="9.6882531"><ele>66.0</ele><time>2026-04-03T15:29:01.114Z</time></trkpt><trkpt lat="45.024677" lon="9.6883008"><ele>66.5</ele><time>2026-04-03T15:29:02.113Z</time></trkpt><trkpt lat="45.0245603" lon="9.6883492"><ele>67.0</ele><time>2026-04-03T15:29:03.107Z</time></trkpt><trkpt lat="45.0244454" lon="9.6883934"><ele>67.0</ele><time>2026-04-03T15:29:04.115Z</time></trkpt><trkpt lat="45.0243402" lon="9.6884358"><ele>67.0</ele><time>2026-04-03T15:29:05.109Z</time></trkpt><trkpt lat="45.0242516" lon="9.6884717"><ele>67.0</ele><time>2026-04-03T15:29:06.107Z</time></trkpt><trkpt lat="45.0241844" lon="9.6885006"><ele>67.0</ele><time>2026-04-03T15:29:07.111Z</time></trkpt><trkpt lat="45.0240909" lon="9.6885756"><ele>67.0</ele><time>2026-04-03T15:29:09.107Z</time></trkpt><trkpt lat="45.0240549" lon="9.6886977"><ele>66.66666666666666</ele><time>2026-04-03T15:29:11.105Z</time></trkpt><trkpt lat="45.0240193" lon="9.6887751"><ele>66.33333333333333</ele><time>2026-04-03T15:29:13.117Z</time></trkpt><trkpt lat="45.0239399" lon="9.6887704"><ele>66.0</ele><time>2026-04-03T15:29:16.099Z</time></trkpt><trkpt lat="45.0238749" lon="9.6887726"><ele>65.66666666666667</ele><time>2026-04-03T15:29:18.102Z</time></trkpt><trkpt lat="45.0239828" lon="9.6887961"><ele>65.33333333333334</ele><time>2026-04-03T15:33:11.484Z</time></trkpt><trkpt lat="45.0240494" lon="9.6887666"><ele>65.0</ele><time>2026-04-03T15:33:13.487Z</time></trkpt><trkpt lat="45.0241155" lon="9.6887029"><ele>65.0</ele><time>2026-04-03T15:33:16.494Z</time></trkpt><trkpt lat="45.0241172" lon="9.688611"><ele>65.0</ele><time>2026-04-03T15:33:19.485Z</time></trkpt><trkpt lat="45.0240681" lon="9.688541"><ele>65.0</ele><time>2026-04-03T15:33:23.493Z</time></trkpt><trkpt lat="45.0240021" lon="9.6885464"><ele>65.0</ele><time>2026-04-03T15:33:24.484Z</time></trkpt><trkpt lat="45.023908" lon="9.6885789"><ele>65.0</ele><time>2026-04-03T15:33:25.493Z</time></trkpt><trkpt lat="45.0238022" lon="9.6886272"><ele>65.0</ele><time>2026-04-03T15:33:26.488Z</time></trkpt><trkpt lat="45.0236889" lon="9.6886775"><ele>65.0</ele><time>2026-04-03T15:33:27.501Z</time></trkpt><trkpt lat="45.0235697" lon="9.6887287"><ele>65.0</ele><time>2026-04-03T15:33:28.482Z</time></trkpt><trkpt lat="45.0234512" lon="9.6887805"><ele>65.0</ele><time>2026-04-03T15:33:29.492Z</time></trkpt><trkpt lat="45.0233356" lon="9.6888276"><ele>65.0</ele><time>2026-04-03T15:33:30.489Z</time></trkpt><trkpt lat="45.0232236" lon="9.6888567"><ele>65.0</ele><time>2026-04-03T15:33:31.487Z</time></trkpt><trkpt lat="45.023104" lon="9.6888514"><ele>65.0</ele><time>2026-04-03T15:33:32.493Z</time></trkpt><trkpt lat="45.0229769" lon="9.6888191"><ele>65.0</ele><time>2026-04-03T15:33:33.488Z</time></trkpt><trkpt lat="45.022848" lon="9.6887752"><ele>65.0</ele><time>2026-04-03T15:33:34.487Z</time></trkpt><trkpt lat="45.0227141" lon="9.688724"><ele>65.0</ele><time>2026-04-03T15:33:35.49Z</time></trkpt><trkpt lat="45.0225787" lon="9.6886762"><ele>65.0</ele><time>2026-04-03T15:33:36.498Z</time></trkpt><trkpt lat="45.0224463" lon="9.6886324"><ele>65.0</ele><time>2026-04-03T15:33:37.49Z</time></trkpt><trkpt lat="45.0223214" lon="9.688592"><ele>65.0</ele><time>2026-04-03T15:33:38.488Z</time></trkpt><trkpt lat="45.0222072" lon="9.6885594"><ele>64.8</ele><time>2026-04-03T15:33:39.487Z</time></trkpt><trkpt lat="45.0221032" lon="9.6885404"><ele>64.6</ele><time>2026-04-03T15:33:40.498Z</time></trkpt><trkpt lat="45.022001" lon="9.688529"><ele>64.4</ele><time>2026-04-03T15:33:41.49Z</time></trkpt><trkpt lat="45.0218959" lon="9.6885126"><ele>64.2</ele><time>2026-04-03T15:33:42.482Z</time></trkpt><trkpt lat="45.021788" lon="9.6885075"><ele>64.0</ele><time>2026-04-03T15:33:43.483Z</time></trkpt><trkpt lat="45.0216822" lon="9.6885357"><ele>64.25</ele><time>2026-04-03T15:33:44.498Z</time></trkpt><trkpt lat="45.0215818" lon="9.6886052"><ele>64.5</ele><time>2026-04-03T15:33:45.489Z</time></trkpt><trkpt lat="45.0214876" lon="9.6887112"><ele>64.75</ele><time>2026-04-03T15:33:46.485Z</time></trkpt><trkpt lat="45.0214017" lon="9.6888411"><ele>65.0</ele><time>2026-04-03T15:33:47.5Z</time></trkpt><trkpt lat="45.0213198" lon="9.6889806"><ele>65.0</ele><time>2026-04-03T15:33:48.498Z</time></trkpt><trkpt lat="45.0212311" lon="9.689102"><ele>65.0</ele><time>2026-04-03T15:33:49.488Z</time></trkpt><trkpt lat="45.0211287" lon="9.6891808"><ele>65.0</ele><time>2026-04-03T15:33:50.491Z</time></trkpt><trkpt lat="45.0210149" lon="9.6892066"><ele>65.0</ele><time>2026-04-03T15:33:51.489Z</time></trkpt><trkpt lat="45.0208984" lon="9.6891977"><ele>65.5</ele><time>2026-04-03T15:33:52.503Z</time></trkpt><trkpt lat="45.020786" lon="9.6891747"><ele>66.0</ele><time>2026-04-03T15:33:53.49Z</time></trkpt><trkpt lat="45.0206625" lon="9.6891614"><ele>66.5</ele><time>2026-04-03T15:33:54.495Z</time></trkpt><trkpt lat="45.020536" lon="9.6891495"><ele>67.0</ele><time>2026-04-03T15:33:55.489Z</time></trkpt><trkpt lat="45.0204101" lon="9.6891398"><ele>67.0</ele><time>2026-04-03T15:33:56.491Z</time></trkpt><trkpt lat="45.0202844" lon="9.6891287"><ele>67.0</ele><time>2026-04-03T15:33:57.498Z</time></trkpt><trkpt lat="45.0201576" lon="9.6891151"><ele>67.0</ele><time>2026-04-03T15:33:58.487Z</time></trkpt><trkpt lat="45.0200263" lon="9.6891026"><ele>67.0</ele><time>2026-04-03T15:33:59.489Z</time></trkpt><trkpt lat="45.0198913" lon="9.6890912"><ele>67.5</ele><time>2026-04-03T15:34:00.503Z</time></trkpt><trkpt lat="45.0197713" lon="9.6890444"><ele>68.0</ele><time>2026-04-03T15:34:01.484Z</time></trkpt><trkpt lat="45.0196365" lon="9.6890388"><ele>68.5</ele><time>2026-04-03T15:34:02.508Z</time></trkpt><trkpt lat="45.0195058" lon="9.689033"><ele>69.0</ele><time>2026-04-03T15:34:03.508Z</time></trkpt><trkpt lat="45.0193818" lon="9.6890271"><ele>69.0</ele><time>2026-04-03T15:34:04.486Z</time></trkpt><trkpt lat="45.0192636" lon="9.6890217"><ele>69.0</ele><time>2026-04-03T15:34:05.51Z</time></trkpt><trkpt lat="45.0191447" lon="9.6890162"><ele>69.0</ele><time>2026-04-03T15:34:06.502Z</time></trkpt><trkpt lat="45.0190193" lon="9.6890098"><ele>69.0</ele><time>2026-04-03T15:34:07.515Z</time></trkpt><trkpt lat="45.0188864" lon="9.6890029"><ele>69.0</ele><time>2026-04-03T15:34:08.5Z</time></trkpt><trkpt lat="45.0187446" lon="9.6889946"><ele>69.0</ele><time>2026-04-03T15:34:09.503Z</time></trkpt><trkpt lat="45.0185939" lon="9.6889837"><ele>69.0</ele><time>2026-04-03T15:34:10.49Z</time></trkpt><trkpt lat="45.0184352" lon="9.6889696"><ele>69.0</ele><time>2026-04-03T15:34:11.489Z</time></trkpt><trkpt lat="45.0182741" lon="9.6889555"><ele>69.0</ele><time>2026-04-03T15:34:12.5Z</time></trkpt><trkpt lat="45.0181119" lon="9.6889438"><ele>69.0</ele><time>2026-04-03T15:34:13.489Z</time></trkpt><trkpt lat="45.0179497" lon="9.688933"><ele>69.0</ele><time>2026-04-03T15:34:14.499Z</time></trkpt><trkpt lat="45.0177879" lon="9.6889204"><ele>69.0</ele><time>2026-04-03T15:34:15.488Z</time></trkpt><trkpt lat="45.017625" lon="9.6889073"><ele>69.0</ele><time>2026-04-03T15:34:16.491Z</time></trkpt><trkpt lat="45.0174611" lon="9.6888943"><ele>68.33333333333333</ele><time>2026-04-03T15:34:17.502Z</time></trkpt><trkpt lat="45.0172954" lon="9.6888841"><ele>67.66666666666666</ele><time>2026-04-03T15:34:18.489Z</time></trkpt><trkpt lat="45.01713" lon="9.6888748"><ele>67.0</ele><time>2026-04-03T15:34:19.489Z</time></trkpt><trkpt lat="45.0169645" lon="9.6888651"><ele>67.0</ele><time>2026-04-03T15:34:20.491Z</time></trkpt><trkpt lat="45.0167976" lon="9.6888534"><ele>67.0</ele><time>2026-04-03T15:34:21.489Z</time></trkpt><trkpt lat="45.0166261" lon="9.6888408"><ele>67.0</ele><time>2026-04-03T15:34:22.487Z</time></trkpt><trkpt lat="45.0164539" lon="9.6888293"><ele>66.66666666666666</ele><time>2026-04-03T15:34:23.487Z</time></trkpt><trkpt lat="45.0162824" lon="9.6888184"><ele>66.33333333333333</ele><time>2026-04-03T15:34:24.487Z</time></trkpt><trkpt lat="45.0161096" lon="9.6888074"><ele>66.0</ele><time>2026-04-03T15:34:25.487Z</time></trkpt><trkpt lat="45.0159357" lon="9.6887952"><ele>66.66666666666667</ele><time>2026-04-03T15:34:26.505Z</time></trkpt><trkpt lat="45.01576" lon="9.688784"><ele>67.33333333333334</ele><time>2026-04-03T15:34:27.484Z</time></trkpt><trkpt lat="45.0155801" lon="9.6887717"><ele>68.0</ele><time>2026-04-03T15:34:28.488Z</time></trkpt><trkpt lat="45.0153952" lon="9.688759"><ele>68.0</ele><time>2026-04-03T15:34:29.482Z</time></trkpt><trkpt lat="45.0152078" lon="9.6887472"><ele>68.0</ele><time>2026-04-03T15:34:30.486Z</time></trkpt><trkpt lat="45.0150193" lon="9.6887352"><ele>68.0</ele><time>2026-04-03T15:34:31.488Z</time></trkpt><trkpt lat="45.0148299" lon="9.688722"><ele>68.33333333333334</ele><time>2026-04-03T15:34:32.49Z</time></trkpt><trkpt lat="45.0146383" lon="9.6887081"><ele>68.66666666666667</ele><time>2026-04-03T15:34:33.494Z</time></trkpt><trkpt lat="45.0144441" lon="9.6886954"><ele>69.0</ele><time>2026-04-03T15:34:34.501Z</time></trkpt><trkpt lat="45.0142477" lon="9.6886816"><ele>69.0</ele><time>2026-04-03T15:34:35.49Z</time></trkpt><trkpt lat="45.0140485" lon="9.6886668"><ele>69.0</ele><time>2026-04-03T15:34:36.503Z</time></trkpt><trkpt lat="45.0138487" lon="9.6886531"><ele>69.0</ele><time>2026-04-03T15:34:37.496Z</time></trkpt><trkpt lat="45.0136524" lon="9.688639"><ele>69.0</ele><time>2026-04-03T15:34:38.508Z</time></trkpt><trkpt lat="45.0134602" lon="9.6886217"><ele>69.0</ele><time>2026-04-03T15:34:39.488Z</time></trkpt><trkpt lat="45.013274" lon="9.6885961"><ele>69.0</ele><time>2026-04-03T15:34:40.491Z</time></trkpt><trkpt lat="45.0131017" lon="9.6885597"><ele>69.5</ele><time>2026-04-03T15:34:41.49Z</time></trkpt><trkpt lat="45.0129449" lon="9.6885183"><ele>70.0</ele><time>2026-04-03T15:34:42.498Z</time></trkpt><trkpt lat="45.0127983" lon="9.6884753"><ele>70.5</ele><time>2026-04-03T15:34:43.488Z</time></trkpt><trkpt lat="45.0126616" lon="9.688436"><ele>71.0</ele><time>2026-04-03T15:34:44.505Z</time></trkpt><trkpt lat="45.0125387" lon="9.6884015"><ele>70.8</ele><time>2026-04-03T15:34:45.508Z</time></trkpt><trkpt lat="45.0124291" lon="9.6883738"><ele>70.6</ele><time>2026-04-03T15:34:46.501Z</time></trkpt><trkpt lat="45.0123262" lon="9.688358"><ele>70.4</ele><time>2026-04-03T15:34:47.507Z</time></trkpt><trkpt lat="45.0122295" lon="9.688353"><ele>70.2</ele><time>2026-04-03T15:34:48.507Z</time></trkpt><trkpt lat="45.012145" lon="9.6883781"><ele>70.0</ele><time>2026-04-03T15:34:49.499Z</time></trkpt><trkpt lat="45.0120844" lon="9.6884308"><ele>70.0</ele><time>2026-04-03T15:34:50.489Z</time></trkpt><trkpt lat="45.0120574" lon="9.6885382"><ele>70.0</ele><time>2026-04-03T15:34:51.489Z</time></trkpt><trkpt lat="45.0120597" lon="9.6886571"><ele>70.0</ele><time>2026-04-03T15:34:52.492Z</time></trkpt><trkpt lat="45.0120946" lon="9.6887827"><ele>70.0</ele><time>2026-04-03T15:34:53.49Z</time></trkpt><trkpt lat="45.0121535" lon="9.688908"><ele>70.0</ele><time>2026-04-03T15:34:54.483Z</time></trkpt><trkpt lat="45.0122191" lon="9.6890289"><ele>70.0</ele><time>2026-04-03T15:34:55.488Z</time></trkpt><trkpt lat="45.0122749" lon="9.689146"><ele>70.0</ele><time>2026-04-03T15:34:56.488Z</time></trkpt><trkpt lat="45.0123164" lon="9.6892639"><ele>70.0</ele><time>2026-04-03T15:34:57.483Z</time></trkpt><trkpt lat="45.0123513" lon="9.6893803"><ele>70.0</ele><time>2026-04-03T15:34:58.489Z</time></trkpt><trkpt lat="45.0123787" lon="9.6894986"><ele>70.0</ele><time>2026-04-03T15:34:59.483Z</time></trkpt><trkpt lat="45.0124041" lon="9.6896236"><ele>70.0</ele><time>2026-04-03T15:35:00.486Z</time></trkpt><trkpt lat="45.0124302" lon="9.689757"><ele>70.0</ele><time>2026-04-03T15:35:01.491Z</time></trkpt><trkpt lat="45.0124601" lon="9.6899043"><ele>70.0</ele><time>2026-04-03T15:35:02.489Z</time></trkpt><trkpt lat="45.012492" lon="9.6900592"><ele>70.0</ele><time>2026-04-03T15:35:03.487Z</time></trkpt><trkpt lat="45.0125227" lon="9.6902132"><ele>70.0</ele><time>2026-04-03T15:35:04.486Z</time></trkpt><trkpt lat="45.0125534" lon="9.6903587"><ele>70.0</ele><time>2026-04-03T15:35:05.486Z</time></trkpt><trkpt lat="45.0125806" lon="9.6904985"><ele>70.0</ele><time>2026-04-03T15:35:06.486Z</time></trkpt><trkpt lat="45.0126056" lon="9.6906328"><ele>70.0</ele><time>2026-04-03T15:35:07.491Z</time></trkpt><trkpt lat="45.0126311" lon="9.6907639"><ele>70.0</ele><time>2026-04-03T15:35:08.489Z</time></trkpt><trkpt lat="45.0126561" lon="9.6908942"><ele>70.0</ele><time>2026-04-03T15:35:09.486Z</time></trkpt><trkpt lat="45.0126787" lon="9.6910269"><ele>70.2</ele><time>2026-04-03T15:35:10.482Z</time></trkpt><trkpt lat="45.0127" lon="9.6911631"><ele>70.4</ele><time>2026-04-03T15:35:11.489Z</time></trkpt><trkpt lat="45.0127198" lon="9.6913029"><ele>70.6</ele><time>2026-04-03T15:35:12.474Z</time></trkpt><trkpt lat="45.0127369" lon="9.6914505"><ele>70.8</ele><time>2026-04-03T15:35:13.478Z</time></trkpt><trkpt lat="45.0127543" lon="9.6916066"><ele>71.0</ele><time>2026-04-03T15:35:14.478Z</time></trkpt><trkpt lat="45.0127709" lon="9.6917707"><ele>70.75</ele><time>2026-04-03T15:35:15.483Z</time></trkpt><trkpt lat="45.0127858" lon="9.6919385"><ele>70.5</ele><time>2026-04-03T15:35:16.486Z</time></trkpt><trkpt lat="45.0127973" lon="9.6921049"><ele>70.25</ele><time>2026-04-03T15:35:17.48Z</time></trkpt><trkpt lat="45.0128079" lon="9.692269"><ele>70.0</ele><time>2026-04-03T15:35:18.484Z</time></trkpt><trkpt lat="45.0128201" lon="9.6924292"><ele>70.0</ele><time>2026-04-03T15:35:19.487Z</time></trkpt><trkpt lat="45.0128339" lon="9.6925866"><ele>70.0</ele><time>2026-04-03T15:35:20.482Z</time></trkpt><trkpt lat="45.0128474" lon="9.6927412"><ele>70.0</ele><time>2026-04-03T15:35:21.479Z</time></trkpt><trkpt lat="45.0128606" lon="9.6928937"><ele>70.0</ele><time>2026-04-03T15:35:22.482Z</time></trkpt><trkpt lat="45.0128728" lon="9.6930455"><ele>70.0</ele><time>2026-04-03T15:35:23.484Z</time></trkpt><trkpt lat="45.0128845" lon="9.693198"><ele>70.0</ele><time>2026-04-03T15:35:24.483Z</time></trkpt><trkpt lat="45.0128958" lon="9.6933497"><ele>70.0</ele><time>2026-04-03T15:35:25.481Z</time></trkpt><trkpt lat="45.0129075" lon="9.6935014"><ele>70.0</ele><time>2026-04-03T15:35:26.48Z</time></trkpt><trkpt lat="45.0129175" lon="9.6936543"><ele>70.0</ele><time>2026-04-03T15:35:27.482Z</time></trkpt><trkpt lat="45.0129286" lon="9.6938036"><ele>70.0</ele><time>2026-04-03T15:35:28.486Z</time></trkpt><trkpt lat="45.0129423" lon="9.6939516"><ele>70.0</ele><time>2026-04-03T15:35:29.485Z</time></trkpt><trkpt lat="45.0129594" lon="9.6940936"><ele>70.0</ele><time>2026-04-03T15:35:30.488Z</time></trkpt><trkpt lat="45.0129776" lon="9.6942334"><ele>70.0</ele><time>2026-04-03T15:35:31.488Z</time></trkpt><trkpt lat="45.0129933" lon="9.6943743"><ele>70.0</ele><time>2026-04-03T15:35:32.49Z</time></trkpt><trkpt lat="45.0130068" lon="9.694514"><ele>70.0</ele><time>2026-04-03T15:35:33.487Z</time></trkpt><trkpt lat="45.0130195" lon="9.6946545"><ele>70.0</ele><time>2026-04-03T15:35:34.489Z</time></trkpt><trkpt lat="45.0130324" lon="9.6947996"><ele>70.0</ele><time>2026-04-03T15:35:35.481Z</time></trkpt><trkpt lat="45.0130447" lon="9.6949463"><ele>70.0</ele><time>2026-04-03T15:35:36.479Z</time></trkpt><trkpt lat="45.0130581" lon="9.6950977"><ele>70.0</ele><time>2026-04-03T15:35:37.482Z</time></trkpt><trkpt lat="45.0130711" lon="9.6952535"><ele>70.0</ele><time>2026-04-03T15:35:38.487Z</time></trkpt><trkpt lat="45.0130835" lon="9.695418"><ele>70.0</ele><time>2026-04-03T15:35:39.488Z</time></trkpt><trkpt lat="45.0130981" lon="9.6955888"><ele>70.0</ele><time>2026-04-03T15:35:40.49Z</time></trkpt><trkpt lat="45.0131118" lon="9.6957686"><ele>70.0</ele><time>2026-04-03T15:35:41.488Z</time></trkpt><trkpt lat="45.013123" lon="9.6959526"><ele>70.0</ele><time>2026-04-03T15:35:42.481Z</time></trkpt><trkpt lat="45.0131366" lon="9.6961348"><ele>70.0</ele><time>2026-04-03T15:35:43.496Z</time></trkpt><trkpt lat="45.0131513" lon="9.6963091"><ele>70.0</ele><time>2026-04-03T15:35:44.485Z</time></trkpt><trkpt lat="45.0131626" lon="9.6964729"><ele>70.0</ele><time>2026-04-03T15:35:45.49Z</time></trkpt><trkpt lat="45.0131709" lon="9.6966282"><ele>70.0</ele><time>2026-04-03T15:35:46.487Z</time></trkpt><trkpt lat="45.0131718" lon="9.6967801"><ele>70.25</ele><time>2026-04-03T15:35:47.489Z</time></trkpt><trkpt lat="45.0131624" lon="9.6969352"><ele>70.5</ele><time>2026-04-03T15:35:48.48Z</time></trkpt><trkpt lat="45.0131438" lon="9.6970982"><ele>70.75</ele><time>2026-04-03T15:35:49.483Z</time></trkpt><trkpt lat="45.0131223" lon="9.6972718"><ele>71.0</ele><time>2026-04-03T15:35:50.483Z</time></trkpt><trkpt lat="45.0131035" lon="9.6974585"><ele>71.0</ele><time>2026-04-03T15:35:51.485Z</time></trkpt><trkpt lat="45.0130726" lon="9.697649"><ele>71.0</ele><time>2026-04-03T15:35:52.491Z</time></trkpt><trkpt lat="45.0130372" lon="9.6978432"><ele>71.0</ele><time>2026-04-03T15:35:53.488Z</time></trkpt><trkpt lat="45.0130065" lon="9.6980467"><ele>71.0</ele><time>2026-04-03T15:35:54.479Z</time></trkpt><trkpt lat="45.0129814" lon="9.6982558"><ele>70.0</ele><time>2026-04-03T15:35:55.482Z</time></trkpt><trkpt lat="45.0129585" lon="9.6984692"><ele>69.0</ele><time>2026-04-03T15:35:56.485Z</time></trkpt><trkpt lat="45.012935" lon="9.6986867"><ele>68.0</ele><time>2026-04-03T15:35:57.486Z</time></trkpt><trkpt lat="45.012911" lon="9.6989091"><ele>68.0</ele><time>2026-04-03T15:35:58.482Z</time></trkpt><trkpt lat="45.0128855" lon="9.6991328"><ele>68.0</ele><time>2026-04-03T15:35:59.482Z</time></trkpt><trkpt lat="45.0128586" lon="9.6993575"><ele>68.0</ele><time>2026-04-03T15:36:00.484Z</time></trkpt><trkpt lat="45.0128302" lon="9.6995826"><ele>66.75</ele><time>2026-04-03T15:36:01.484Z</time></trkpt><trkpt lat="45.0128043" lon="9.6998028"><ele>65.5</ele><time>2026-04-03T15:36:02.481Z</time></trkpt><trkpt lat="45.0127833" lon="9.7000139"><ele>64.25</ele><time>2026-04-03T15:36:03.492Z</time></trkpt><trkpt lat="45.0127672" lon="9.700212"><ele>63.0</ele><time>2026-04-03T15:36:04.487Z</time></trkpt><trkpt lat="45.0127521" lon="9.7003974"><ele>63.0</ele><time>2026-04-03T15:36:05.48Z</time></trkpt><trkpt lat="45.0127357" lon="9.7005633"><ele>63.0</ele><time>2026-04-03T15:36:06.487Z</time></trkpt><trkpt lat="45.0127198" lon="9.7006997"><ele>63.0</ele><time>2026-04-03T15:36:07.481Z</time></trkpt><trkpt lat="45.0127079" lon="9.7008003"><ele>63.0</ele><time>2026-04-03T15:36:08.486Z</time></trkpt><trkpt lat="45.0126752" lon="9.7009076"><ele>63.0</ele><time>2026-04-03T15:36:10.488Z</time></trkpt><trkpt lat="45.0125986" lon="9.7009445"><ele>63.0</ele><time>2026-04-03T15:36:13.486Z</time></trkpt><trkpt lat="45.0125117" lon="9.7009355"><ele>63.0</ele><time>2026-04-03T15:36:15.491Z</time></trkpt><trkpt lat="45.0123996" lon="9.700912"><ele>63.0</ele><time>2026-04-03T15:36:17.493Z</time></trkpt><trkpt lat="45.0123327" lon="9.7008999"><ele>63.0</ele><time>2026-04-03T15:36:18.485Z</time></trkpt><trkpt lat="45.0122611" lon="9.7008842"><ele>63.0</ele><time>2026-04-03T15:36:19.487Z</time></trkpt><trkpt lat="45.0121859" lon="9.7008647"><ele>63.0</ele><time>2026-04-03T15:36:20.484Z</time></trkpt><trkpt lat="45.0121106" lon="9.700845"><ele>63.5</ele><time>2026-04-03T15:36:21.481Z</time></trkpt><trkpt lat="45.0120351" lon="9.7008264"><ele>64.0</ele><time>2026-04-03T15:36:22.484Z</time></trkpt><trkpt lat="45.0119568" lon="9.7008079"><ele>64.5</ele><time>2026-04-03T15:36:23.492Z</time></trkpt><trkpt lat="45.0118781" lon="9.7007908"><ele>65.0</ele><time>2026-04-03T15:36:24.489Z</time></trkpt><trkpt lat="45.0118007" lon="9.7007723"><ele>65.5</ele><time>2026-04-03T15:36:25.488Z</time></trkpt><trkpt lat="45.0117231" lon="9.7007536"><ele>66.0</ele><time>2026-04-03T15:36:26.486Z</time></trkpt><trkpt lat="45.0116435" lon="9.7007352"><ele>66.33333333333333</ele><time>2026-04-03T15:36:27.479Z</time></trkpt><trkpt lat="45.0115629" lon="9.7007178"><ele>66.66666666666667</ele><time>2026-04-03T15:36:28.486Z</time></trkpt><trkpt lat="45.0114815" lon="9.7006998"><ele>67.0</ele><time>2026-04-03T15:36:29.482Z</time></trkpt><trkpt lat="45.0114002" lon="9.7006798"><ele>67.33333333333334</ele><time>2026-04-03T15:36:30.485Z</time></trkpt><trkpt lat="45.0113191" lon="9.7006593"><ele>67.66666666666667</ele><time>2026-04-03T15:36:31.492Z</time></trkpt><trkpt lat="45.0112365" lon="9.7006412"><ele>68.0</ele><time>2026-04-03T15:36:32.477Z</time></trkpt><trkpt lat="45.0111536" lon="9.7006235"><ele>68.0</ele><time>2026-04-03T15:36:33.495Z</time></trkpt><trkpt lat="45.0110706" lon="9.7006018"><ele>68.0</ele><time>2026-04-03T15:36:34.491Z</time></trkpt><trkpt lat="45.0109867" lon="9.7005808"><ele>68.0</ele><time>2026-04-03T15:36:35.486Z</time></trkpt><trkpt lat="45.0109011" lon="9.7005627"><ele>68.0</ele><time>2026-04-03T15:36:36.485Z</time></trkpt><trkpt lat="45.0108132" lon="9.7005447"><ele>68.0</ele><time>2026-04-03T15:36:37.489Z</time></trkpt><trkpt lat="45.0107237" lon="9.7005255"><ele>68.0</ele><time>2026-04-03T15:36:38.489Z</time></trkpt><trkpt lat="45.0106321" lon="9.7005042"><ele>67.8</ele><time>2026-04-03T15:36:39.485Z</time></trkpt><trkpt lat="45.0105375" lon="9.7004827"><ele>67.6</ele><time>2026-04-03T15:36:40.485Z</time></trkpt><trkpt lat="45.0104401" lon="9.7004595"><ele>67.4</ele><time>2026-04-03T15:36:41.485Z</time></trkpt><trkpt lat="45.0103401" lon="9.7004333"><ele>67.2</ele><time>2026-04-03T15:36:42.483Z</time></trkpt><trkpt lat="45.0102389" lon="9.7004062"><ele>67.0</ele><time>2026-04-03T15:36:43.488Z</time></trkpt><trkpt lat="45.0101384" lon="9.7003768"><ele>67.0</ele><time>2026-04-03T15:36:44.489Z</time></trkpt><trkpt lat="45.0100376" lon="9.7003498"><ele>67.0</ele><time>2026-04-03T15:36:45.485Z</time></trkpt><trkpt lat="45.0099378" lon="9.7003238"><ele>67.0</ele><time>2026-04-03T15:36:46.487Z</time></trkpt><trkpt lat="45.0098385" lon="9.7002981"><ele>67.0</ele><time>2026-04-03T15:36:47.486Z</time></trkpt><trkpt lat="45.0097409" lon="9.700272"><ele>67.0</ele><time>2026-04-03T15:36:48.484Z</time></trkpt><trkpt lat="45.009644" lon="9.7002448"><ele>67.6</ele><time>2026-04-03T15:36:49.49Z</time></trkpt><trkpt lat="45.0095496" lon="9.7002154"><ele>68.2</ele><time>2026-04-03T15:36:50.484Z</time></trkpt><trkpt lat="45.009457" lon="9.7001854"><ele>68.8</ele><time>2026-04-03T15:36:51.482Z</time></trkpt><trkpt lat="45.0093663" lon="9.7001594"><ele>69.4</ele><time>2026-04-03T15:36:52.483Z</time></trkpt><trkpt lat="45.0092787" lon="9.7001367"><ele>70.0</ele><time>2026-04-03T15:36:53.49Z</time></trkpt><trkpt lat="45.0091968" lon="9.7001217"><ele>69.33333333333333</ele><time>2026-04-03T15:36:54.484Z</time></trkpt><trkpt lat="45.0091211" lon="9.7001201"><ele>68.66666666666666</ele><time>2026-04-03T15:36:55.486Z</time></trkpt><trkpt lat="45.0090506" lon="9.7001343"><ele>68.0</ele><time>2026-04-03T15:36:56.482Z</time></trkpt><trkpt lat="45.0089895" lon="9.7001723"><ele>67.33333333333333</ele><time>2026-04-03T15:36:57.484Z</time></trkpt><trkpt lat="45.008919" lon="9.7003128"><ele>66.66666666666667</ele><time>2026-04-03T15:36:59.482Z</time></trkpt><trkpt lat="45.0089051" lon="9.7004111"><ele>66.0</ele><time>2026-04-03T15:37:00.487Z</time></trkpt><trkpt lat="45.0088969" lon="9.7005132"><ele>65.83333333333333</ele><time>2026-04-03T15:37:01.492Z</time></trkpt><trkpt lat="45.0088902" lon="9.7006247"><ele>65.66666666666667</ele><time>2026-04-03T15:37:02.485Z</time></trkpt><trkpt lat="45.0088796" lon="9.7007445"><ele>65.5</ele><time>2026-04-03T15:37:03.489Z</time></trkpt><trkpt lat="45.008865" lon="9.7008697"><ele>65.33333333333334</ele><time>2026-04-03T15:37:04.492Z</time></trkpt><trkpt lat="45.0088519" lon="9.700994"><ele>65.16666666666667</ele><time>2026-04-03T15:37:05.488Z</time></trkpt><trkpt lat="45.0088396" lon="9.7011092"><ele>65.0</ele><time>2026-04-03T15:37:06.494Z</time></trkpt><trkpt lat="45.0088255" lon="9.7012106"><ele>65.5</ele><time>2026-04-03T15:37:07.487Z</time></trkpt><trkpt lat="45.0088069" lon="9.7012995"><ele>66.0</ele><time>2026-04-03T15:37:08.494Z</time></trkpt><trkpt lat="45.0087262" lon="9.7014204"><ele>66.5</ele><time>2026-04-03T15:37:10.478Z</time></trkpt><trkpt lat="45.0086657" lon="9.7014452"><ele>67.0</ele><time>2026-04-03T15:37:11.48Z</time></trkpt><trkpt lat="45.0085924" lon="9.701449"><ele>67.5</ele><time>2026-04-03T15:37:12.483Z</time></trkpt><trkpt lat="45.0085034" lon="9.7014344"><ele>68.0</ele><time>2026-04-03T15:37:13.491Z</time></trkpt><trkpt lat="45.0083923" lon="9.7014116"><ele>67.5</ele><time>2026-04-03T15:37:14.484Z</time></trkpt><trkpt lat="45.0082658" lon="9.7013915"><ele>67.0</ele><time>2026-04-03T15:37:15.487Z</time></trkpt><trkpt lat="45.0081302" lon="9.7013784"><ele>66.5</ele><time>2026-04-03T15:37:16.484Z</time></trkpt><trkpt lat="45.0079828" lon="9.7013685"><ele>66.0</ele><time>2026-04-03T15:37:17.483Z</time></trkpt><trkpt lat="45.0078327" lon="9.7013595"><ele>66.0</ele><time>2026-04-03T15:37:18.484Z</time></trkpt><trkpt lat="45.0076835" lon="9.7013528"><ele>66.0</ele><time>2026-04-03T15:37:19.484Z</time></trkpt><trkpt lat="45.0075398" lon="9.7013503"><ele>66.0</ele><time>2026-04-03T15:37:20.486Z</time></trkpt><trkpt lat="45.0074025" lon="9.7013506"><ele>66.0</ele><time>2026-04-03T15:37:21.484Z</time></trkpt><trkpt lat="45.0072716" lon="9.7013522"><ele>66.5</ele><time>2026-04-03T15:37:22.486Z</time></trkpt><trkpt lat="45.0071438" lon="9.7013569"><ele>67.0</ele><time>2026-04-03T15:37:23.498Z</time></trkpt><trkpt lat="45.0070196" lon="9.7013649"><ele>67.5</ele><time>2026-04-03T15:37:24.486Z</time></trkpt><trkpt lat="45.0068975" lon="9.7013734"><ele>68.0</ele><time>2026-04-03T15:37:25.488Z</time></trkpt><trkpt lat="45.0067754" lon="9.7013765"><ele>67.75</ele><time>2026-04-03T15:37:26.483Z</time></trkpt><trkpt lat="45.0066559" lon="9.7013754"><ele>67.5</ele><time>2026-04-03T15:37:27.496Z</time></trkpt><trkpt lat="45.0065402" lon="9.7013621"><ele>67.25</ele><time>2026-04-03T15:37:28.489Z</time></trkpt><trkpt lat="45.006427" lon="9.7013427"><ele>67.0</ele><time>2026-04-03T15:37:29.489Z</time></trkpt><trkpt lat="45.0063167" lon="9.7013181"><ele>67.0</ele><time>2026-04-03T15:37:30.479Z</time></trkpt><trkpt lat="45.0062084" lon="9.7012899"><ele>67.0</ele><time>2026-04-03T15:37:31.489Z</time></trkpt><trkpt lat="45.0061029" lon="9.7012572"><ele>67.0</ele><time>2026-04-03T15:37:32.481Z</time></trkpt><trkpt lat="45.0059972" lon="9.7012231"><ele>67.0</ele><time>2026-04-03T15:37:33.492Z</time></trkpt><trkpt lat="45.0058905" lon="9.7011903"><ele>67.0</ele><time>2026-04-03T15:37:34.482Z</time></trkpt><trkpt lat="45.005784" lon="9.7011567"><ele>67.2</ele><time>2026-04-03T15:37:35.488Z</time></trkpt><trkpt lat="45.0056801" lon="9.7011252"><ele>67.4</ele><time>2026-04-03T15:37:36.485Z</time></trkpt><trkpt lat="45.0055831" lon="9.7010969"><ele>67.6</ele><time>2026-04-03T15:37:37.486Z</time></trkpt><trkpt lat="45.0054939" lon="9.701071"><ele>67.8</ele><time>2026-04-03T15:37:38.481Z</time></trkpt><trkpt lat="45.0054094" lon="9.7010472"><ele>68.0</ele><time>2026-04-03T15:37:39.478Z</time></trkpt><trkpt lat="45.0053276" lon="9.7010239"><ele>68.2</ele><time>2026-04-03T15:37:40.477Z</time></trkpt><trkpt lat="45.0052463" lon="9.7010003"><ele>68.4</ele><time>2026-04-03T15:37:41.48Z</time></trkpt><trkpt lat="45.0051604" lon="9.7009766"><ele>68.60000000000001</ele><time>2026-04-03T15:37:42.483Z</time></trkpt><trkpt lat="45.0050715" lon="9.7009509"><ele>68.8</ele><time>2026-04-03T15:37:43.498Z</time></trkpt><trkpt lat="45.0049779" lon="9.7009246"><ele>69.0</ele><time>2026-04-03T15:37:44.493Z</time></trkpt><trkpt lat="45.0048787" lon="9.7008987"><ele>69.0</ele><time>2026-04-03T15:37:45.489Z</time></trkpt><trkpt lat="45.0047743" lon="9.7008678"><ele>69.0</ele><time>2026-04-03T15:37:46.483Z</time></trkpt><trkpt lat="45.0046679" lon="9.7008344"><ele>69.0</ele><time>2026-04-03T15:37:47.485Z</time></trkpt><trkpt lat="45.0045618" lon="9.7008045"><ele>69.0</ele><time>2026-04-03T15:37:48.491Z</time></trkpt><trkpt lat="45.0044605" lon="9.7007776"><ele>69.0</ele><time>2026-04-03T15:37:49.487Z</time></trkpt><trkpt lat="45.0043613" lon="9.7007505"><ele>69.0</ele><time>2026-04-03T15:37:50.484Z</time></trkpt><trkpt lat="45.0042639" lon="9.700726"><ele>69.0</ele><time>2026-04-03T15:37:51.488Z</time></trkpt><trkpt lat="45.0041708" lon="9.7007031"><ele>69.0</ele><time>2026-04-03T15:37:52.487Z</time></trkpt><trkpt lat="45.004081" lon="9.7006746"><ele>69.0</ele><time>2026-04-03T15:37:53.494Z</time></trkpt><trkpt lat="45.0039907" lon="9.7006427"><ele>69.0</ele><time>2026-04-03T15:37:54.489Z</time></trkpt><trkpt lat="45.0038936" lon="9.7006101"><ele>69.0</ele><time>2026-04-03T15:37:55.488Z</time></trkpt><trkpt lat="45.0037853" lon="9.7005753"><ele>69.0</ele><time>2026-04-03T15:37:56.487Z</time></trkpt><trkpt lat="45.0036695" lon="9.7005406"><ele>69.0</ele><time>2026-04-03T15:37:57.484Z</time></trkpt><trkpt lat="45.0035502" lon="9.7005047"><ele>69.0</ele><time>2026-04-03T15:37:58.494Z</time></trkpt><trkpt lat="45.00343" lon="9.7004709"><ele>69.25</ele><time>2026-04-03T15:37:59.489Z</time></trkpt><trkpt lat="45.0033082" lon="9.7004406"><ele>69.5</ele><time>2026-04-03T15:38:00.489Z</time></trkpt><trkpt lat="45.0031892" lon="9.7004077"><ele>69.75</ele><time>2026-04-03T15:38:01.493Z</time></trkpt><trkpt lat="45.0030703" lon="9.700376"><ele>70.0</ele><time>2026-04-03T15:38:02.483Z</time></trkpt><trkpt lat="45.0029508" lon="9.700346"><ele>70.0</ele><time>2026-04-03T15:38:03.488Z</time></trkpt><trkpt lat="45.0028332" lon="9.7003209"><ele>70.0</ele><time>2026-04-03T15:38:04.484Z</time></trkpt><trkpt lat="45.0027168" lon="9.7002996"><ele>70.0</ele><time>2026-04-03T15:38:05.483Z</time></trkpt><trkpt lat="45.0026011" lon="9.7002742"><ele>70.0</ele><time>2026-04-03T15:38:06.491Z</time></trkpt><trkpt lat="45.0024847" lon="9.7002491"><ele>70.25</ele><time>2026-04-03T15:38:07.483Z</time></trkpt><trkpt lat="45.0023691" lon="9.7002264"><ele>70.5</ele><time>2026-04-03T15:38:08.49Z</time></trkpt><trkpt lat="45.0022554" lon="9.7002033"><ele>70.75</ele><time>2026-04-03T15:38:09.484Z</time></trkpt><trkpt lat="45.0021431" lon="9.7001805"><ele>71.0</ele><time>2026-04-03T15:38:10.483Z</time></trkpt><trkpt lat="45.0020321" lon="9.7001597"><ele>71.0</ele><time>2026-04-03T15:38:11.483Z</time></trkpt><trkpt lat="45.0019233" lon="9.7001403"><ele>71.0</ele><time>2026-04-03T15:38:12.484Z</time></trkpt><trkpt lat="45.0018168" lon="9.700114"><ele>71.0</ele><time>2026-04-03T15:38:13.483Z</time></trkpt><trkpt lat="45.001711" lon="9.700087"><ele>71.0</ele><time>2026-04-03T15:38:14.485Z</time></trkpt><trkpt lat="45.0016074" lon="9.7000613"><ele>71.0</ele><time>2026-04-03T15:38:15.485Z</time></trkpt><trkpt lat="45.0015044" lon="9.7000337"><ele>71.2</ele><time>2026-04-03T15:38:16.486Z</time></trkpt><trkpt lat="45.0014019" lon="9.7000004"><ele>71.39999999999999</ele><time>2026-04-03T15:38:17.487Z</time></trkpt><trkpt lat="45.0012976" lon="9.6999654"><ele>71.6</ele><time>2026-04-03T15:38:18.487Z</time></trkpt><trkpt lat="45.0011929" lon="9.6999272"><ele>71.8</ele><time>2026-04-03T15:38:19.483Z</time></trkpt><trkpt lat="45.0010888" lon="9.6998846"><ele>72.0</ele><time>2026-04-03T15:38:20.488Z</time></trkpt><trkpt lat="45.0009851" lon="9.6998383"><ele>72.0</ele><time>2026-04-03T15:38:21.486Z</time></trkpt><trkpt lat="45.0008828" lon="9.6997873"><ele>72.0</ele><time>2026-04-03T15:38:22.485Z</time></trkpt><trkpt lat="45.0007826" lon="9.6997333"><ele>72.0</ele><time>2026-04-03T15:38:23.492Z</time></trkpt><trkpt lat="45.000683" lon="9.6996789"><ele>72.0</ele><time>2026-04-03T15:38:24.487Z</time></trkpt><trkpt lat="45.000584" lon="9.6996224"><ele>72.0</ele><time>2026-04-03T15:38:25.485Z</time></trkpt><trkpt lat="45.0004848" lon="9.699568"><ele>72.0</ele><time>2026-04-03T15:38:26.479Z</time></trkpt><trkpt lat="45.0003853" lon="9.6995246"><ele>72.0</ele><time>2026-04-03T15:38:27.486Z</time></trkpt><trkpt lat="45.0002889" lon="9.6994957"><ele>72.0</ele><time>2026-04-03T15:38:28.486Z</time></trkpt><trkpt lat="45.0002002" lon="9.6994785"><ele>72.0</ele><time>2026-04-03T15:38:29.489Z</time></trkpt><trkpt lat="45.0001214" lon="9.6994734"><ele>72.0</ele><time>2026-04-03T15:38:30.489Z</time></trkpt><trkpt lat="45.0000504" lon="9.6994727"><ele>72.0</ele><time>2026-04-03T15:38:31.484Z</time></trkpt><trkpt lat="44.9999809" lon="9.6994675"><ele>72.0</ele><time>2026-04-03T15:38:32.491Z</time></trkpt><trkpt lat="44.9999056" lon="9.6994506"><ele>72.0</ele><time>2026-04-03T15:38:33.492Z</time></trkpt><trkpt lat="44.9998281" lon="9.6994109"><ele>72.0</ele><time>2026-04-03T15:38:34.496Z</time></trkpt><trkpt lat="44.9997323" lon="9.6993654"><ele>72.0</ele><time>2026-04-03T15:38:35.495Z</time></trkpt><trkpt lat="44.9996287" lon="9.6993155"><ele>72.0</ele><time>2026-04-03T15:38:36.493Z</time></trkpt><trkpt lat="44.9995265" lon="9.6992641"><ele>72.4</ele><time>2026-04-03T15:38:37.487Z</time></trkpt><trkpt lat="44.9994228" lon="9.6992141"><ele>72.80000000000001</ele><time>2026-04-03T15:38:38.488Z</time></trkpt><trkpt lat="44.9993192" lon="9.6991609"><ele>73.2</ele><time>2026-04-03T15:38:39.49Z</time></trkpt><trkpt lat="44.9992154" lon="9.6991103"><ele>73.60000000000001</ele><time>2026-04-03T15:38:40.49Z</time></trkpt><trkpt lat="44.9991097" lon="9.6990591"><ele>74.0</ele><time>2026-04-03T15:38:41.48Z</time></trkpt><trkpt lat="44.9990012" lon="9.6990078"><ele>74.5</ele><time>2026-04-03T15:38:42.484Z</time></trkpt><trkpt lat="44.9988911" lon="9.6989559"><ele>75.0</ele><time>2026-04-03T15:38:43.489Z</time></trkpt><trkpt lat="44.9987821" lon="9.6989043"><ele>75.5</ele><time>2026-04-03T15:38:44.49Z</time></trkpt><trkpt lat="44.9986719" lon="9.6988536"><ele>76.0</ele><time>2026-04-03T15:38:45.486Z</time></trkpt><trkpt lat="44.9985601" lon="9.6988023"><ele>76.0</ele><time>2026-04-03T15:38:46.486Z</time></trkpt><trkpt lat="44.9984489" lon="9.6987493"><ele>76.0</ele><time>2026-04-03T15:38:47.48Z</time></trkpt><trkpt lat="44.9983378" lon="9.6986941"><ele>76.0</ele><time>2026-04-03T15:38:48.49Z</time></trkpt><trkpt lat="44.9982264" lon="9.6986384"><ele>76.0</ele><time>2026-04-03T15:38:49.486Z</time></trkpt><trkpt lat="44.9981152" lon="9.6985846"><ele>75.25</ele><time>2026-04-03T15:38:50.491Z</time></trkpt><trkpt lat="44.9980039" lon="9.6985353"><ele>74.5</ele><time>2026-04-03T15:38:51.484Z</time></trkpt><trkpt lat="44.9978907" lon="9.6984925"><ele>73.75</ele><time>2026-04-03T15:38:52.487Z</time></trkpt><trkpt lat="44.9977766" lon="9.6984569"><ele>73.0</ele><time>2026-04-03T15:38:53.499Z</time></trkpt><trkpt lat="44.9976602" lon="9.6984235"><ele>73.0</ele><time>2026-04-03T15:38:54.49Z</time></trkpt><trkpt lat="44.9975441" lon="9.6983937"><ele>73.0</ele><time>2026-04-03T15:38:55.486Z</time></trkpt><trkpt lat="44.9974303" lon="9.6983667"><ele>73.0</ele><time>2026-04-03T15:38:56.491Z</time></trkpt><trkpt lat="44.9973172" lon="9.6983445"><ele>73.0</ele><time>2026-04-03T15:38:57.491Z</time></trkpt><trkpt lat="44.9972038" lon="9.6983279"><ele>73.2</ele><time>2026-04-03T15:38:58.491Z</time></trkpt><trkpt lat="44.9970902" lon="9.6983134"><ele>73.4</ele><time>2026-04-03T15:38:59.487Z</time></trkpt><trkpt lat="44.9969767" lon="9.6983"><ele>73.60000000000001</ele><time>2026-04-03T15:39:00.49Z</time></trkpt><trkpt lat="44.9968655" lon="9.6982797"><ele>73.8</ele><time>2026-04-03T15:39:01.497Z</time></trkpt><trkpt lat="44.9967582" lon="9.6982502"><ele>74.0</ele><time>2026-04-03T15:39:02.485Z</time></trkpt><trkpt lat="44.9966553" lon="9.6982146"><ele>74.4</ele><time>2026-04-03T15:39:03.496Z</time></trkpt><trkpt lat="44.9965551" lon="9.6981782"><ele>74.80000000000001</ele><time>2026-04-03T15:39:04.486Z</time></trkpt><trkpt lat="44.9964582" lon="9.6981463"><ele>75.19999999999999</ele><time>2026-04-03T15:39:05.488Z</time></trkpt><trkpt lat="44.9963648" lon="9.6981195"><ele>75.6</ele><time>2026-04-03T15:39:06.497Z</time></trkpt><trkpt lat="44.9962773" lon="9.6980943"><ele>76.0</ele><time>2026-04-03T15:39:07.494Z</time></trkpt><trkpt lat="44.9962011" lon="9.6980727"><ele>76.0</ele><time>2026-04-03T15:39:08.494Z</time></trkpt><trkpt lat="44.9961056" lon="9.698057"><ele>76.0</ele><time>2026-04-03T15:39:10.487Z</time></trkpt><trkpt lat="44.996023" lon="9.6980461"><ele>76.0</ele><time>2026-04-03T15:39:12.487Z</time></trkpt><trkpt lat="44.9959272" lon="9.6980404"><ele>76.0</ele><time>2026-04-03T15:39:14.489Z</time></trkpt><trkpt lat="44.9958261" lon="9.698029"><ele>76.0</ele><time>2026-04-03T15:39:16.49Z</time></trkpt><trkpt lat="44.9957115" lon="9.6980141"><ele>76.39999999999999</ele><time>2026-04-03T15:39:18.49Z</time></trkpt><trkpt lat="44.9955879" lon="9.6979978"><ele>76.8</ele><time>2026-04-03T15:39:20.493Z</time></trkpt><trkpt lat="44.9955226" lon="9.6979886"><ele>77.19999999999999</ele><time>2026-04-03T15:39:21.494Z</time></trkpt><trkpt lat="44.9954006" lon="9.6979746"><ele>77.6</ele><time>2026-04-03T15:39:23.499Z</time></trkpt><trkpt lat="44.9952773" lon="9.6979546"><ele>78.0</ele><time>2026-04-03T15:39:25.49Z</time></trkpt><trkpt lat="44.9952145" lon="9.6979433"><ele>78.0</ele><time>2026-04-03T15:39:26.492Z</time></trkpt><trkpt lat="44.9951507" lon="9.6979344"><ele>78.0</ele><time>2026-04-03T15:39:27.491Z</time></trkpt><trkpt lat="44.9950841" lon="9.6979229"><ele>78.0</ele><time>2026-04-03T15:39:28.482Z</time></trkpt><trkpt lat="44.9950157" lon="9.6979108"><ele>78.0</ele><time>2026-04-03T15:39:29.49Z</time></trkpt><trkpt lat="44.9949445" lon="9.6978983"><ele>78.0</ele><time>2026-04-03T15:39:30.49Z</time></trkpt><trkpt lat="44.9948707" lon="9.6978882"><ele>78.0</ele><time>2026-04-03T15:39:31.487Z</time></trkpt><trkpt lat="44.9947994" lon="9.6978775"><ele>78.0</ele><time>2026-04-03T15:39:32.492Z</time></trkpt><trkpt lat="44.994729" lon="9.6978585"><ele>78.28571428571429</ele><time>2026-04-03T15:39:33.494Z</time></trkpt><trkpt lat="44.9946587" lon="9.697838"><ele>78.57142857142857</ele><time>2026-04-03T15:39:34.488Z</time></trkpt><trkpt lat="44.9945874" lon="9.6978238"><ele>78.85714285714286</ele><time>2026-04-03T15:39:35.487Z</time></trkpt><trkpt lat="44.994514" lon="9.6978132"><ele>79.14285714285714</ele><time>2026-04-03T15:39:36.491Z</time></trkpt><trkpt lat="44.9944395" lon="9.6978047"><ele>79.42857142857143</ele><time>2026-04-03T15:39:37.486Z</time></trkpt><trkpt lat="44.9943648" lon="9.697796"><ele>79.71428571428571</ele><time>2026-04-03T15:39:38.493Z</time></trkpt><trkpt lat="44.9942871" lon="9.6977877"><ele>80.0</ele><time>2026-04-03T15:39:39.483Z</time></trkpt><trkpt lat="44.9942083" lon="9.6977778"><ele>79.83333333333334</ele><time>2026-04-03T15:39:40.485Z</time></trkpt><trkpt lat="44.9941281" lon="9.6977669"><ele>79.66666666666667</ele><time>2026-04-03T15:39:41.484Z</time></trkpt><trkpt lat="44.9940456" lon="9.6977526"><ele>79.5</ele><time>2026-04-03T15:39:42.485Z</time></trkpt><trkpt lat="44.9939633" lon="9.6977375"><ele>79.33333333333333</ele><time>2026-04-03T15:39:43.493Z</time></trkpt><trkpt lat="44.9938813" lon="9.6977225"><ele>79.16666666666666</ele><time>2026-04-03T15:39:44.485Z</time></trkpt><trkpt lat="44.9937985" lon="9.6977058"><ele>79.0</ele><time>2026-04-03T15:39:45.486Z</time></trkpt><trkpt lat="44.9937169" lon="9.6976911"><ele>79.0</ele><time>2026-04-03T15:39:46.484Z</time></trkpt><trkpt lat="44.993636" lon="9.6976777"><ele>79.0</ele><time>2026-04-03T15:39:47.486Z</time></trkpt><trkpt lat="44.993558" lon="9.6976627"><ele>79.0</ele><time>2026-04-03T15:39:48.484Z</time></trkpt><trkpt lat="44.9934826" lon="9.6976473"><ele>79.0</ele><time>2026-04-03T15:39:49.482Z</time></trkpt><trkpt lat="44.9934102" lon="9.6976357"><ele>79.0</ele><time>2026-04-03T15:39:50.483Z</time></trkpt><trkpt lat="44.9933384" lon="9.697625"><ele>79.0</ele><time>2026-04-03T15:39:51.484Z</time></trkpt><trkpt lat="44.9932643" lon="9.6976132"><ele>78.85714285714286</ele><time>2026-04-03T15:39:52.484Z</time></trkpt><trkpt lat="44.9931899" lon="9.6976017"><ele>78.71428571428572</ele><time>2026-04-03T15:39:53.487Z</time></trkpt><trkpt lat="44.9931159" lon="9.69759"><ele>78.57142857142858</ele><time>2026-04-03T15:39:54.489Z</time></trkpt><trkpt lat="44.9930429" lon="9.6975766"><ele>78.42857142857143</ele><time>2026-04-03T15:39:55.487Z</time></trkpt><trkpt lat="44.9929712" lon="9.6975633"><ele>78.28571428571428</ele><time>2026-04-03T15:39:56.49Z</time></trkpt><trkpt lat="44.9929026" lon="9.6975466"><ele>78.14285714285715</ele><time>2026-04-03T15:39:57.492Z</time></trkpt><trkpt lat="44.9928382" lon="9.6975168"><ele>78.0</ele><time>2026-04-03T15:39:58.497Z</time></trkpt><trkpt lat="44.9927828" lon="9.6974677"><ele>78.0</ele><time>2026-04-03T15:39:59.488Z</time></trkpt><trkpt lat="44.9927414" lon="9.697395"><ele>78.0</ele><time>2026-04-03T15:40:00.483Z</time></trkpt><trkpt lat="44.9927094" lon="9.6973141"><ele>78.0</ele><time>2026-04-03T15:40:01.484Z</time></trkpt><trkpt lat="44.9926384" lon="9.6972121"><ele>78.0</ele><time>2026-04-03T15:40:03.488Z</time></trkpt><trkpt lat="44.9925837" lon="9.697269"><ele>78.0</ele><time>2026-04-03T15:40:06.492Z</time></trkpt><trkpt lat="44.9925889" lon="9.6973588"><ele>78.0</ele><time>2026-04-03T15:40:08.483Z</time></trkpt><trkpt lat="44.9926104" lon="9.6974763"><ele>78.0</ele><time>2026-04-03T15:40:11.486Z</time></trkpt><trkpt lat="44.9926089" lon="9.6976208"><ele>78.0</ele><time>2026-04-03T15:40:14.484Z</time></trkpt><trkpt lat="44.9926015" lon="9.6977435"><ele>78.0</ele><time>2026-04-03T15:40:16.487Z</time></trkpt><trkpt lat="44.9925946" lon="9.6978677"><ele>78.0</ele><time>2026-04-03T15:40:18.492Z</time></trkpt><trkpt lat="44.9925911" lon="9.6979899"><ele>78.0</ele><time>2026-04-03T15:40:20.489Z</time></trkpt><trkpt lat="44.992594" lon="9.6981109"><ele>78.0</ele><time>2026-04-03T15:40:22.491Z</time></trkpt><trkpt lat="44.992598" lon="9.6982337"><ele>78.0</ele><time>2026-04-03T15:40:24.491Z</time></trkpt><trkpt lat="44.9926005" lon="9.6983566"><ele>78.0</ele><time>2026-04-03T15:40:26.492Z</time></trkpt><trkpt lat="44.9926148" lon="9.6984804"><ele>78.0</ele><time>2026-04-03T15:40:28.484Z</time></trkpt><trkpt lat="44.992621" lon="9.6986157"><ele>78.0</ele><time>2026-04-03T15:40:30.489Z</time></trkpt><trkpt lat="44.9926094" lon="9.6987616"><ele>78.0</ele><time>2026-04-03T15:40:32.486Z</time></trkpt><trkpt lat="44.9925893" lon="9.6989054"><ele>78.0</ele><time>2026-04-03T15:40:34.492Z</time></trkpt><trkpt lat="44.9925787" lon="9.6990581"><ele>78.0</ele><time>2026-04-03T15:40:36.485Z</time></trkpt><trkpt lat="44.992577" lon="9.6992345"><ele>78.0</ele><time>2026-04-03T15:40:38.482Z</time></trkpt><trkpt lat="44.9925785" lon="9.6993344"><ele>78.0</ele><time>2026-04-03T15:40:39.483Z</time></trkpt><trkpt lat="44.9925769" lon="9.6994385"><ele>78.0</ele><time>2026-04-03T15:40:40.488Z</time></trkpt><trkpt lat="44.9925732" lon="9.6995425"><ele>77.66666666666667</ele><time>2026-04-03T15:40:41.48Z</time></trkpt><trkpt lat="44.992568" lon="9.6996512"><ele>77.33333333333333</ele><time>2026-04-03T15:40:42.486Z</time></trkpt><trkpt lat="44.9925647" lon="9.6997655"><ele>77.0</ele><time>2026-04-03T15:40:43.486Z</time></trkpt><trkpt lat="44.9925598" lon="9.6998859"><ele>76.66666666666666</ele><time>2026-04-03T15:40:44.485Z</time></trkpt><trkpt lat="44.9925542" lon="9.6999974"><ele>76.33333333333333</ele><time>2026-04-03T15:40:45.49Z</time></trkpt><trkpt lat="44.9925497" lon="9.7001092"><ele>76.0</ele><time>2026-04-03T15:40:46.489Z</time></trkpt><trkpt lat="44.9925455" lon="9.700221"><ele>75.83333333333333</ele><time>2026-04-03T15:40:47.487Z</time></trkpt><trkpt lat="44.9925427" lon="9.7003325"><ele>75.66666666666666</ele><time>2026-04-03T15:40:48.485Z</time></trkpt><trkpt lat="44.9925383" lon="9.7004465"><ele>75.5</ele><time>2026-04-03T15:40:49.485Z</time></trkpt><trkpt lat="44.9925345" lon="9.7005569"><ele>75.33333333333333</ele><time>2026-04-03T15:40:50.483Z</time></trkpt><trkpt lat="44.9925312" lon="9.7006662"><ele>75.16666666666667</ele><time>2026-04-03T15:40:51.486Z</time></trkpt><trkpt lat="44.9925276" lon="9.7007714"><ele>75.0</ele><time>2026-04-03T15:40:52.49Z</time></trkpt><trkpt lat="44.9925224" lon="9.7008734"><ele>75.0</ele><time>2026-04-03T15:40:53.488Z</time></trkpt><trkpt lat="44.992519" lon="9.7009708"><ele>75.0</ele><time>2026-04-03T15:40:54.485Z</time></trkpt><trkpt lat="44.9925171" lon="9.7010619"><ele>75.0</ele><time>2026-04-03T15:40:55.484Z</time></trkpt><trkpt lat="44.9925131" lon="9.7012179"><ele>75.0</ele><time>2026-04-03T15:40:57.486Z</time></trkpt><trkpt lat="44.9925093" lon="9.7013365"><ele>75.0</ele><time>2026-04-03T15:40:59.482Z</time></trkpt><trkpt lat="44.9925073" lon="9.7014275"><ele>75.0</ele><time>2026-04-03T15:41:01.491Z</time></trkpt><trkpt lat="44.9925071" lon="9.7015475"><ele>75.5</ele><time>2026-04-03T15:41:03.483Z</time></trkpt><trkpt lat="44.9925052" lon="9.7017248"><ele>76.0</ele><time>2026-04-03T15:41:05.484Z</time></trkpt><trkpt lat="44.9925019" lon="9.7018143"><ele>76.5</ele><time>2026-04-03T15:41:06.484Z</time></trkpt><trkpt lat="44.9924989" lon="9.7019061"><ele>77.0</ele><time>2026-04-03T15:41:07.489Z</time></trkpt><trkpt lat="44.9924971" lon="9.7019995"><ele>77.5</ele><time>2026-04-03T15:41:08.487Z</time></trkpt><trkpt lat="44.9924974" lon="9.7020891"><ele>78.0</ele><time>2026-04-03T15:41:09.485Z</time></trkpt><trkpt lat="44.9924901" lon="9.7022518"><ele>78.0</ele><time>2026-04-03T15:41:11.486Z</time></trkpt><trkpt lat="44.9924527" lon="9.7023465"><ele>78.0</ele><time>2026-04-03T15:41:13.488Z</time></trkpt><trkpt lat="44.9923648" lon="9.7023661"><ele>78.0</ele><time>2026-04-03T15:41:15.488Z</time></trkpt><trkpt lat="44.9923006" lon="9.7023579"><ele>78.0</ele><time>2026-04-03T15:41:16.491Z</time></trkpt><trkpt lat="44.9922225" lon="9.7023504"><ele>78.0</ele><time>2026-04-03T15:41:17.493Z</time></trkpt><trkpt lat="44.9921305" lon="9.7023432"><ele>78.0</ele><time>2026-04-03T15:41:18.486Z</time></trkpt><trkpt lat="44.9920294" lon="9.7023401"><ele>78.0</ele><time>2026-04-03T15:41:19.494Z</time></trkpt><trkpt lat="44.9919256" lon="9.7023397"><ele>78.0</ele><time>2026-04-03T15:41:20.49Z</time></trkpt><trkpt lat="44.9918246" lon="9.7023361"><ele>78.0</ele><time>2026-04-03T15:41:21.488Z</time></trkpt><trkpt lat="44.991724" lon="9.7023269"><ele>78.0</ele><time>2026-04-03T15:41:22.492Z</time></trkpt><trkpt lat="44.9916242" lon="9.702315"><ele>78.0</ele><time>2026-04-03T15:41:23.488Z</time></trkpt><trkpt lat="44.9915282" lon="9.7023098"><ele>78.0</ele><time>2026-04-03T15:41:24.487Z</time></trkpt><trkpt lat="44.991435" lon="9.7023061"><ele>78.0</ele><time>2026-04-03T15:41:25.496Z</time></trkpt><trkpt lat="44.9913467" lon="9.7023009"><ele>78.0</ele><time>2026-04-03T15:41:26.49Z</time></trkpt><trkpt lat="44.9912631" lon="9.7022931"><ele>78.0</ele><time>2026-04-03T15:41:27.49Z</time></trkpt><trkpt lat="44.9911796" lon="9.7022839"><ele>78.0</ele><time>2026-04-03T15:41:28.485Z</time></trkpt><trkpt lat="44.9910923" lon="9.7022704"><ele>78.0</ele><time>2026-04-03T15:41:29.485Z</time></trkpt><trkpt lat="44.9910011" lon="9.7022564"><ele>78.0</ele><time>2026-04-03T15:41:30.491Z</time></trkpt><trkpt lat="44.9908979" lon="9.7022474"><ele>78.0</ele><time>2026-04-03T15:41:31.492Z</time></trkpt><trkpt lat="44.9907778" lon="9.7022426"><ele>78.0</ele><time>2026-04-03T15:41:32.489Z</time></trkpt><trkpt lat="44.9906402" lon="9.7022458"><ele>78.0</ele><time>2026-04-03T15:41:33.492Z</time></trkpt><trkpt lat="44.9904926" lon="9.7022398"><ele>79.0</ele><time>2026-04-03T15:41:34.49Z</time></trkpt><trkpt lat="44.9903363" lon="9.7022343"><ele>80.0</ele><time>2026-04-03T15:41:35.491Z</time></trkpt><trkpt lat="44.9901807" lon="9.702225"><ele>81.0</ele><time>2026-04-03T15:41:36.494Z</time></trkpt><trkpt lat="44.9900244" lon="9.7022135"><ele>80.66666666666667</ele><time>2026-04-03T15:41:37.491Z</time></trkpt><trkpt lat="44.9898695" lon="9.7022005"><ele>80.33333333333334</ele><time>2026-04-03T15:41:38.488Z</time></trkpt><trkpt lat="44.989716" lon="9.7021878"><ele>80.0</ele><time>2026-04-03T15:41:39.487Z</time></trkpt><trkpt lat="44.9895639" lon="9.7021752"><ele>80.0</ele><time>2026-04-03T15:41:40.487Z</time></trkpt><trkpt lat="44.9894107" lon="9.7021676"><ele>80.0</ele><time>2026-04-03T15:41:41.489Z</time></trkpt><trkpt lat="44.9892536" lon="9.7021556"><ele>80.0</ele><time>2026-04-03T15:41:42.492Z</time></trkpt><trkpt lat="44.9890895" lon="9.7021454"><ele>80.66666666666667</ele><time>2026-04-03T15:41:43.492Z</time></trkpt><trkpt lat="44.988919" lon="9.7021341"><ele>81.33333333333333</ele><time>2026-04-03T15:41:44.491Z</time></trkpt><trkpt lat="44.9887431" lon="9.702124"><ele>82.0</ele><time>2026-04-03T15:41:45.487Z</time></trkpt><trkpt lat="44.9885622" lon="9.7021136"><ele>82.0</ele><time>2026-04-03T15:41:46.493Z</time></trkpt><trkpt lat="44.9883791" lon="9.7021019"><ele>82.0</ele><time>2026-04-03T15:41:47.49Z</time></trkpt><trkpt lat="44.9881941" lon="9.7020907"><ele>82.0</ele><time>2026-04-03T15:41:48.484Z</time></trkpt><trkpt lat="44.988012" lon="9.7020799"><ele>82.33333333333333</ele><time>2026-04-03T15:41:49.489Z</time></trkpt><trkpt lat="44.9878311" lon="9.7020673"><ele>82.66666666666667</ele><time>2026-04-03T15:41:50.486Z</time></trkpt><trkpt lat="44.9876527" lon="9.7020552"><ele>83.0</ele><time>2026-04-03T15:41:51.487Z</time></trkpt><trkpt lat="44.9874764" lon="9.702045"><ele>83.66666666666667</ele><time>2026-04-03T15:41:52.487Z</time></trkpt><trkpt lat="44.9873077" lon="9.7020351"><ele>84.33333333333333</ele><time>2026-04-03T15:41:53.498Z</time></trkpt><trkpt lat="44.9871528" lon="9.7020262"><ele>85.0</ele><time>2026-04-03T15:41:54.492Z</time></trkpt><trkpt lat="44.9870146" lon="9.7020132"><ele>85.0</ele><time>2026-04-03T15:41:55.489Z</time></trkpt><trkpt lat="44.9868981" lon="9.7020001"><ele>85.0</ele><time>2026-04-03T15:41:56.49Z</time></trkpt><trkpt lat="44.9868084" lon="9.7019928"><ele>85.0</ele><time>2026-04-03T15:41:57.487Z</time></trkpt><trkpt lat="44.9867143" lon="9.7019807"><ele>85.0</ele><time>2026-04-03T15:41:59.482Z</time></trkpt><trkpt lat="44.9866681" lon="9.7020581"><ele>85.0</ele><time>2026-04-03T15:42:02.485Z</time></trkpt><trkpt lat="44.9866708" lon="9.7022238"><ele>84.6</ele><time>2026-04-03T15:42:04.491Z</time></trkpt><trkpt lat="44.9866665" lon="9.7023427"><ele>84.2</ele><time>2026-04-03T15:42:05.484Z</time></trkpt><trkpt lat="44.9866579" lon="9.7024823"><ele>83.80000000000001</ele><time>2026-04-03T15:42:06.489Z</time></trkpt><trkpt lat="44.986645" lon="9.7026348"><ele>83.4</ele><time>2026-04-03T15:42:07.48Z</time></trkpt><trkpt lat="44.986632" lon="9.7027942"><ele>83.0</ele><time>2026-04-03T15:42:08.484Z</time></trkpt><trkpt lat="44.9866188" lon="9.7029614"><ele>83.0</ele><time>2026-04-03T15:42:09.484Z</time></trkpt><trkpt lat="44.9866065" lon="9.7031258"><ele>83.0</ele><time>2026-04-03T15:42:10.483Z</time></trkpt><trkpt lat="44.9865957" lon="9.7032901"><ele>83.0</ele><time>2026-04-03T15:42:11.488Z</time></trkpt><trkpt lat="44.9865847" lon="9.7034494"><ele>83.0</ele><time>2026-04-03T15:42:12.487Z</time></trkpt><trkpt lat="44.9865727" lon="9.703596"><ele>83.0</ele><time>2026-04-03T15:42:13.486Z</time></trkpt><trkpt lat="44.9865615" lon="9.7037379"><ele>83.0</ele><time>2026-04-03T15:42:14.488Z</time></trkpt><trkpt lat="44.986554" lon="9.7038732"><ele>83.0</ele><time>2026-04-03T15:42:15.493Z</time></trkpt><trkpt lat="44.9865451" lon="9.7040135"><ele>83.0</ele><time>2026-04-03T15:42:16.488Z</time></trkpt><trkpt lat="44.9865354" lon="9.7041511"><ele>83.0</ele><time>2026-04-03T15:42:17.485Z</time></trkpt><trkpt lat="44.9865283" lon="9.7042891"><ele>83.0</ele><time>2026-04-03T15:42:18.488Z</time></trkpt><trkpt lat="44.9865188" lon="9.7044305"><ele>83.0</ele><time>2026-04-03T15:42:19.491Z</time></trkpt><trkpt lat="44.9865085" lon="9.7045717"><ele>83.0</ele><time>2026-04-03T15:42:20.492Z</time></trkpt><trkpt lat="44.9864999" lon="9.7047133"><ele>83.0</ele><time>2026-04-03T15:42:21.493Z</time></trkpt><trkpt lat="44.9864933" lon="9.7048516"><ele>83.0</ele><time>2026-04-03T15:42:22.496Z</time></trkpt><trkpt lat="44.9864858" lon="9.7049862"><ele>83.0</ele><time>2026-04-03T15:42:23.494Z</time></trkpt><trkpt lat="44.986478" lon="9.7051151"><ele>83.0</ele><time>2026-04-03T15:42:24.49Z</time></trkpt><trkpt lat="44.9864713" lon="9.7052487"><ele>83.0</ele><time>2026-04-03T15:42:25.489Z</time></trkpt><trkpt lat="44.9864677" lon="9.7053825"><ele>83.0</ele><time>2026-04-03T15:42:26.488Z</time></trkpt><trkpt lat="44.9864615" lon="9.7055163"><ele>83.0</ele><time>2026-04-03T15:42:27.489Z</time></trkpt><trkpt lat="44.9864557" lon="9.7056515"><ele>83.0</ele><time>2026-04-03T15:42:28.487Z</time></trkpt><trkpt lat="44.9864492" lon="9.7057914"><ele>83.0</ele><time>2026-04-03T15:42:29.486Z</time></trkpt><trkpt lat="44.9864427" lon="9.7059331"><ele>83.0</ele><time>2026-04-03T15:42:30.49Z</time></trkpt><trkpt lat="44.9864369" lon="9.7060733"><ele>83.0</ele><time>2026-04-03T15:42:31.483Z</time></trkpt><trkpt lat="44.9864302" lon="9.7062178"><ele>83.0</ele><time>2026-04-03T15:42:32.492Z</time></trkpt><trkpt lat="44.9864213" lon="9.7063602"><ele>83.0</ele><time>2026-04-03T15:42:33.49Z</time></trkpt><trkpt lat="44.9864119" lon="9.7065043"><ele>83.0</ele><time>2026-04-03T15:42:34.486Z</time></trkpt><trkpt lat="44.9864024" lon="9.70665"><ele>83.0</ele><time>2026-04-03T15:42:35.489Z</time></trkpt><trkpt lat="44.9863951" lon="9.7067961"><ele>83.0</ele><time>2026-04-03T15:42:36.484Z</time></trkpt><trkpt lat="44.9863897" lon="9.7069405"><ele>83.0</ele><time>2026-04-03T15:42:37.484Z</time></trkpt><trkpt lat="44.9863817" lon="9.7070876"><ele>82.80000000000001</ele><time>2026-04-03T15:42:38.49Z</time></trkpt><trkpt lat="44.9863721" lon="9.7072384"><ele>82.6</ele><time>2026-04-03T15:42:39.486Z</time></trkpt><trkpt lat="44.9863621" lon="9.7073908"><ele>82.4</ele><time>2026-04-03T15:42:40.485Z</time></trkpt><trkpt lat="44.9863516" lon="9.7075372"><ele>82.19999999999999</ele><time>2026-04-03T15:42:41.485Z</time></trkpt><trkpt lat="44.9863441" lon="9.7076802"><ele>82.0</ele><time>2026-04-03T15:42:42.49Z</time></trkpt><trkpt lat="44.9863366" lon="9.7078203"><ele>82.0</ele><time>2026-04-03T15:42:43.488Z</time></trkpt><trkpt lat="44.9863311" lon="9.7079577"><ele>82.0</ele><time>2026-04-03T15:42:44.486Z</time></trkpt><trkpt lat="44.986325" lon="9.708094"><ele>82.0</ele><time>2026-04-03T15:42:45.498Z</time></trkpt><trkpt lat="44.9863153" lon="9.7082365"><ele>82.0</ele><time>2026-04-03T15:42:46.493Z</time></trkpt><trkpt lat="44.9863055" lon="9.7083806"><ele>82.0</ele><time>2026-04-03T15:42:47.493Z</time></trkpt><trkpt lat="44.9862998" lon="9.7085205"><ele>81.8</ele><time>2026-04-03T15:42:48.486Z</time></trkpt><trkpt lat="44.986294" lon="9.7086652"><ele>81.6</ele><time>2026-04-03T15:42:49.491Z</time></trkpt><trkpt lat="44.9862905" lon="9.7088092"><ele>81.39999999999999</ele><time>2026-04-03T15:42:50.487Z</time></trkpt><trkpt lat="44.9862864" lon="9.7089592"><ele>81.19999999999999</ele><time>2026-04-03T15:42:51.488Z</time></trkpt><trkpt lat="44.98628" lon="9.7091129"><ele>81.0</ele><time>2026-04-03T15:42:52.493Z</time></trkpt><trkpt lat="44.9862712" lon="9.7092656"><ele>81.19999999999999</ele><time>2026-04-03T15:42:53.488Z</time></trkpt><trkpt lat="44.9862627" lon="9.709411"><ele>81.39999999999999</ele><time>2026-04-03T15:42:54.49Z</time></trkpt><trkpt lat="44.9862545" lon="9.709552"><ele>81.6</ele><time>2026-04-03T15:42:55.488Z</time></trkpt><trkpt lat="44.9862482" lon="9.7096898"><ele>81.8</ele><time>2026-04-03T15:42:56.486Z</time></trkpt><trkpt lat="44.9862429" lon="9.7098204"><ele>82.0</ele><time>2026-04-03T15:42:57.493Z</time></trkpt><trkpt lat="44.9862376" lon="9.7099419"><ele>82.0</ele><time>2026-04-03T15:42:58.49Z</time></trkpt><trkpt lat="44.9862297" lon="9.7100588"><ele>82.0</ele><time>2026-04-03T15:42:59.494Z</time></trkpt><trkpt lat="44.9862193" lon="9.7101762"><ele>82.0</ele><time>2026-04-03T15:43:00.491Z</time></trkpt><trkpt lat="44.9862148" lon="9.7102915"><ele>82.0</ele><time>2026-04-03T15:43:01.49Z</time></trkpt><trkpt lat="44.9862172" lon="9.7104095"><ele>82.0</ele><time>2026-04-03T15:43:02.485Z</time></trkpt><trkpt lat="44.9862252" lon="9.7105235"><ele>82.0</ele><time>2026-04-03T15:43:03.491Z</time></trkpt><trkpt lat="44.9862325" lon="9.7106322"><ele>81.83333333333333</ele><time>2026-04-03T15:43:04.492Z</time></trkpt><trkpt lat="44.9862318" lon="9.7107447"><ele>81.66666666666666</ele><time>2026-04-03T15:43:05.489Z</time></trkpt><trkpt lat="44.9862264" lon="9.7108602"><ele>81.5</ele><time>2026-04-03T15:43:06.492Z</time></trkpt><trkpt lat="44.9862189" lon="9.7109847"><ele>81.33333333333333</ele><time>2026-04-03T15:43:07.493Z</time></trkpt><trkpt lat="44.9862136" lon="9.7111099"><ele>81.16666666666667</ele><time>2026-04-03T15:43:08.486Z</time></trkpt><trkpt lat="44.9862088" lon="9.7112372"><ele>81.0</ele><time>2026-04-03T15:43:09.493Z</time></trkpt><trkpt lat="44.9862" lon="9.7113661"><ele>81.0</ele><time>2026-04-03T15:43:10.49Z</time></trkpt><trkpt lat="44.9861919" lon="9.7114969"><ele>81.0</ele><time>2026-04-03T15:43:11.49Z</time></trkpt><trkpt lat="44.98619" lon="9.711627"><ele>81.0</ele><time>2026-04-03T15:43:12.487Z</time></trkpt><trkpt lat="44.9861887" lon="9.711754"><ele>81.0</ele><time>2026-04-03T15:43:13.487Z</time></trkpt><trkpt lat="44.986187" lon="9.7118778"><ele>81.0</ele><time>2026-04-03T15:43:14.486Z</time></trkpt><trkpt lat="44.9861847" lon="9.7120026"><ele>81.0</ele><time>2026-04-03T15:43:15.495Z</time></trkpt><trkpt lat="44.9861812" lon="9.7121278"><ele>81.0</ele><time>2026-04-03T15:43:16.494Z</time></trkpt><trkpt lat="44.9861781" lon="9.7122556"><ele>81.0</ele><time>2026-04-03T15:43:17.492Z</time></trkpt><trkpt lat="44.9861762" lon="9.7123823"><ele>81.0</ele><time>2026-04-03T15:43:18.486Z</time></trkpt><trkpt lat="44.9861758" lon="9.7125071"><ele>81.0</ele><time>2026-04-03T15:43:19.491Z</time></trkpt><trkpt lat="44.9861763" lon="9.7126343"><ele>81.0</ele><time>2026-04-03T15:43:20.492Z</time></trkpt><trkpt lat="44.9861776" lon="9.7127624"><ele>81.0</ele><time>2026-04-03T15:43:21.497Z</time></trkpt><trkpt lat="44.986181" lon="9.7128882"><ele>81.0</ele><time>2026-04-03T15:43:22.486Z</time></trkpt><trkpt lat="44.9861802" lon="9.7130118"><ele>81.0</ele><time>2026-04-03T15:43:23.505Z</time></trkpt><trkpt lat="44.9861772" lon="9.7131313"><ele>81.0</ele><time>2026-04-03T15:43:24.495Z</time></trkpt><trkpt lat="44.9861732" lon="9.7132527"><ele>81.0</ele><time>2026-04-03T15:43:25.495Z</time></trkpt><trkpt lat="44.986171" lon="9.7133676"><ele>81.0</ele><time>2026-04-03T15:43:26.49Z</time></trkpt><trkpt lat="44.9861708" lon="9.713475"><ele>81.16666666666667</ele><time>2026-04-03T15:43:27.49Z</time></trkpt><trkpt lat="44.9861733" lon="9.7135733"><ele>81.33333333333333</ele><time>2026-04-03T15:43:28.494Z</time></trkpt><trkpt lat="44.9861832" lon="9.7137109"><ele>81.5</ele><time>2026-04-03T15:43:30.495Z</time></trkpt><trkpt lat="44.9862403" lon="9.7138128"><ele>81.66666666666666</ele><time>2026-04-03T15:43:33.489Z</time></trkpt><trkpt lat="44.9863371" lon="9.7138394"><ele>81.83333333333333</ele><time>2026-04-03T15:43:35.49Z</time></trkpt><trkpt lat="44.9864052" lon="9.7138286"><ele>82.0</ele><time>2026-04-03T15:43:36.493Z</time></trkpt><trkpt lat="44.9864859" lon="9.7138105"><ele>82.0</ele><time>2026-04-03T15:43:37.49Z</time></trkpt><trkpt lat="44.986579" lon="9.7137872"><ele>82.0</ele><time>2026-04-03T15:43:38.483Z</time></trkpt><trkpt lat="44.9866809" lon="9.713762"><ele>82.0</ele><time>2026-04-03T15:43:39.486Z</time></trkpt><trkpt lat="44.9867844" lon="9.7137453"><ele>82.0</ele><time>2026-04-03T15:43:40.49Z</time></trkpt><trkpt lat="44.9868851" lon="9.7137264"><ele>82.0</ele><time>2026-04-03T15:43:41.49Z</time></trkpt><trkpt lat="44.9869817" lon="9.713706"><ele>81.66666666666666</ele><time>2026-04-03T15:43:42.481Z</time></trkpt><trkpt lat="44.9870732" lon="9.713689"><ele>81.33333333333333</ele><time>2026-04-03T15:43:43.492Z</time></trkpt><trkpt lat="44.9871572" lon="9.7136748"><ele>81.0</ele><time>2026-04-03T15:43:44.492Z</time></trkpt><trkpt lat="44.987236" lon="9.7136643"><ele>80.66666666666667</ele><time>2026-04-03T15:43:45.484Z</time></trkpt><trkpt lat="44.9873054" lon="9.7136607"><ele>80.33333333333334</ele><time>2026-04-03T15:43:46.49Z</time></trkpt><trkpt lat="44.9874064" lon="9.7137339"><ele>80.0</ele><time>2026-04-03T15:43:48.489Z</time></trkpt><trkpt lat="44.9874257" lon="9.7138678"><ele>80.0</ele><time>2026-04-03T15:43:50.489Z</time></trkpt><trkpt lat="44.9874098" lon="9.7139577"><ele>80.0</ele><time>2026-04-03T15:43:51.487Z</time></trkpt><trkpt lat="44.9873925" lon="9.7140717"><ele>80.0</ele><time>2026-04-03T15:43:52.485Z</time></trkpt><trkpt lat="44.9873784" lon="9.7141914"><ele>80.0</ele><time>2026-04-03T15:43:53.488Z</time></trkpt><trkpt lat="44.9873658" lon="9.7143031"><ele>80.0</ele><time>2026-04-03T15:43:54.486Z</time></trkpt><trkpt lat="44.9873526" lon="9.7144159"><ele>80.0</ele><time>2026-04-03T15:43:55.49Z</time></trkpt><trkpt lat="44.9873386" lon="9.7145323"><ele>80.33333333333334</ele><time>2026-04-03T15:43:56.486Z</time></trkpt><trkpt lat="44.9873275" lon="9.7146461"><ele>80.66666666666667</ele><time>2026-04-03T15:43:57.49Z</time></trkpt><trkpt lat="44.9873161" lon="9.7147634"><ele>81.0</ele><time>2026-04-03T15:43:58.487Z</time></trkpt><trkpt lat="44.9873067" lon="9.7148894"><ele>81.33333333333333</ele><time>2026-04-03T15:43:59.484Z</time></trkpt><trkpt lat="44.9872968" lon="9.7150211"><ele>81.66666666666666</ele><time>2026-04-03T15:44:00.49Z</time></trkpt><trkpt lat="44.9872879" lon="9.7151506"><ele>82.0</ele><time>2026-04-03T15:44:01.496Z</time></trkpt><trkpt lat="44.9872763" lon="9.7152765"><ele>82.0</ele><time>2026-04-03T15:44:02.482Z</time></trkpt><trkpt lat="44.9872639" lon="9.715398"><ele>82.0</ele><time>2026-04-03T15:44:03.491Z</time></trkpt><trkpt lat="44.9872536" lon="9.715511"><ele>82.0</ele><time>2026-04-03T15:44:04.493Z</time></trkpt><trkpt lat="44.987249" lon="9.7156125"><ele>82.0</ele><time>2026-04-03T15:44:05.49Z</time></trkpt><trkpt lat="44.9872366" lon="9.7157698"><ele>82.0</ele><time>2026-04-03T15:44:07.487Z</time></trkpt><trkpt lat="44.9871974" lon="9.7158646"><ele>82.0</ele><time>2026-04-03T15:44:09.492Z</time></trkpt><trkpt lat="44.9871076" lon="9.7159028"><ele>82.0</ele><time>2026-04-03T15:44:11.486Z</time></trkpt><trkpt lat="44.9870402" lon="9.7158883"><ele>82.0</ele><time>2026-04-03T15:44:12.485Z</time></trkpt><trkpt lat="44.9869566" lon="9.715857"><ele>82.0</ele><time>2026-04-03T15:44:13.494Z</time></trkpt><trkpt lat="44.9868504" lon="9.7158284"><ele>82.0</ele><time>2026-04-03T15:44:14.49Z</time></trkpt><trkpt lat="44.9867236" lon="9.7157979"><ele>82.0</ele><time>2026-04-03T15:44:15.492Z</time></trkpt><trkpt lat="44.9865845" lon="9.7157643"><ele>81.66666666666666</ele><time>2026-04-03T15:44:16.487Z</time></trkpt><trkpt lat="44.9864394" lon="9.7157305"><ele>81.33333333333333</ele><time>2026-04-03T15:44:17.497Z</time></trkpt><trkpt lat="44.9862873" lon="9.7156961"><ele>81.0</ele><time>2026-04-03T15:44:18.492Z</time></trkpt><trkpt lat="44.9861313" lon="9.7156605"><ele>81.0</ele><time>2026-04-03T15:44:19.488Z</time></trkpt><trkpt lat="44.985978" lon="9.7156277"><ele>81.0</ele><time>2026-04-03T15:44:20.487Z</time></trkpt><trkpt lat="44.9858301" lon="9.7155965"><ele>81.0</ele><time>2026-04-03T15:44:21.489Z</time></trkpt><trkpt lat="44.9856895" lon="9.7155653"><ele>81.0</ele><time>2026-04-03T15:44:22.486Z</time></trkpt><trkpt lat="44.9855522" lon="9.7155355"><ele>81.0</ele><time>2026-04-03T15:44:23.483Z</time></trkpt><trkpt lat="44.9854169" lon="9.7155067"><ele>81.0</ele><time>2026-04-03T15:44:24.484Z</time></trkpt><trkpt lat="44.9852822" lon="9.7154776"><ele>81.0</ele><time>2026-04-03T15:44:25.483Z</time></trkpt><trkpt lat="44.9851486" lon="9.7154461"><ele>81.0</ele><time>2026-04-03T15:44:26.484Z</time></trkpt><trkpt lat="44.9850172" lon="9.7154146"><ele>81.25</ele><time>2026-04-03T15:44:27.488Z</time></trkpt><trkpt lat="44.984888" lon="9.7153818"><ele>81.5</ele><time>2026-04-03T15:44:28.484Z</time></trkpt><trkpt lat="44.984761" lon="9.7153496"><ele>81.75</ele><time>2026-04-03T15:44:29.481Z</time></trkpt><trkpt lat="44.9846369" lon="9.71532"><ele>82.0</ele><time>2026-04-03T15:44:30.483Z</time></trkpt><trkpt lat="44.9845173" lon="9.7152938"><ele>82.0</ele><time>2026-04-03T15:44:31.479Z</time></trkpt><trkpt lat="44.9844067" lon="9.7152685"><ele>82.0</ele><time>2026-04-03T15:44:32.491Z</time></trkpt><trkpt lat="44.9843034" lon="9.715244"><ele>82.0</ele><time>2026-04-03T15:44:33.491Z</time></trkpt><trkpt lat="44.984212" lon="9.7152215"><ele>82.0</ele><time>2026-04-03T15:44:34.495Z</time></trkpt><trkpt lat="44.9841331" lon="9.7152049"><ele>82.0</ele><time>2026-04-03T15:44:35.487Z</time></trkpt><trkpt lat="44.9840693" lon="9.7151915"><ele>82.16666666666666</ele><time>2026-04-03T15:44:36.484Z</time></trkpt><trkpt lat="44.9839961" lon="9.7151817"><ele>82.33333333333333</ele><time>2026-04-03T15:44:38.487Z</time></trkpt><trkpt lat="44.9839612" lon="9.715067"><ele>82.5</ele><time>2026-04-03T15:44:46.487Z</time></trkpt><trkpt lat="44.9839744" lon="9.7149747"><ele>82.66666666666667</ele><time>2026-04-03T15:44:47.485Z</time></trkpt><trkpt lat="44.9839904" lon="9.714864"><ele>82.83333333333334</ele><time>2026-04-03T15:44:48.488Z</time></trkpt><trkpt lat="44.984002" lon="9.714755"><ele>83.0</ele><time>2026-04-03T15:44:49.488Z</time></trkpt><trkpt lat="44.9840087" lon="9.7146534"><ele>83.0</ele><time>2026-04-03T15:44:50.481Z</time></trkpt><trkpt lat="44.9840103" lon="9.7145629"><ele>83.0</ele><time>2026-04-03T15:44:51.491Z</time></trkpt><trkpt lat="44.9840053" lon="9.7144125"><ele>83.0</ele><time>2026-04-03T15:44:53.488Z</time></trkpt><trkpt lat="44.9839724" lon="9.7142929"><ele>83.0</ele><time>2026-04-03T15:44:55.488Z</time></trkpt><trkpt lat="44.9838718" lon="9.7142582"><ele>83.0</ele><time>2026-04-03T15:44:57.49Z</time></trkpt><trkpt lat="44.9838021" lon="9.7142819"><ele>83.0</ele><time>2026-04-03T15:44:58.486Z</time></trkpt><trkpt lat="44.983722" lon="9.7143135"><ele>83.2</ele><time>2026-04-03T15:44:59.491Z</time></trkpt><trkpt lat="44.9836282" lon="9.7143379"><ele>83.4</ele><time>2026-04-03T15:45:00.492Z</time></trkpt><trkpt lat="44.9835277" lon="9.7143652"><ele>83.60000000000001</ele><time>2026-04-03T15:45:01.494Z</time></trkpt><trkpt lat="44.9834226" lon="9.7143948"><ele>83.80000000000001</ele><time>2026-04-03T15:45:02.489Z</time></trkpt><trkpt lat="44.9833144" lon="9.7144258"><ele>84.0</ele><time>2026-04-03T15:45:03.491Z</time></trkpt><trkpt lat="44.9832011" lon="9.7144522"><ele>84.0</ele><time>2026-04-03T15:45:04.492Z</time></trkpt><trkpt lat="44.9830848" lon="9.7144828"><ele>84.0</ele><time>2026-04-03T15:45:05.485Z</time></trkpt><trkpt lat="44.9829633" lon="9.7145138"><ele>84.0</ele><time>2026-04-03T15:45:06.484Z</time></trkpt><trkpt lat="44.9828386" lon="9.7145433"><ele>84.0</ele><time>2026-04-03T15:45:07.494Z</time></trkpt><trkpt lat="44.9827117" lon="9.7145711"><ele>84.0</ele><time>2026-04-03T15:45:08.484Z</time></trkpt><trkpt lat="44.982583" lon="9.7145969"><ele>84.0</ele><time>2026-04-03T15:45:09.489Z</time></trkpt><trkpt lat="44.9824517" lon="9.7146237"><ele>84.0</ele><time>2026-04-03T15:45:10.496Z</time></trkpt><trkpt lat="44.9823188" lon="9.714654"><ele>84.0</ele><time>2026-04-03T15:45:11.489Z</time></trkpt><trkpt lat="44.9821857" lon="9.7146867"><ele>84.5</ele><time>2026-04-03T15:45:12.489Z</time></trkpt><trkpt lat="44.9820511" lon="9.7147181"><ele>85.0</ele><time>2026-04-03T15:45:13.487Z</time></trkpt><trkpt lat="44.981917" lon="9.7147479"><ele>85.5</ele><time>2026-04-03T15:45:14.492Z</time></trkpt><trkpt lat="44.9817854" lon="9.7147776"><ele>86.0</ele><time>2026-04-03T15:45:15.492Z</time></trkpt><trkpt lat="44.9816564" lon="9.7148054"><ele>86.25</ele><time>2026-04-03T15:45:16.497Z</time></trkpt><trkpt lat="44.9815298" lon="9.7148321"><ele>86.5</ele><time>2026-04-03T15:45:17.49Z</time></trkpt><trkpt lat="44.9814047" lon="9.7148577"><ele>86.75</ele><time>2026-04-03T15:45:18.487Z</time></trkpt><trkpt lat="44.9812814" lon="9.7148844"><ele>87.0</ele><time>2026-04-03T15:45:19.495Z</time></trkpt><trkpt lat="44.9811626" lon="9.7149144"><ele>87.0</ele><time>2026-04-03T15:45:20.488Z</time></trkpt><trkpt lat="44.9810488" lon="9.7149431"><ele>87.0</ele><time>2026-04-03T15:45:21.492Z</time></trkpt><trkpt lat="44.9809383" lon="9.7149719"><ele>87.0</ele><time>2026-04-03T15:45:22.485Z</time></trkpt><trkpt lat="44.9808237" lon="9.7150013"><ele>87.0</ele><time>2026-04-03T15:45:23.491Z</time></trkpt><trkpt lat="44.9807027" lon="9.7150294"><ele>87.25</ele><time>2026-04-03T15:45:24.49Z</time></trkpt><trkpt lat="44.9805777" lon="9.7150545"><ele>87.5</ele><time>2026-04-03T15:45:25.487Z</time></trkpt><trkpt lat="44.9804491" lon="9.7150836"><ele>87.75</ele><time>2026-04-03T15:45:26.493Z</time></trkpt><trkpt lat="44.980316" lon="9.7151134"><ele>88.0</ele><time>2026-04-03T15:45:27.492Z</time></trkpt><trkpt lat="44.9801789" lon="9.7151452"><ele>88.0</ele><time>2026-04-03T15:45:28.49Z</time></trkpt><trkpt lat="44.9800391" lon="9.7151759"><ele>88.0</ele><time>2026-04-03T15:45:29.494Z</time></trkpt><trkpt lat="44.9798977" lon="9.7152068"><ele>88.0</ele><time>2026-04-03T15:45:30.486Z</time></trkpt><trkpt lat="44.9797556" lon="9.7152403"><ele>88.0</ele><time>2026-04-03T15:45:31.488Z</time></trkpt><trkpt lat="44.9796153" lon="9.7152782"><ele>88.0</ele><time>2026-04-03T15:45:32.485Z</time></trkpt><trkpt lat="44.9794765" lon="9.7153168"><ele>88.0</ele><time>2026-04-03T15:45:33.484Z</time></trkpt><trkpt lat="44.9793399" lon="9.715353"><ele>88.0</ele><time>2026-04-03T15:45:34.489Z</time></trkpt><trkpt lat="44.979202" lon="9.7153861"><ele>88.0</ele><time>2026-04-03T15:45:35.491Z</time></trkpt><trkpt lat="44.9790626" lon="9.7154165"><ele>88.25</ele><time>2026-04-03T15:45:36.493Z</time></trkpt><trkpt lat="44.9789232" lon="9.7154465"><ele>88.5</ele><time>2026-04-03T15:45:37.488Z</time></trkpt><trkpt lat="44.9787841" lon="9.7154753"><ele>88.75</ele><time>2026-04-03T15:45:38.486Z</time></trkpt><trkpt lat="44.9786447" lon="9.7155021"><ele>89.0</ele><time>2026-04-03T15:45:39.483Z</time></trkpt><trkpt lat="44.9785044" lon="9.7155238"><ele>89.0</ele><time>2026-04-03T15:45:40.498Z</time></trkpt><trkpt lat="44.9783629" lon="9.7155487"><ele>89.0</ele><time>2026-04-03T15:45:41.492Z</time></trkpt><trkpt lat="44.9782201" lon="9.7155791"><ele>89.0</ele><time>2026-04-03T15:45:42.511Z</time></trkpt><trkpt lat="44.9780741" lon="9.7156129"><ele>89.0</ele><time>2026-04-03T15:45:43.492Z</time></trkpt><trkpt lat="44.9779244" lon="9.7156469"><ele>89.33333333333334</ele><time>2026-04-03T15:45:44.502Z</time></trkpt><trkpt lat="44.9777742" lon="9.7156804"><ele>89.66666666666667</ele><time>2026-04-03T15:45:45.503Z</time></trkpt><trkpt lat="44.9776236" lon="9.7157183"><ele>90.0</ele><time>2026-04-03T15:45:46.502Z</time></trkpt><trkpt lat="44.9774735" lon="9.7157559"><ele>90.33333333333333</ele><time>2026-04-03T15:45:47.5Z</time></trkpt><trkpt lat="44.977325" lon="9.7157911"><ele>90.66666666666666</ele><time>2026-04-03T15:45:48.503Z</time></trkpt><trkpt lat="44.9771771" lon="9.7158236"><ele>91.0</ele><time>2026-04-03T15:45:49.501Z</time></trkpt><trkpt lat="44.977027" lon="9.715857"><ele>91.0</ele><time>2026-04-03T15:45:50.496Z</time></trkpt><trkpt lat="44.9768773" lon="9.7158908"><ele>91.0</ele><time>2026-04-03T15:45:51.505Z</time></trkpt><trkpt lat="44.9767287" lon="9.7159238"><ele>91.0</ele><time>2026-04-03T15:45:52.491Z</time></trkpt><trkpt lat="44.9765799" lon="9.7159595"><ele>91.5</ele><time>2026-04-03T15:45:53.511Z</time></trkpt><trkpt lat="44.976433" lon="9.7159964"><ele>92.0</ele><time>2026-04-03T15:45:54.489Z</time></trkpt><trkpt lat="44.9762878" lon="9.7160305"><ele>92.5</ele><time>2026-04-03T15:45:55.51Z</time></trkpt><trkpt lat="44.9761442" lon="9.7160653"><ele>93.0</ele><time>2026-04-03T15:45:56.491Z</time></trkpt><trkpt lat="44.9759989" lon="9.7161025"><ele>92.75</ele><time>2026-04-03T15:45:57.496Z</time></trkpt><trkpt lat="44.9758529" lon="9.7161409"><ele>92.5</ele><time>2026-04-03T15:45:58.494Z</time></trkpt><trkpt lat="44.9757062" lon="9.7161763"><ele>92.25</ele><time>2026-04-03T15:45:59.501Z</time></trkpt><trkpt lat="44.9755572" lon="9.7162083"><ele>92.0</ele><time>2026-04-03T15:46:00.499Z</time></trkpt><trkpt lat="44.9754069" lon="9.7162392"><ele>92.0</ele><time>2026-04-03T15:46:01.493Z</time></trkpt><trkpt lat="44.9752563" lon="9.7162698"><ele>92.0</ele><time>2026-04-03T15:46:02.5Z</time></trkpt><trkpt lat="44.9751062" lon="9.7163054"><ele>92.0</ele><time>2026-04-03T15:46:03.495Z</time></trkpt><trkpt lat="44.9749575" lon="9.7163458"><ele>92.66666666666667</ele><time>2026-04-03T15:46:04.507Z</time></trkpt><trkpt lat="44.9748085" lon="9.7163856"><ele>93.33333333333333</ele><time>2026-04-03T15:46:05.489Z</time></trkpt><trkpt lat="44.9746583" lon="9.7164258"><ele>94.0</ele><time>2026-04-03T15:46:06.496Z</time></trkpt><trkpt lat="44.9745057" lon="9.7164645"><ele>94.0</ele><time>2026-04-03T15:46:07.489Z</time></trkpt><trkpt lat="44.9743527" lon="9.7165002"><ele>94.0</ele><time>2026-04-03T15:46:08.481Z</time></trkpt><trkpt lat="44.9742005" lon="9.7165372"><ele>94.0</ele><time>2026-04-03T15:46:09.502Z</time></trkpt><trkpt lat="44.9740479" lon="9.7165723"><ele>93.33333333333333</ele><time>2026-04-03T15:46:10.486Z</time></trkpt><trkpt lat="44.9738959" lon="9.7166053"><ele>92.66666666666667</ele><time>2026-04-03T15:46:11.497Z</time></trkpt><trkpt lat="44.9737449" lon="9.7166396"><ele>92.0</ele><time>2026-04-03T15:46:12.498Z</time></trkpt><trkpt lat="44.9735956" lon="9.7166783"><ele>92.0</ele><time>2026-04-03T15:46:13.512Z</time></trkpt><trkpt lat="44.973447" lon="9.7167196"><ele>92.0</ele><time>2026-04-03T15:46:14.498Z</time></trkpt><trkpt lat="44.9732986" lon="9.716761"><ele>92.0</ele><time>2026-04-03T15:46:15.508Z</time></trkpt><trkpt lat="44.9731517" lon="9.7168006"><ele>92.0</ele><time>2026-04-03T15:46:16.502Z</time></trkpt><trkpt lat="44.9730067" lon="9.7168409"><ele>92.0</ele><time>2026-04-03T15:46:17.502Z</time></trkpt><trkpt lat="44.9728608" lon="9.7168807"><ele>92.0</ele><time>2026-04-03T15:46:18.505Z</time></trkpt><trkpt lat="44.972716" lon="9.7169177"><ele>92.0</ele><time>2026-04-03T15:46:19.5Z</time></trkpt><trkpt lat="44.9725724" lon="9.7169581"><ele>92.5</ele><time>2026-04-03T15:46:20.502Z</time></trkpt><trkpt lat="44.9724291" lon="9.7169966"><ele>93.0</ele><time>2026-04-03T15:46:21.504Z</time></trkpt><trkpt lat="44.9722854" lon="9.7170299"><ele>93.5</ele><time>2026-04-03T15:46:22.496Z</time></trkpt><trkpt lat="44.9721407" lon="9.7170651"><ele>94.0</ele><time>2026-04-03T15:46:23.494Z</time></trkpt><trkpt lat="44.9719935" lon="9.717099"><ele>94.0</ele><time>2026-04-03T15:46:24.502Z</time></trkpt><trkpt lat="44.9718433" lon="9.717125"><ele>94.0</ele><time>2026-04-03T15:46:25.502Z</time></trkpt><trkpt lat="44.9716907" lon="9.7171469"><ele>94.0</ele><time>2026-04-03T15:46:26.51Z</time></trkpt><trkpt lat="44.9715354" lon="9.7171651"><ele>94.33333333333333</ele><time>2026-04-03T15:46:27.498Z</time></trkpt><trkpt lat="44.9713785" lon="9.71718"><ele>94.66666666666667</ele><time>2026-04-03T15:46:28.491Z</time></trkpt><trkpt lat="44.9712202" lon="9.7171946"><ele>95.0</ele><time>2026-04-03T15:46:29.5Z</time></trkpt><trkpt lat="44.9710615" lon="9.7172106"><ele>95.0</ele><time>2026-04-03T15:46:30.502Z</time></trkpt><trkpt lat="44.9709019" lon="9.7172298"><ele>95.0</ele><time>2026-04-03T15:46:31.508Z</time></trkpt><trkpt lat="44.9707387" lon="9.7172489"><ele>95.0</ele><time>2026-04-03T15:46:32.492Z</time></trkpt><trkpt lat="44.9705744" lon="9.71727"><ele>95.66666666666667</ele><time>2026-04-03T15:46:33.506Z</time></trkpt><trkpt lat="44.9704086" lon="9.7172918"><ele>96.33333333333334</ele><time>2026-04-03T15:46:34.498Z</time></trkpt><trkpt lat="44.9702406" lon="9.7173136"><ele>97.0</ele><time>2026-04-03T15:46:35.489Z</time></trkpt><trkpt lat="44.9700714" lon="9.7173331"><ele>96.0</ele><time>2026-04-03T15:46:36.503Z</time></trkpt><trkpt lat="44.9699012" lon="9.7173547"><ele>95.0</ele><time>2026-04-03T15:46:37.492Z</time></trkpt><trkpt lat="44.9697318" lon="9.7173789"><ele>94.0</ele><time>2026-04-03T15:46:38.508Z</time></trkpt><trkpt lat="44.9695618" lon="9.7174038"><ele>94.0</ele><time>2026-04-03T15:46:39.498Z</time></trkpt><trkpt lat="44.9693908" lon="9.7174313"><ele>94.0</ele><time>2026-04-03T15:46:40.499Z</time></trkpt><trkpt lat="44.9692207" lon="9.7174658"><ele>94.0</ele><time>2026-04-03T15:46:41.497Z</time></trkpt><trkpt lat="44.9690514" lon="9.7175072"><ele>95.0</ele><time>2026-04-03T15:46:42.5Z</time></trkpt><trkpt lat="44.968883" lon="9.7175541"><ele>96.0</ele><time>2026-04-03T15:46:43.506Z</time></trkpt><trkpt lat="44.9687162" lon="9.7176011"><ele>97.0</ele><time>2026-04-03T15:46:44.51Z</time></trkpt><trkpt lat="44.9685482" lon="9.7176412"><ele>97.0</ele><time>2026-04-03T15:46:45.492Z</time></trkpt><trkpt lat="44.9683804" lon="9.7176743"><ele>97.0</ele><time>2026-04-03T15:46:46.507Z</time></trkpt><trkpt lat="44.9682136" lon="9.7177042"><ele>97.0</ele><time>2026-04-03T15:46:47.498Z</time></trkpt><trkpt lat="44.968046" lon="9.7177279"><ele>96.0</ele><time>2026-04-03T15:46:48.507Z</time></trkpt><trkpt lat="44.9678794" lon="9.7177511"><ele>95.0</ele><time>2026-04-03T15:46:49.501Z</time></trkpt><trkpt lat="44.9677124" lon="9.7177728"><ele>94.0</ele><time>2026-04-03T15:46:50.494Z</time></trkpt><trkpt lat="44.9675473" lon="9.7177933"><ele>94.66666666666666</ele><time>2026-04-03T15:46:51.502Z</time></trkpt><trkpt lat="44.9673871" lon="9.7178137"><ele>95.33333333333333</ele><time>2026-04-03T15:46:52.491Z</time></trkpt><trkpt lat="44.967232" lon="9.7178369"><ele>96.0</ele><time>2026-04-03T15:46:53.513Z</time></trkpt><trkpt lat="44.9670815" lon="9.717862"><ele>96.0</ele><time>2026-04-03T15:46:54.498Z</time></trkpt><trkpt lat="44.9669338" lon="9.7178867"><ele>96.0</ele><time>2026-04-03T15:46:55.494Z</time></trkpt><trkpt lat="44.9667875" lon="9.717909"><ele>96.0</ele><time>2026-04-03T15:46:56.506Z</time></trkpt><trkpt lat="44.9666411" lon="9.7179308"><ele>96.0</ele><time>2026-04-03T15:46:57.503Z</time></trkpt><trkpt lat="44.9664951" lon="9.7179514"><ele>97.0</ele><time>2026-04-03T15:46:58.489Z</time></trkpt><trkpt lat="44.966347" lon="9.7179702"><ele>98.0</ele><time>2026-04-03T15:46:59.506Z</time></trkpt><trkpt lat="44.9661978" lon="9.7179884"><ele>99.0</ele><time>2026-04-03T15:47:00.494Z</time></trkpt><trkpt lat="44.9660508" lon="9.7180067"><ele>100.0</ele><time>2026-04-03T15:47:01.511Z</time></trkpt><trkpt lat="44.9659055" lon="9.718029"><ele>99.75</ele><time>2026-04-03T15:47:02.508Z</time></trkpt><trkpt lat="44.9657599" lon="9.7180508"><ele>99.5</ele><time>2026-04-03T15:47:03.492Z</time></trkpt><trkpt lat="44.9656138" lon="9.7180714"><ele>99.25</ele><time>2026-04-03T15:47:04.506Z</time></trkpt><trkpt lat="44.9654684" lon="9.7180935"><ele>99.0</ele><time>2026-04-03T15:47:05.502Z</time></trkpt><trkpt lat="44.9653222" lon="9.7181176"><ele>99.0</ele><time>2026-04-03T15:47:06.502Z</time></trkpt><trkpt lat="44.9651761" lon="9.7181397"><ele>99.0</ele><time>2026-04-03T15:47:07.502Z</time></trkpt><trkpt lat="44.9650276" lon="9.7181621"><ele>99.0</ele><time>2026-04-03T15:47:08.5Z</time></trkpt><trkpt lat="44.9648743" lon="9.7181855"><ele>98.66666666666666</ele><time>2026-04-03T15:47:09.5Z</time></trkpt><trkpt lat="44.9647174" lon="9.7182085"><ele>98.33333333333333</ele><time>2026-04-03T15:47:10.509Z</time></trkpt><trkpt lat="44.9645608" lon="9.71823"><ele>98.0</ele><time>2026-04-03T15:47:11.491Z</time></trkpt><trkpt lat="44.9644021" lon="9.7182542"><ele>98.0</ele><time>2026-04-03T15:47:12.492Z</time></trkpt><trkpt lat="44.9642412" lon="9.7182794"><ele>98.0</ele><time>2026-04-03T15:47:13.5Z</time></trkpt><trkpt lat="44.964078" lon="9.718307"><ele>98.0</ele><time>2026-04-03T15:47:14.5Z</time></trkpt><trkpt lat="44.963918" lon="9.7183353"><ele>98.33333333333333</ele><time>2026-04-03T15:47:15.499Z</time></trkpt><trkpt lat="44.9637629" lon="9.7183621"><ele>98.66666666666666</ele><time>2026-04-03T15:47:16.5Z</time></trkpt><trkpt lat="44.9636108" lon="9.7183836"><ele>99.0</ele><time>2026-04-03T15:47:17.501Z</time></trkpt><trkpt lat="44.96346" lon="9.7184018"><ele>99.75</ele><time>2026-04-03T15:47:18.511Z</time></trkpt><trkpt lat="44.9633138" lon="9.7184213"><ele>100.5</ele><time>2026-04-03T15:47:19.492Z</time></trkpt><trkpt lat="44.9631758" lon="9.7184373"><ele>101.25</ele><time>2026-04-03T15:47:20.5Z</time></trkpt><trkpt lat="44.963046" lon="9.71845"><ele>102.0</ele><time>2026-04-03T15:47:21.49Z</time></trkpt><trkpt lat="44.9629196" lon="9.7184551"><ele>102.0</ele><time>2026-04-03T15:47:22.502Z</time></trkpt><trkpt lat="44.9627959" lon="9.7184449"><ele>102.0</ele><time>2026-04-03T15:47:23.502Z</time></trkpt><trkpt lat="44.9626688" lon="9.7184268"><ele>102.0</ele><time>2026-04-03T15:47:24.499Z</time></trkpt><trkpt lat="44.9625413" lon="9.7183974"><ele>102.0</ele><time>2026-04-03T15:47:25.505Z</time></trkpt><trkpt lat="44.9624098" lon="9.7183538"><ele>101.5</ele><time>2026-04-03T15:47:26.49Z</time></trkpt><trkpt lat="44.9622753" lon="9.7183043"><ele>101.0</ele><time>2026-04-03T15:47:27.492Z</time></trkpt><trkpt lat="44.9621346" lon="9.718243"><ele>100.5</ele><time>2026-04-03T15:47:28.496Z</time></trkpt><trkpt lat="44.9619872" lon="9.718183"><ele>100.0</ele><time>2026-04-03T15:47:29.491Z</time></trkpt><trkpt lat="44.9618353" lon="9.7181218"><ele>100.0</ele><time>2026-04-03T15:47:30.513Z</time></trkpt><trkpt lat="44.9616791" lon="9.7180599"><ele>100.0</ele><time>2026-04-03T15:47:31.504Z</time></trkpt><trkpt lat="44.9615193" lon="9.7179949"><ele>100.0</ele><time>2026-04-03T15:47:32.504Z</time></trkpt><trkpt lat="44.9613576" lon="9.7179265"><ele>100.0</ele><time>2026-04-03T15:47:33.493Z</time></trkpt><trkpt lat="44.9611951" lon="9.7178552"><ele>100.0</ele><time>2026-04-03T15:47:34.501Z</time></trkpt><trkpt lat="44.9610331" lon="9.7177877"><ele>100.0</ele><time>2026-04-03T15:47:35.498Z</time></trkpt><trkpt lat="44.9608746" lon="9.7177262"><ele>100.66666666666667</ele><time>2026-04-03T15:47:36.503Z</time></trkpt><trkpt lat="44.9607147" lon="9.7176754"><ele>101.33333333333334</ele><time>2026-04-03T15:47:37.502Z</time></trkpt><trkpt lat="44.9605503" lon="9.7176329"><ele>102.0</ele><time>2026-04-03T15:47:38.498Z</time></trkpt><trkpt lat="44.9603785" lon="9.7175899"><ele>102.0</ele><time>2026-04-03T15:47:39.505Z</time></trkpt><trkpt lat="44.9601962" lon="9.7175416"><ele>102.0</ele><time>2026-04-03T15:47:40.499Z</time></trkpt><trkpt lat="44.9600064" lon="9.717487"><ele>102.0</ele><time>2026-04-03T15:47:41.502Z</time></trkpt><trkpt lat="44.9598092" lon="9.7174299"><ele>102.0</ele><time>2026-04-03T15:47:42.504Z</time></trkpt><trkpt lat="44.9596073" lon="9.7173722"><ele>102.0</ele><time>2026-04-03T15:47:43.504Z</time></trkpt><trkpt lat="44.9594042" lon="9.7173142"><ele>102.0</ele><time>2026-04-03T15:47:44.495Z</time></trkpt><trkpt lat="44.9592057" lon="9.7172573"><ele>102.66666666666666</ele><time>2026-04-03T15:47:45.5Z</time></trkpt><trkpt lat="44.959015" lon="9.7172025"><ele>103.33333333333333</ele><time>2026-04-03T15:47:46.511Z</time></trkpt><trkpt lat="44.9588311" lon="9.7171486"><ele>104.0</ele><time>2026-04-03T15:47:47.514Z</time></trkpt><trkpt lat="44.9586533" lon="9.717097"><ele>104.0</ele><time>2026-04-03T15:47:48.498Z</time></trkpt><trkpt lat="44.9584797" lon="9.7170446"><ele>104.0</ele><time>2026-04-03T15:47:49.501Z</time></trkpt><trkpt lat="44.9583123" lon="9.7169929"><ele>104.0</ele><time>2026-04-03T15:47:50.5Z</time></trkpt><trkpt lat="44.9581495" lon="9.7169433"><ele>103.75</ele><time>2026-04-03T15:47:51.49Z</time></trkpt><trkpt lat="44.9579937" lon="9.7168993"><ele>103.5</ele><time>2026-04-03T15:47:52.49Z</time></trkpt><trkpt lat="44.9578472" lon="9.7168589"><ele>103.25</ele><time>2026-04-03T15:47:53.494Z</time></trkpt><trkpt lat="44.9577097" lon="9.7168211"><ele>103.0</ele><time>2026-04-03T15:47:54.504Z</time></trkpt><trkpt lat="44.9575795" lon="9.7167832"><ele>103.5</ele><time>2026-04-03T15:47:55.494Z</time></trkpt><trkpt lat="44.9574547" lon="9.7167466"><ele>104.0</ele><time>2026-04-03T15:47:56.491Z</time></trkpt><trkpt lat="44.9573358" lon="9.7167125"><ele>104.5</ele><time>2026-04-03T15:47:57.501Z</time></trkpt><trkpt lat="44.9572202" lon="9.716679"><ele>105.0</ele><time>2026-04-03T15:47:58.491Z</time></trkpt><trkpt lat="44.9571077" lon="9.7166455"><ele>105.0</ele><time>2026-04-03T15:47:59.496Z</time></trkpt><trkpt lat="44.9569984" lon="9.7166136"><ele>105.0</ele><time>2026-04-03T15:48:00.5Z</time></trkpt><trkpt lat="44.9568938" lon="9.7165827"><ele>105.0</ele><time>2026-04-03T15:48:01.499Z</time></trkpt><trkpt lat="44.956792" lon="9.7165519"><ele>105.0</ele><time>2026-04-03T15:48:02.501Z</time></trkpt><trkpt lat="44.9566945" lon="9.7165206"><ele>105.0</ele><time>2026-04-03T15:48:03.49Z</time></trkpt><trkpt lat="44.9566078" lon="9.7164947"><ele>105.33333333333333</ele><time>2026-04-03T15:48:04.5Z</time></trkpt><trkpt lat="44.956534" lon="9.7164727"><ele>105.66666666666666</ele><time>2026-04-03T15:48:05.502Z</time></trkpt><trkpt lat="44.9564335" lon="9.716451"><ele>106.0</ele><time>2026-04-03T15:48:07.498Z</time></trkpt><trkpt lat="44.9563627" lon="9.7164864"><ele>106.33333333333333</ele><time>2026-04-03T15:48:56.486Z</time></trkpt><trkpt lat="44.9563191" lon="9.7165893"><ele>106.66666666666666</ele><time>2026-04-03T15:48:58.485Z</time></trkpt><trkpt lat="44.9563122" lon="9.7166982"><ele>107.0</ele><time>2026-04-03T15:48:59.499Z</time></trkpt><trkpt lat="44.9563246" lon="9.7168413"><ele>106.5</ele><time>2026-04-03T15:49:00.502Z</time></trkpt><trkpt lat="44.9563364" lon="9.7170071"><ele>106.0</ele><time>2026-04-03T15:49:01.501Z</time></trkpt><trkpt lat="44.9563445" lon="9.7171775"><ele>105.5</ele><time>2026-04-03T15:49:02.493Z</time></trkpt><trkpt lat="44.9563566" lon="9.7173587"><ele>105.0</ele><time>2026-04-03T15:49:03.502Z</time></trkpt><trkpt lat="44.9563788" lon="9.7175471"><ele>104.75</ele><time>2026-04-03T15:49:04.501Z</time></trkpt><trkpt lat="44.9564115" lon="9.7177451"><ele>104.5</ele><time>2026-04-03T15:49:05.489Z</time></trkpt><trkpt lat="44.9564503" lon="9.7179452"><ele>104.25</ele><time>2026-04-03T15:49:06.489Z</time></trkpt><trkpt lat="44.9564895" lon="9.7181417"><ele>104.0</ele><time>2026-04-03T15:49:07.504Z</time></trkpt><trkpt lat="44.9565321" lon="9.7183344"><ele>104.0</ele><time>2026-04-03T15:49:08.497Z</time></trkpt><trkpt lat="44.9565801" lon="9.7185225"><ele>104.0</ele><time>2026-04-03T15:49:09.503Z</time></trkpt><trkpt lat="44.9566812" lon="9.7187145"><ele>104.0</ele><time>2026-04-03T15:49:10.502Z</time></trkpt><trkpt lat="44.9572518" lon="9.7189908"><ele>104.0</ele><time>2026-04-03T15:49:11.504Z</time></trkpt><trkpt lat="44.9573949" lon="9.7191835"><ele>104.0</ele><time>2026-04-03T15:49:12.5Z</time></trkpt><trkpt lat="44.9575408" lon="9.7193798"><ele>104.0</ele><time>2026-04-03T15:49:13.513Z</time></trkpt><trkpt lat="44.9576888" lon="9.7195832"><ele>104.33333333333333</ele><time>2026-04-03T15:49:14.503Z</time></trkpt><trkpt lat="44.9578381" lon="9.7197857"><ele>104.66666666666666</ele><time>2026-04-03T15:49:15.49Z</time></trkpt><trkpt lat="44.9579893" lon="9.7199902"><ele>105.0</ele><time>2026-04-03T15:49:16.499Z</time></trkpt><trkpt lat="44.9581413" lon="9.7201969"><ele>104.66666666666666</ele><time>2026-04-03T15:49:17.49Z</time></trkpt><trkpt lat="44.9582962" lon="9.7204047"><ele>104.33333333333333</ele><time>2026-04-03T15:49:18.5Z</time></trkpt><trkpt lat="44.9584498" lon="9.7206117"><ele>104.0</ele><time>2026-04-03T15:49:19.501Z</time></trkpt><trkpt lat="44.9586047" lon="9.7208196"><ele>104.0</ele><time>2026-04-03T15:49:20.499Z</time></trkpt><trkpt lat="44.9587599" lon="9.7210279"><ele>104.0</ele><time>2026-04-03T15:49:21.505Z</time></trkpt><trkpt lat="44.9589148" lon="9.7212344"><ele>104.0</ele><time>2026-04-03T15:49:22.509Z</time></trkpt><trkpt lat="44.9590701" lon="9.7214407"><ele>103.33333333333333</ele><time>2026-04-03T15:49:23.492Z</time></trkpt><trkpt lat="44.9592259" lon="9.7216461"><ele>102.66666666666666</ele><time>2026-04-03T15:49:24.49Z</time></trkpt><trkpt lat="44.9593781" lon="9.7218482"><ele>102.0</ele><time>2026-04-03T15:49:25.492Z</time></trkpt><trkpt lat="44.959525" lon="9.722047"><ele>101.66666666666666</ele><time>2026-04-03T15:49:26.503Z</time></trkpt><trkpt lat="44.9596699" lon="9.7222418"><ele>101.33333333333333</ele><time>2026-04-03T15:49:27.506Z</time></trkpt><trkpt lat="44.9598137" lon="9.7224346"><ele>101.0</ele><time>2026-04-03T15:49:28.511Z</time></trkpt><trkpt lat="44.9599535" lon="9.7226283"><ele>101.0</ele><time>2026-04-03T15:49:29.488Z</time></trkpt><trkpt lat="44.9600872" lon="9.7228231"><ele>101.0</ele><time>2026-04-03T15:49:30.503Z</time></trkpt><trkpt lat="44.9602121" lon="9.7230199"><ele>101.0</ele><time>2026-04-03T15:49:31.488Z</time></trkpt><trkpt lat="44.9603303" lon="9.7232166"><ele>101.0</ele><time>2026-04-03T15:49:32.501Z</time></trkpt><trkpt lat="44.9604484" lon="9.7234117"><ele>101.0</ele><time>2026-04-03T15:49:33.491Z</time></trkpt><trkpt lat="44.9605661" lon="9.7236081"><ele>101.0</ele><time>2026-04-03T15:49:34.503Z</time></trkpt><trkpt lat="44.9606842" lon="9.7238012"><ele>101.0</ele><time>2026-04-03T15:49:35.5Z</time></trkpt><trkpt lat="44.960803" lon="9.7239913"><ele>101.0</ele><time>2026-04-03T15:49:36.496Z</time></trkpt><trkpt lat="44.9609211" lon="9.7241817"><ele>101.0</ele><time>2026-04-03T15:49:37.496Z</time></trkpt><trkpt lat="44.9610385" lon="9.7243716"><ele>100.66666666666666</ele><time>2026-04-03T15:49:38.505Z</time></trkpt><trkpt lat="44.9611553" lon="9.7245604"><ele>100.33333333333334</ele><time>2026-04-03T15:49:39.508Z</time></trkpt><trkpt lat="44.9612737" lon="9.7247498"><ele>100.0</ele><time>2026-04-03T15:49:40.487Z</time></trkpt><trkpt lat="44.9613928" lon="9.7249432"><ele>100.0</ele><time>2026-04-03T15:49:41.489Z</time></trkpt><trkpt lat="44.9615131" lon="9.7251378"><ele>100.0</ele><time>2026-04-03T15:49:42.503Z</time></trkpt><trkpt lat="44.9616335" lon="9.7253361"><ele>100.0</ele><time>2026-04-03T15:49:43.491Z</time></trkpt><trkpt lat="44.9617559" lon="9.7255369"><ele>100.0</ele><time>2026-04-03T15:49:44.507Z</time></trkpt><trkpt lat="44.9618798" lon="9.7257428"><ele>100.0</ele><time>2026-04-03T15:49:45.491Z</time></trkpt><trkpt lat="44.9620054" lon="9.7259506"><ele>100.0</ele><time>2026-04-03T15:49:46.497Z</time></trkpt><trkpt lat="44.962132" lon="9.7261596"><ele>100.0</ele><time>2026-04-03T15:49:47.502Z</time></trkpt><trkpt lat="44.9622591" lon="9.7263709"><ele>100.0</ele><time>2026-04-03T15:49:48.494Z</time></trkpt><trkpt lat="44.9623881" lon="9.7265847"><ele>100.0</ele><time>2026-04-03T15:49:49.5Z</time></trkpt><trkpt lat="44.962519" lon="9.7267989"><ele>99.0</ele><time>2026-04-03T15:49:50.506Z</time></trkpt><trkpt lat="44.9626528" lon="9.7270159"><ele>98.0</ele><time>2026-04-03T15:49:51.511Z</time></trkpt><trkpt lat="44.9627901" lon="9.7272375"><ele>97.0</ele><time>2026-04-03T15:49:52.498Z</time></trkpt><trkpt lat="44.96293" lon="9.7274621"><ele>97.0</ele><time>2026-04-03T15:49:53.504Z</time></trkpt><trkpt lat="44.9630714" lon="9.7276886"><ele>97.0</ele><time>2026-04-03T15:49:54.503Z</time></trkpt><trkpt lat="44.9632125" lon="9.7279179"><ele>97.0</ele><time>2026-04-03T15:49:55.501Z</time></trkpt><trkpt lat="44.9633528" lon="9.7281476"><ele>97.0</ele><time>2026-04-03T15:49:56.503Z</time></trkpt><trkpt lat="44.9634938" lon="9.7283783"><ele>97.0</ele><time>2026-04-03T15:49:57.509Z</time></trkpt><trkpt lat="44.9636356" lon="9.7286113"><ele>97.0</ele><time>2026-04-03T15:49:58.502Z</time></trkpt><trkpt lat="44.9637777" lon="9.7288468"><ele>97.0</ele><time>2026-04-03T15:49:59.5Z</time></trkpt><trkpt lat="44.963919" lon="9.7290844"><ele>97.0</ele><time>2026-04-03T15:50:00.504Z</time></trkpt><trkpt lat="44.9640562" lon="9.7293248"><ele>97.0</ele><time>2026-04-03T15:50:01.495Z</time></trkpt><trkpt lat="44.9641837" lon="9.7295705"><ele>97.0</ele><time>2026-04-03T15:50:02.497Z</time></trkpt><trkpt lat="44.9643029" lon="9.729826"><ele>97.0</ele><time>2026-04-03T15:50:03.508Z</time></trkpt><trkpt lat="44.9644069" lon="9.730088"><ele>97.0</ele><time>2026-04-03T15:50:04.499Z</time></trkpt><trkpt lat="44.964499" lon="9.7303548"><ele>97.0</ele><time>2026-04-03T15:50:05.506Z</time></trkpt><trkpt lat="44.9645831" lon="9.7306267"><ele>97.0</ele><time>2026-04-03T15:50:06.5Z</time></trkpt><trkpt lat="44.96466" lon="9.7309036"><ele>97.0</ele><time>2026-04-03T15:50:07.502Z</time></trkpt><trkpt lat="44.9647352" lon="9.7311838"><ele>97.0</ele><time>2026-04-03T15:50:08.505Z</time></trkpt><trkpt lat="44.964812" lon="9.7314687"><ele>97.0</ele><time>2026-04-03T15:50:09.483Z</time></trkpt><trkpt lat="44.9648908" lon="9.7317578"><ele>97.0</ele><time>2026-04-03T15:50:10.502Z</time></trkpt><trkpt lat="44.9649698" lon="9.7320505"><ele>96.5</ele><time>2026-04-03T15:50:11.49Z</time></trkpt><trkpt lat="44.965051" lon="9.7323472"><ele>96.0</ele><time>2026-04-03T15:50:12.501Z</time></trkpt><trkpt lat="44.9651335" lon="9.7326482"><ele>96.5</ele><time>2026-04-03T15:50:13.52Z</time></trkpt><trkpt lat="44.9652179" lon="9.7329516"><ele>97.0</ele><time>2026-04-03T15:50:14.498Z</time></trkpt><trkpt lat="44.9653031" lon="9.733256"><ele>96.0</ele><time>2026-04-03T15:50:15.504Z</time></trkpt><trkpt lat="44.9653894" lon="9.7335617"><ele>95.0</ele><time>2026-04-03T15:50:16.499Z</time></trkpt><trkpt lat="44.965477" lon="9.7338697"><ele>95.0</ele><time>2026-04-03T15:50:17.495Z</time></trkpt><trkpt lat="44.9655641" lon="9.7341781"><ele>95.0</ele><time>2026-04-03T15:50:18.507Z</time></trkpt><trkpt lat="44.9656496" lon="9.7344841"><ele>94.66666666666667</ele><time>2026-04-03T15:50:19.494Z</time></trkpt><trkpt lat="44.9657337" lon="9.7347815"><ele>94.33333333333333</ele><time>2026-04-03T15:50:20.499Z</time></trkpt><trkpt lat="44.9658141" lon="9.7350629"><ele>94.0</ele><time>2026-04-03T15:50:21.503Z</time></trkpt><trkpt lat="44.9658852" lon="9.7353311"><ele>94.0</ele><time>2026-04-03T15:50:22.493Z</time></trkpt><trkpt lat="44.9659555" lon="9.7355835"><ele>94.0</ele><time>2026-04-03T15:50:23.494Z</time></trkpt><trkpt lat="44.9660219" lon="9.7358281"><ele>94.0</ele><time>2026-04-03T15:50:24.491Z</time></trkpt><trkpt lat="44.9660851" lon="9.7360623"><ele>93.66666666666666</ele><time>2026-04-03T15:50:25.503Z</time></trkpt><trkpt lat="44.9661473" lon="9.7362819"><ele>93.33333333333333</ele><time>2026-04-03T15:50:26.489Z</time></trkpt><trkpt lat="44.9662064" lon="9.7364878"><ele>93.0</ele><time>2026-04-03T15:50:27.504Z</time></trkpt><trkpt lat="44.9662627" lon="9.7366827"><ele>93.0</ele><time>2026-04-03T15:50:28.489Z</time></trkpt><trkpt lat="44.9663184" lon="9.7368678"><ele>93.0</ele><time>2026-04-03T15:50:29.502Z</time></trkpt><trkpt lat="44.9663717" lon="9.7370444"><ele>93.0</ele><time>2026-04-03T15:50:30.494Z</time></trkpt><trkpt lat="44.9664203" lon="9.7372047"><ele>93.0</ele><time>2026-04-03T15:50:31.503Z</time></trkpt><trkpt lat="44.9664593" lon="9.737343"><ele>93.2</ele><time>2026-04-03T15:50:32.489Z</time></trkpt><trkpt lat="44.9664865" lon="9.7374572"><ele>93.4</ele><time>2026-04-03T15:50:33.49Z</time></trkpt><trkpt lat="44.9665028" lon="9.7375476"><ele>93.60000000000001</ele><time>2026-04-03T15:50:34.504Z</time></trkpt><trkpt lat="44.9664979" lon="9.7376831"><ele>93.80000000000001</ele><time>2026-04-03T15:50:36.514Z</time></trkpt><trkpt lat="44.9664352" lon="9.7377936"><ele>94.0</ele><time>2026-04-03T15:50:38.487Z</time></trkpt><trkpt lat="44.9663308" lon="9.7378601"><ele>94.0</ele><time>2026-04-03T15:50:40.498Z</time></trkpt><trkpt lat="44.966265" lon="9.7378686"><ele>94.0</ele><time>2026-04-03T15:50:41.507Z</time></trkpt><trkpt lat="44.9661946" lon="9.7378671"><ele>94.0</ele><time>2026-04-03T15:50:42.501Z</time></trkpt><trkpt lat="44.9661034" lon="9.7378613"><ele>94.0</ele><time>2026-04-03T15:50:43.508Z</time></trkpt><trkpt lat="44.9659901" lon="9.7378541"><ele>94.0</ele><time>2026-04-03T15:50:44.499Z</time></trkpt><trkpt lat="44.9658624" lon="9.7378471"><ele>94.0</ele><time>2026-04-03T15:50:45.513Z</time></trkpt><trkpt lat="44.9657288" lon="9.7378409"><ele>94.0</ele><time>2026-04-03T15:50:46.505Z</time></trkpt><trkpt lat="44.9655915" lon="9.7378379"><ele>94.0</ele><time>2026-04-03T15:50:47.502Z</time></trkpt><trkpt lat="44.9654521" lon="9.7378324"><ele>94.0</ele><time>2026-04-03T15:50:48.493Z</time></trkpt><trkpt lat="44.9653094" lon="9.7378266"><ele>94.0</ele><time>2026-04-03T15:50:49.5Z</time></trkpt><trkpt lat="44.9651617" lon="9.7378229"><ele>94.0</ele><time>2026-04-03T15:50:50.501Z</time></trkpt><trkpt lat="44.9650167" lon="9.7378215"><ele>94.0</ele><time>2026-04-03T15:50:51.506Z</time></trkpt><trkpt lat="44.9648786" lon="9.7378218"><ele>94.0</ele><time>2026-04-03T15:50:52.502Z</time></trkpt><trkpt lat="44.9647404" lon="9.737818"><ele>93.33333333333333</ele><time>2026-04-03T15:50:53.503Z</time></trkpt><trkpt lat="44.9645977" lon="9.7378105"><ele>92.66666666666667</ele><time>2026-04-03T15:50:54.49Z</time></trkpt><trkpt lat="44.9644444" lon="9.737806"><ele>92.0</ele><time>2026-04-03T15:50:55.509Z</time></trkpt><trkpt lat="44.9642866" lon="9.7378038"><ele>92.66666666666667</ele><time>2026-04-03T15:50:56.491Z</time></trkpt><trkpt lat="44.9641249" lon="9.737801"><ele>93.33333333333333</ele><time>2026-04-03T15:50:57.496Z</time></trkpt><trkpt lat="44.9639587" lon="9.7377987"><ele>94.0</ele><time>2026-04-03T15:50:58.5Z</time></trkpt><trkpt lat="44.9637889" lon="9.737797"><ele>94.0</ele><time>2026-04-03T15:50:59.499Z</time></trkpt><trkpt lat="44.9636172" lon="9.737793"><ele>94.0</ele><time>2026-04-03T15:51:00.502Z</time></trkpt><trkpt lat="44.9634458" lon="9.7377877"><ele>94.0</ele><time>2026-04-03T15:51:01.498Z</time></trkpt><trkpt lat="44.963283" lon="9.7377847"><ele>94.5</ele><time>2026-04-03T15:51:02.491Z</time></trkpt><trkpt lat="44.9631313" lon="9.737784"><ele>95.0</ele><time>2026-04-03T15:51:03.505Z</time></trkpt><trkpt lat="44.9629913" lon="9.7377844"><ele>95.5</ele><time>2026-04-03T15:51:04.498Z</time></trkpt><trkpt lat="44.9628587" lon="9.7377827"><ele>96.0</ele><time>2026-04-03T15:51:05.501Z</time></trkpt><trkpt lat="44.9627356" lon="9.7377806"><ele>96.0</ele><time>2026-04-03T15:51:06.507Z</time></trkpt><trkpt lat="44.9626234" lon="9.7377783"><ele>96.0</ele><time>2026-04-03T15:51:07.506Z</time></trkpt><trkpt lat="44.9625232" lon="9.7377774"><ele>96.0</ele><time>2026-04-03T15:51:08.501Z</time></trkpt><trkpt lat="44.9624449" lon="9.7377786"><ele>96.0</ele><time>2026-04-03T15:51:09.491Z</time></trkpt><trkpt lat="44.9623681" lon="9.7377847"><ele>96.0</ele><time>2026-04-03T15:51:11.489Z</time></trkpt><trkpt lat="44.9622986" lon="9.7378385"><ele>96.0</ele><time>2026-04-03T15:51:15.499Z</time></trkpt><trkpt lat="44.9623251" lon="9.7380114"><ele>95.8</ele><time>2026-04-03T15:51:17.498Z</time></trkpt><trkpt lat="44.962346" lon="9.738131"><ele>95.6</ele><time>2026-04-03T15:51:18.488Z</time></trkpt><trkpt lat="44.9623627" lon="9.7382702"><ele>95.4</ele><time>2026-04-03T15:51:19.488Z</time></trkpt><trkpt lat="44.9623703" lon="9.7384362"><ele>95.2</ele><time>2026-04-03T15:51:20.496Z</time></trkpt><trkpt lat="44.9623722" lon="9.7386345"><ele>95.0</ele><time>2026-04-03T15:51:21.5Z</time></trkpt><trkpt lat="44.9623708" lon="9.7388311"><ele>94.66666666666667</ele><time>2026-04-03T15:51:22.501Z</time></trkpt><trkpt lat="44.9623661" lon="9.7390471"><ele>94.33333333333333</ele><time>2026-04-03T15:51:23.497Z</time></trkpt><trkpt lat="44.9623647" lon="9.7392774"><ele>94.0</ele><time>2026-04-03T15:51:24.51Z</time></trkpt><trkpt lat="44.9623621" lon="9.7395174"><ele>93.66666666666666</ele><time>2026-04-03T15:51:25.49Z</time></trkpt><trkpt lat="44.9623602" lon="9.7397642"><ele>93.33333333333333</ele><time>2026-04-03T15:51:26.502Z</time></trkpt><trkpt lat="44.9623586" lon="9.7400146"><ele>93.0</ele><time>2026-04-03T15:51:27.491Z</time></trkpt><trkpt lat="44.9623559" lon="9.7402665"><ele>93.0</ele><time>2026-04-03T15:51:28.505Z</time></trkpt><trkpt lat="44.9623518" lon="9.7405167"><ele>93.0</ele><time>2026-04-03T15:51:29.499Z</time></trkpt><trkpt lat="44.9623483" lon="9.7407611"><ele>93.0</ele><time>2026-04-03T15:51:30.498Z</time></trkpt><trkpt lat="44.9623466" lon="9.741002"><ele>92.66666666666667</ele><time>2026-04-03T15:51:31.504Z</time></trkpt><trkpt lat="44.9623446" lon="9.7412406"><ele>92.33333333333334</ele><time>2026-04-03T15:51:32.484Z</time></trkpt><trkpt lat="44.962342" lon="9.7414768"><ele>92.0</ele><time>2026-04-03T15:51:33.509Z</time></trkpt><trkpt lat="44.9623387" lon="9.7417115"><ele>91.66666666666667</ele><time>2026-04-03T15:51:34.505Z</time></trkpt><trkpt lat="44.9623358" lon="9.7419452"><ele>91.33333333333333</ele><time>2026-04-03T15:51:35.511Z</time></trkpt><trkpt lat="44.9623332" lon="9.7421779"><ele>91.0</ele><time>2026-04-03T15:51:36.493Z</time></trkpt><trkpt lat="44.9623284" lon="9.7424015"><ele>91.0</ele><time>2026-04-03T15:51:37.5Z</time></trkpt><trkpt lat="44.962325" lon="9.7426084"><ele>91.0</ele><time>2026-04-03T15:51:38.501Z</time></trkpt><trkpt lat="44.9623221" lon="9.7428003"><ele>91.0</ele><time>2026-04-03T15:51:39.505Z</time></trkpt><trkpt lat="44.9623229" lon="9.7429897"><ele>91.0</ele><time>2026-04-03T15:51:40.51Z</time></trkpt><trkpt lat="44.9623273" lon="9.7431784"><ele>90.75</ele><time>2026-04-03T15:51:41.493Z</time></trkpt><trkpt lat="44.9623314" lon="9.7433706"><ele>90.5</ele><time>2026-04-03T15:51:42.501Z</time></trkpt><trkpt lat="44.9623349" lon="9.7435679"><ele>90.25</ele><time>2026-04-03T15:51:43.507Z</time></trkpt><trkpt lat="44.9623391" lon="9.7437693"><ele>90.0</ele><time>2026-04-03T15:51:44.504Z</time></trkpt><trkpt lat="44.9623448" lon="9.743971"><ele>90.0</ele><time>2026-04-03T15:51:45.492Z</time></trkpt><trkpt lat="44.9623511" lon="9.7441687"><ele>90.0</ele><time>2026-04-03T15:51:46.509Z</time></trkpt><trkpt lat="44.9623562" lon="9.7443605"><ele>90.0</ele><time>2026-04-03T15:51:47.498Z</time></trkpt><trkpt lat="44.9623595" lon="9.7445475"><ele>90.0</ele><time>2026-04-03T15:51:48.501Z</time></trkpt><trkpt lat="44.9623632" lon="9.7447299"><ele>89.75</ele><time>2026-04-03T15:51:49.502Z</time></trkpt><trkpt lat="44.9623665" lon="9.7449064"><ele>89.5</ele><time>2026-04-03T15:51:50.492Z</time></trkpt><trkpt lat="44.96237" lon="9.7450786"><ele>89.25</ele><time>2026-04-03T15:51:51.506Z</time></trkpt><trkpt lat="44.9623746" lon="9.7452528"><ele>89.0</ele><time>2026-04-03T15:51:52.498Z</time></trkpt><trkpt lat="44.9623811" lon="9.7454286"><ele>89.0</ele><time>2026-04-03T15:51:53.512Z</time></trkpt><trkpt lat="44.9623871" lon="9.7456053"><ele>89.0</ele><time>2026-04-03T15:51:54.506Z</time></trkpt><trkpt lat="44.9623895" lon="9.7457786"><ele>89.0</ele><time>2026-04-03T15:51:55.504Z</time></trkpt><trkpt lat="44.9623909" lon="9.7459478"><ele>89.0</ele><time>2026-04-03T15:51:56.506Z</time></trkpt><trkpt lat="44.962394" lon="9.7461146"><ele>89.4</ele><time>2026-04-03T15:51:57.51Z</time></trkpt><trkpt lat="44.9623983" lon="9.7462777"><ele>89.80000000000001</ele><time>2026-04-03T15:51:58.503Z</time></trkpt><trkpt lat="44.9624033" lon="9.7464335"><ele>90.19999999999999</ele><time>2026-04-03T15:51:59.492Z</time></trkpt><trkpt lat="44.9624066" lon="9.746579"><ele>90.6</ele><time>2026-04-03T15:52:00.508Z</time></trkpt><trkpt lat="44.9624106" lon="9.7467056"><ele>91.0</ele><time>2026-04-03T15:52:01.514Z</time></trkpt><trkpt lat="44.9624143" lon="9.7468055"><ele>91.0</ele><time>2026-04-03T15:52:02.509Z</time></trkpt><trkpt lat="44.9624137" lon="9.7469283"><ele>91.0</ele><time>2026-04-03T15:52:04.496Z</time></trkpt><trkpt lat="44.9624727" lon="9.7469642"><ele>91.0</ele><time>2026-04-03T15:52:54.487Z</time></trkpt><trkpt lat="44.9624785" lon="9.7468305"><ele>91.0</ele><time>2026-04-03T15:52:56.487Z</time></trkpt><trkpt lat="44.962467" lon="9.7466937"><ele>91.0</ele><time>2026-04-03T15:52:57.489Z</time></trkpt><trkpt lat="44.962457" lon="9.7465318"><ele>91.0</ele><time>2026-04-03T15:52:58.491Z</time></trkpt><trkpt lat="44.9624496" lon="9.746358"><ele>91.0</ele><time>2026-04-03T15:52:59.494Z</time></trkpt><trkpt lat="44.9624415" lon="9.7461725"><ele>91.0</ele><time>2026-04-03T15:53:00.488Z</time></trkpt><trkpt lat="44.9624363" lon="9.7459811"><ele>91.0</ele><time>2026-04-03T15:53:01.486Z</time></trkpt><trkpt lat="44.9624322" lon="9.7457894"><ele>90.5</ele><time>2026-04-03T15:53:02.497Z</time></trkpt><trkpt lat="44.9624273" lon="9.7455958"><ele>90.0</ele><time>2026-04-03T15:53:03.489Z</time></trkpt><trkpt lat="44.9624211" lon="9.7453937"><ele>89.5</ele><time>2026-04-03T15:53:04.485Z</time></trkpt><trkpt lat="44.9624151" lon="9.7451841"><ele>89.0</ele><time>2026-04-03T15:53:05.5Z</time></trkpt><trkpt lat="44.9624113" lon="9.7449684"><ele>89.0</ele><time>2026-04-03T15:53:06.49Z</time></trkpt><trkpt lat="44.9624067" lon="9.7447321"><ele>89.0</ele><time>2026-04-03T15:53:07.491Z</time></trkpt><trkpt lat="44.9623992" lon="9.7444611"><ele>89.0</ele><time>2026-04-03T15:53:08.493Z</time></trkpt><trkpt lat="44.9623907" lon="9.7441625"><ele>89.5</ele><time>2026-04-03T15:53:09.483Z</time></trkpt><trkpt lat="44.9623797" lon="9.7438437"><ele>90.0</ele><time>2026-04-03T15:53:10.489Z</time></trkpt><trkpt lat="44.9623686" lon="9.7435089"><ele>90.0</ele><time>2026-04-03T15:53:11.497Z</time></trkpt><trkpt lat="44.9623618" lon="9.7431655"><ele>90.0</ele><time>2026-04-03T15:53:12.489Z</time></trkpt><trkpt lat="44.9623595" lon="9.7428151"><ele>90.5</ele><time>2026-04-03T15:53:13.498Z</time></trkpt><trkpt lat="44.9623618" lon="9.7424625"><ele>91.0</ele><time>2026-04-03T15:53:14.495Z</time></trkpt><trkpt lat="44.962366" lon="9.7421083"><ele>91.5</ele><time>2026-04-03T15:53:15.49Z</time></trkpt><trkpt lat="44.9623716" lon="9.7417536"><ele>92.0</ele><time>2026-04-03T15:53:16.493Z</time></trkpt><trkpt lat="44.9623772" lon="9.7413979"><ele>92.0</ele><time>2026-04-03T15:53:17.487Z</time></trkpt><trkpt lat="44.9623801" lon="9.7410493"><ele>92.0</ele><time>2026-04-03T15:53:18.49Z</time></trkpt><trkpt lat="44.9623822" lon="9.740724"><ele>92.33333333333334</ele><time>2026-04-03T15:53:19.492Z</time></trkpt><trkpt lat="44.962385" lon="9.740422"><ele>92.66666666666667</ele><time>2026-04-03T15:53:20.487Z</time></trkpt><trkpt lat="44.9623881" lon="9.7401369"><ele>93.0</ele><time>2026-04-03T15:53:21.493Z</time></trkpt><trkpt lat="44.9623911" lon="9.7398618"><ele>93.0</ele><time>2026-04-03T15:53:22.487Z</time></trkpt><trkpt lat="44.9623931" lon="9.7395945"><ele>93.0</ele><time>2026-04-03T15:53:23.495Z</time></trkpt><trkpt lat="44.9623947" lon="9.7393375"><ele>93.0</ele><time>2026-04-03T15:53:24.487Z</time></trkpt><trkpt lat="44.9623971" lon="9.7390906"><ele>93.33333333333333</ele><time>2026-04-03T15:53:25.486Z</time></trkpt><trkpt lat="44.9623978" lon="9.7388535"><ele>93.66666666666666</ele><time>2026-04-03T15:53:26.492Z</time></trkpt><trkpt lat="44.9623969" lon="9.7386268"><ele>94.0</ele><time>2026-04-03T15:53:27.492Z</time></trkpt><trkpt lat="44.9623984" lon="9.7384248"><ele>94.2</ele><time>2026-04-03T15:53:28.488Z</time></trkpt><trkpt lat="44.9624058" lon="9.7382554"><ele>94.4</ele><time>2026-04-03T15:53:29.498Z</time></trkpt><trkpt lat="44.9624211" lon="9.7381279"><ele>94.6</ele><time>2026-04-03T15:53:30.485Z</time></trkpt><trkpt lat="44.9624517" lon="9.7380193"><ele>94.8</ele><time>2026-04-03T15:53:32.495Z</time></trkpt><trkpt lat="44.9624993" lon="9.7379073"><ele>95.0</ele><time>2026-04-03T15:53:49.489Z</time></trkpt><trkpt lat="44.9625764" lon="9.7378355"><ele>95.2</ele><time>2026-04-03T15:53:51.487Z</time></trkpt><trkpt lat="44.962655" lon="9.7378147"><ele>95.4</ele><time>2026-04-03T15:53:52.489Z</time></trkpt><trkpt lat="44.9627567" lon="9.7378099"><ele>95.6</ele><time>2026-04-03T15:53:53.486Z</time></trkpt><trkpt lat="44.9628748" lon="9.7378113"><ele>95.8</ele><time>2026-04-03T15:53:54.487Z</time></trkpt><trkpt lat="44.9630136" lon="9.7378109"><ele>96.0</ele><time>2026-04-03T15:53:55.49Z</time></trkpt><trkpt lat="44.9631664" lon="9.7378116"><ele>96.0</ele><time>2026-04-03T15:53:56.487Z</time></trkpt><trkpt lat="44.9633278" lon="9.7378141"><ele>96.0</ele><time>2026-04-03T15:53:57.491Z</time></trkpt><trkpt lat="44.9635034" lon="9.7378145"><ele>96.0</ele><time>2026-04-03T15:53:58.486Z</time></trkpt><trkpt lat="44.9636999" lon="9.7378145"><ele>95.33333333333333</ele><time>2026-04-03T15:53:59.491Z</time></trkpt><trkpt lat="44.9639032" lon="9.7378182"><ele>94.66666666666666</ele><time>2026-04-03T15:54:00.487Z</time></trkpt><trkpt lat="44.964093" lon="9.7378262"><ele>94.0</ele><time>2026-04-03T15:54:01.492Z</time></trkpt><trkpt lat="44.9642678" lon="9.7378308"><ele>93.33333333333333</ele><time>2026-04-03T15:54:02.487Z</time></trkpt><trkpt lat="44.9644315" lon="9.7378367"><ele>92.66666666666667</ele><time>2026-04-03T15:54:03.491Z</time></trkpt><trkpt lat="44.9645847" lon="9.7378432"><ele>92.0</ele><time>2026-04-03T15:54:04.489Z</time></trkpt><trkpt lat="44.9647302" lon="9.7378478"><ele>92.0</ele><time>2026-04-03T15:54:05.49Z</time></trkpt><trkpt lat="44.9648726" lon="9.7378497"><ele>92.0</ele><time>2026-04-03T15:54:06.482Z</time></trkpt><trkpt lat="44.9650148" lon="9.7378514"><ele>92.0</ele><time>2026-04-03T15:54:07.493Z</time></trkpt><trkpt lat="44.9651549" lon="9.7378537"><ele>92.0</ele><time>2026-04-03T15:54:08.495Z</time></trkpt><trkpt lat="44.9652923" lon="9.7378575"><ele>92.5</ele><time>2026-04-03T15:54:09.483Z</time></trkpt><trkpt lat="44.9654292" lon="9.7378605"><ele>93.0</ele><time>2026-04-03T15:54:10.485Z</time></trkpt><trkpt lat="44.9655634" lon="9.7378625"><ele>93.5</ele><time>2026-04-03T15:54:11.494Z</time></trkpt><trkpt lat="44.9656948" lon="9.7378635"><ele>94.0</ele><time>2026-04-03T15:54:12.486Z</time></trkpt><trkpt lat="44.9658166" lon="9.737866"><ele>94.0</ele><time>2026-04-03T15:54:13.496Z</time></trkpt><trkpt lat="44.965928" lon="9.7378687"><ele>94.0</ele><time>2026-04-03T15:54:14.49Z</time></trkpt><trkpt lat="44.9660255" lon="9.7378732"><ele>94.0</ele><time>2026-04-03T15:54:15.489Z</time></trkpt><trkpt lat="44.9661156" lon="9.7378772"><ele>94.0</ele><time>2026-04-03T15:54:16.492Z</time></trkpt><trkpt lat="44.9662032" lon="9.7378825"><ele>94.0</ele><time>2026-04-03T15:54:17.494Z</time></trkpt><trkpt lat="44.9662871" lon="9.7378903"><ele>94.0</ele><time>2026-04-03T15:54:18.486Z</time></trkpt><trkpt lat="44.9663631" lon="9.7378986"><ele>94.0</ele><time>2026-04-03T15:54:19.491Z</time></trkpt><trkpt lat="44.9664307" lon="9.7379028"><ele>94.0</ele><time>2026-04-03T15:54:20.495Z</time></trkpt><trkpt lat="44.9665399" lon="9.7378694"><ele>94.0</ele><time>2026-04-03T15:54:22.488Z</time></trkpt><trkpt lat="44.9665626" lon="9.7377155"><ele>94.0</ele><time>2026-04-03T15:54:24.494Z</time></trkpt><trkpt lat="44.9665408" lon="9.7375981"><ele>94.25</ele><time>2026-04-03T15:54:25.485Z</time></trkpt><trkpt lat="44.9665014" lon="9.7374533"><ele>94.5</ele><time>2026-04-03T15:54:26.486Z</time></trkpt><trkpt lat="44.9664591" lon="9.7372999"><ele>94.75</ele><time>2026-04-03T15:54:27.486Z</time></trkpt><trkpt lat="44.9664134" lon="9.737138"><ele>95.0</ele><time>2026-04-03T15:54:28.488Z</time></trkpt><trkpt lat="44.9663657" lon="9.7369694"><ele>94.33333333333334</ele><time>2026-04-03T15:54:29.489Z</time></trkpt><trkpt lat="44.9663136" lon="9.7367812"><ele>93.66666666666667</ele><time>2026-04-03T15:54:30.487Z</time></trkpt><trkpt lat="44.966258" lon="9.7365846"><ele>93.0</ele><time>2026-04-03T15:54:31.488Z</time></trkpt><trkpt lat="44.9661993" lon="9.736379"><ele>93.0</ele><time>2026-04-03T15:54:32.487Z</time></trkpt><trkpt lat="44.9661398" lon="9.736165"><ele>93.0</ele><time>2026-04-03T15:54:33.489Z</time></trkpt><trkpt lat="44.9660802" lon="9.7359516"><ele>93.0</ele><time>2026-04-03T15:54:34.485Z</time></trkpt><trkpt lat="44.966021" lon="9.7357424"><ele>93.25</ele><time>2026-04-03T15:54:35.487Z</time></trkpt><trkpt lat="44.9659655" lon="9.7355407"><ele>93.5</ele><time>2026-04-03T15:54:36.486Z</time></trkpt><trkpt lat="44.9659108" lon="9.7353466"><ele>93.75</ele><time>2026-04-03T15:54:37.495Z</time></trkpt><trkpt lat="44.9658609" lon="9.7351607"><ele>94.0</ele><time>2026-04-03T15:54:38.488Z</time></trkpt><trkpt lat="44.9658143" lon="9.7349847"><ele>94.0</ele><time>2026-04-03T15:54:39.489Z</time></trkpt><trkpt lat="44.9657686" lon="9.7348226"><ele>94.0</ele><time>2026-04-03T15:54:40.482Z</time></trkpt><trkpt lat="44.9657247" lon="9.7346613"><ele>94.0</ele><time>2026-04-03T15:54:41.485Z</time></trkpt><trkpt lat="44.9656798" lon="9.734502"><ele>94.0</ele><time>2026-04-03T15:54:42.493Z</time></trkpt><trkpt lat="44.9656349" lon="9.7343408"><ele>94.25</ele><time>2026-04-03T15:54:43.501Z</time></trkpt><trkpt lat="44.9655919" lon="9.7341859"><ele>94.5</ele><time>2026-04-03T15:54:44.484Z</time></trkpt><trkpt lat="44.9655493" lon="9.7340371"><ele>94.75</ele><time>2026-04-03T15:54:45.487Z</time></trkpt><trkpt lat="44.9655088" lon="9.7338889"><ele>95.0</ele><time>2026-04-03T15:54:46.494Z</time></trkpt><trkpt lat="44.9654683" lon="9.7337399"><ele>95.0</ele><time>2026-04-03T15:54:47.485Z</time></trkpt><trkpt lat="44.9654248" lon="9.7335865"><ele>95.0</ele><time>2026-04-03T15:54:48.488Z</time></trkpt><trkpt lat="44.9653789" lon="9.7334233"><ele>95.0</ele><time>2026-04-03T15:54:49.489Z</time></trkpt><trkpt lat="44.9653309" lon="9.7332532"><ele>95.0</ele><time>2026-04-03T15:54:50.487Z</time></trkpt><trkpt lat="44.9652805" lon="9.733073"><ele>95.25</ele><time>2026-04-03T15:54:51.495Z</time></trkpt><trkpt lat="44.9652282" lon="9.7328864"><ele>95.5</ele><time>2026-04-03T15:54:52.491Z</time></trkpt><trkpt lat="44.965174" lon="9.7326931"><ele>95.75</ele><time>2026-04-03T15:54:53.492Z</time></trkpt><trkpt lat="44.9651204" lon="9.7324978"><ele>96.0</ele><time>2026-04-03T15:54:54.492Z</time></trkpt><trkpt lat="44.9650638" lon="9.7322966"><ele>96.33333333333334</ele><time>2026-04-03T15:54:55.49Z</time></trkpt><trkpt lat="44.9650059" lon="9.7320888"><ele>96.66666666666667</ele><time>2026-04-03T15:54:56.497Z</time></trkpt><trkpt lat="44.9649482" lon="9.731876"><ele>97.0</ele><time>2026-04-03T15:54:57.491Z</time></trkpt><trkpt lat="44.9648864" lon="9.7316616"><ele>97.0</ele><time>2026-04-03T15:54:58.485Z</time></trkpt><trkpt lat="44.9648239" lon="9.7314447"><ele>97.0</ele><time>2026-04-03T15:54:59.496Z</time></trkpt><trkpt lat="44.9647638" lon="9.7312286"><ele>97.0</ele><time>2026-04-03T15:55:00.485Z</time></trkpt><trkpt lat="44.964705" lon="9.7310165"><ele>97.0</ele><time>2026-04-03T15:55:01.487Z</time></trkpt><trkpt lat="44.9646475" lon="9.7308067"><ele>97.0</ele><time>2026-04-03T15:55:02.493Z</time></trkpt><trkpt lat="44.9645914" lon="9.730602"><ele>97.0</ele><time>2026-04-03T15:55:03.491Z</time></trkpt><trkpt lat="44.9645366" lon="9.7304087"><ele>97.0</ele><time>2026-04-03T15:55:04.493Z</time></trkpt><trkpt lat="44.9644775" lon="9.7302256"><ele>97.0</ele><time>2026-04-03T15:55:05.485Z</time></trkpt><trkpt lat="44.9644133" lon="9.7300509"><ele>97.0</ele><time>2026-04-03T15:55:06.485Z</time></trkpt><trkpt lat="44.9643453" lon="9.729883"><ele>97.0</ele><time>2026-04-03T15:55:07.489Z</time></trkpt><trkpt lat="44.9642731" lon="9.7297176"><ele>97.0</ele><time>2026-04-03T15:55:08.482Z</time></trkpt><trkpt lat="44.9641972" lon="9.7295558"><ele>97.0</ele><time>2026-04-03T15:55:09.49Z</time></trkpt><trkpt lat="44.9641191" lon="9.7293935"><ele>97.0</ele><time>2026-04-03T15:55:10.488Z</time></trkpt><trkpt lat="44.9640388" lon="9.7292352"><ele>97.0</ele><time>2026-04-03T15:55:11.494Z</time></trkpt><trkpt lat="44.9639574" lon="9.7290847"><ele>97.0</ele><time>2026-04-03T15:55:12.488Z</time></trkpt><trkpt lat="44.9638747" lon="9.7289449"><ele>97.0</ele><time>2026-04-03T15:55:13.498Z</time></trkpt><trkpt lat="44.9637928" lon="9.728808"><ele>97.0</ele><time>2026-04-03T15:55:14.491Z</time></trkpt><trkpt lat="44.9637111" lon="9.7286737"><ele>97.0</ele><time>2026-04-03T15:55:15.497Z</time></trkpt><trkpt lat="44.9636294" lon="9.7285405"><ele>97.5</ele><time>2026-04-03T15:55:16.493Z</time></trkpt><trkpt lat="44.963548" lon="9.7284061"><ele>98.0</ele><time>2026-04-03T15:55:17.488Z</time></trkpt><trkpt lat="44.9634674" lon="9.7282697"><ele>98.5</ele><time>2026-04-03T15:55:18.496Z</time></trkpt><trkpt lat="44.9633879" lon="9.7281353"><ele>99.0</ele><time>2026-04-03T15:55:19.488Z</time></trkpt><trkpt lat="44.9633095" lon="9.7280022"><ele>99.0</ele><time>2026-04-03T15:55:20.498Z</time></trkpt><trkpt lat="44.9632302" lon="9.7278717"><ele>99.0</ele><time>2026-04-03T15:55:21.491Z</time></trkpt><trkpt lat="44.9631497" lon="9.7277372"><ele>99.0</ele><time>2026-04-03T15:55:22.49Z</time></trkpt><trkpt lat="44.963064" lon="9.7275969"><ele>99.0</ele><time>2026-04-03T15:55:23.496Z</time></trkpt><trkpt lat="44.9629748" lon="9.727451"><ele>98.5</ele><time>2026-04-03T15:55:24.494Z</time></trkpt><trkpt lat="44.9628832" lon="9.7272996"><ele>98.0</ele><time>2026-04-03T15:55:25.494Z</time></trkpt><trkpt lat="44.9627896" lon="9.727144"><ele>97.5</ele><time>2026-04-03T15:55:26.494Z</time></trkpt><trkpt lat="44.9626952" lon="9.7269879"><ele>97.0</ele><time>2026-04-03T15:55:27.489Z</time></trkpt><trkpt lat="44.9626019" lon="9.7268352"><ele>97.75</ele><time>2026-04-03T15:55:28.49Z</time></trkpt><trkpt lat="44.9625095" lon="9.726684"><ele>98.5</ele><time>2026-04-03T15:55:29.484Z</time></trkpt><trkpt lat="44.9624185" lon="9.7265357"><ele>99.25</ele><time>2026-04-03T15:55:30.491Z</time></trkpt><trkpt lat="44.9623295" lon="9.7263912"><ele>100.0</ele><time>2026-04-03T15:55:31.493Z</time></trkpt><trkpt lat="44.962242" lon="9.7262482"><ele>100.0</ele><time>2026-04-03T15:55:32.493Z</time></trkpt><trkpt lat="44.9621552" lon="9.7261052"><ele>100.0</ele><time>2026-04-03T15:55:33.486Z</time></trkpt><trkpt lat="44.9620681" lon="9.7259623"><ele>100.0</ele><time>2026-04-03T15:55:34.489Z</time></trkpt><trkpt lat="44.9619784" lon="9.7258183"><ele>100.0</ele><time>2026-04-03T15:55:35.491Z</time></trkpt><trkpt lat="44.961887" lon="9.7256715"><ele>100.0</ele><time>2026-04-03T15:55:36.492Z</time></trkpt><trkpt lat="44.9617955" lon="9.7255236"><ele>100.0</ele><time>2026-04-03T15:55:37.491Z</time></trkpt><trkpt lat="44.9617057" lon="9.7253774"><ele>100.0</ele><time>2026-04-03T15:55:38.486Z</time></trkpt><trkpt lat="44.9616172" lon="9.7252326"><ele>100.0</ele><time>2026-04-03T15:55:39.491Z</time></trkpt><trkpt lat="44.9615308" lon="9.725089"><ele>100.0</ele><time>2026-04-03T15:55:40.492Z</time></trkpt><trkpt lat="44.9614441" lon="9.7249474"><ele>100.0</ele><time>2026-04-03T15:55:41.487Z</time></trkpt><trkpt lat="44.9613601" lon="9.7248094"><ele>100.0</ele><time>2026-04-03T15:55:42.488Z</time></trkpt><trkpt lat="44.9612828" lon="9.7246802"><ele>100.0</ele><time>2026-04-03T15:55:43.494Z</time></trkpt><trkpt lat="44.9612202" lon="9.7245646"><ele>100.00000000000001</ele><time>2026-04-03T15:55:44.486Z</time></trkpt><trkpt lat="44.9611779" lon="9.7244597"><ele>100.0</ele><time>2026-04-03T15:55:45.493Z</time></trkpt><trkpt lat="44.9611547" lon="9.724365"><ele>100.0</ele><time>2026-04-03T15:55:46.489Z</time></trkpt><trkpt lat="44.9611132" lon="9.7242433"><ele>100.0</ele><time>2026-04-03T15:55:48.491Z</time></trkpt><trkpt lat="44.9610588" lon="9.7241807"><ele>100.00000000000001</ele><time>2026-04-03T15:57:49.488Z</time></trkpt><trkpt lat="44.9609698" lon="9.7241004"><ele>100.0</ele><time>2026-04-03T15:57:51.489Z</time></trkpt><trkpt lat="44.9609046" lon="9.7240315"><ele>100.25</ele><time>2026-04-03T15:57:52.498Z</time></trkpt><trkpt lat="44.9608298" lon="9.7239438"><ele>100.5</ele><time>2026-04-03T15:57:53.49Z</time></trkpt><trkpt lat="44.9607468" lon="9.7238382"><ele>100.75</ele><time>2026-04-03T15:57:54.487Z</time></trkpt><trkpt lat="44.9606613" lon="9.7237129"><ele>101.0</ele><time>2026-04-03T15:57:55.489Z</time></trkpt><trkpt lat="44.9605768" lon="9.7235636"><ele>101.0</ele><time>2026-04-03T15:57:56.487Z</time></trkpt><trkpt lat="44.9604886" lon="9.7234147"><ele>101.0</ele><time>2026-04-03T15:57:57.489Z</time></trkpt><trkpt lat="44.9603994" lon="9.7232686"><ele>101.0</ele><time>2026-04-03T15:57:58.497Z</time></trkpt><trkpt lat="44.9603105" lon="9.7231169"><ele>101.0</ele><time>2026-04-03T15:57:59.5Z</time></trkpt><trkpt lat="44.9602188" lon="9.7229665"><ele>101.0</ele><time>2026-04-03T15:58:00.502Z</time></trkpt><trkpt lat="44.9601252" lon="9.7228166"><ele>101.0</ele><time>2026-04-03T15:58:01.501Z</time></trkpt><trkpt lat="44.9600252" lon="9.7226673"><ele>101.0</ele><time>2026-04-03T15:58:02.51Z</time></trkpt><trkpt lat="44.9599151" lon="9.7225134"><ele>101.0</ele><time>2026-04-03T15:58:03.493Z</time></trkpt><trkpt lat="44.9597976" lon="9.722357"><ele>101.0</ele><time>2026-04-03T15:58:04.5Z</time></trkpt><trkpt lat="44.9596715" lon="9.7221921"><ele>101.0</ele><time>2026-04-03T15:58:05.499Z</time></trkpt><trkpt lat="44.9595406" lon="9.7220156"><ele>101.0</ele><time>2026-04-03T15:58:06.515Z</time></trkpt><trkpt lat="44.9593958" lon="9.7218183"><ele>101.5</ele><time>2026-04-03T15:58:07.507Z</time></trkpt><trkpt lat="44.9592326" lon="9.7215988"><ele>102.0</ele><time>2026-04-03T15:58:08.501Z</time></trkpt><trkpt lat="44.9590571" lon="9.7213678"><ele>102.5</ele><time>2026-04-03T15:58:09.503Z</time></trkpt><trkpt lat="44.958879" lon="9.7211267"><ele>103.0</ele><time>2026-04-03T15:58:10.509Z</time></trkpt><trkpt lat="44.9587004" lon="9.7208858"><ele>103.5</ele><time>2026-04-03T15:58:11.509Z</time></trkpt><trkpt lat="44.9585195" lon="9.720646"><ele>104.0</ele><time>2026-04-03T15:58:12.511Z</time></trkpt><trkpt lat="44.9583378" lon="9.7204085"><ele>104.5</ele><time>2026-04-03T15:58:13.503Z</time></trkpt><trkpt lat="44.9581577" lon="9.7201724"><ele>105.0</ele><time>2026-04-03T15:58:14.506Z</time></trkpt><trkpt lat="44.957979" lon="9.7199362"><ele>105.0</ele><time>2026-04-03T15:58:15.498Z</time></trkpt><trkpt lat="44.9578011" lon="9.7197007"><ele>105.0</ele><time>2026-04-03T15:58:16.512Z</time></trkpt><trkpt lat="44.9576305" lon="9.7194715"><ele>104.66666666666666</ele><time>2026-04-03T15:58:17.513Z</time></trkpt><trkpt lat="44.9574702" lon="9.7192563"><ele>104.33333333333333</ele><time>2026-04-03T15:58:18.493Z</time></trkpt><trkpt lat="44.9573226" lon="9.7190589"><ele>104.0</ele><time>2026-04-03T15:58:19.51Z</time></trkpt><trkpt lat="44.9571862" lon="9.7188762"><ele>104.0</ele><time>2026-04-03T15:58:20.509Z</time></trkpt><trkpt lat="44.9570616" lon="9.7187059"><ele>104.0</ele><time>2026-04-03T15:58:21.505Z</time></trkpt><trkpt lat="44.9569489" lon="9.7185454"><ele>104.0</ele><time>2026-04-03T15:58:22.509Z</time></trkpt><trkpt lat="44.9568444" lon="9.7183878"><ele>104.0</ele><time>2026-04-03T15:58:23.492Z</time></trkpt><trkpt lat="44.9567549" lon="9.7182282"><ele>104.0</ele><time>2026-04-03T15:58:24.513Z</time></trkpt><trkpt lat="44.956677" lon="9.7180665"><ele>104.0</ele><time>2026-04-03T15:58:25.491Z</time></trkpt><trkpt lat="44.9566087" lon="9.7179068"><ele>104.0</ele><time>2026-04-03T15:58:26.503Z</time></trkpt><trkpt lat="44.9565492" lon="9.7177472"><ele>104.25</ele><time>2026-04-03T15:58:27.514Z</time></trkpt><trkpt lat="44.9564991" lon="9.7175865"><ele>104.5</ele><time>2026-04-03T15:58:28.502Z</time></trkpt><trkpt lat="44.9564567" lon="9.7174258"><ele>104.75</ele><time>2026-04-03T15:58:29.504Z</time></trkpt><trkpt lat="44.9564215" lon="9.7172674"><ele>105.0</ele><time>2026-04-03T15:58:30.512Z</time></trkpt><trkpt lat="44.9563939" lon="9.7171153"><ele>105.0</ele><time>2026-04-03T15:58:31.506Z</time></trkpt><trkpt lat="44.9563721" lon="9.7169703"><ele>105.0</ele><time>2026-04-03T15:58:32.497Z</time></trkpt><trkpt lat="44.9563562" lon="9.7168367"><ele>105.0</ele><time>2026-04-03T15:58:33.505Z</time></trkpt><trkpt lat="44.9563459" lon="9.7167103"><ele>105.0</ele><time>2026-04-03T15:58:34.499Z</time></trkpt><trkpt lat="44.9563393" lon="9.7166016"><ele>105.0</ele><time>2026-04-03T15:58:35.503Z</time></trkpt><trkpt lat="44.9563048" lon="9.7164809"><ele>105.0</ele><time>2026-04-03T15:58:37.502Z</time></trkpt><trkpt lat="44.9562519" lon="9.7165392"><ele>105.0</ele><time>2026-04-03T15:58:40.49Z</time></trkpt><trkpt lat="44.9562636" lon="9.7166392"><ele>105.0</ele><time>2026-04-03T15:58:42.49Z</time></trkpt><trkpt lat="44.9562934" lon="9.7167478"><ele>105.0</ele><time>2026-04-03T15:58:44.491Z</time></trkpt><trkpt lat="44.9563335" lon="9.716936"><ele>105.0</ele><time>2026-04-03T15:58:46.49Z</time></trkpt><trkpt lat="44.9563485" lon="9.7170647"><ele>105.0</ele><time>2026-04-03T15:58:47.49Z</time></trkpt><trkpt lat="44.9563534" lon="9.7171893"><ele>105.0</ele><time>2026-04-03T15:58:48.487Z</time></trkpt><trkpt lat="44.9563383" lon="9.7173002"><ele>105.0</ele><time>2026-04-03T15:58:49.491Z</time></trkpt><trkpt lat="44.9562957" lon="9.7173943"><ele>105.0</ele><time>2026-04-03T15:58:50.494Z</time></trkpt><trkpt lat="44.9562522" lon="9.717489"><ele>105.0</ele><time>2026-04-03T15:58:51.49Z</time></trkpt><trkpt lat="44.9562235" lon="9.7175938"><ele>105.0</ele><time>2026-04-03T15:58:52.488Z</time></trkpt><trkpt lat="44.9562075" lon="9.7177086"><ele>104.8</ele><time>2026-04-03T15:58:53.498Z</time></trkpt><trkpt lat="44.9561989" lon="9.7178289"><ele>104.6</ele><time>2026-04-03T15:58:54.492Z</time></trkpt><trkpt lat="44.9561879" lon="9.7179621"><ele>104.4</ele><time>2026-04-03T15:58:55.488Z</time></trkpt><trkpt lat="44.9561734" lon="9.7181157"><ele>104.2</ele><time>2026-04-03T15:58:56.494Z</time></trkpt><trkpt lat="44.9561572" lon="9.7182787"><ele>104.0</ele><time>2026-04-03T15:58:57.492Z</time></trkpt><trkpt lat="44.9561421" lon="9.7184394"><ele>104.0</ele><time>2026-04-03T15:58:58.489Z</time></trkpt><trkpt lat="44.9561248" lon="9.7185995"><ele>104.0</ele><time>2026-04-03T15:58:59.492Z</time></trkpt><trkpt lat="44.9561109" lon="9.7187568"><ele>104.0</ele><time>2026-04-03T15:59:00.491Z</time></trkpt><trkpt lat="44.9560972" lon="9.7189141"><ele>104.0</ele><time>2026-04-03T15:59:01.488Z</time></trkpt><trkpt lat="44.9560844" lon="9.7190649"><ele>104.0</ele><time>2026-04-03T15:59:02.487Z</time></trkpt><trkpt lat="44.9560712" lon="9.7192133"><ele>104.0</ele><time>2026-04-03T15:59:03.484Z</time></trkpt><trkpt lat="44.9560565" lon="9.7193601"><ele>104.0</ele><time>2026-04-03T15:59:04.487Z</time></trkpt><trkpt lat="44.956041" lon="9.7195037"><ele>104.0</ele><time>2026-04-03T15:59:05.489Z</time></trkpt><trkpt lat="44.9560279" lon="9.7196429"><ele>104.0</ele><time>2026-04-03T15:59:06.492Z</time></trkpt><trkpt lat="44.9560139" lon="9.7197788"><ele>104.0</ele><time>2026-04-03T15:59:07.487Z</time></trkpt><trkpt lat="44.9560015" lon="9.719906"><ele>103.83333333333333</ele><time>2026-04-03T15:59:08.49Z</time></trkpt><trkpt lat="44.9559906" lon="9.720026"><ele>103.66666666666666</ele><time>2026-04-03T15:59:09.487Z</time></trkpt><trkpt lat="44.9559808" lon="9.7201349"><ele>103.5</ele><time>2026-04-03T15:59:10.49Z</time></trkpt><trkpt lat="44.9559747" lon="9.7202358"><ele>103.33333333333334</ele><time>2026-04-03T15:59:11.492Z</time></trkpt><trkpt lat="44.955968" lon="9.7203307"><ele>103.16666666666667</ele><time>2026-04-03T15:59:12.488Z</time></trkpt><trkpt lat="44.9559638" lon="9.7204199"><ele>103.0</ele><time>2026-04-03T15:59:13.488Z</time></trkpt><trkpt lat="44.9559546" lon="9.7205919"><ele>102.4</ele><time>2026-04-03T15:59:15.488Z</time></trkpt><trkpt lat="44.9559396" lon="9.7207522"><ele>101.80000000000001</ele><time>2026-04-03T15:59:17.488Z</time></trkpt><trkpt lat="44.9559295" lon="9.7208648"><ele>101.2</ele><time>2026-04-03T15:59:19.488Z</time></trkpt><trkpt lat="44.9559205" lon="9.7209817"><ele>100.6</ele><time>2026-04-03T15:59:21.488Z</time></trkpt><trkpt lat="44.9559003" lon="9.7211386"><ele>100.0</ele><time>2026-04-03T15:59:23.494Z</time></trkpt><trkpt lat="44.9558925" lon="9.7212344"><ele>100.0</ele><time>2026-04-03T15:59:24.49Z</time></trkpt><trkpt lat="44.9558851" lon="9.7213396"><ele>100.0</ele><time>2026-04-03T15:59:25.487Z</time></trkpt><trkpt lat="44.9558766" lon="9.7214593"><ele>100.0</ele><time>2026-04-03T15:59:26.494Z</time></trkpt><trkpt lat="44.9558678" lon="9.7215922"><ele>100.0</ele><time>2026-04-03T15:59:27.497Z</time></trkpt><trkpt lat="44.9558545" lon="9.7217318"><ele>100.0</ele><time>2026-04-03T15:59:28.488Z</time></trkpt><trkpt lat="44.955842" lon="9.7218774"><ele>99.8</ele><time>2026-04-03T15:59:29.492Z</time></trkpt><trkpt lat="44.9558264" lon="9.7220211"><ele>99.6</ele><time>2026-04-03T15:59:30.493Z</time></trkpt><trkpt lat="44.9558097" lon="9.7221684"><ele>99.4</ele><time>2026-04-03T15:59:31.488Z</time></trkpt><trkpt lat="44.9557944" lon="9.7223217"><ele>99.2</ele><time>2026-04-03T15:59:32.499Z</time></trkpt><trkpt lat="44.9557796" lon="9.7224808"><ele>99.0</ele><time>2026-04-03T15:59:33.491Z</time></trkpt><trkpt lat="44.9557652" lon="9.7226407"><ele>99.2</ele><time>2026-04-03T15:59:34.487Z</time></trkpt><trkpt lat="44.9557518" lon="9.7227947"><ele>99.4</ele><time>2026-04-03T15:59:35.492Z</time></trkpt><trkpt lat="44.9557395" lon="9.7229389"><ele>99.6</ele><time>2026-04-03T15:59:36.49Z</time></trkpt><trkpt lat="44.9557263" lon="9.723073"><ele>99.8</ele><time>2026-04-03T15:59:37.497Z</time></trkpt><trkpt lat="44.955714" lon="9.7232101"><ele>100.0</ele><time>2026-04-03T15:59:38.495Z</time></trkpt><trkpt lat="44.9557067" lon="9.7233542"><ele>100.0</ele><time>2026-04-03T15:59:39.487Z</time></trkpt><trkpt lat="44.9556962" lon="9.7235054"><ele>100.0</ele><time>2026-04-03T15:59:40.489Z</time></trkpt><trkpt lat="44.9556834" lon="9.7236618"><ele>100.0</ele><time>2026-04-03T15:59:41.487Z</time></trkpt><trkpt lat="44.9556683" lon="9.7238222"><ele>100.0</ele><time>2026-04-03T15:59:42.491Z</time></trkpt><trkpt lat="44.9556534" lon="9.7239844"><ele>100.0</ele><time>2026-04-03T15:59:43.502Z</time></trkpt><trkpt lat="44.9556407" lon="9.7241555"><ele>100.5</ele><time>2026-04-03T15:59:44.499Z</time></trkpt><trkpt lat="44.9556283" lon="9.7243288"><ele>101.0</ele><time>2026-04-03T15:59:45.494Z</time></trkpt><trkpt lat="44.9556112" lon="9.7245057"><ele>101.5</ele><time>2026-04-03T15:59:46.491Z</time></trkpt><trkpt lat="44.9555936" lon="9.7246825"><ele>102.0</ele><time>2026-04-03T15:59:47.494Z</time></trkpt><trkpt lat="44.9555768" lon="9.7248613"><ele>102.25</ele><time>2026-04-03T15:59:48.49Z</time></trkpt><trkpt lat="44.9555595" lon="9.7250428"><ele>102.5</ele><time>2026-04-03T15:59:49.492Z</time></trkpt><trkpt lat="44.9555414" lon="9.7252204"><ele>102.75</ele><time>2026-04-03T15:59:50.49Z</time></trkpt><trkpt lat="44.9555244" lon="9.7253922"><ele>103.0</ele><time>2026-04-03T15:59:51.497Z</time></trkpt><trkpt lat="44.9555051" lon="9.7255622"><ele>103.0</ele><time>2026-04-03T15:59:52.493Z</time></trkpt><trkpt lat="44.9554845" lon="9.7257318"><ele>103.0</ele><time>2026-04-03T15:59:53.487Z</time></trkpt><trkpt lat="44.9554652" lon="9.7258996"><ele>103.0</ele><time>2026-04-03T15:59:54.486Z</time></trkpt><trkpt lat="44.9554477" lon="9.7260642"><ele>103.0</ele><time>2026-04-03T15:59:55.493Z</time></trkpt><trkpt lat="44.9554325" lon="9.7262147"><ele>102.83333333333334</ele><time>2026-04-03T15:59:56.492Z</time></trkpt><trkpt lat="44.9554174" lon="9.7263549"><ele>102.66666666666667</ele><time>2026-04-03T15:59:57.496Z</time></trkpt><trkpt lat="44.9554052" lon="9.7264833"><ele>102.5</ele><time>2026-04-03T15:59:58.497Z</time></trkpt><trkpt lat="44.9553934" lon="9.7265881"><ele>102.33333333333334</ele><time>2026-04-03T15:59:59.496Z</time></trkpt><trkpt lat="44.9553745" lon="9.7267128"><ele>102.16666666666667</ele><time>2026-04-03T16:00:01.483Z</time></trkpt><trkpt lat="44.955341" lon="9.726801"><ele>102.0</ele><time>2026-04-03T16:00:04.491Z</time></trkpt><trkpt lat="44.9554096" lon="9.7267305"><ele>102.0</ele><time>2026-04-03T16:00:12.499Z</time></trkpt><trkpt lat="44.9554277" lon="9.7265716"><ele>102.0</ele><time>2026-04-03T16:00:14.488Z</time></trkpt><trkpt lat="44.9554352" lon="9.7264725"><ele>102.0</ele><time>2026-04-03T16:00:15.488Z</time></trkpt><trkpt lat="44.9554437" lon="9.7263614"><ele>102.0</ele><time>2026-04-03T16:00:16.49Z</time></trkpt><trkpt lat="44.9554562" lon="9.7262357"><ele>102.0</ele><time>2026-04-03T16:00:17.488Z</time></trkpt><trkpt lat="44.9554663" lon="9.7261111"><ele>102.0</ele><time>2026-04-03T16:00:18.493Z</time></trkpt><trkpt lat="44.9554777" lon="9.7259812"><ele>102.19999999999999</ele><time>2026-04-03T16:00:19.5Z</time></trkpt><trkpt lat="44.9554882" lon="9.7258408"><ele>102.4</ele><time>2026-04-03T16:00:20.488Z</time></trkpt><trkpt lat="44.9555025" lon="9.7257002"><ele>102.6</ele><time>2026-04-03T16:00:21.499Z</time></trkpt><trkpt lat="44.9555183" lon="9.7255574"><ele>102.80000000000001</ele><time>2026-04-03T16:00:22.49Z</time></trkpt><trkpt lat="44.9555325" lon="9.7254096"><ele>103.0</ele><time>2026-04-03T16:00:23.495Z</time></trkpt><trkpt lat="44.9555465" lon="9.7252605"><ele>103.0</ele><time>2026-04-03T16:00:24.498Z</time></trkpt><trkpt lat="44.9555587" lon="9.7251126"><ele>103.0</ele><time>2026-04-03T16:00:25.489Z</time></trkpt><trkpt lat="44.9555724" lon="9.7249688"><ele>103.0</ele><time>2026-04-03T16:00:26.492Z</time></trkpt><trkpt lat="44.9555879" lon="9.7248239"><ele>103.0</ele><time>2026-04-03T16:00:27.497Z</time></trkpt><trkpt lat="44.9556037" lon="9.7246754"><ele>103.0</ele><time>2026-04-03T16:00:28.485Z</time></trkpt><trkpt lat="44.9556182" lon="9.7245224"><ele>102.75</ele><time>2026-04-03T16:00:29.486Z</time></trkpt><trkpt lat="44.9556301" lon="9.7243645"><ele>102.5</ele><time>2026-04-03T16:00:30.489Z</time></trkpt><trkpt lat="44.9556429" lon="9.7242009"><ele>102.25</ele><time>2026-04-03T16:00:31.484Z</time></trkpt><trkpt lat="44.9556569" lon="9.7240336"><ele>102.0</ele><time>2026-04-03T16:00:32.487Z</time></trkpt><trkpt lat="44.9556715" lon="9.7238649"><ele>102.0</ele><time>2026-04-03T16:00:33.484Z</time></trkpt><trkpt lat="44.9556828" lon="9.7236909"><ele>102.0</ele><time>2026-04-03T16:00:34.481Z</time></trkpt><trkpt lat="44.9556954" lon="9.7235121"><ele>102.0</ele><time>2026-04-03T16:00:35.485Z</time></trkpt><trkpt lat="44.9557106" lon="9.7233335"><ele>102.0</ele><time>2026-04-03T16:00:36.485Z</time></trkpt><trkpt lat="44.9557213" lon="9.7231638"><ele>101.6</ele><time>2026-04-03T16:00:37.485Z</time></trkpt><trkpt lat="44.9557364" lon="9.7229998"><ele>101.19999999999999</ele><time>2026-04-03T16:00:38.481Z</time></trkpt><trkpt lat="44.9557521" lon="9.722845"><ele>100.8</ele><time>2026-04-03T16:00:39.483Z</time></trkpt><trkpt lat="44.955768" lon="9.7227005"><ele>100.4</ele><time>2026-04-03T16:00:40.494Z</time></trkpt><trkpt lat="44.9557804" lon="9.7225667"><ele>100.0</ele><time>2026-04-03T16:00:41.5Z</time></trkpt><trkpt lat="44.955795" lon="9.7224312"><ele>99.75</ele><time>2026-04-03T16:00:42.495Z</time></trkpt><trkpt lat="44.9558106" lon="9.7222864"><ele>99.5</ele><time>2026-04-03T16:00:43.504Z</time></trkpt><trkpt lat="44.955833" lon="9.7221304"><ele>99.25</ele><time>2026-04-03T16:00:44.497Z</time></trkpt><trkpt lat="44.9558544" lon="9.7219675"><ele>99.0</ele><time>2026-04-03T16:00:45.496Z</time></trkpt><trkpt lat="44.9558711" lon="9.7217978"><ele>99.0</ele><time>2026-04-03T16:00:46.491Z</time></trkpt><trkpt lat="44.9558857" lon="9.7216228"><ele>99.0</ele><time>2026-04-03T16:00:47.493Z</time></trkpt><trkpt lat="44.9559005" lon="9.7214466"><ele>99.0</ele><time>2026-04-03T16:00:48.494Z</time></trkpt><trkpt lat="44.9559174" lon="9.7212704"><ele>99.0</ele><time>2026-04-03T16:00:49.489Z</time></trkpt><trkpt lat="44.9559309" lon="9.7210948"><ele>99.25</ele><time>2026-04-03T16:00:50.493Z</time></trkpt><trkpt lat="44.9559424" lon="9.7209257"><ele>99.5</ele><time>2026-04-03T16:00:51.489Z</time></trkpt><trkpt lat="44.9559545" lon="9.7207614"><ele>99.75</ele><time>2026-04-03T16:00:52.494Z</time></trkpt><trkpt lat="44.9559671" lon="9.7206017"><ele>100.0</ele><time>2026-04-03T16:00:53.491Z</time></trkpt><trkpt lat="44.9559768" lon="9.7204452"><ele>100.0</ele><time>2026-04-03T16:00:54.489Z</time></trkpt><trkpt lat="44.9559882" lon="9.7202899"><ele>100.0</ele><time>2026-04-03T16:00:55.489Z</time></trkpt><trkpt lat="44.9560013" lon="9.720136"><ele>100.0</ele><time>2026-04-03T16:00:56.492Z</time></trkpt><trkpt lat="44.9560161" lon="9.7199817"><ele>100.0</ele><time>2026-04-03T16:00:57.495Z</time></trkpt><trkpt lat="44.9560301" lon="9.7198238"><ele>100.0</ele><time>2026-04-03T16:00:58.491Z</time></trkpt><trkpt lat="44.9560443" lon="9.7196643"><ele>100.75</ele><time>2026-04-03T16:00:59.493Z</time></trkpt><trkpt lat="44.9560569" lon="9.719503"><ele>101.5</ele><time>2026-04-03T16:01:00.496Z</time></trkpt><trkpt lat="44.9560694" lon="9.7193388"><ele>102.25</ele><time>2026-04-03T16:01:01.489Z</time></trkpt><trkpt lat="44.9560845" lon="9.7191708"><ele>103.0</ele><time>2026-04-03T16:01:02.491Z</time></trkpt><trkpt lat="44.9561015" lon="9.7189998"><ele>103.25</ele><time>2026-04-03T16:01:03.489Z</time></trkpt><trkpt lat="44.9561175" lon="9.7188259"><ele>103.5</ele><time>2026-04-03T16:01:04.486Z</time></trkpt><trkpt lat="44.9561322" lon="9.7186528"><ele>103.75</ele><time>2026-04-03T16:01:05.486Z</time></trkpt><trkpt lat="44.9561464" lon="9.7184798"><ele>104.0</ele><time>2026-04-03T16:01:06.48Z</time></trkpt><trkpt lat="44.9561604" lon="9.718308"><ele>104.0</ele><time>2026-04-03T16:01:07.492Z</time></trkpt><trkpt lat="44.9561734" lon="9.7181446"><ele>104.0</ele><time>2026-04-03T16:01:08.485Z</time></trkpt><trkpt lat="44.9561855" lon="9.7179947"><ele>104.0</ele><time>2026-04-03T16:01:09.484Z</time></trkpt><trkpt lat="44.9561959" lon="9.7178591"><ele>104.0</ele><time>2026-04-03T16:01:10.496Z</time></trkpt><trkpt lat="44.9562046" lon="9.7177348"><ele>104.0</ele><time>2026-04-03T16:01:11.492Z</time></trkpt><trkpt lat="44.9562141" lon="9.7176202"><ele>104.2</ele><time>2026-04-03T16:01:12.491Z</time></trkpt><trkpt lat="44.9562291" lon="9.7175173"><ele>104.4</ele><time>2026-04-03T16:01:13.495Z</time></trkpt><trkpt lat="44.9562786" lon="9.7173798"><ele>104.6</ele><time>2026-04-03T16:01:15.497Z</time></trkpt><trkpt lat="44.9563461" lon="9.7173571"><ele>104.8</ele><time>2026-04-03T16:01:18.487Z</time></trkpt><trkpt lat="44.9563871" lon="9.7172855"><ele>105.0</ele><time>2026-04-03T16:02:03.492Z</time></trkpt><trkpt lat="44.9564025" lon="9.7170844"><ele>105.0</ele><time>2026-04-03T16:02:05.486Z</time></trkpt><trkpt lat="44.9563844" lon="9.7169386"><ele>105.0</ele><time>2026-04-03T16:02:06.494Z</time></trkpt><trkpt lat="44.9563646" lon="9.7167856"><ele>105.0</ele><time>2026-04-03T16:02:07.492Z</time></trkpt><trkpt lat="44.9563497" lon="9.7166515"><ele>105.0</ele><time>2026-04-03T16:02:08.495Z</time></trkpt><trkpt lat="44.9563308" lon="9.7165566"><ele>105.0</ele><time>2026-04-03T16:02:09.486Z</time></trkpt><trkpt lat="44.9562562" lon="9.7164878"><ele>105.25</ele><time>2026-04-03T16:02:11.49Z</time></trkpt><trkpt lat="44.9561216" lon="9.7165063"><ele>105.5</ele><time>2026-04-03T16:02:13.493Z</time></trkpt><trkpt lat="44.956023" lon="9.7164805"><ele>105.75</ele><time>2026-04-03T16:02:14.488Z</time></trkpt><trkpt lat="44.9559169" lon="9.7164511"><ele>106.0</ele><time>2026-04-03T16:02:15.49Z</time></trkpt><trkpt lat="44.9558033" lon="9.7164232"><ele>106.0</ele><time>2026-04-03T16:02:16.492Z</time></trkpt><trkpt lat="44.9556862" lon="9.7163952"><ele>106.0</ele><time>2026-04-03T16:02:17.495Z</time></trkpt><trkpt lat="44.9555702" lon="9.7163662"><ele>106.0</ele><time>2026-04-03T16:02:18.497Z</time></trkpt><trkpt lat="44.9554531" lon="9.7163378"><ele>106.0</ele><time>2026-04-03T16:02:19.496Z</time></trkpt><trkpt lat="44.9553352" lon="9.7163121"><ele>106.0</ele><time>2026-04-03T16:02:20.489Z</time></trkpt><trkpt lat="44.9552185" lon="9.7162852"><ele>106.0</ele><time>2026-04-03T16:02:21.493Z</time></trkpt><trkpt lat="44.9551033" lon="9.7162616"><ele>106.0</ele><time>2026-04-03T16:02:22.492Z</time></trkpt><trkpt lat="44.9549862" lon="9.7162358"><ele>106.0</ele><time>2026-04-03T16:02:23.493Z</time></trkpt><trkpt lat="44.954872" lon="9.7162121"><ele>105.8</ele><time>2026-04-03T16:02:24.494Z</time></trkpt><trkpt lat="44.9547602" lon="9.7161852"><ele>105.6</ele><time>2026-04-03T16:02:25.498Z</time></trkpt><trkpt lat="44.9546487" lon="9.7161564"><ele>105.4</ele><time>2026-04-03T16:02:26.498Z</time></trkpt><trkpt lat="44.9545391" lon="9.7161271"><ele>105.2</ele><time>2026-04-03T16:02:27.516Z</time></trkpt><trkpt lat="44.954431" lon="9.7161002"><ele>105.0</ele><time>2026-04-03T16:02:28.485Z</time></trkpt><trkpt lat="44.9543205" lon="9.7160724"><ele>105.5</ele><time>2026-04-03T16:02:29.5Z</time></trkpt><trkpt lat="44.9542072" lon="9.7160458"><ele>106.0</ele><time>2026-04-03T16:02:30.493Z</time></trkpt><trkpt lat="44.9540881" lon="9.7160162"><ele>106.5</ele><time>2026-04-03T16:02:31.497Z</time></trkpt><trkpt lat="44.9539677" lon="9.7159851"><ele>107.0</ele><time>2026-04-03T16:02:32.505Z</time></trkpt><trkpt lat="44.9538444" lon="9.7159502"><ele>107.0</ele><time>2026-04-03T16:02:33.491Z</time></trkpt><trkpt lat="44.9537184" lon="9.7159128"><ele>107.0</ele><time>2026-04-03T16:02:34.496Z</time></trkpt><trkpt lat="44.9535883" lon="9.7158758"><ele>107.0</ele><time>2026-04-03T16:02:35.494Z</time></trkpt><trkpt lat="44.9534541" lon="9.7158369"><ele>107.0</ele><time>2026-04-03T16:02:36.505Z</time></trkpt><trkpt lat="44.9533167" lon="9.7157952"><ele>107.25</ele><time>2026-04-03T16:02:37.495Z</time></trkpt><trkpt lat="44.9531775" lon="9.7157538"><ele>107.5</ele><time>2026-04-03T16:02:38.494Z</time></trkpt><trkpt lat="44.9530373" lon="9.7157143"><ele>107.75</ele><time>2026-04-03T16:02:39.501Z</time></trkpt><trkpt lat="44.9529011" lon="9.715672"><ele>108.0</ele><time>2026-04-03T16:02:40.49Z</time></trkpt><trkpt lat="44.9527662" lon="9.7156299"><ele>108.0</ele><time>2026-04-03T16:02:41.507Z</time></trkpt><trkpt lat="44.952632" lon="9.7155912"><ele>108.0</ele><time>2026-04-03T16:02:42.496Z</time></trkpt><trkpt lat="44.9525" lon="9.7155541"><ele>108.0</ele><time>2026-04-03T16:02:43.488Z</time></trkpt><trkpt lat="44.9523681" lon="9.7155158"><ele>108.0</ele><time>2026-04-03T16:02:44.506Z</time></trkpt><trkpt lat="44.9522352" lon="9.715479"><ele>108.0</ele><time>2026-04-03T16:02:45.496Z</time></trkpt><trkpt lat="44.9521014" lon="9.7154409"><ele>108.0</ele><time>2026-04-03T16:02:46.499Z</time></trkpt><trkpt lat="44.951967" lon="9.7154001"><ele>108.0</ele><time>2026-04-03T16:02:47.494Z</time></trkpt><trkpt lat="44.9518326" lon="9.7153581"><ele>108.0</ele><time>2026-04-03T16:02:48.5Z</time></trkpt><trkpt lat="44.9517024" lon="9.7153128"><ele>108.5</ele><time>2026-04-03T16:02:49.501Z</time></trkpt><trkpt lat="44.9515763" lon="9.7152601"><ele>109.0</ele><time>2026-04-03T16:02:50.509Z</time></trkpt><trkpt lat="44.9514564" lon="9.7152044"><ele>109.5</ele><time>2026-04-03T16:02:51.507Z</time></trkpt><trkpt lat="44.9513422" lon="9.7151462"><ele>110.0</ele><time>2026-04-03T16:02:52.503Z</time></trkpt><trkpt lat="44.9512269" lon="9.7150885"><ele>110.0</ele><time>2026-04-03T16:02:53.51Z</time></trkpt><trkpt lat="44.95111" lon="9.7150356"><ele>110.0</ele><time>2026-04-03T16:02:54.501Z</time></trkpt><trkpt lat="44.9509906" lon="9.7149825"><ele>110.0</ele><time>2026-04-03T16:02:55.507Z</time></trkpt><trkpt lat="44.9508699" lon="9.7149278"><ele>110.0</ele><time>2026-04-03T16:02:56.504Z</time></trkpt><trkpt lat="44.9507441" lon="9.7148724"><ele>109.75</ele><time>2026-04-03T16:02:57.509Z</time></trkpt><trkpt lat="44.9506191" lon="9.714818"><ele>109.5</ele><time>2026-04-03T16:02:58.491Z</time></trkpt><trkpt lat="44.9504908" lon="9.7147624"><ele>109.25</ele><time>2026-04-03T16:02:59.501Z</time></trkpt><trkpt lat="44.9503621" lon="9.7147069"><ele>109.0</ele><time>2026-04-03T16:03:00.505Z</time></trkpt><trkpt lat="44.9502348" lon="9.7146531"><ele>109.0</ele><time>2026-04-03T16:03:01.492Z</time></trkpt><trkpt lat="44.9501055" lon="9.7145973"><ele>109.0</ele><time>2026-04-03T16:03:02.5Z</time></trkpt><trkpt lat="44.9499762" lon="9.714541"><ele>109.0</ele><time>2026-04-03T16:03:03.504Z</time></trkpt><trkpt lat="44.9498481" lon="9.7144787"><ele>109.0</ele><time>2026-04-03T16:03:04.509Z</time></trkpt><trkpt lat="44.9497215" lon="9.7144225"><ele>109.5</ele><time>2026-04-03T16:03:05.49Z</time></trkpt><trkpt lat="44.9495978" lon="9.7143689"><ele>110.0</ele><time>2026-04-03T16:03:06.503Z</time></trkpt><trkpt lat="44.9494711" lon="9.7143153"><ele>110.5</ele><time>2026-04-03T16:03:07.5Z</time></trkpt><trkpt lat="44.9493382" lon="9.714259"><ele>111.0</ele><time>2026-04-03T16:03:08.507Z</time></trkpt><trkpt lat="44.9492005" lon="9.7141982"><ele>112.0</ele><time>2026-04-03T16:03:09.509Z</time></trkpt><trkpt lat="44.9490593" lon="9.7141354"><ele>113.0</ele><time>2026-04-03T16:03:10.492Z</time></trkpt><trkpt lat="44.9489213" lon="9.7140737"><ele>114.0</ele><time>2026-04-03T16:03:11.49Z</time></trkpt><trkpt lat="44.9487932" lon="9.7140185"><ele>115.0</ele><time>2026-04-03T16:03:12.492Z</time></trkpt><trkpt lat="44.9486735" lon="9.713965"><ele>115.0</ele><time>2026-04-03T16:03:13.505Z</time></trkpt><trkpt lat="44.9485609" lon="9.713914"><ele>115.0</ele><time>2026-04-03T16:03:14.494Z</time></trkpt><trkpt lat="44.9484572" lon="9.7138681"><ele>115.0</ele><time>2026-04-03T16:03:15.503Z</time></trkpt><trkpt lat="44.9483633" lon="9.7138224"><ele>115.0</ele><time>2026-04-03T16:03:16.504Z</time></trkpt><trkpt lat="44.9482761" lon="9.7137815"><ele>115.0</ele><time>2026-04-03T16:03:17.491Z</time></trkpt><trkpt lat="44.9481929" lon="9.7137453"><ele>114.50000000000001</ele><time>2026-04-03T16:03:18.499Z</time></trkpt><trkpt lat="44.9481164" lon="9.713708"><ele>114.0</ele><time>2026-04-03T16:03:19.488Z</time></trkpt><trkpt lat="44.9480504" lon="9.7136614"><ele>113.5</ele><time>2026-04-03T16:03:20.503Z</time></trkpt><trkpt lat="44.948004" lon="9.7135996"><ele>113.0</ele><time>2026-04-03T16:03:21.497Z</time></trkpt><trkpt lat="44.9479519" lon="9.7134552"><ele>112.50000000000001</ele><time>2026-04-03T16:03:23.514Z</time></trkpt><trkpt lat="44.9478805" lon="9.7133727"><ele>112.0</ele><time>2026-04-03T16:03:25.499Z</time></trkpt><trkpt lat="44.9477822" lon="9.7133326"><ele>111.8</ele><time>2026-04-03T16:03:27.501Z</time></trkpt><trkpt lat="44.9476729" lon="9.7133117"><ele>111.6</ele><time>2026-04-03T16:03:29.488Z</time></trkpt><trkpt lat="44.947566" lon="9.7132844"><ele>111.39999999999999</ele><time>2026-04-03T16:03:31.507Z</time></trkpt><trkpt lat="44.9474698" lon="9.7132362"><ele>111.19999999999999</ele><time>2026-04-03T16:03:33.515Z</time></trkpt><trkpt lat="44.9473876" lon="9.7132038"><ele>111.0</ele><time>2026-04-03T16:03:35.492Z</time></trkpt><trkpt lat="44.9473057" lon="9.7132244"><ele>111.6</ele><time>2026-04-03T16:03:38.501Z</time></trkpt><trkpt lat="44.9472768" lon="9.7133608"><ele>112.19999999999999</ele><time>2026-04-03T16:03:41.484Z</time></trkpt><trkpt lat="44.9472493" lon="9.713521"><ele>112.80000000000001</ele><time>2026-04-03T16:03:43.501Z</time></trkpt><trkpt lat="44.947225" lon="9.7136187"><ele>113.4</ele><time>2026-04-03T16:03:44.498Z</time></trkpt><trkpt lat="44.9472045" lon="9.7137289"><ele>114.0</ele><time>2026-04-03T16:03:45.499Z</time></trkpt><trkpt lat="44.9471897" lon="9.7138476"><ele>114.0</ele><time>2026-04-03T16:03:46.498Z</time></trkpt><trkpt lat="44.9471753" lon="9.713963"><ele>114.0</ele><time>2026-04-03T16:03:47.498Z</time></trkpt><trkpt lat="44.9471598" lon="9.7140729"><ele>114.0</ele><time>2026-04-03T16:03:48.5Z</time></trkpt><trkpt lat="44.9471435" lon="9.7141827"><ele>114.0</ele><time>2026-04-03T16:03:49.508Z</time></trkpt><trkpt lat="44.9471247" lon="9.7142864"><ele>114.0</ele><time>2026-04-03T16:03:50.494Z</time></trkpt><trkpt lat="44.9471061" lon="9.714392"><ele>114.0</ele><time>2026-04-03T16:03:51.5Z</time></trkpt><trkpt lat="44.9470854" lon="9.7144999"><ele>114.16666666666667</ele><time>2026-04-03T16:03:52.499Z</time></trkpt><trkpt lat="44.9470627" lon="9.714609"><ele>114.33333333333334</ele><time>2026-04-03T16:03:53.507Z</time></trkpt><trkpt lat="44.947039" lon="9.7147216"><ele>114.5</ele><time>2026-04-03T16:03:54.501Z</time></trkpt><trkpt lat="44.9470181" lon="9.7148388"><ele>114.66666666666667</ele><time>2026-04-03T16:03:55.494Z</time></trkpt><trkpt lat="44.9469996" lon="9.7149605"><ele>114.83333333333334</ele><time>2026-04-03T16:03:56.506Z</time></trkpt><trkpt lat="44.9469819" lon="9.7150821"><ele>115.0</ele><time>2026-04-03T16:03:57.506Z</time></trkpt><trkpt lat="44.9469607" lon="9.7152049"><ele>114.66666666666667</ele><time>2026-04-03T16:03:58.49Z</time></trkpt><trkpt lat="44.9469394" lon="9.7153287"><ele>114.33333333333334</ele><time>2026-04-03T16:03:59.501Z</time></trkpt><trkpt lat="44.9469196" lon="9.7154515"><ele>114.0</ele><time>2026-04-03T16:04:00.505Z</time></trkpt><trkpt lat="44.9468985" lon="9.7155738"><ele>113.66666666666666</ele><time>2026-04-03T16:04:01.49Z</time></trkpt><trkpt lat="44.9468759" lon="9.7156962"><ele>113.33333333333333</ele><time>2026-04-03T16:04:02.513Z</time></trkpt><trkpt lat="44.946852" lon="9.7158208"><ele>113.0</ele><time>2026-04-03T16:04:03.504Z</time></trkpt><trkpt lat="44.9468272" lon="9.715953"><ele>112.80000000000001</ele><time>2026-04-03T16:04:04.5Z</time></trkpt><trkpt lat="44.9468043" lon="9.7160886"><ele>112.60000000000001</ele><time>2026-04-03T16:04:05.488Z</time></trkpt><trkpt lat="44.9467845" lon="9.7162167"><ele>112.39999999999999</ele><time>2026-04-03T16:04:06.484Z</time></trkpt><trkpt lat="44.9467634" lon="9.7163416"><ele>112.19999999999999</ele><time>2026-04-03T16:04:07.49Z</time></trkpt><trkpt lat="44.9467433" lon="9.7164659"><ele>112.0</ele><time>2026-04-03T16:04:08.488Z</time></trkpt><trkpt lat="44.946723" lon="9.7165917"><ele>112.16666666666667</ele><time>2026-04-03T16:04:09.49Z</time></trkpt><trkpt lat="44.9467009" lon="9.7167142"><ele>112.33333333333334</ele><time>2026-04-03T16:04:10.496Z</time></trkpt><trkpt lat="44.9466772" lon="9.7168338"><ele>112.5</ele><time>2026-04-03T16:04:11.496Z</time></trkpt><trkpt lat="44.9466544" lon="9.7169541"><ele>112.66666666666666</ele><time>2026-04-03T16:04:12.504Z</time></trkpt><trkpt lat="44.9466289" lon="9.7170762"><ele>112.83333333333333</ele><time>2026-04-03T16:04:13.501Z</time></trkpt><trkpt lat="44.9466024" lon="9.7171972"><ele>113.0</ele><time>2026-04-03T16:04:14.493Z</time></trkpt><trkpt lat="44.9465786" lon="9.7173187"><ele>112.99999999999999</ele><time>2026-04-03T16:04:15.506Z</time></trkpt><trkpt lat="44.9465578" lon="9.71744"><ele>113.0</ele><time>2026-04-03T16:04:16.501Z</time></trkpt><trkpt lat="44.9465367" lon="9.7175596"><ele>113.0</ele><time>2026-04-03T16:04:17.5Z</time></trkpt><trkpt lat="44.9465155" lon="9.7176735"><ele>113.0</ele><time>2026-04-03T16:04:18.496Z</time></trkpt><trkpt lat="44.9464974" lon="9.7177807"><ele>112.99999999999999</ele><time>2026-04-03T16:04:19.502Z</time></trkpt><trkpt lat="44.9464819" lon="9.7178864"><ele>113.0</ele><time>2026-04-03T16:04:20.497Z</time></trkpt><trkpt lat="44.9464696" lon="9.7179935"><ele>112.99999999999999</ele><time>2026-04-03T16:04:21.502Z</time></trkpt><trkpt lat="44.9464595" lon="9.7181021"><ele>113.0</ele><time>2026-04-03T16:04:22.503Z</time></trkpt><trkpt lat="44.9464503" lon="9.7182151"><ele>113.0</ele><time>2026-04-03T16:04:23.496Z</time></trkpt><trkpt lat="44.9464326" lon="9.7183239"><ele>113.0</ele><time>2026-04-03T16:04:24.509Z</time></trkpt><trkpt lat="44.9464076" lon="9.7184312"><ele>112.99999999999999</ele><time>2026-04-03T16:04:25.49Z</time></trkpt><trkpt lat="44.9463788" lon="9.7185475"><ele>113.0</ele><time>2026-04-03T16:04:26.492Z</time></trkpt><trkpt lat="44.9463548" lon="9.718664"><ele>113.16666666666666</ele><time>2026-04-03T16:04:27.507Z</time></trkpt><trkpt lat="44.9463391" lon="9.7187764"><ele>113.33333333333333</ele><time>2026-04-03T16:04:28.502Z</time></trkpt><trkpt lat="44.9463244" lon="9.7188873"><ele>113.5</ele><time>2026-04-03T16:04:29.513Z</time></trkpt><trkpt lat="44.9463079" lon="9.7189967"><ele>113.66666666666666</ele><time>2026-04-03T16:04:30.504Z</time></trkpt><trkpt lat="44.9462892" lon="9.7191061"><ele>113.83333333333333</ele><time>2026-04-03T16:04:31.488Z</time></trkpt><trkpt lat="44.9462728" lon="9.7192152"><ele>114.0</ele><time>2026-04-03T16:04:32.491Z</time></trkpt><trkpt lat="44.9462543" lon="9.7193229"><ele>114.0</ele><time>2026-04-03T16:04:33.501Z</time></trkpt><trkpt lat="44.9462346" lon="9.7194268"><ele>113.99999999999999</ele><time>2026-04-03T16:04:34.513Z</time></trkpt><trkpt lat="44.9462169" lon="9.7195324"><ele>114.0</ele><time>2026-04-03T16:04:35.495Z</time></trkpt><trkpt lat="44.9462038" lon="9.7196363"><ele>114.0</ele><time>2026-04-03T16:04:36.507Z</time></trkpt><trkpt lat="44.9461892" lon="9.7197329"><ele>113.99999999999999</ele><time>2026-04-03T16:04:37.497Z</time></trkpt><trkpt lat="44.946171" lon="9.7198256"><ele>114.0</ele><time>2026-04-03T16:04:38.509Z</time></trkpt><trkpt lat="44.946155" lon="9.7199137"><ele>114.0</ele><time>2026-04-03T16:04:39.498Z</time></trkpt><trkpt lat="44.9461306" lon="9.720083"><ele>114.0</ele><time>2026-04-03T16:04:41.503Z</time></trkpt><trkpt lat="44.9461107" lon="9.7202303"><ele>114.0</ele><time>2026-04-03T16:04:43.507Z</time></trkpt><trkpt lat="44.9460833" lon="9.7203529"><ele>114.0</ele><time>2026-04-03T16:04:45.495Z</time></trkpt><trkpt lat="44.9460549" lon="9.7204555"><ele>114.0</ele><time>2026-04-03T16:04:47.5Z</time></trkpt><trkpt lat="44.9460249" lon="9.7205413"><ele>114.0</ele><time>2026-04-03T16:04:49.5Z</time></trkpt><trkpt lat="44.9459956" lon="9.7206233"><ele>114.0</ele><time>2026-04-03T16:04:53.503Z</time></trkpt><trkpt lat="44.9460047" lon="9.7207399"><ele>114.0</ele><time>2026-04-03T16:04:57.494Z</time></trkpt><trkpt lat="44.9459936" lon="9.720884"><ele>114.0</ele><time>2026-04-03T16:05:00.5Z</time></trkpt><trkpt lat="44.9459624" lon="9.7210315"><ele>114.0</ele><time>2026-04-03T16:05:02.503Z</time></trkpt><trkpt lat="44.945918" lon="9.721171"><ele>114.0</ele><time>2026-04-03T16:05:04.503Z</time></trkpt><trkpt lat="44.9458663" lon="9.7212738"><ele>114.0</ele><time>2026-04-03T16:05:06.494Z</time></trkpt><trkpt lat="44.9458254" lon="9.7213525"><ele>114.0</ele><time>2026-04-03T16:05:08.497Z</time></trkpt><trkpt lat="44.9458086" lon="9.7214455"><ele>113.99999999999999</ele><time>2026-04-03T16:05:12.501Z</time></trkpt><trkpt lat="44.9458839" lon="9.7214159"><ele>114.0</ele><time>2026-04-03T16:05:16.498Z</time></trkpt><trkpt lat="44.9459121" lon="9.7212943"><ele>114.0</ele><time>2026-04-03T16:05:18.495Z</time></trkpt><trkpt lat="44.9459329" lon="9.7212077"><ele>113.99999999999999</ele><time>2026-04-03T16:05:19.499Z</time></trkpt><trkpt lat="44.9459611" lon="9.7211192"><ele>114.0</ele><time>2026-04-03T16:05:20.495Z</time></trkpt><trkpt lat="44.9459861" lon="9.7210293"><ele>114.0</ele><time>2026-04-03T16:05:21.503Z</time></trkpt><trkpt lat="44.9460042" lon="9.720936"><ele>114.0</ele><time>2026-04-03T16:05:22.498Z</time></trkpt><trkpt lat="44.9460164" lon="9.7208407"><ele>113.99999999999999</ele><time>2026-04-03T16:05:23.494Z</time></trkpt><trkpt lat="44.9460279" lon="9.7207421"><ele>114.0</ele><time>2026-04-03T16:05:24.491Z</time></trkpt><trkpt lat="44.946042" lon="9.7206393"><ele>114.0</ele><time>2026-04-03T16:05:25.499Z</time></trkpt><trkpt lat="44.9460588" lon="9.7205359"><ele>113.99999999999999</ele><time>2026-04-03T16:05:26.506Z</time></trkpt><trkpt lat="44.9460754" lon="9.720433"><ele>114.0</ele><time>2026-04-03T16:05:27.504Z</time></trkpt><trkpt lat="44.9460891" lon="9.7203311"><ele>114.0</ele><time>2026-04-03T16:05:28.497Z</time></trkpt><trkpt lat="44.9461018" lon="9.7202264"><ele>114.0</ele><time>2026-04-03T16:05:29.512Z</time></trkpt><trkpt lat="44.9461148" lon="9.7201278"><ele>113.99999999999999</ele><time>2026-04-03T16:05:30.505Z</time></trkpt><trkpt lat="44.9461307" lon="9.7200299"><ele>114.0</ele><time>2026-04-03T16:05:31.493Z</time></trkpt><trkpt lat="44.946149" lon="9.7199334"><ele>114.0</ele><time>2026-04-03T16:05:32.497Z</time></trkpt><trkpt lat="44.9461694" lon="9.7198366"><ele>113.99999999999999</ele><time>2026-04-03T16:05:33.505Z</time></trkpt><trkpt lat="44.9461892" lon="9.7197358"><ele>114.0</ele><time>2026-04-03T16:05:34.507Z</time></trkpt><trkpt lat="44.9462089" lon="9.7196289"><ele>114.0</ele><time>2026-04-03T16:05:35.493Z</time></trkpt><trkpt lat="44.946228" lon="9.7195154"><ele>114.0</ele><time>2026-04-03T16:05:36.501Z</time></trkpt><trkpt lat="44.9462479" lon="9.7193947"><ele>114.0</ele><time>2026-04-03T16:05:37.497Z</time></trkpt><trkpt lat="44.94627" lon="9.719256"><ele>114.0</ele><time>2026-04-03T16:05:38.505Z</time></trkpt><trkpt lat="44.9462955" lon="9.7190953"><ele>114.0</ele><time>2026-04-03T16:05:39.498Z</time></trkpt><trkpt lat="44.9463227" lon="9.7189167"><ele>114.0</ele><time>2026-04-03T16:05:40.489Z</time></trkpt><trkpt lat="44.9463531" lon="9.7187299"><ele>113.75</ele><time>2026-04-03T16:05:41.499Z</time></trkpt><trkpt lat="44.9463857" lon="9.7185475"><ele>113.5</ele><time>2026-04-03T16:05:42.492Z</time></trkpt><trkpt lat="44.9464167" lon="9.7183755"><ele>113.25</ele><time>2026-04-03T16:05:43.503Z</time></trkpt><trkpt lat="44.9464447" lon="9.7182122"><ele>113.0</ele><time>2026-04-03T16:05:44.502Z</time></trkpt><trkpt lat="44.9464732" lon="9.7180553"><ele>113.0</ele><time>2026-04-03T16:05:45.507Z</time></trkpt><trkpt lat="44.9465026" lon="9.7179124"><ele>113.00000000000001</ele><time>2026-04-03T16:05:46.498Z</time></trkpt><trkpt lat="44.9465287" lon="9.7177762"><ele>113.00000000000001</ele><time>2026-04-03T16:05:47.51Z</time></trkpt><trkpt lat="44.9465505" lon="9.7176339"><ele>113.0</ele><time>2026-04-03T16:05:48.502Z</time></trkpt><trkpt lat="44.9465744" lon="9.7174778"><ele>113.0</ele><time>2026-04-03T16:05:49.505Z</time></trkpt><trkpt lat="44.9466039" lon="9.7173089"><ele>113.0</ele><time>2026-04-03T16:05:50.501Z</time></trkpt><trkpt lat="44.9466348" lon="9.7171363"><ele>113.0</ele><time>2026-04-03T16:05:51.506Z</time></trkpt><trkpt lat="44.9466631" lon="9.7169663"><ele>113.0</ele><time>2026-04-03T16:05:52.504Z</time></trkpt><trkpt lat="44.9466897" lon="9.7167963"><ele>113.0</ele><time>2026-04-03T16:05:53.509Z</time></trkpt><trkpt lat="44.9467182" lon="9.7166221"><ele>113.0</ele><time>2026-04-03T16:05:54.499Z</time></trkpt><trkpt lat="44.9467457" lon="9.7164513"><ele>113.0</ele><time>2026-04-03T16:05:55.51Z</time></trkpt><trkpt lat="44.9467719" lon="9.7162923"><ele>113.0</ele><time>2026-04-03T16:05:56.503Z</time></trkpt><trkpt lat="44.9467971" lon="9.7161368"><ele>113.0</ele><time>2026-04-03T16:05:57.503Z</time></trkpt><trkpt lat="44.9468231" lon="9.7159749"><ele>113.0</ele><time>2026-04-03T16:05:58.498Z</time></trkpt><trkpt lat="44.9468527" lon="9.715797"><ele>113.0</ele><time>2026-04-03T16:05:59.512Z</time></trkpt><trkpt lat="44.9468856" lon="9.7156124"><ele>113.0</ele><time>2026-04-03T16:06:00.503Z</time></trkpt><trkpt lat="44.9469143" lon="9.7154344"><ele>113.0</ele><time>2026-04-03T16:06:01.498Z</time></trkpt><trkpt lat="44.9469412" lon="9.7152655"><ele>113.5</ele><time>2026-04-03T16:06:02.507Z</time></trkpt><trkpt lat="44.94697" lon="9.7150981"><ele>114.0</ele><time>2026-04-03T16:06:03.497Z</time></trkpt><trkpt lat="44.9469999" lon="9.7149294"><ele>114.5</ele><time>2026-04-03T16:06:04.49Z</time></trkpt><trkpt lat="44.9470299" lon="9.7147628"><ele>115.0</ele><time>2026-04-03T16:06:05.489Z</time></trkpt><trkpt lat="44.9470602" lon="9.7145957"><ele>115.0</ele><time>2026-04-03T16:06:06.497Z</time></trkpt><trkpt lat="44.947089" lon="9.7144306"><ele>115.0</ele><time>2026-04-03T16:06:07.486Z</time></trkpt><trkpt lat="44.9471192" lon="9.7142644"><ele>115.0</ele><time>2026-04-03T16:06:08.485Z</time></trkpt><trkpt lat="44.9471493" lon="9.7140974"><ele>115.0</ele><time>2026-04-03T16:06:09.49Z</time></trkpt><trkpt lat="44.947176" lon="9.7139378"><ele>114.83333333333334</ele><time>2026-04-03T16:06:10.491Z</time></trkpt><trkpt lat="44.947198" lon="9.7137931"><ele>114.66666666666667</ele><time>2026-04-03T16:06:11.486Z</time></trkpt><trkpt lat="44.9472191" lon="9.7136716"><ele>114.5</ele><time>2026-04-03T16:06:12.488Z</time></trkpt><trkpt lat="44.947239" lon="9.713568"><ele>114.33333333333334</ele><time>2026-04-03T16:06:13.49Z</time></trkpt><trkpt lat="44.9472572" lon="9.7134758"><ele>114.16666666666667</ele><time>2026-04-03T16:06:14.498Z</time></trkpt><trkpt lat="44.9472848" lon="9.7133402"><ele>114.0</ele><time>2026-04-03T16:06:16.5Z</time></trkpt><trkpt lat="44.9472526" lon="9.7132381"><ele>114.0</ele><time>2026-04-03T16:06:18.496Z</time></trkpt><trkpt lat="44.9471506" lon="9.7131619"><ele>114.0</ele><time>2026-04-03T16:06:20.488Z</time></trkpt><trkpt lat="44.9470564" lon="9.7131227"><ele>114.0</ele><time>2026-04-03T16:06:21.495Z</time></trkpt><trkpt lat="44.9469406" lon="9.7130697"><ele>114.0</ele><time>2026-04-03T16:06:22.492Z</time></trkpt><trkpt lat="44.9468012" lon="9.7130063"><ele>114.33333333333334</ele><time>2026-04-03T16:06:23.487Z</time></trkpt><trkpt lat="44.9466514" lon="9.7129357"><ele>114.66666666666667</ele><time>2026-04-03T16:06:24.497Z</time></trkpt><trkpt lat="44.9464958" lon="9.7128653"><ele>115.0</ele><time>2026-04-03T16:06:25.494Z</time></trkpt><trkpt lat="44.9463409" lon="9.712791"><ele>114.66666666666667</ele><time>2026-04-03T16:06:26.492Z</time></trkpt><trkpt lat="44.9461799" lon="9.7127166"><ele>114.33333333333334</ele><time>2026-04-03T16:06:27.499Z</time></trkpt><trkpt lat="44.9460183" lon="9.7126384"><ele>114.0</ele><time>2026-04-03T16:06:28.494Z</time></trkpt><trkpt lat="44.9458583" lon="9.7125613"><ele>114.66666666666666</ele><time>2026-04-03T16:06:29.491Z</time></trkpt><trkpt lat="44.9456969" lon="9.7124832"><ele>115.33333333333333</ele><time>2026-04-03T16:06:30.5Z</time></trkpt><trkpt lat="44.9455312" lon="9.7124066"><ele>116.0</ele><time>2026-04-03T16:06:31.486Z</time></trkpt><trkpt lat="44.9453626" lon="9.7123364"><ele>116.0</ele><time>2026-04-03T16:06:32.486Z</time></trkpt><trkpt lat="44.9451939" lon="9.7122691"><ele>116.0</ele><time>2026-04-03T16:06:33.49Z</time></trkpt><trkpt lat="44.9450258" lon="9.7122016"><ele>116.0</ele><time>2026-04-03T16:06:34.486Z</time></trkpt><trkpt lat="44.9448595" lon="9.7121388"><ele>115.66666666666666</ele><time>2026-04-03T16:06:35.487Z</time></trkpt><trkpt lat="44.9446962" lon="9.7120789"><ele>115.33333333333334</ele><time>2026-04-03T16:06:36.483Z</time></trkpt><trkpt lat="44.9445376" lon="9.712016"><ele>115.0</ele><time>2026-04-03T16:06:37.498Z</time></trkpt><trkpt lat="44.9443849" lon="9.7119535"><ele>115.0</ele><time>2026-04-03T16:06:38.493Z</time></trkpt><trkpt lat="44.9442411" lon="9.711894"><ele>115.0</ele><time>2026-04-03T16:06:39.485Z</time></trkpt><trkpt lat="44.9441041" lon="9.7118377"><ele>115.0</ele><time>2026-04-03T16:06:40.486Z</time></trkpt><trkpt lat="44.9439761" lon="9.7117834"><ele>115.0</ele><time>2026-04-03T16:06:41.487Z</time></trkpt><trkpt lat="44.9438538" lon="9.7117404"><ele>115.0</ele><time>2026-04-03T16:06:42.496Z</time></trkpt><trkpt lat="44.9437331" lon="9.7117263"><ele>115.0</ele><time>2026-04-03T16:06:43.504Z</time></trkpt><trkpt lat="44.9436154" lon="9.7117398"><ele>115.0</ele><time>2026-04-03T16:06:44.498Z</time></trkpt><trkpt lat="44.9434908" lon="9.7117848"><ele>115.0</ele><time>2026-04-03T16:06:45.5Z</time></trkpt><trkpt lat="44.9433609" lon="9.7118515"><ele>115.25</ele><time>2026-04-03T16:06:46.496Z</time></trkpt><trkpt lat="44.943242" lon="9.7119314"><ele>115.5</ele><time>2026-04-03T16:06:47.497Z</time></trkpt><trkpt lat="44.9431384" lon="9.7120179"><ele>115.75</ele><time>2026-04-03T16:06:48.495Z</time></trkpt><trkpt lat="44.9430393" lon="9.7120918"><ele>116.0</ele><time>2026-04-03T16:06:49.489Z</time></trkpt><trkpt lat="44.9429421" lon="9.7121308"><ele>116.0</ele><time>2026-04-03T16:06:50.493Z</time></trkpt><trkpt lat="44.9428504" lon="9.7121269"><ele>116.0</ele><time>2026-04-03T16:06:51.49Z</time></trkpt><trkpt lat="44.9427495" lon="9.7120845"><ele>116.0</ele><time>2026-04-03T16:06:52.488Z</time></trkpt><trkpt lat="44.942627" lon="9.7120081"><ele>116.0</ele><time>2026-04-03T16:06:53.493Z</time></trkpt><trkpt lat="44.9424887" lon="9.7119388"><ele>116.25</ele><time>2026-04-03T16:06:54.494Z</time></trkpt><trkpt lat="44.9423445" lon="9.7118801"><ele>116.5</ele><time>2026-04-03T16:06:55.497Z</time></trkpt><trkpt lat="44.9422045" lon="9.7118226"><ele>116.75</ele><time>2026-04-03T16:06:56.491Z</time></trkpt><trkpt lat="44.9420753" lon="9.711773"><ele>117.0</ele><time>2026-04-03T16:06:57.488Z</time></trkpt><trkpt lat="44.9419537" lon="9.7117267"><ele>117.0</ele><time>2026-04-03T16:06:58.497Z</time></trkpt><trkpt lat="44.9418366" lon="9.7116834"><ele>117.0</ele><time>2026-04-03T16:06:59.493Z</time></trkpt><trkpt lat="44.9417258" lon="9.7116422"><ele>117.0</ele><time>2026-04-03T16:07:00.492Z</time></trkpt><trkpt lat="44.9416191" lon="9.7116001"><ele>117.0</ele><time>2026-04-03T16:07:01.496Z</time></trkpt><trkpt lat="44.9415159" lon="9.7115587"><ele>117.0</ele><time>2026-04-03T16:07:02.496Z</time></trkpt><trkpt lat="44.9414137" lon="9.7115178"><ele>116.99999999999999</ele><time>2026-04-03T16:07:03.5Z</time></trkpt><trkpt lat="44.9413091" lon="9.7114763"><ele>116.99999999999999</ele><time>2026-04-03T16:07:04.486Z</time></trkpt><trkpt lat="44.9412091" lon="9.7114359"><ele>117.0</ele><time>2026-04-03T16:07:05.496Z</time></trkpt><trkpt lat="44.9411117" lon="9.711394"><ele>117.0</ele><time>2026-04-03T16:07:06.492Z</time></trkpt><trkpt lat="44.9410166" lon="9.7113555"><ele>117.0</ele><time>2026-04-03T16:07:07.495Z</time></trkpt><trkpt lat="44.9409238" lon="9.7113234"><ele>116.99999999999999</ele><time>2026-04-03T16:07:08.49Z</time></trkpt><trkpt lat="44.9408302" lon="9.7112919"><ele>116.99999999999999</ele><time>2026-04-03T16:07:09.491Z</time></trkpt><trkpt lat="44.9407365" lon="9.7112613"><ele>117.0</ele><time>2026-04-03T16:07:10.488Z</time></trkpt><trkpt lat="44.9406457" lon="9.7112319"><ele>117.0</ele><time>2026-04-03T16:07:11.49Z</time></trkpt><trkpt lat="44.9405587" lon="9.7112005"><ele>117.0</ele><time>2026-04-03T16:07:12.495Z</time></trkpt><trkpt lat="44.9404732" lon="9.7111692"><ele>117.0</ele><time>2026-04-03T16:07:13.499Z</time></trkpt><trkpt lat="44.9403895" lon="9.7111385"><ele>117.0</ele><time>2026-04-03T16:07:14.498Z</time></trkpt><trkpt lat="44.9403087" lon="9.7111109"><ele>117.0</ele><time>2026-04-03T16:07:15.489Z</time></trkpt><trkpt lat="44.9402296" lon="9.711087"><ele>117.0</ele><time>2026-04-03T16:07:16.498Z</time></trkpt><trkpt lat="44.94015" lon="9.7110666"><ele>117.0</ele><time>2026-04-03T16:07:17.492Z</time></trkpt><trkpt lat="44.9400668" lon="9.7110441"><ele>117.33333333333333</ele><time>2026-04-03T16:07:18.492Z</time></trkpt><trkpt lat="44.9399845" lon="9.7110189"><ele>117.66666666666666</ele><time>2026-04-03T16:07:19.491Z</time></trkpt><trkpt lat="44.9399034" lon="9.71099"><ele>118.0</ele><time>2026-04-03T16:07:20.488Z</time></trkpt><trkpt lat="44.9398236" lon="9.7109629"><ele>118.33333333333333</ele><time>2026-04-03T16:07:21.492Z</time></trkpt><trkpt lat="44.9397449" lon="9.7109442"><ele>118.66666666666666</ele><time>2026-04-03T16:07:22.49Z</time></trkpt><trkpt lat="44.9396674" lon="9.7109303"><ele>119.0</ele><time>2026-04-03T16:07:23.499Z</time></trkpt><trkpt lat="44.9395928" lon="9.7109129"><ele>118.99999999999999</ele><time>2026-04-03T16:07:24.495Z</time></trkpt><trkpt lat="44.9395195" lon="9.7108918"><ele>119.0</ele><time>2026-04-03T16:07:25.489Z</time></trkpt><trkpt lat="44.9394452" lon="9.7108716"><ele>119.0</ele><time>2026-04-03T16:07:26.496Z</time></trkpt><trkpt lat="44.9393712" lon="9.7108498"><ele>119.0</ele><time>2026-04-03T16:07:27.494Z</time></trkpt><trkpt lat="44.9392971" lon="9.7108241"><ele>118.99999999999999</ele><time>2026-04-03T16:07:28.488Z</time></trkpt><trkpt lat="44.9392227" lon="9.7107984"><ele>119.0</ele><time>2026-04-03T16:07:29.496Z</time></trkpt><trkpt lat="44.939148" lon="9.7107709"><ele>119.16666666666666</ele><time>2026-04-03T16:07:30.488Z</time></trkpt><trkpt lat="44.939072" lon="9.7107509"><ele>119.33333333333333</ele><time>2026-04-03T16:07:31.493Z</time></trkpt><trkpt lat="44.9389943" lon="9.7107343"><ele>119.5</ele><time>2026-04-03T16:07:32.492Z</time></trkpt><trkpt lat="44.938916" lon="9.7107102"><ele>119.66666666666666</ele><time>2026-04-03T16:07:33.507Z</time></trkpt><trkpt lat="44.9388359" lon="9.7106825"><ele>119.83333333333333</ele><time>2026-04-03T16:07:34.489Z</time></trkpt><trkpt lat="44.9387545" lon="9.7106503"><ele>120.0</ele><time>2026-04-03T16:07:35.489Z</time></trkpt><trkpt lat="44.9386727" lon="9.710613"><ele>120.0</ele><time>2026-04-03T16:07:36.489Z</time></trkpt><trkpt lat="44.9385885" lon="9.7105726"><ele>120.0</ele><time>2026-04-03T16:07:37.487Z</time></trkpt><trkpt lat="44.9385012" lon="9.7105342"><ele>120.0</ele><time>2026-04-03T16:07:38.494Z</time></trkpt><trkpt lat="44.9384133" lon="9.7104982"><ele>120.0</ele><time>2026-04-03T16:07:39.495Z</time></trkpt><trkpt lat="44.9383249" lon="9.7104629"><ele>120.0</ele><time>2026-04-03T16:07:40.487Z</time></trkpt><trkpt lat="44.9382355" lon="9.710429"><ele>120.0</ele><time>2026-04-03T16:07:41.501Z</time></trkpt><trkpt lat="44.938145" lon="9.7103922"><ele>120.0</ele><time>2026-04-03T16:07:42.497Z</time></trkpt><trkpt lat="44.9380532" lon="9.7103529"><ele>120.0</ele><time>2026-04-03T16:07:43.506Z</time></trkpt><trkpt lat="44.9379621" lon="9.7103185"><ele>120.0</ele><time>2026-04-03T16:07:44.494Z</time></trkpt><trkpt lat="44.9378714" lon="9.7102818"><ele>120.0</ele><time>2026-04-03T16:07:45.495Z</time></trkpt><trkpt lat="44.9377813" lon="9.7102435"><ele>119.83333333333333</ele><time>2026-04-03T16:07:46.49Z</time></trkpt><trkpt lat="44.9376923" lon="9.7102062"><ele>119.66666666666666</ele><time>2026-04-03T16:07:47.49Z</time></trkpt><trkpt lat="44.9376041" lon="9.7101755"><ele>119.5</ele><time>2026-04-03T16:07:48.5Z</time></trkpt><trkpt lat="44.9375172" lon="9.7101473"><ele>119.33333333333333</ele><time>2026-04-03T16:07:49.491Z</time></trkpt><trkpt lat="44.9374322" lon="9.7101219"><ele>119.16666666666666</ele><time>2026-04-03T16:07:50.491Z</time></trkpt><trkpt lat="44.9373485" lon="9.710098"><ele>119.0</ele><time>2026-04-03T16:07:51.494Z</time></trkpt><trkpt lat="44.9372652" lon="9.7100751"><ele>119.33333333333333</ele><time>2026-04-03T16:07:52.495Z</time></trkpt><trkpt lat="44.9371844" lon="9.7100608"><ele>119.66666666666666</ele><time>2026-04-03T16:07:53.497Z</time></trkpt><trkpt lat="44.9371092" lon="9.7100593"><ele>120.0</ele><time>2026-04-03T16:07:54.488Z</time></trkpt><trkpt lat="44.9370386" lon="9.710074"><ele>120.33333333333334</ele><time>2026-04-03T16:07:55.496Z</time></trkpt><trkpt lat="44.9369722" lon="9.7101072"><ele>120.66666666666667</ele><time>2026-04-03T16:07:56.49Z</time></trkpt><trkpt lat="44.9369138" lon="9.7101685"><ele>121.0</ele><time>2026-04-03T16:07:57.492Z</time></trkpt><trkpt lat="44.936867" lon="9.7102576"><ele>121.00000000000001</ele><time>2026-04-03T16:07:58.495Z</time></trkpt><trkpt lat="44.9368305" lon="9.7103619"><ele>121.0</ele><time>2026-04-03T16:07:59.489Z</time></trkpt><trkpt lat="44.936803" lon="9.7104728"><ele>121.0</ele><time>2026-04-03T16:08:00.496Z</time></trkpt><trkpt lat="44.936787" lon="9.7105835"><ele>121.0</ele><time>2026-04-03T16:08:01.499Z</time></trkpt><trkpt lat="44.9367763" lon="9.7106846"><ele>121.00000000000001</ele><time>2026-04-03T16:08:02.489Z</time></trkpt><trkpt lat="44.9367207" lon="9.7108366"><ele>121.0</ele><time>2026-04-03T16:08:04.493Z</time></trkpt><trkpt lat="44.9366104" lon="9.7109093"><ele>121.19999999999999</ele><time>2026-04-03T16:08:06.494Z</time></trkpt><trkpt lat="44.9364758" lon="9.7108783"><ele>121.39999999999999</ele><time>2026-04-03T16:08:08.497Z</time></trkpt><trkpt lat="44.9364052" lon="9.7108269"><ele>121.6</ele><time>2026-04-03T16:08:09.487Z</time></trkpt><trkpt lat="44.9363301" lon="9.7107755"><ele>121.8</ele><time>2026-04-03T16:08:10.497Z</time></trkpt><trkpt lat="44.9362559" lon="9.7107386"><ele>122.0</ele><time>2026-04-03T16:08:11.493Z</time></trkpt><trkpt lat="44.9361836" lon="9.7107124"><ele>121.99999999999999</ele><time>2026-04-03T16:08:12.486Z</time></trkpt><trkpt lat="44.9361141" lon="9.7106893"><ele>122.0</ele><time>2026-04-03T16:08:13.493Z</time></trkpt><trkpt lat="44.9360458" lon="9.7106715"><ele>122.0</ele><time>2026-04-03T16:08:14.493Z</time></trkpt><trkpt lat="44.9359784" lon="9.7106558"><ele>122.0</ele><time>2026-04-03T16:08:15.491Z</time></trkpt><trkpt lat="44.9359134" lon="9.7106366"><ele>121.99999999999999</ele><time>2026-04-03T16:08:16.488Z</time></trkpt><trkpt lat="44.9358001" lon="9.7105877"><ele>122.0</ele><time>2026-04-03T16:08:18.484Z</time></trkpt><trkpt lat="44.9357117" lon="9.710549"><ele>121.83333333333333</ele><time>2026-04-03T16:08:20.491Z</time></trkpt><trkpt lat="44.9356369" lon="9.7105596"><ele>121.66666666666666</ele><time>2026-04-03T16:08:23.493Z</time></trkpt><trkpt lat="44.9355888" lon="9.7106261"><ele>121.5</ele><time>2026-04-03T16:08:25.489Z</time></trkpt><trkpt lat="44.9355487" lon="9.7107525"><ele>121.33333333333334</ele><time>2026-04-03T16:08:27.499Z</time></trkpt><trkpt lat="44.935527" lon="9.7108378"><ele>121.16666666666667</ele><time>2026-04-03T16:08:28.484Z</time></trkpt><trkpt lat="44.9355019" lon="9.7109279"><ele>121.0</ele><time>2026-04-03T16:08:29.491Z</time></trkpt><trkpt lat="44.9354598" lon="9.7110822"><ele>121.00000000000001</ele><time>2026-04-03T16:08:31.489Z</time></trkpt><trkpt lat="44.9354251" lon="9.7112137"><ele>121.0</ele><time>2026-04-03T16:08:33.491Z</time></trkpt><trkpt lat="44.9353919" lon="9.7113382"><ele>121.0</ele><time>2026-04-03T16:08:35.489Z</time></trkpt><trkpt lat="44.9353565" lon="9.7114438"><ele>121.0</ele><time>2026-04-03T16:08:37.488Z</time></trkpt><trkpt lat="44.9353083" lon="9.7115222"><ele>121.00000000000001</ele><time>2026-04-03T16:08:39.488Z</time></trkpt><trkpt lat="44.9352521" lon="9.7115625"><ele>121.0</ele><time>2026-04-03T16:08:41.488Z</time></trkpt><trkpt lat="44.9351722" lon="9.7115744"><ele>121.0</ele><time>2026-04-03T16:08:44.488Z</time></trkpt><trkpt lat="44.9350834" lon="9.7115875"><ele>121.0</ele><time>2026-04-03T16:08:46.491Z</time></trkpt><trkpt lat="44.9349712" lon="9.7116154"><ele>121.0</ele><time>2026-04-03T16:08:48.49Z</time></trkpt><trkpt lat="44.9348579" lon="9.7116576"><ele>121.0</ele><time>2026-04-03T16:08:50.49Z</time></trkpt><trkpt lat="44.9347474" lon="9.7116964"><ele>121.0</ele><time>2026-04-03T16:08:52.488Z</time></trkpt><trkpt lat="44.9346434" lon="9.7117427"><ele>121.16666666666667</ele><time>2026-04-03T16:08:54.5Z</time></trkpt><trkpt lat="44.9345603" lon="9.7118082"><ele>121.33333333333334</ele><time>2026-04-03T16:08:56.486Z</time></trkpt><trkpt lat="44.9344977" lon="9.7118841"><ele>121.5</ele><time>2026-04-03T16:08:58.486Z</time></trkpt><trkpt lat="44.9344316" lon="9.7119461"><ele>121.66666666666666</ele><time>2026-04-03T16:09:01.496Z</time></trkpt><trkpt lat="44.9344362" lon="9.7120498"><ele>121.83333333333333</ele><time>2026-04-03T16:09:07.491Z</time></trkpt><trkpt lat="44.9345031" lon="9.712006"><ele>122.0</ele><time>2026-04-03T16:09:11.491Z</time></trkpt><trkpt lat="44.9345297" lon="9.7119142"><ele>122.0</ele><time>2026-04-03T16:09:13.495Z</time></trkpt><trkpt lat="44.9345953" lon="9.7118064"><ele>121.99999999999999</ele><time>2026-04-03T16:09:15.489Z</time></trkpt><trkpt lat="44.9347085" lon="9.7117126"><ele>121.99999999999999</ele><time>2026-04-03T16:09:17.49Z</time></trkpt><trkpt lat="44.9347782" lon="9.7116675"><ele>122.0</ele><time>2026-04-03T16:09:18.489Z</time></trkpt><trkpt lat="44.9348493" lon="9.7116298"><ele>122.0</ele><time>2026-04-03T16:09:19.494Z</time></trkpt><trkpt lat="44.9349271" lon="9.7116041"><ele>121.99999999999999</ele><time>2026-04-03T16:09:20.487Z</time></trkpt><trkpt lat="44.935009" lon="9.7115868"><ele>122.0</ele><time>2026-04-03T16:09:21.49Z</time></trkpt><trkpt lat="44.9350889" lon="9.7115734"><ele>121.99999999999999</ele><time>2026-04-03T16:09:22.496Z</time></trkpt><trkpt lat="44.9351643" lon="9.7115588"><ele>121.99999999999999</ele><time>2026-04-03T16:09:23.491Z</time></trkpt><trkpt lat="44.9352345" lon="9.7115364"><ele>122.0</ele><time>2026-04-03T16:09:24.489Z</time></trkpt><trkpt lat="44.9352964" lon="9.7115006"><ele>121.99999999999999</ele><time>2026-04-03T16:09:25.49Z</time></trkpt><trkpt lat="44.9353485" lon="9.7114457"><ele>121.99999999999999</ele><time>2026-04-03T16:09:26.491Z</time></trkpt><trkpt lat="44.9353881" lon="9.711374"><ele>121.83333333333333</ele><time>2026-04-03T16:09:27.492Z</time></trkpt><trkpt lat="44.9354163" lon="9.7112861"><ele>121.66666666666666</ele><time>2026-04-03T16:09:28.501Z</time></trkpt><trkpt lat="44.9354414" lon="9.7111804"><ele>121.5</ele><time>2026-04-03T16:09:29.497Z</time></trkpt><trkpt lat="44.9354719" lon="9.7110608"><ele>121.33333333333334</ele><time>2026-04-03T16:09:30.491Z</time></trkpt><trkpt lat="44.935508" lon="9.7109347"><ele>121.16666666666667</ele><time>2026-04-03T16:09:31.492Z</time></trkpt><trkpt lat="44.9355472" lon="9.7108042"><ele>121.0</ele><time>2026-04-03T16:09:32.483Z</time></trkpt><trkpt lat="44.9355872" lon="9.7106709"><ele>121.0</ele><time>2026-04-03T16:09:33.491Z</time></trkpt><trkpt lat="44.9356284" lon="9.7105359"><ele>121.0</ele><time>2026-04-03T16:09:34.492Z</time></trkpt><trkpt lat="44.9356703" lon="9.7104015"><ele>121.0</ele><time>2026-04-03T16:09:35.491Z</time></trkpt><trkpt lat="44.9357116" lon="9.7102658"><ele>121.0</ele><time>2026-04-03T16:09:36.508Z</time></trkpt><trkpt lat="44.9357511" lon="9.7101303"><ele>121.0</ele><time>2026-04-03T16:09:37.5Z</time></trkpt><trkpt lat="44.9357857" lon="9.7099906"><ele>121.19999999999999</ele><time>2026-04-03T16:09:38.488Z</time></trkpt><trkpt lat="44.9358217" lon="9.7098476"><ele>121.39999999999999</ele><time>2026-04-03T16:09:39.485Z</time></trkpt><trkpt lat="44.935862" lon="9.7097019"><ele>121.6</ele><time>2026-04-03T16:09:40.488Z</time></trkpt><trkpt lat="44.9359012" lon="9.7095548"><ele>121.8</ele><time>2026-04-03T16:09:41.492Z</time></trkpt><trkpt lat="44.9359377" lon="9.7094126"><ele>122.0</ele><time>2026-04-03T16:09:42.493Z</time></trkpt><trkpt lat="44.9359689" lon="9.7092825"><ele>121.99999999999999</ele><time>2026-04-03T16:09:43.49Z</time></trkpt><trkpt lat="44.9359925" lon="9.7091703"><ele>122.0</ele><time>2026-04-03T16:09:44.485Z</time></trkpt><trkpt lat="44.9360139" lon="9.7090717"><ele>121.99999999999999</ele><time>2026-04-03T16:09:45.497Z</time></trkpt><trkpt lat="44.9360368" lon="9.7089846"><ele>121.99999999999999</ele><time>2026-04-03T16:09:46.495Z</time></trkpt><trkpt lat="44.9360573" lon="9.7088965"><ele>122.0</ele><time>2026-04-03T16:09:47.5Z</time></trkpt><trkpt lat="44.9360742" lon="9.7088036"><ele>121.99999999999999</ele><time>2026-04-03T16:09:48.491Z</time></trkpt><trkpt lat="44.936091" lon="9.7087094"><ele>121.99999999999999</ele><time>2026-04-03T16:09:49.491Z</time></trkpt><trkpt lat="44.9361111" lon="9.7086153"><ele>121.66666666666666</ele><time>2026-04-03T16:09:50.499Z</time></trkpt><trkpt lat="44.9361357" lon="9.7085204"><ele>121.33333333333333</ele><time>2026-04-03T16:09:51.492Z</time></trkpt><trkpt lat="44.9361578" lon="9.7084259"><ele>121.0</ele><time>2026-04-03T16:09:52.491Z</time></trkpt><trkpt lat="44.9361752" lon="9.7083359"><ele>120.66666666666666</ele><time>2026-04-03T16:09:53.491Z</time></trkpt><trkpt lat="44.9362073" lon="9.7082033"><ele>120.33333333333333</ele><time>2026-04-03T16:09:55.49Z</time></trkpt><trkpt lat="44.9362549" lon="9.7080746"><ele>120.0</ele><time>2026-04-03T16:09:57.497Z</time></trkpt><trkpt lat="44.9362923" lon="9.7079833"><ele>120.0</ele><time>2026-04-03T16:09:58.489Z</time></trkpt><trkpt lat="44.9363294" lon="9.7078738"><ele>120.0</ele><time>2026-04-03T16:09:59.497Z</time></trkpt><trkpt lat="44.936362" lon="9.7077558"><ele>120.0</ele><time>2026-04-03T16:10:00.494Z</time></trkpt><trkpt lat="44.9363895" lon="9.7076353"><ele>120.0</ele><time>2026-04-03T16:10:01.49Z</time></trkpt><trkpt lat="44.9364146" lon="9.7075136"><ele>120.0</ele><time>2026-04-03T16:10:02.493Z</time></trkpt><trkpt lat="44.9364398" lon="9.7073877"><ele>120.0</ele><time>2026-04-03T16:10:03.492Z</time></trkpt><trkpt lat="44.9364641" lon="9.7072581"><ele>120.4</ele><time>2026-04-03T16:10:04.494Z</time></trkpt><trkpt lat="44.9364861" lon="9.7071246"><ele>120.8</ele><time>2026-04-03T16:10:05.489Z</time></trkpt><trkpt lat="44.9365097" lon="9.7069898"><ele>121.19999999999999</ele><time>2026-04-03T16:10:06.49Z</time></trkpt><trkpt lat="44.9365379" lon="9.7068536"><ele>121.6</ele><time>2026-04-03T16:10:07.485Z</time></trkpt><trkpt lat="44.9365688" lon="9.7067168"><ele>122.0</ele><time>2026-04-03T16:10:08.486Z</time></trkpt><trkpt lat="44.9365995" lon="9.7065845"><ele>122.0</ele><time>2026-04-03T16:10:09.486Z</time></trkpt><trkpt lat="44.9366276" lon="9.7064568"><ele>121.99999999999999</ele><time>2026-04-03T16:10:10.495Z</time></trkpt><trkpt lat="44.936655" lon="9.706329"><ele>121.99999999999999</ele><time>2026-04-03T16:10:11.493Z</time></trkpt><trkpt lat="44.9366824" lon="9.7062045"><ele>122.0</ele><time>2026-04-03T16:10:12.497Z</time></trkpt><trkpt lat="44.9367106" lon="9.7060814"><ele>122.0</ele><time>2026-04-03T16:10:13.501Z</time></trkpt><trkpt lat="44.9367395" lon="9.7059602"><ele>122.19999999999999</ele><time>2026-04-03T16:10:14.497Z</time></trkpt><trkpt lat="44.9367697" lon="9.7058417"><ele>122.39999999999999</ele><time>2026-04-03T16:10:15.491Z</time></trkpt><trkpt lat="44.9368038" lon="9.7057251"><ele>122.60000000000001</ele><time>2026-04-03T16:10:16.498Z</time></trkpt><trkpt lat="44.9368397" lon="9.7056082"><ele>122.80000000000001</ele><time>2026-04-03T16:10:17.496Z</time></trkpt><trkpt lat="44.9368776" lon="9.7054891"><ele>123.0</ele><time>2026-04-03T16:10:18.496Z</time></trkpt><trkpt lat="44.9369164" lon="9.7053666"><ele>123.2</ele><time>2026-04-03T16:10:19.49Z</time></trkpt><trkpt lat="44.9369541" lon="9.7052381"><ele>123.4</ele><time>2026-04-03T16:10:20.498Z</time></trkpt><trkpt lat="44.936993" lon="9.7051009"><ele>123.60000000000001</ele><time>2026-04-03T16:10:21.49Z</time></trkpt><trkpt lat="44.9370318" lon="9.7049536"><ele>123.80000000000001</ele><time>2026-04-03T16:10:22.498Z</time></trkpt><trkpt lat="44.9370716" lon="9.7047974"><ele>124.0</ele><time>2026-04-03T16:10:23.49Z</time></trkpt><trkpt lat="44.9371143" lon="9.7046347"><ele>124.0</ele><time>2026-04-03T16:10:24.5Z</time></trkpt><trkpt lat="44.9371593" lon="9.7044653"><ele>124.0</ele><time>2026-04-03T16:10:25.496Z</time></trkpt><trkpt lat="44.9372086" lon="9.7042853"><ele>124.0</ele><time>2026-04-03T16:10:26.489Z</time></trkpt><trkpt lat="44.9372612" lon="9.7041005"><ele>124.0</ele><time>2026-04-03T16:10:27.492Z</time></trkpt><trkpt lat="44.9373144" lon="9.7039137"><ele>124.33333333333334</ele><time>2026-04-03T16:10:28.492Z</time></trkpt><trkpt lat="44.9373695" lon="9.7037174"><ele>124.66666666666666</ele><time>2026-04-03T16:10:29.497Z</time></trkpt><trkpt lat="44.9374257" lon="9.7035143"><ele>125.0</ele><time>2026-04-03T16:10:30.492Z</time></trkpt><trkpt lat="44.9374812" lon="9.7033108"><ele>125.0</ele><time>2026-04-03T16:10:31.491Z</time></trkpt><trkpt lat="44.9375364" lon="9.7031059"><ele>125.0</ele><time>2026-04-03T16:10:32.489Z</time></trkpt><trkpt lat="44.9375911" lon="9.702899"><ele>125.0</ele><time>2026-04-03T16:10:33.499Z</time></trkpt><trkpt lat="44.9376461" lon="9.7026911"><ele>124.66666666666666</ele><time>2026-04-03T16:10:34.492Z</time></trkpt><trkpt lat="44.9377009" lon="9.7024823"><ele>124.33333333333334</ele><time>2026-04-03T16:10:35.492Z</time></trkpt><trkpt lat="44.9377555" lon="9.7022715"><ele>124.0</ele><time>2026-04-03T16:10:36.487Z</time></trkpt><trkpt lat="44.9378127" lon="9.7020594"><ele>124.0</ele><time>2026-04-03T16:10:37.487Z</time></trkpt><trkpt lat="44.9378754" lon="9.7018446"><ele>124.0</ele><time>2026-04-03T16:10:38.489Z</time></trkpt><trkpt lat="44.9379385" lon="9.7016248"><ele>124.0</ele><time>2026-04-03T16:10:39.493Z</time></trkpt><trkpt lat="44.9380009" lon="9.7013992"><ele>124.0</ele><time>2026-04-03T16:10:40.498Z</time></trkpt><trkpt lat="44.9380602" lon="9.7011684"><ele>124.0</ele><time>2026-04-03T16:10:41.492Z</time></trkpt><trkpt lat="44.9381167" lon="9.7009313"><ele>124.0</ele><time>2026-04-03T16:10:42.499Z</time></trkpt><trkpt lat="44.9381689" lon="9.7006884"><ele>124.0</ele><time>2026-04-03T16:10:43.508Z</time></trkpt><trkpt lat="44.9382173" lon="9.7004415"><ele>124.0</ele><time>2026-04-03T16:10:44.497Z</time></trkpt><trkpt lat="44.9382648" lon="9.7001904"><ele>124.0</ele><time>2026-04-03T16:10:45.509Z</time></trkpt><trkpt lat="44.9383115" lon="9.6999381"><ele>124.0</ele><time>2026-04-03T16:10:46.502Z</time></trkpt><trkpt lat="44.93836" lon="9.6996877"><ele>124.0</ele><time>2026-04-03T16:10:47.494Z</time></trkpt><trkpt lat="44.9384106" lon="9.6994409"><ele>124.0</ele><time>2026-04-03T16:10:48.502Z</time></trkpt><trkpt lat="44.9384614" lon="9.6991957"><ele>124.0</ele><time>2026-04-03T16:10:49.497Z</time></trkpt><trkpt lat="44.9385082" lon="9.6989498"><ele>124.0</ele><time>2026-04-03T16:10:50.489Z</time></trkpt><trkpt lat="44.9385535" lon="9.6987041"><ele>124.0</ele><time>2026-04-03T16:10:51.511Z</time></trkpt><trkpt lat="44.9385976" lon="9.6984577"><ele>123.66666666666667</ele><time>2026-04-03T16:10:52.508Z</time></trkpt><trkpt lat="44.9386418" lon="9.698213"><ele>123.33333333333334</ele><time>2026-04-03T16:10:53.505Z</time></trkpt><trkpt lat="44.938686" lon="9.6979703"><ele>123.0</ele><time>2026-04-03T16:10:54.501Z</time></trkpt><trkpt lat="44.9387291" lon="9.6977275"><ele>123.0</ele><time>2026-04-03T16:10:55.493Z</time></trkpt><trkpt lat="44.9387674" lon="9.6974831"><ele>123.0</ele><time>2026-04-03T16:10:56.508Z</time></trkpt><trkpt lat="44.9387999" lon="9.6972383"><ele>123.0</ele><time>2026-04-03T16:10:57.503Z</time></trkpt><trkpt lat="44.9388305" lon="9.6969938"><ele>123.66666666666666</ele><time>2026-04-03T16:10:58.501Z</time></trkpt><trkpt lat="44.9388586" lon="9.6967591"><ele>124.33333333333333</ele><time>2026-04-03T16:10:59.49Z</time></trkpt><trkpt lat="44.938886" lon="9.6965318"><ele>125.0</ele><time>2026-04-03T16:11:00.498Z</time></trkpt><trkpt lat="44.9389125" lon="9.6963011"><ele>125.0</ele><time>2026-04-03T16:11:01.503Z</time></trkpt><trkpt lat="44.9389378" lon="9.6960607"><ele>125.0</ele><time>2026-04-03T16:11:02.498Z</time></trkpt><trkpt lat="44.9389616" lon="9.6958138"><ele>125.0</ele><time>2026-04-03T16:11:03.509Z</time></trkpt><trkpt lat="44.9389811" lon="9.6955581"><ele>125.0</ele><time>2026-04-03T16:11:04.497Z</time></trkpt><trkpt lat="44.9389951" lon="9.6952937"><ele>125.0</ele><time>2026-04-03T16:11:05.51Z</time></trkpt><trkpt lat="44.9390087" lon="9.6950216"><ele>125.0</ele><time>2026-04-03T16:11:06.497Z</time></trkpt><trkpt lat="44.939028" lon="9.6947442"><ele>125.0</ele><time>2026-04-03T16:11:07.505Z</time></trkpt><trkpt lat="44.9390538" lon="9.6944606"><ele>125.0</ele><time>2026-04-03T16:11:08.515Z</time></trkpt><trkpt lat="44.9390844" lon="9.6941742"><ele>125.0</ele><time>2026-04-03T16:11:09.497Z</time></trkpt><trkpt lat="44.9391159" lon="9.6938886"><ele>125.33333333333333</ele><time>2026-04-03T16:11:10.502Z</time></trkpt><trkpt lat="44.9391441" lon="9.6936192"><ele>125.66666666666666</ele><time>2026-04-03T16:11:11.504Z</time></trkpt><trkpt lat="44.9391717" lon="9.6933702"><ele>126.0</ele><time>2026-04-03T16:11:12.511Z</time></trkpt><trkpt lat="44.9391967" lon="9.6931462"><ele>126.0</ele><time>2026-04-03T16:11:13.508Z</time></trkpt><trkpt lat="44.9392202" lon="9.6929475"><ele>126.0</ele><time>2026-04-03T16:11:14.502Z</time></trkpt><trkpt lat="44.9392415" lon="9.6927816"><ele>126.0</ele><time>2026-04-03T16:11:15.493Z</time></trkpt><trkpt lat="44.9392573" lon="9.6926414"><ele>126.0</ele><time>2026-04-03T16:11:16.498Z</time></trkpt><trkpt lat="44.9392668" lon="9.6925413"><ele>126.0</ele><time>2026-04-03T16:11:17.521Z</time></trkpt><trkpt lat="44.9392409" lon="9.6924512"><ele>126.19999999999999</ele><time>2026-04-03T16:11:21.501Z</time></trkpt><trkpt lat="44.9391669" lon="9.6924489"><ele>126.39999999999999</ele><time>2026-04-03T16:11:23.505Z</time></trkpt><trkpt lat="44.9390316" lon="9.6924802"><ele>126.6</ele><time>2026-04-03T16:11:25.509Z</time></trkpt><trkpt lat="44.9389438" lon="9.6924957"><ele>126.8</ele><time>2026-04-03T16:11:26.5Z</time></trkpt><trkpt lat="44.9388416" lon="9.692512"><ele>127.0</ele><time>2026-04-03T16:11:27.512Z</time></trkpt><trkpt lat="44.9387238" lon="9.6925274"><ele>127.0</ele><time>2026-04-03T16:11:28.501Z</time></trkpt><trkpt lat="44.9385944" lon="9.6925405"><ele>127.0</ele><time>2026-04-03T16:11:29.507Z</time></trkpt><trkpt lat="44.9384585" lon="9.6925513"><ele>127.0</ele><time>2026-04-03T16:11:30.508Z</time></trkpt><trkpt lat="44.9383134" lon="9.6925594"><ele>127.0</ele><time>2026-04-03T16:11:31.504Z</time></trkpt><trkpt lat="44.9381628" lon="9.6925699"><ele>127.5</ele><time>2026-04-03T16:11:32.501Z</time></trkpt><trkpt lat="44.9380155" lon="9.6925835"><ele>128.0</ele><time>2026-04-03T16:11:33.506Z</time></trkpt><trkpt lat="44.9378723" lon="9.6925929"><ele>128.5</ele><time>2026-04-03T16:11:34.509Z</time></trkpt><trkpt lat="44.9377326" lon="9.6925973"><ele>129.0</ele><time>2026-04-03T16:11:35.519Z</time></trkpt><trkpt lat="44.9375956" lon="9.6926015"><ele>128.5</ele><time>2026-04-03T16:11:36.501Z</time></trkpt><trkpt lat="44.9374616" lon="9.6926077"><ele>128.0</ele><time>2026-04-03T16:11:37.506Z</time></trkpt><trkpt lat="44.9373275" lon="9.6926166"><ele>127.5</ele><time>2026-04-03T16:11:38.49Z</time></trkpt><trkpt lat="44.9371936" lon="9.6926258"><ele>127.0</ele><time>2026-04-03T16:11:39.496Z</time></trkpt><trkpt lat="44.9370592" lon="9.692635"><ele>127.0</ele><time>2026-04-03T16:11:40.503Z</time></trkpt><trkpt lat="44.9369246" lon="9.6926436"><ele>127.0</ele><time>2026-04-03T16:11:41.495Z</time></trkpt><trkpt lat="44.9367881" lon="9.6926524"><ele>127.0</ele><time>2026-04-03T16:11:42.502Z</time></trkpt><trkpt lat="44.9366498" lon="9.692664"><ele>127.0</ele><time>2026-04-03T16:11:43.503Z</time></trkpt><trkpt lat="44.9365127" lon="9.692679"><ele>127.25</ele><time>2026-04-03T16:11:44.506Z</time></trkpt><trkpt lat="44.9363771" lon="9.6926964"><ele>127.5</ele><time>2026-04-03T16:11:45.506Z</time></trkpt><trkpt lat="44.9362432" lon="9.6927195"><ele>127.75</ele><time>2026-04-03T16:11:46.511Z</time></trkpt><trkpt lat="44.9361124" lon="9.6927538"><ele>128.0</ele><time>2026-04-03T16:11:47.495Z</time></trkpt><trkpt lat="44.9359845" lon="9.6928028"><ele>127.5</ele><time>2026-04-03T16:11:48.494Z</time></trkpt><trkpt lat="44.9358564" lon="9.6928599"><ele>127.0</ele><time>2026-04-03T16:11:49.511Z</time></trkpt><trkpt lat="44.9357313" lon="9.692919"><ele>126.5</ele><time>2026-04-03T16:11:50.493Z</time></trkpt><trkpt lat="44.9356061" lon="9.6929768"><ele>126.0</ele><time>2026-04-03T16:11:51.506Z</time></trkpt><trkpt lat="44.9354809" lon="9.6930322"><ele>126.0</ele><time>2026-04-03T16:11:52.495Z</time></trkpt><trkpt lat="44.9353566" lon="9.6930879"><ele>126.0</ele><time>2026-04-03T16:11:53.498Z</time></trkpt><trkpt lat="44.9352328" lon="9.6931401"><ele>126.0</ele><time>2026-04-03T16:11:54.49Z</time></trkpt><trkpt lat="44.93511" lon="9.6931897"><ele>126.0</ele><time>2026-04-03T16:11:55.505Z</time></trkpt><trkpt lat="44.9349888" lon="9.6932422"><ele>126.5</ele><time>2026-04-03T16:11:56.49Z</time></trkpt><trkpt lat="44.9348667" lon="9.6932992"><ele>127.0</ele><time>2026-04-03T16:11:57.494Z</time></trkpt><trkpt lat="44.9347438" lon="9.6933554"><ele>127.5</ele><time>2026-04-03T16:11:58.505Z</time></trkpt><trkpt lat="44.934621" lon="9.6934089"><ele>128.0</ele><time>2026-04-03T16:11:59.501Z</time></trkpt><trkpt lat="44.9344966" lon="9.6934588"><ele>128.0</ele><time>2026-04-03T16:12:00.513Z</time></trkpt><trkpt lat="44.9343704" lon="9.6935091"><ele>128.0</ele><time>2026-04-03T16:12:01.502Z</time></trkpt><trkpt lat="44.9342463" lon="9.6935619"><ele>128.0</ele><time>2026-04-03T16:12:02.499Z</time></trkpt><trkpt lat="44.9341258" lon="9.6936157"><ele>128.0</ele><time>2026-04-03T16:12:03.497Z</time></trkpt><trkpt lat="44.9340053" lon="9.6936674"><ele>128.5</ele><time>2026-04-03T16:12:04.493Z</time></trkpt><trkpt lat="44.9338835" lon="9.6937209"><ele>129.0</ele><time>2026-04-03T16:12:05.51Z</time></trkpt><trkpt lat="44.9337589" lon="9.6937769"><ele>129.5</ele><time>2026-04-03T16:12:06.499Z</time></trkpt><trkpt lat="44.933632" lon="9.6938327"><ele>130.0</ele><time>2026-04-03T16:12:07.488Z</time></trkpt><trkpt lat="44.933506" lon="9.6938883"><ele>130.0</ele><time>2026-04-03T16:12:08.505Z</time></trkpt><trkpt lat="44.9333801" lon="9.6939382"><ele>130.0</ele><time>2026-04-03T16:12:09.502Z</time></trkpt><trkpt lat="44.9332534" lon="9.6939848"><ele>130.0</ele><time>2026-04-03T16:12:10.502Z</time></trkpt><trkpt lat="44.9331265" lon="9.6940286"><ele>130.0</ele><time>2026-04-03T16:12:11.511Z</time></trkpt><trkpt lat="44.9330005" lon="9.6940688"><ele>130.0</ele><time>2026-04-03T16:12:12.505Z</time></trkpt><trkpt lat="44.9328733" lon="9.6941059"><ele>130.0</ele><time>2026-04-03T16:12:13.492Z</time></trkpt><trkpt lat="44.9327479" lon="9.6941426"><ele>130.0</ele><time>2026-04-03T16:12:14.492Z</time></trkpt><trkpt lat="44.9326231" lon="9.6941773"><ele>130.0</ele><time>2026-04-03T16:12:15.498Z</time></trkpt><trkpt lat="44.9324999" lon="9.6942105"><ele>130.5</ele><time>2026-04-03T16:12:16.493Z</time></trkpt><trkpt lat="44.9323797" lon="9.6942425"><ele>131.0</ele><time>2026-04-03T16:12:17.495Z</time></trkpt><trkpt lat="44.9322645" lon="9.6942741"><ele>131.5</ele><time>2026-04-03T16:12:18.504Z</time></trkpt><trkpt lat="44.9321524" lon="9.694302"><ele>132.0</ele><time>2026-04-03T16:12:19.509Z</time></trkpt><trkpt lat="44.9320488" lon="9.6943217"><ele>132.0</ele><time>2026-04-03T16:12:20.513Z</time></trkpt><trkpt lat="44.9319536" lon="9.6943336"><ele>132.0</ele><time>2026-04-03T16:12:21.512Z</time></trkpt><trkpt lat="44.931861" lon="9.6943316"><ele>132.0</ele><time>2026-04-03T16:12:22.504Z</time></trkpt><trkpt lat="44.9317635" lon="9.6943092"><ele>132.0</ele><time>2026-04-03T16:12:23.51Z</time></trkpt><trkpt lat="44.9316691" lon="9.6942714"><ele>132.0</ele><time>2026-04-03T16:12:24.495Z</time></trkpt><trkpt lat="44.931583" lon="9.6942304"><ele>131.83333333333334</ele><time>2026-04-03T16:12:25.506Z</time></trkpt><trkpt lat="44.9315045" lon="9.6942016"><ele>131.66666666666666</ele><time>2026-04-03T16:12:26.493Z</time></trkpt><trkpt lat="44.9314357" lon="9.6941983"><ele>131.5</ele><time>2026-04-03T16:12:27.503Z</time></trkpt><trkpt lat="44.931341" lon="9.6943002"><ele>131.33333333333331</ele><time>2026-04-03T16:12:29.499Z</time></trkpt><trkpt lat="44.9313264" lon="9.6943948"><ele>131.16666666666666</ele><time>2026-04-03T16:12:30.506Z</time></trkpt><trkpt lat="44.931318" lon="9.6944909"><ele>131.0</ele><time>2026-04-03T16:12:31.496Z</time></trkpt><trkpt lat="44.931301" lon="9.6945772"><ele>131.0</ele><time>2026-04-03T16:12:32.5Z</time></trkpt><trkpt lat="44.9312147" lon="9.6946548"><ele>131.0</ele><time>2026-04-03T16:12:34.502Z</time></trkpt><trkpt lat="44.9310965" lon="9.6946078"><ele>131.0</ele><time>2026-04-03T16:12:36.493Z</time></trkpt><trkpt lat="44.9310123" lon="9.6945544"><ele>131.0</ele><time>2026-04-03T16:12:37.494Z</time></trkpt><trkpt lat="44.9309223" lon="9.6944891"><ele>131.0</ele><time>2026-04-03T16:12:38.497Z</time></trkpt><trkpt lat="44.9308349" lon="9.6944277"><ele>131.2</ele><time>2026-04-03T16:12:39.5Z</time></trkpt><trkpt lat="44.9307438" lon="9.6943722"><ele>131.39999999999998</ele><time>2026-04-03T16:12:40.501Z</time></trkpt><trkpt lat="44.9306528" lon="9.6943184"><ele>131.6</ele><time>2026-04-03T16:12:41.494Z</time></trkpt><trkpt lat="44.9305669" lon="9.694264"><ele>131.79999999999998</ele><time>2026-04-03T16:12:42.498Z</time></trkpt><trkpt lat="44.9304841" lon="9.6942136"><ele>132.0</ele><time>2026-04-03T16:12:43.492Z</time></trkpt><trkpt lat="44.9304084" lon="9.6941682"><ele>132.0</ele><time>2026-04-03T16:12:44.511Z</time></trkpt><trkpt lat="44.9303406" lon="9.6941389"><ele>132.0</ele><time>2026-04-03T16:12:45.502Z</time></trkpt><trkpt lat="44.9302296" lon="9.6941633"><ele>132.0</ele><time>2026-04-03T16:12:47.494Z</time></trkpt><trkpt lat="44.9301538" lon="9.6943202"><ele>132.0</ele><time>2026-04-03T16:12:49.512Z</time></trkpt><trkpt lat="44.9301234" lon="9.6944433"><ele>132.0</ele><time>2026-04-03T16:12:50.502Z</time></trkpt><trkpt lat="44.9300843" lon="9.6945859"><ele>132.0</ele><time>2026-04-03T16:12:51.501Z</time></trkpt><trkpt lat="44.9300329" lon="9.6947403"><ele>132.0</ele><time>2026-04-03T16:12:52.512Z</time></trkpt><trkpt lat="44.9299755" lon="9.6948981"><ele>132.0</ele><time>2026-04-03T16:12:53.5Z</time></trkpt><trkpt lat="44.9299205" lon="9.695053"><ele>132.0</ele><time>2026-04-03T16:12:54.495Z</time></trkpt><trkpt lat="44.9298704" lon="9.6951967"><ele>131.79999999999998</ele><time>2026-04-03T16:12:55.507Z</time></trkpt><trkpt lat="44.9298214" lon="9.6953302"><ele>131.6</ele><time>2026-04-03T16:12:56.502Z</time></trkpt><trkpt lat="44.9297762" lon="9.6954611"><ele>131.39999999999998</ele><time>2026-04-03T16:12:57.507Z</time></trkpt><trkpt lat="44.9297334" lon="9.6955914"><ele>131.2</ele><time>2026-04-03T16:12:58.498Z</time></trkpt><trkpt lat="44.9296925" lon="9.6957208"><ele>131.0</ele><time>2026-04-03T16:12:59.508Z</time></trkpt><trkpt lat="44.9296544" lon="9.6958422"><ele>131.0</ele><time>2026-04-03T16:13:00.514Z</time></trkpt><trkpt lat="44.929618" lon="9.6959512"><ele>131.0</ele><time>2026-04-03T16:13:01.507Z</time></trkpt><trkpt lat="44.9295861" lon="9.696033"><ele>131.0</ele><time>2026-04-03T16:13:02.508Z</time></trkpt><trkpt lat="44.9295016" lon="9.696086"><ele>131.0</ele><time>2026-04-03T16:13:04.5Z</time></trkpt><trkpt lat="44.929378" lon="9.6960273"><ele>131.0</ele><time>2026-04-03T16:13:06.501Z</time></trkpt><trkpt lat="44.9292983" lon="9.6959818"><ele>131.4</ele><time>2026-04-03T16:13:07.501Z</time></trkpt><trkpt lat="44.9292093" lon="9.6959388"><ele>131.8</ele><time>2026-04-03T16:13:08.508Z</time></trkpt><trkpt lat="44.9291219" lon="9.6958912"><ele>132.20000000000002</ele><time>2026-04-03T16:13:09.505Z</time></trkpt><trkpt lat="44.9290339" lon="9.6958445"><ele>132.6</ele><time>2026-04-03T16:13:10.499Z</time></trkpt><trkpt lat="44.9289457" lon="9.6958026"><ele>133.0</ele><time>2026-04-03T16:13:11.503Z</time></trkpt><trkpt lat="44.928863" lon="9.6957656"><ele>133.0</ele><time>2026-04-03T16:13:12.511Z</time></trkpt><trkpt lat="44.9287868" lon="9.6957329"><ele>133.0</ele><time>2026-04-03T16:13:13.499Z</time></trkpt><trkpt lat="44.9287198" lon="9.6957028"><ele>133.0</ele><time>2026-04-03T16:13:14.508Z</time></trkpt><trkpt lat="44.9286115" lon="9.6956507"><ele>133.0</ele><time>2026-04-03T16:13:16.511Z</time></trkpt><trkpt lat="44.9285223" lon="9.6956025"><ele>133.0</ele><time>2026-04-03T16:13:18.502Z</time></trkpt><trkpt lat="44.9284618" lon="9.6955654"><ele>133.0</ele><time>2026-04-03T16:13:30.496Z</time></trkpt><trkpt lat="44.9284043" lon="9.6956999"><ele>133.4</ele><time>2026-04-03T16:13:33.506Z</time></trkpt><trkpt lat="44.9283604" lon="9.6958803"><ele>133.8</ele><time>2026-04-03T16:13:35.502Z</time></trkpt><trkpt lat="44.9283283" lon="9.6959921"><ele>134.2</ele><time>2026-04-03T16:13:36.501Z</time></trkpt><trkpt lat="44.9282918" lon="9.6961193"><ele>134.6</ele><time>2026-04-03T16:13:37.504Z</time></trkpt><trkpt lat="44.9282605" lon="9.6962527"><ele>135.0</ele><time>2026-04-03T16:13:38.5Z</time></trkpt><trkpt lat="44.9282276" lon="9.6963787"><ele>135.0</ele><time>2026-04-03T16:13:39.499Z</time></trkpt><trkpt lat="44.9281986" lon="9.6964962"><ele>135.0</ele><time>2026-04-03T16:13:40.506Z</time></trkpt><trkpt lat="44.9281716" lon="9.6966081"><ele>135.0</ele><time>2026-04-03T16:13:41.49Z</time></trkpt><trkpt lat="44.9281444" lon="9.6967189"><ele>135.0</ele><time>2026-04-03T16:13:42.512Z</time></trkpt><trkpt lat="44.9281186" lon="9.6968337"><ele>135.0</ele><time>2026-04-03T16:13:43.508Z</time></trkpt><trkpt lat="44.9280933" lon="9.6969512"><ele>135.0</ele><time>2026-04-03T16:13:44.498Z</time></trkpt><trkpt lat="44.9280687" lon="9.6970727"><ele>134.2</ele><time>2026-04-03T16:13:45.505Z</time></trkpt><trkpt lat="44.9280423" lon="9.6971983"><ele>133.4</ele><time>2026-04-03T16:13:46.51Z</time></trkpt><trkpt lat="44.9280239" lon="9.6973268"><ele>132.6</ele><time>2026-04-03T16:13:47.504Z</time></trkpt><trkpt lat="44.928015" lon="9.6974624"><ele>131.8</ele><time>2026-04-03T16:13:48.502Z</time></trkpt><trkpt lat="44.9280111" lon="9.6976002"><ele>131.0</ele><time>2026-04-03T16:13:49.509Z</time></trkpt><trkpt lat="44.9280151" lon="9.6977383"><ele>131.2</ele><time>2026-04-03T16:13:50.499Z</time></trkpt><trkpt lat="44.9280286" lon="9.6978732"><ele>131.39999999999998</ele><time>2026-04-03T16:13:51.503Z</time></trkpt><trkpt lat="44.9280458" lon="9.6980082"><ele>131.6</ele><time>2026-04-03T16:13:52.497Z</time></trkpt><trkpt lat="44.9280644" lon="9.6981445"><ele>131.79999999999998</ele><time>2026-04-03T16:13:53.506Z</time></trkpt><trkpt lat="44.9280847" lon="9.6982837"><ele>132.0</ele><time>2026-04-03T16:13:54.503Z</time></trkpt><trkpt lat="44.9281073" lon="9.698427"><ele>132.0</ele><time>2026-04-03T16:13:55.497Z</time></trkpt><trkpt lat="44.9281322" lon="9.6985714"><ele>132.0</ele><time>2026-04-03T16:13:56.494Z</time></trkpt><trkpt lat="44.9281584" lon="9.6987163"><ele>132.0</ele><time>2026-04-03T16:13:57.499Z</time></trkpt><trkpt lat="44.9281858" lon="9.6988618"><ele>132.0</ele><time>2026-04-03T16:13:58.509Z</time></trkpt><trkpt lat="44.9282108" lon="9.6990096"><ele>132.0</ele><time>2026-04-03T16:13:59.509Z</time></trkpt><trkpt lat="44.9282351" lon="9.6991552"><ele>132.0</ele><time>2026-04-03T16:14:00.502Z</time></trkpt><trkpt lat="44.9282609" lon="9.699297"><ele>132.0</ele><time>2026-04-03T16:14:01.508Z</time></trkpt><trkpt lat="44.9282862" lon="9.6994386"><ele>132.0</ele><time>2026-04-03T16:14:02.503Z</time></trkpt><trkpt lat="44.928312" lon="9.6995779"><ele>132.0</ele><time>2026-04-03T16:14:03.489Z</time></trkpt><trkpt lat="44.9283379" lon="9.6997124"><ele>132.0</ele><time>2026-04-03T16:14:04.512Z</time></trkpt><trkpt lat="44.9283597" lon="9.6998393"><ele>131.83333333333334</ele><time>2026-04-03T16:14:05.501Z</time></trkpt><trkpt lat="44.9283755" lon="9.6999588"><ele>131.66666666666666</ele><time>2026-04-03T16:14:06.5Z</time></trkpt><trkpt lat="44.9283768" lon="9.7000755"><ele>131.5</ele><time>2026-04-03T16:14:07.501Z</time></trkpt><trkpt lat="44.9283593" lon="9.7001854"><ele>131.33333333333331</ele><time>2026-04-03T16:14:08.504Z</time></trkpt><trkpt lat="44.9283223" lon="9.7002827"><ele>131.16666666666666</ele><time>2026-04-03T16:14:09.498Z</time></trkpt><trkpt lat="44.9282665" lon="9.7003677"><ele>131.0</ele><time>2026-04-03T16:14:10.503Z</time></trkpt><trkpt lat="44.9281907" lon="9.7004592"><ele>130.8</ele><time>2026-04-03T16:14:11.499Z</time></trkpt><trkpt lat="44.9281071" lon="9.7005665"><ele>130.6</ele><time>2026-04-03T16:14:12.489Z</time></trkpt><trkpt lat="44.9280261" lon="9.7006726"><ele>130.4</ele><time>2026-04-03T16:14:13.51Z</time></trkpt><trkpt lat="44.9279507" lon="9.7007743"><ele>130.2</ele><time>2026-04-03T16:14:14.488Z</time></trkpt><trkpt lat="44.9278811" lon="9.7008728"><ele>130.0</ele><time>2026-04-03T16:14:15.51Z</time></trkpt><trkpt lat="44.9278195" lon="9.7009645"><ele>130.00000000000003</ele><time>2026-04-03T16:14:16.505Z</time></trkpt><trkpt lat="44.9277657" lon="9.7010484"><ele>130.0</ele><time>2026-04-03T16:14:17.491Z</time></trkpt><trkpt lat="44.9277146" lon="9.7011234"><ele>130.0</ele><time>2026-04-03T16:14:18.51Z</time></trkpt><trkpt lat="44.9276619" lon="9.7011851"><ele>130.0</ele><time>2026-04-03T16:14:19.5Z</time></trkpt><trkpt lat="44.9276066" lon="9.7012316"><ele>130.0</ele><time>2026-04-03T16:14:20.5Z</time></trkpt><trkpt lat="44.9275478" lon="9.7012651"><ele>130.00000000000003</ele><time>2026-04-03T16:14:21.494Z</time></trkpt><trkpt lat="44.9274855" lon="9.70129"><ele>130.0</ele><time>2026-04-03T16:14:22.503Z</time></trkpt><trkpt lat="44.9273691" lon="9.7013387"><ele>130.0</ele><time>2026-04-03T16:14:24.494Z</time></trkpt><trkpt lat="44.9272742" lon="9.7013536"><ele>130.0</ele><time>2026-04-03T16:14:26.505Z</time></trkpt><trkpt lat="44.9271859" lon="9.7013228"><ele>130.0</ele><time>2026-04-03T16:14:28.5Z</time></trkpt><trkpt lat="44.9270913" lon="9.7012356"><ele>130.0</ele><time>2026-04-03T16:14:30.493Z</time></trkpt><trkpt lat="44.9270415" lon="9.70116"><ele>130.0</ele><time>2026-04-03T16:14:31.501Z</time></trkpt><trkpt lat="44.9270002" lon="9.7010675"><ele>130.16666666666669</ele><time>2026-04-03T16:14:32.488Z</time></trkpt><trkpt lat="44.9269672" lon="9.7009616"><ele>130.33333333333334</ele><time>2026-04-03T16:14:33.513Z</time></trkpt><trkpt lat="44.9269397" lon="9.7008452"><ele>130.5</ele><time>2026-04-03T16:14:34.498Z</time></trkpt><trkpt lat="44.926913" lon="9.7007206"><ele>130.66666666666666</ele><time>2026-04-03T16:14:35.5Z</time></trkpt><trkpt lat="44.9268855" lon="9.7006001"><ele>130.83333333333331</ele><time>2026-04-03T16:14:36.496Z</time></trkpt><trkpt lat="44.9268535" lon="9.7004862"><ele>131.0</ele><time>2026-04-03T16:14:37.509Z</time></trkpt><trkpt lat="44.9268127" lon="9.7003796"><ele>131.0</ele><time>2026-04-03T16:14:38.512Z</time></trkpt><trkpt lat="44.9267645" lon="9.7002818"><ele>131.0</ele><time>2026-04-03T16:14:39.497Z</time></trkpt><trkpt lat="44.9267086" lon="9.700197"><ele>131.0</ele><time>2026-04-03T16:14:40.496Z</time></trkpt><trkpt lat="44.9266457" lon="9.7001197"><ele>131.0</ele><time>2026-04-03T16:14:41.506Z</time></trkpt><trkpt lat="44.9265816" lon="9.700052"><ele>131.0</ele><time>2026-04-03T16:14:42.503Z</time></trkpt><trkpt lat="44.9265156" lon="9.6999893"><ele>131.0</ele><time>2026-04-03T16:14:43.518Z</time></trkpt><trkpt lat="44.9264507" lon="9.6999286"><ele>131.14285714285714</ele><time>2026-04-03T16:14:44.49Z</time></trkpt><trkpt lat="44.9263888" lon="9.6998672"><ele>131.2857142857143</ele><time>2026-04-03T16:14:45.496Z</time></trkpt><trkpt lat="44.9263303" lon="9.6998032"><ele>131.42857142857144</ele><time>2026-04-03T16:14:46.505Z</time></trkpt><trkpt lat="44.9262717" lon="9.6997373"><ele>131.57142857142858</ele><time>2026-04-03T16:14:47.508Z</time></trkpt><trkpt lat="44.9262132" lon="9.6996705"><ele>131.71428571428572</ele><time>2026-04-03T16:14:48.506Z</time></trkpt><trkpt lat="44.9261609" lon="9.6995998"><ele>131.85714285714286</ele><time>2026-04-03T16:14:49.496Z</time></trkpt><trkpt lat="44.9261091" lon="9.699527"><ele>132.0</ele><time>2026-04-03T16:14:50.487Z</time></trkpt><trkpt lat="44.9260588" lon="9.6994501"><ele>132.0</ele><time>2026-04-03T16:14:51.489Z</time></trkpt><trkpt lat="44.9260119" lon="9.6993691"><ele>132.0</ele><time>2026-04-03T16:14:52.492Z</time></trkpt><trkpt lat="44.9259667" lon="9.6992827"><ele>132.0</ele><time>2026-04-03T16:14:53.5Z</time></trkpt><trkpt lat="44.9259234" lon="9.6991933"><ele>132.0</ele><time>2026-04-03T16:14:54.488Z</time></trkpt><trkpt lat="44.9258819" lon="9.699106"><ele>132.0</ele><time>2026-04-03T16:14:55.494Z</time></trkpt><trkpt lat="44.9258401" lon="9.6990179"><ele>132.0</ele><time>2026-04-03T16:14:56.499Z</time></trkpt><trkpt lat="44.9257972" lon="9.6989285"><ele>132.14285714285714</ele><time>2026-04-03T16:14:57.505Z</time></trkpt><trkpt lat="44.9257532" lon="9.6988405"><ele>132.28571428571428</ele><time>2026-04-03T16:14:58.498Z</time></trkpt><trkpt lat="44.9257093" lon="9.6987559"><ele>132.42857142857144</ele><time>2026-04-03T16:14:59.502Z</time></trkpt><trkpt lat="44.9256682" lon="9.6986702"><ele>132.57142857142856</ele><time>2026-04-03T16:15:00.51Z</time></trkpt><trkpt lat="44.9256276" lon="9.6985851"><ele>132.71428571428572</ele><time>2026-04-03T16:15:01.49Z</time></trkpt><trkpt lat="44.925589" lon="9.698502"><ele>132.85714285714286</ele><time>2026-04-03T16:15:02.508Z</time></trkpt><trkpt lat="44.925553" lon="9.6984211"><ele>133.0</ele><time>2026-04-03T16:15:03.506Z</time></trkpt><trkpt lat="44.9255169" lon="9.6983435"><ele>133.14285714285714</ele><time>2026-04-03T16:15:04.489Z</time></trkpt><trkpt lat="44.9254804" lon="9.6982653"><ele>133.28571428571428</ele><time>2026-04-03T16:15:05.494Z</time></trkpt><trkpt lat="44.9254375" lon="9.6981853"><ele>133.42857142857144</ele><time>2026-04-03T16:15:06.498Z</time></trkpt><trkpt lat="44.9253873" lon="9.6981102"><ele>133.57142857142856</ele><time>2026-04-03T16:15:07.5Z</time></trkpt><trkpt lat="44.9253303" lon="9.6980444"><ele>133.71428571428572</ele><time>2026-04-03T16:15:08.496Z</time></trkpt><trkpt lat="44.9252661" lon="9.6979881"><ele>133.85714285714286</ele><time>2026-04-03T16:15:09.497Z</time></trkpt><trkpt lat="44.9252026" lon="9.6979349"><ele>134.0</ele><time>2026-04-03T16:15:10.502Z</time></trkpt><trkpt lat="44.9251386" lon="9.6978835"><ele>134.0</ele><time>2026-04-03T16:15:11.496Z</time></trkpt><trkpt lat="44.9250768" lon="9.6978368"><ele>134.0</ele><time>2026-04-03T16:15:12.493Z</time></trkpt><trkpt lat="44.9250175" lon="9.6977879"><ele>134.0</ele><time>2026-04-03T16:15:13.492Z</time></trkpt><trkpt lat="44.924963" lon="9.6977314"><ele>134.0</ele><time>2026-04-03T16:15:14.5Z</time></trkpt><trkpt lat="44.9249088" lon="9.6976735"><ele>134.0</ele><time>2026-04-03T16:15:15.498Z</time></trkpt><trkpt lat="44.9248529" lon="9.697613"><ele>134.0</ele><time>2026-04-03T16:15:16.507Z</time></trkpt><trkpt lat="44.9247975" lon="9.6975495"><ele>134.0</ele><time>2026-04-03T16:15:17.489Z</time></trkpt><trkpt lat="44.9247415" lon="9.6974881"><ele>134.28571428571428</ele><time>2026-04-03T16:15:18.494Z</time></trkpt><trkpt lat="44.9246809" lon="9.6974339"><ele>134.57142857142856</ele><time>2026-04-03T16:15:19.487Z</time></trkpt><trkpt lat="44.9246157" lon="9.6973862"><ele>134.85714285714283</ele><time>2026-04-03T16:15:20.489Z</time></trkpt><trkpt lat="44.9245483" lon="9.6973446"><ele>135.14285714285714</ele><time>2026-04-03T16:15:21.5Z</time></trkpt><trkpt lat="44.9244813" lon="9.6973038"><ele>135.42857142857142</ele><time>2026-04-03T16:15:22.496Z</time></trkpt><trkpt lat="44.9244148" lon="9.697263"><ele>135.7142857142857</ele><time>2026-04-03T16:15:23.512Z</time></trkpt><trkpt lat="44.9243493" lon="9.6972272"><ele>136.0</ele><time>2026-04-03T16:15:24.493Z</time></trkpt><trkpt lat="44.9242864" lon="9.6971962"><ele>135.8</ele><time>2026-04-03T16:15:25.5Z</time></trkpt><trkpt lat="44.9242236" lon="9.6971669"><ele>135.6</ele><time>2026-04-03T16:15:26.493Z</time></trkpt><trkpt lat="44.9241618" lon="9.6971413"><ele>135.4</ele><time>2026-04-03T16:15:27.489Z</time></trkpt><trkpt lat="44.9240435" lon="9.697093"><ele>135.2</ele><time>2026-04-03T16:15:29.501Z</time></trkpt><trkpt lat="44.9239343" lon="9.6970225"><ele>135.0</ele><time>2026-04-03T16:15:31.507Z</time></trkpt><trkpt lat="44.9238273" lon="9.6969258"><ele>135.0</ele><time>2026-04-03T16:15:33.498Z</time></trkpt><trkpt lat="44.9237744" lon="9.6968669"><ele>135.0</ele><time>2026-04-03T16:15:34.5Z</time></trkpt><trkpt lat="44.923726" lon="9.6968021"><ele>135.0</ele><time>2026-04-03T16:15:35.492Z</time></trkpt><trkpt lat="44.9236835" lon="9.696734"><ele>135.0</ele><time>2026-04-03T16:15:36.489Z</time></trkpt><trkpt lat="44.9236062" lon="9.6965933"><ele>135.0</ele><time>2026-04-03T16:15:38.502Z</time></trkpt><trkpt lat="44.923568" lon="9.6965203"><ele>135.0</ele><time>2026-04-03T16:15:39.502Z</time></trkpt><trkpt lat="44.92353" lon="9.696444"><ele>135.0</ele><time>2026-04-03T16:15:40.513Z</time></trkpt><trkpt lat="44.9234921" lon="9.6963651"><ele>135.0</ele><time>2026-04-03T16:15:41.507Z</time></trkpt><trkpt lat="44.9234526" lon="9.6962833"><ele>135.0</ele><time>2026-04-03T16:15:42.484Z</time></trkpt><trkpt lat="44.9234111" lon="9.6962"><ele>135.0</ele><time>2026-04-03T16:15:43.509Z</time></trkpt><trkpt lat="44.9233686" lon="9.6961187"><ele>135.0</ele><time>2026-04-03T16:15:44.5Z</time></trkpt><trkpt lat="44.923325" lon="9.6960369"><ele>135.0</ele><time>2026-04-03T16:15:45.489Z</time></trkpt><trkpt lat="44.92328" lon="9.6959541"><ele>135.0</ele><time>2026-04-03T16:15:46.497Z</time></trkpt><trkpt lat="44.9232339" lon="9.6958744"><ele>135.28571428571428</ele><time>2026-04-03T16:15:47.497Z</time></trkpt><trkpt lat="44.9231849" lon="9.6957992"><ele>135.57142857142856</ele><time>2026-04-03T16:15:48.498Z</time></trkpt><trkpt lat="44.9231334" lon="9.6957271"><ele>135.85714285714286</ele><time>2026-04-03T16:15:49.485Z</time></trkpt><trkpt lat="44.9230801" lon="9.6956559"><ele>136.14285714285714</ele><time>2026-04-03T16:15:50.494Z</time></trkpt><trkpt lat="44.9230289" lon="9.6955842"><ele>136.42857142857144</ele><time>2026-04-03T16:15:51.497Z</time></trkpt><trkpt lat="44.9229806" lon="9.6955085"><ele>136.71428571428572</ele><time>2026-04-03T16:15:52.494Z</time></trkpt><trkpt lat="44.9229358" lon="9.695429"><ele>137.0</ele><time>2026-04-03T16:15:53.511Z</time></trkpt><trkpt lat="44.9228918" lon="9.6953508"><ele>137.00000000000003</ele><time>2026-04-03T16:15:54.49Z</time></trkpt><trkpt lat="44.9228481" lon="9.6952719"><ele>137.0</ele><time>2026-04-03T16:15:55.495Z</time></trkpt><trkpt lat="44.9228031" lon="9.6951878"><ele>137.0</ele><time>2026-04-03T16:15:56.49Z</time></trkpt><trkpt lat="44.9227583" lon="9.6951085"><ele>137.0</ele><time>2026-04-03T16:15:57.5Z</time></trkpt><trkpt lat="44.9227136" lon="9.6950322"><ele>137.0</ele><time>2026-04-03T16:15:58.505Z</time></trkpt><trkpt lat="44.9226671" lon="9.694958"><ele>137.00000000000003</ele><time>2026-04-03T16:15:59.5Z</time></trkpt><trkpt lat="44.9226205" lon="9.6948837"><ele>137.0</ele><time>2026-04-03T16:16:00.498Z</time></trkpt><trkpt lat="44.9225731" lon="9.6948082"><ele>137.00000000000003</ele><time>2026-04-03T16:16:01.497Z</time></trkpt><trkpt lat="44.9225236" lon="9.6947317"><ele>137.0</ele><time>2026-04-03T16:16:02.49Z</time></trkpt><trkpt lat="44.9224727" lon="9.6946575"><ele>137.0</ele><time>2026-04-03T16:16:03.496Z</time></trkpt><trkpt lat="44.9224189" lon="9.6945849"><ele>137.0</ele><time>2026-04-03T16:16:04.495Z</time></trkpt><trkpt lat="44.9223632" lon="9.6945124"><ele>137.0</ele><time>2026-04-03T16:16:05.505Z</time></trkpt><trkpt lat="44.9223069" lon="9.6944446"><ele>137.00000000000003</ele><time>2026-04-03T16:16:06.502Z</time></trkpt><trkpt lat="44.9222482" lon="9.6943835"><ele>137.0</ele><time>2026-04-03T16:16:07.489Z</time></trkpt><trkpt lat="44.9221835" lon="9.6943285"><ele>137.0</ele><time>2026-04-03T16:16:08.498Z</time></trkpt><trkpt lat="44.9221148" lon="9.6942815"><ele>137.0</ele><time>2026-04-03T16:16:09.495Z</time></trkpt><trkpt lat="44.9220441" lon="9.6942387"><ele>137.0</ele><time>2026-04-03T16:16:10.491Z</time></trkpt><trkpt lat="44.921973" lon="9.6941971"><ele>137.0</ele><time>2026-04-03T16:16:11.512Z</time></trkpt><trkpt lat="44.9219013" lon="9.6941577"><ele>137.0</ele><time>2026-04-03T16:16:12.507Z</time></trkpt><trkpt lat="44.9218302" lon="9.694119"><ele>137.0</ele><time>2026-04-03T16:16:13.502Z</time></trkpt><trkpt lat="44.9217599" lon="9.6940805"><ele>137.16666666666666</ele><time>2026-04-03T16:16:14.502Z</time></trkpt><trkpt lat="44.9216904" lon="9.6940474"><ele>137.33333333333331</ele><time>2026-04-03T16:16:15.497Z</time></trkpt><trkpt lat="44.9216183" lon="9.6940195"><ele>137.5</ele><time>2026-04-03T16:16:16.502Z</time></trkpt><trkpt lat="44.921545" lon="9.6940023"><ele>137.66666666666666</ele><time>2026-04-03T16:16:17.499Z</time></trkpt><trkpt lat="44.9214694" lon="9.6939938"><ele>137.83333333333334</ele><time>2026-04-03T16:16:18.504Z</time></trkpt><trkpt lat="44.9213935" lon="9.6939846"><ele>138.0</ele><time>2026-04-03T16:16:19.501Z</time></trkpt><trkpt lat="44.921319" lon="9.6939689"><ele>138.0</ele><time>2026-04-03T16:16:20.506Z</time></trkpt><trkpt lat="44.921247" lon="9.6939463"><ele>138.0</ele><time>2026-04-03T16:16:21.499Z</time></trkpt><trkpt lat="44.9211761" lon="9.6939182"><ele>138.0</ele><time>2026-04-03T16:16:22.497Z</time></trkpt><trkpt lat="44.9211096" lon="9.6938804"><ele>138.0</ele><time>2026-04-03T16:16:23.507Z</time></trkpt><trkpt lat="44.9210449" lon="9.6938309"><ele>138.0</ele><time>2026-04-03T16:16:24.498Z</time></trkpt><trkpt lat="44.9209835" lon="9.693769"><ele>138.0</ele><time>2026-04-03T16:16:25.503Z</time></trkpt><trkpt lat="44.9209234" lon="9.6937055"><ele>138.0</ele><time>2026-04-03T16:16:26.495Z</time></trkpt><trkpt lat="44.9208619" lon="9.6936396"><ele>138.42857142857144</ele><time>2026-04-03T16:16:27.506Z</time></trkpt><trkpt lat="44.9208014" lon="9.6935715"><ele>138.85714285714286</ele><time>2026-04-03T16:16:28.497Z</time></trkpt><trkpt lat="44.9207409" lon="9.6935033"><ele>139.28571428571428</ele><time>2026-04-03T16:16:29.505Z</time></trkpt><trkpt lat="44.9206789" lon="9.6934396"><ele>139.71428571428572</ele><time>2026-04-03T16:16:30.504Z</time></trkpt><trkpt lat="44.9206171" lon="9.6933835"><ele>140.14285714285714</ele><time>2026-04-03T16:16:31.505Z</time></trkpt><trkpt lat="44.9205569" lon="9.6933321"><ele>140.57142857142858</ele><time>2026-04-03T16:16:32.51Z</time></trkpt><trkpt lat="44.920497" lon="9.6932809"><ele>141.0</ele><time>2026-04-03T16:16:33.493Z</time></trkpt><trkpt lat="44.92044" lon="9.693228"><ele>141.0</ele><time>2026-04-03T16:16:34.51Z</time></trkpt><trkpt lat="44.9203822" lon="9.6931736"><ele>141.0</ele><time>2026-04-03T16:16:35.501Z</time></trkpt><trkpt lat="44.9203247" lon="9.693118"><ele>141.0</ele><time>2026-04-03T16:16:36.502Z</time></trkpt><trkpt lat="44.9202692" lon="9.6930591"><ele>141.0</ele><time>2026-04-03T16:16:37.503Z</time></trkpt><trkpt lat="44.9202154" lon="9.692998"><ele>141.0</ele><time>2026-04-03T16:16:38.5Z</time></trkpt><trkpt lat="44.9201618" lon="9.6929356"><ele>141.0</ele><time>2026-04-03T16:16:39.505Z</time></trkpt><trkpt lat="44.9201083" lon="9.692873"><ele>141.0</ele><time>2026-04-03T16:16:40.497Z</time></trkpt><trkpt lat="44.9200539" lon="9.6928111"><ele>141.14285714285714</ele><time>2026-04-03T16:16:41.495Z</time></trkpt><trkpt lat="44.92" lon="9.69275"><ele>141.28571428571428</ele><time>2026-04-03T16:16:42.502Z</time></trkpt><trkpt lat="44.9199466" lon="9.6926858"><ele>141.42857142857142</ele><time>2026-04-03T16:16:43.512Z</time></trkpt><trkpt lat="44.9198903" lon="9.6926206"><ele>141.57142857142856</ele><time>2026-04-03T16:16:44.502Z</time></trkpt><trkpt lat="44.9198339" lon="9.692558"><ele>141.7142857142857</ele><time>2026-04-03T16:16:45.5Z</time></trkpt><trkpt lat="44.9197761" lon="9.692498"><ele>141.85714285714286</ele><time>2026-04-03T16:16:46.498Z</time></trkpt><trkpt lat="44.9197131" lon="9.6924432"><ele>142.0</ele><time>2026-04-03T16:16:47.506Z</time></trkpt><trkpt lat="44.9196467" lon="9.6923952"><ele>142.0</ele><time>2026-04-03T16:16:48.498Z</time></trkpt><trkpt lat="44.919578" lon="9.6923534"><ele>142.0</ele><time>2026-04-03T16:16:49.5Z</time></trkpt><trkpt lat="44.9195078" lon="9.6923163"><ele>142.0</ele><time>2026-04-03T16:16:50.497Z</time></trkpt><trkpt lat="44.9194371" lon="9.6922878"><ele>142.0</ele><time>2026-04-03T16:16:51.501Z</time></trkpt><trkpt lat="44.9193663" lon="9.6922649"><ele>142.0</ele><time>2026-04-03T16:16:52.502Z</time></trkpt><trkpt lat="44.9192939" lon="9.6922461"><ele>142.0</ele><time>2026-04-03T16:16:53.499Z</time></trkpt><trkpt lat="44.9192218" lon="9.6922255"><ele>142.0</ele><time>2026-04-03T16:16:54.509Z</time></trkpt><trkpt lat="44.9191507" lon="9.6922016"><ele>142.0</ele><time>2026-04-03T16:16:55.5Z</time></trkpt><trkpt lat="44.9190808" lon="9.692173"><ele>142.0</ele><time>2026-04-03T16:16:56.51Z</time></trkpt><trkpt lat="44.9190121" lon="9.692142"><ele>142.0</ele><time>2026-04-03T16:16:57.494Z</time></trkpt><trkpt lat="44.9189444" lon="9.6921095"><ele>142.0</ele><time>2026-04-03T16:16:58.509Z</time></trkpt><trkpt lat="44.9188783" lon="9.6920776"><ele>142.0</ele><time>2026-04-03T16:16:59.497Z</time></trkpt><trkpt lat="44.9188118" lon="9.6920463"><ele>142.0</ele><time>2026-04-03T16:17:00.489Z</time></trkpt><trkpt lat="44.9187433" lon="9.6920145"><ele>142.0</ele><time>2026-04-03T16:17:01.502Z</time></trkpt><trkpt lat="44.9186728" lon="9.6919812"><ele>142.0</ele><time>2026-04-03T16:17:02.489Z</time></trkpt><trkpt lat="44.9186009" lon="9.6919452"><ele>142.0</ele><time>2026-04-03T16:17:03.505Z</time></trkpt><trkpt lat="44.9185289" lon="9.691907"><ele>142.0</ele><time>2026-04-03T16:17:04.498Z</time></trkpt><trkpt lat="44.9184573" lon="9.6918661"><ele>142.0</ele><time>2026-04-03T16:17:05.503Z</time></trkpt><trkpt lat="44.9183861" lon="9.6918201"><ele>142.0</ele><time>2026-04-03T16:17:06.507Z</time></trkpt><trkpt lat="44.9183159" lon="9.6917745"><ele>142.0</ele><time>2026-04-03T16:17:07.49Z</time></trkpt><trkpt lat="44.9182454" lon="9.6917292"><ele>142.16666666666669</ele><time>2026-04-03T16:17:08.502Z</time></trkpt><trkpt lat="44.9181754" lon="9.6916826"><ele>142.33333333333334</ele><time>2026-04-03T16:17:09.502Z</time></trkpt><trkpt lat="44.9181061" lon="9.6916379"><ele>142.5</ele><time>2026-04-03T16:17:10.495Z</time></trkpt><trkpt lat="44.9180368" lon="9.6915926"><ele>142.66666666666666</ele><time>2026-04-03T16:17:11.509Z</time></trkpt><trkpt lat="44.9179681" lon="9.691545"><ele>142.83333333333331</ele><time>2026-04-03T16:17:12.487Z</time></trkpt><trkpt lat="44.9179001" lon="9.6914941"><ele>143.0</ele><time>2026-04-03T16:17:13.491Z</time></trkpt><trkpt lat="44.9178324" lon="9.6914443"><ele>143.0</ele><time>2026-04-03T16:17:14.497Z</time></trkpt><trkpt lat="44.9177662" lon="9.6913936"><ele>143.0</ele><time>2026-04-03T16:17:15.499Z</time></trkpt><trkpt lat="44.9177004" lon="9.6913402"><ele>143.0</ele><time>2026-04-03T16:17:16.496Z</time></trkpt><trkpt lat="44.9176351" lon="9.6912856"><ele>143.0</ele><time>2026-04-03T16:17:17.5Z</time></trkpt><trkpt lat="44.9175707" lon="9.6912291"><ele>143.0</ele><time>2026-04-03T16:17:18.494Z</time></trkpt><trkpt lat="44.9175052" lon="9.691174"><ele>143.0</ele><time>2026-04-03T16:17:19.507Z</time></trkpt><trkpt lat="44.9174375" lon="9.6911236"><ele>143.0</ele><time>2026-04-03T16:17:20.494Z</time></trkpt><trkpt lat="44.9173705" lon="9.6910736"><ele>143.0</ele><time>2026-04-03T16:17:21.493Z</time></trkpt><trkpt lat="44.917306" lon="9.691022"><ele>143.0</ele><time>2026-04-03T16:17:22.49Z</time></trkpt><trkpt lat="44.9172406" lon="9.6909702"><ele>143.0</ele><time>2026-04-03T16:17:23.5Z</time></trkpt><trkpt lat="44.9171763" lon="9.6909151"><ele>143.0</ele><time>2026-04-03T16:17:24.499Z</time></trkpt><trkpt lat="44.9171145" lon="9.6908566"><ele>143.0</ele><time>2026-04-03T16:17:25.497Z</time></trkpt><trkpt lat="44.9170536" lon="9.6907939"><ele>143.0</ele><time>2026-04-03T16:17:26.489Z</time></trkpt><trkpt lat="44.9169963" lon="9.6907222"><ele>143.0</ele><time>2026-04-03T16:17:27.486Z</time></trkpt><trkpt lat="44.9169448" lon="9.690645"><ele>143.0</ele><time>2026-04-03T16:17:28.493Z</time></trkpt><trkpt lat="44.9168944" lon="9.6905719"><ele>143.0</ele><time>2026-04-03T16:17:29.496Z</time></trkpt><trkpt lat="44.916843" lon="9.6905046"><ele>143.0</ele><time>2026-04-03T16:17:30.498Z</time></trkpt><trkpt lat="44.9167939" lon="9.6904428"><ele>143.0</ele><time>2026-04-03T16:17:31.494Z</time></trkpt><trkpt lat="44.9166994" lon="9.6903379"><ele>143.33333333333331</ele><time>2026-04-03T16:17:33.505Z</time></trkpt><trkpt lat="44.9166286" lon="9.6902651"><ele>143.66666666666666</ele><time>2026-04-03T16:17:35.499Z</time></trkpt><trkpt lat="44.9165686" lon="9.690214"><ele>144.0</ele><time>2026-04-03T16:17:37.496Z</time></trkpt><trkpt lat="44.9165044" lon="9.6901402"><ele>144.33333333333334</ele><time>2026-04-03T16:17:40.507Z</time></trkpt><trkpt lat="44.9164712" lon="9.6900338"><ele>144.66666666666669</ele><time>2026-04-03T16:17:43.507Z</time></trkpt><trkpt lat="44.9164675" lon="9.6899089"><ele>145.0</ele><time>2026-04-03T16:17:45.498Z</time></trkpt><trkpt lat="44.9164881" lon="9.6897411"><ele>145.0</ele><time>2026-04-03T16:17:47.493Z</time></trkpt><trkpt lat="44.9164997" lon="9.6896426"><ele>145.0</ele><time>2026-04-03T16:17:48.511Z</time></trkpt><trkpt lat="44.916515" lon="9.6895221"><ele>145.0</ele><time>2026-04-03T16:17:49.5Z</time></trkpt><trkpt lat="44.916534" lon="9.6893909"><ele>145.0</ele><time>2026-04-03T16:17:50.506Z</time></trkpt><trkpt lat="44.9165573" lon="9.6892534"><ele>145.0</ele><time>2026-04-03T16:17:51.504Z</time></trkpt><trkpt lat="44.9165864" lon="9.6891146"><ele>145.25</ele><time>2026-04-03T16:17:52.511Z</time></trkpt><trkpt lat="44.9166142" lon="9.6889641"><ele>145.5</ele><time>2026-04-03T16:17:53.502Z</time></trkpt><trkpt lat="44.9166398" lon="9.6888069"><ele>145.75</ele><time>2026-04-03T16:17:54.489Z</time></trkpt><trkpt lat="44.9166635" lon="9.6886473"><ele>146.0</ele><time>2026-04-03T16:17:55.498Z</time></trkpt><trkpt lat="44.9166869" lon="9.6884859"><ele>146.0</ele><time>2026-04-03T16:17:56.506Z</time></trkpt><trkpt lat="44.9167094" lon="9.6883241"><ele>146.0</ele><time>2026-04-03T16:17:57.49Z</time></trkpt><trkpt lat="44.916731" lon="9.688161"><ele>146.0</ele><time>2026-04-03T16:17:58.51Z</time></trkpt><trkpt lat="44.9167477" lon="9.687994"><ele>146.0</ele><time>2026-04-03T16:17:59.493Z</time></trkpt><trkpt lat="44.9167602" lon="9.6878088"><ele>145.33333333333331</ele><time>2026-04-03T16:18:00.49Z</time></trkpt><trkpt lat="44.9167711" lon="9.6875921"><ele>144.66666666666666</ele><time>2026-04-03T16:18:01.507Z</time></trkpt><trkpt lat="44.9167864" lon="9.6873572"><ele>144.0</ele><time>2026-04-03T16:18:02.491Z</time></trkpt><trkpt lat="44.9168032" lon="9.6871297"><ele>144.0</ele><time>2026-04-03T16:18:03.51Z</time></trkpt><trkpt lat="44.9168178" lon="9.6869175"><ele>144.0</ele><time>2026-04-03T16:18:04.505Z</time></trkpt><trkpt lat="44.9168283" lon="9.6867199"><ele>144.0</ele><time>2026-04-03T16:18:05.494Z</time></trkpt><trkpt lat="44.9168384" lon="9.6865396"><ele>144.0</ele><time>2026-04-03T16:18:06.499Z</time></trkpt><trkpt lat="44.9168485" lon="9.6863725"><ele>144.0</ele><time>2026-04-03T16:18:07.493Z</time></trkpt><trkpt lat="44.9168595" lon="9.6862159"><ele>144.0</ele><time>2026-04-03T16:18:08.503Z</time></trkpt><trkpt lat="44.9168727" lon="9.6860684"><ele>144.0</ele><time>2026-04-03T16:18:09.494Z</time></trkpt><trkpt lat="44.9168845" lon="9.6859263"><ele>144.0</ele><time>2026-04-03T16:18:10.504Z</time></trkpt><trkpt lat="44.9168944" lon="9.6857872"><ele>144.0</ele><time>2026-04-03T16:18:11.488Z</time></trkpt><trkpt lat="44.9169006" lon="9.6856472"><ele>144.4</ele><time>2026-04-03T16:18:12.497Z</time></trkpt><trkpt lat="44.9169074" lon="9.6855066"><ele>144.8</ele><time>2026-04-03T16:18:13.49Z</time></trkpt><trkpt lat="44.9169185" lon="9.6853662"><ele>145.2</ele><time>2026-04-03T16:18:14.496Z</time></trkpt><trkpt lat="44.9169336" lon="9.6852235"><ele>145.6</ele><time>2026-04-03T16:18:15.51Z</time></trkpt><trkpt lat="44.9169537" lon="9.6850837"><ele>146.0</ele><time>2026-04-03T16:18:16.496Z</time></trkpt><trkpt lat="44.9169777" lon="9.6849451"><ele>146.2</ele><time>2026-04-03T16:18:17.509Z</time></trkpt><trkpt lat="44.9170044" lon="9.6848031"><ele>146.39999999999998</ele><time>2026-04-03T16:18:18.487Z</time></trkpt><trkpt lat="44.9170318" lon="9.6846635"><ele>146.6</ele><time>2026-04-03T16:18:19.496Z</time></trkpt><trkpt lat="44.9170539" lon="9.6845244"><ele>146.79999999999998</ele><time>2026-04-03T16:18:20.494Z</time></trkpt><trkpt lat="44.917072" lon="9.6843846"><ele>147.0</ele><time>2026-04-03T16:18:21.502Z</time></trkpt><trkpt lat="44.9170863" lon="9.6842439"><ele>147.0</ele><time>2026-04-03T16:18:22.51Z</time></trkpt><trkpt lat="44.9171011" lon="9.6841008"><ele>147.0</ele><time>2026-04-03T16:18:23.491Z</time></trkpt><trkpt lat="44.9171201" lon="9.6839549"><ele>147.0</ele><time>2026-04-03T16:18:24.508Z</time></trkpt><trkpt lat="44.9171384" lon="9.6838058"><ele>147.0</ele><time>2026-04-03T16:18:25.498Z</time></trkpt><trkpt lat="44.9171551" lon="9.6836522"><ele>147.0</ele><time>2026-04-03T16:18:26.505Z</time></trkpt><trkpt lat="44.9171716" lon="9.6834971"><ele>147.0</ele><time>2026-04-03T16:18:27.503Z</time></trkpt><trkpt lat="44.9171883" lon="9.6833388"><ele>147.0</ele><time>2026-04-03T16:18:28.502Z</time></trkpt><trkpt lat="44.9172043" lon="9.68318"><ele>147.0</ele><time>2026-04-03T16:18:29.5Z</time></trkpt><trkpt lat="44.9172208" lon="9.6830211"><ele>147.0</ele><time>2026-04-03T16:18:30.503Z</time></trkpt><trkpt lat="44.9172355" lon="9.6828633"><ele>147.0</ele><time>2026-04-03T16:18:31.491Z</time></trkpt><trkpt lat="44.9172489" lon="9.6827062"><ele>147.0</ele><time>2026-04-03T16:18:32.494Z</time></trkpt><trkpt lat="44.9172615" lon="9.6825479"><ele>147.0</ele><time>2026-04-03T16:18:33.493Z</time></trkpt><trkpt lat="44.9172763" lon="9.6823922"><ele>147.0</ele><time>2026-04-03T16:18:34.499Z</time></trkpt><trkpt lat="44.9172925" lon="9.6822348"><ele>147.0</ele><time>2026-04-03T16:18:35.505Z</time></trkpt><trkpt lat="44.9173076" lon="9.6820746"><ele>146.75</ele><time>2026-04-03T16:18:36.512Z</time></trkpt><trkpt lat="44.9173226" lon="9.6819105"><ele>146.5</ele><time>2026-04-03T16:18:37.504Z</time></trkpt><trkpt lat="44.9173407" lon="9.6817414"><ele>146.25</ele><time>2026-04-03T16:18:38.495Z</time></trkpt><trkpt lat="44.9173602" lon="9.6815674"><ele>146.0</ele><time>2026-04-03T16:18:39.514Z</time></trkpt><trkpt lat="44.9173806" lon="9.6813867"><ele>146.0</ele><time>2026-04-03T16:18:40.498Z</time></trkpt><trkpt lat="44.9174002" lon="9.681199"><ele>146.0</ele><time>2026-04-03T16:18:41.502Z</time></trkpt><trkpt lat="44.917419" lon="9.6810073"><ele>146.0</ele><time>2026-04-03T16:18:42.497Z</time></trkpt><trkpt lat="44.9174359" lon="9.6808151"><ele>146.0</ele><time>2026-04-03T16:18:43.507Z</time></trkpt><trkpt lat="44.917452" lon="9.6806229"><ele>146.5</ele><time>2026-04-03T16:18:44.487Z</time></trkpt><trkpt lat="44.9174683" lon="9.68044"><ele>147.0</ele><time>2026-04-03T16:18:45.506Z</time></trkpt><trkpt lat="44.9174847" lon="9.6802741"><ele>147.5</ele><time>2026-04-03T16:18:46.493Z</time></trkpt><trkpt lat="44.9174997" lon="9.680126"><ele>148.0</ele><time>2026-04-03T16:18:47.508Z</time></trkpt><trkpt lat="44.9175121" lon="9.6799917"><ele>148.5</ele><time>2026-04-03T16:18:48.503Z</time></trkpt><trkpt lat="44.9175188" lon="9.6798768"><ele>149.0</ele><time>2026-04-03T16:18:49.502Z</time></trkpt><trkpt lat="44.9175274" lon="9.6797881"><ele>149.5</ele><time>2026-04-03T16:18:50.503Z</time></trkpt><trkpt lat="44.9175549" lon="9.6796831"><ele>150.0</ele><time>2026-04-03T16:18:52.498Z</time></trkpt><trkpt lat="44.9176267" lon="9.6796384"><ele>150.5</ele><time>2026-04-03T16:18:54.512Z</time></trkpt><trkpt lat="44.9176899" lon="9.6796495"><ele>151.0</ele><time>2026-04-03T16:18:55.51Z</time></trkpt><trkpt lat="44.9177734" lon="9.6796832"><ele>151.0</ele><time>2026-04-03T16:18:56.506Z</time></trkpt><trkpt lat="44.9178614" lon="9.6797135"><ele>151.0</ele><time>2026-04-03T16:18:57.499Z</time></trkpt><trkpt lat="44.9179458" lon="9.6797157"><ele>151.0</ele><time>2026-04-03T16:18:58.497Z</time></trkpt><trkpt lat="44.9180232" lon="9.6796727"><ele>151.0</ele><time>2026-04-03T16:18:59.501Z</time></trkpt><trkpt lat="44.9180872" lon="9.6795866"><ele>151.0</ele><time>2026-04-03T16:19:00.502Z</time></trkpt><trkpt lat="44.9181378" lon="9.6794636"><ele>151.0</ele><time>2026-04-03T16:19:01.508Z</time></trkpt><trkpt lat="44.9181849" lon="9.6793182"><ele>151.8</ele><time>2026-04-03T16:19:02.506Z</time></trkpt><trkpt lat="44.9182335" lon="9.6791593"><ele>152.6</ele><time>2026-04-03T16:19:03.506Z</time></trkpt><trkpt lat="44.918277" lon="9.6790129"><ele>153.4</ele><time>2026-04-03T16:19:04.51Z</time></trkpt><trkpt lat="44.91831" lon="9.67889"><ele>154.2</ele><time>2026-04-03T16:19:05.506Z</time></trkpt><trkpt lat="44.9183283" lon="9.6787904"><ele>155.0</ele><time>2026-04-03T16:19:06.497Z</time></trkpt><trkpt lat="44.918359" lon="9.6786184"><ele>155.0</ele><time>2026-04-03T16:19:08.489Z</time></trkpt><trkpt lat="44.9183907" lon="9.6785158"><ele>155.0</ele><time>2026-04-03T16:19:09.508Z</time></trkpt><trkpt lat="44.918436" lon="9.6783887"><ele>155.0</ele><time>2026-04-03T16:19:10.502Z</time></trkpt><trkpt lat="44.9184872" lon="9.6782327"><ele>155.0</ele><time>2026-04-03T16:19:11.5Z</time></trkpt><trkpt lat="44.9185408" lon="9.6780631"><ele>155.0</ele><time>2026-04-03T16:19:12.498Z</time></trkpt><trkpt lat="44.918596" lon="9.677883"><ele>154.8</ele><time>2026-04-03T16:19:13.503Z</time></trkpt><trkpt lat="44.91865" lon="9.6777113"><ele>154.6</ele><time>2026-04-03T16:19:14.499Z</time></trkpt><trkpt lat="44.9187015" lon="9.6775554"><ele>154.4</ele><time>2026-04-03T16:19:15.508Z</time></trkpt><trkpt lat="44.9187489" lon="9.6774198"><ele>154.2</ele><time>2026-04-03T16:19:16.502Z</time></trkpt><trkpt lat="44.9187884" lon="9.6773212"><ele>154.0</ele><time>2026-04-03T16:19:17.512Z</time></trkpt><trkpt lat="44.9188603" lon="9.6772354"><ele>154.0</ele><time>2026-04-03T16:19:19.49Z</time></trkpt><trkpt lat="44.9189455" lon="9.6772811"><ele>154.0</ele><time>2026-04-03T16:19:21.497Z</time></trkpt><trkpt lat="44.9190542" lon="9.6773707"><ele>154.0</ele><time>2026-04-03T16:19:23.49Z</time></trkpt><trkpt lat="44.9191235" lon="9.6774234"><ele>154.0</ele><time>2026-04-03T16:19:24.494Z</time></trkpt><trkpt lat="44.9192033" lon="9.6774893"><ele>154.0</ele><time>2026-04-03T16:19:25.496Z</time></trkpt><trkpt lat="44.9192924" lon="9.6775648"><ele>153.8</ele><time>2026-04-03T16:19:26.507Z</time></trkpt><trkpt lat="44.9193864" lon="9.6776464"><ele>153.60000000000002</ele><time>2026-04-03T16:19:27.493Z</time></trkpt><trkpt lat="44.9194846" lon="9.677727"><ele>153.4</ele><time>2026-04-03T16:19:28.501Z</time></trkpt><trkpt lat="44.919581" lon="9.6778097"><ele>153.20000000000002</ele><time>2026-04-03T16:19:29.498Z</time></trkpt><trkpt lat="44.9196768" lon="9.677891"><ele>153.0</ele><time>2026-04-03T16:19:30.493Z</time></trkpt><trkpt lat="44.9197753" lon="9.6779752"><ele>153.0</ele><time>2026-04-03T16:19:31.497Z</time></trkpt><trkpt lat="44.9198767" lon="9.6780621"><ele>153.0</ele><time>2026-04-03T16:19:32.497Z</time></trkpt><trkpt lat="44.9199834" lon="9.6781495"><ele>153.0</ele><time>2026-04-03T16:19:33.5Z</time></trkpt><trkpt lat="44.9200906" lon="9.6782363"><ele>153.0</ele><time>2026-04-03T16:19:34.506Z</time></trkpt><trkpt lat="44.9201986" lon="9.6783213"><ele>153.0</ele><time>2026-04-03T16:19:35.493Z</time></trkpt><trkpt lat="44.9203122" lon="9.6784033"><ele>153.0</ele><time>2026-04-03T16:19:36.507Z</time></trkpt><trkpt lat="44.9204352" lon="9.6784802"><ele>153.0</ele><time>2026-04-03T16:19:37.497Z</time></trkpt><trkpt lat="44.9205691" lon="9.6785468"><ele>153.0</ele><time>2026-04-03T16:19:38.492Z</time></trkpt><trkpt lat="44.9207092" lon="9.6786135"><ele>153.0</ele><time>2026-04-03T16:19:39.506Z</time></trkpt><trkpt lat="44.9208533" lon="9.6786809"><ele>153.0</ele><time>2026-04-03T16:19:40.503Z</time></trkpt><trkpt lat="44.9209937" lon="9.6787447"><ele>153.0</ele><time>2026-04-03T16:19:41.506Z</time></trkpt><trkpt lat="44.9211181" lon="9.6788035"><ele>153.0</ele><time>2026-04-03T16:19:42.494Z</time></trkpt><trkpt lat="44.9212275" lon="9.6788578"><ele>152.83333333333334</ele><time>2026-04-03T16:19:43.506Z</time></trkpt><trkpt lat="44.921323" lon="9.6789046"><ele>152.66666666666666</ele><time>2026-04-03T16:19:44.506Z</time></trkpt><trkpt lat="44.9213985" lon="9.6789414"><ele>152.5</ele><time>2026-04-03T16:19:45.5Z</time></trkpt><trkpt lat="44.9214602" lon="9.6789774"><ele>152.33333333333331</ele><time>2026-04-03T16:19:46.5Z</time></trkpt><trkpt lat="44.9215191" lon="9.6790173"><ele>152.16666666666666</ele><time>2026-04-03T16:19:47.499Z</time></trkpt><trkpt lat="44.9215788" lon="9.6790592"><ele>152.0</ele><time>2026-04-03T16:19:48.498Z</time></trkpt><trkpt lat="44.921647" lon="9.679097"><ele>152.0</ele><time>2026-04-03T16:19:49.506Z</time></trkpt><trkpt lat="44.9217289" lon="9.6791295"><ele>152.0</ele><time>2026-04-03T16:19:50.5Z</time></trkpt><trkpt lat="44.9218184" lon="9.6791628"><ele>152.0</ele><time>2026-04-03T16:19:51.492Z</time></trkpt><trkpt lat="44.9219115" lon="9.6792016"><ele>152.0</ele><time>2026-04-03T16:19:52.506Z</time></trkpt><trkpt lat="44.9219999" lon="9.6792426"><ele>152.0</ele><time>2026-04-03T16:19:53.492Z</time></trkpt><trkpt lat="44.9220816" lon="9.6792802"><ele>151.5</ele><time>2026-04-03T16:19:54.513Z</time></trkpt><trkpt lat="44.9221581" lon="9.679314"><ele>151.0</ele><time>2026-04-03T16:19:55.511Z</time></trkpt><trkpt lat="44.9222179" lon="9.6793491"><ele>150.5</ele><time>2026-04-03T16:19:56.503Z</time></trkpt><trkpt lat="44.9222795" lon="9.6794377"><ele>150.0</ele><time>2026-04-03T16:19:58.504Z</time></trkpt><trkpt lat="44.9222661" lon="9.6795794"><ele>149.5</ele><time>2026-04-03T16:20:00.502Z</time></trkpt><trkpt lat="44.9222386" lon="9.6796735"><ele>149.0</ele><time>2026-04-03T16:20:01.501Z</time></trkpt><trkpt lat="44.9222121" lon="9.6797835"><ele>149.0</ele><time>2026-04-03T16:20:02.508Z</time></trkpt><trkpt lat="44.9221808" lon="9.6799021"><ele>149.0</ele><time>2026-04-03T16:20:03.501Z</time></trkpt><trkpt lat="44.9221502" lon="9.6800276"><ele>149.0</ele><time>2026-04-03T16:20:04.508Z</time></trkpt><trkpt lat="44.9221233" lon="9.6801488"><ele>149.0</ele><time>2026-04-03T16:20:05.498Z</time></trkpt><trkpt lat="44.9220971" lon="9.6802623"><ele>149.0</ele><time>2026-04-03T16:20:06.498Z</time></trkpt><trkpt lat="44.9220687" lon="9.6803657"><ele>149.0</ele><time>2026-04-03T16:20:07.5Z</time></trkpt><trkpt lat="44.9220419" lon="9.6804619"><ele>149.16666666666666</ele><time>2026-04-03T16:20:08.505Z</time></trkpt><trkpt lat="44.9220085" lon="9.6806002"><ele>149.33333333333331</ele><time>2026-04-03T16:20:10.498Z</time></trkpt><trkpt lat="44.9220257" lon="9.6807048"><ele>149.5</ele><time>2026-04-03T16:20:13.503Z</time></trkpt><trkpt lat="44.9220897" lon="9.6807057"><ele>149.66666666666666</ele><time>2026-04-03T16:21:14.509Z</time></trkpt><trkpt lat="44.9220409" lon="9.6805835"><ele>149.83333333333334</ele><time>2026-04-03T16:21:18.5Z</time></trkpt><trkpt lat="44.9220501" lon="9.6804896"><ele>150.0</ele><time>2026-04-03T16:21:19.508Z</time></trkpt><trkpt lat="44.922076" lon="9.6803748"><ele>149.8</ele><time>2026-04-03T16:21:20.499Z</time></trkpt><trkpt lat="44.9221108" lon="9.6802483"><ele>149.6</ele><time>2026-04-03T16:21:21.493Z</time></trkpt><trkpt lat="44.922146" lon="9.6801081"><ele>149.4</ele><time>2026-04-03T16:21:22.501Z</time></trkpt><trkpt lat="44.922181" lon="9.6799599"><ele>149.2</ele><time>2026-04-03T16:21:23.504Z</time></trkpt><trkpt lat="44.922217" lon="9.6798208"><ele>149.0</ele><time>2026-04-03T16:21:24.502Z</time></trkpt><trkpt lat="44.922251" lon="9.679698"><ele>149.0</ele><time>2026-04-03T16:21:25.494Z</time></trkpt><trkpt lat="44.9222815" lon="9.6795951"><ele>149.0</ele><time>2026-04-03T16:21:26.513Z</time></trkpt><trkpt lat="44.9222995" lon="9.6795034"><ele>149.0</ele><time>2026-04-03T16:21:27.515Z</time></trkpt><trkpt lat="44.9222743" lon="9.6793657"><ele>149.0</ele><time>2026-04-03T16:21:29.491Z</time></trkpt><trkpt lat="44.922145" lon="9.6792893"><ele>149.0</ele><time>2026-04-03T16:21:31.497Z</time></trkpt><trkpt lat="44.9220432" lon="9.6792515"><ele>149.0</ele><time>2026-04-03T16:21:32.5Z</time></trkpt><trkpt lat="44.9219251" lon="9.6791946"><ele>149.0</ele><time>2026-04-03T16:21:33.512Z</time></trkpt><trkpt lat="44.9218026" lon="9.6791335"><ele>149.0</ele><time>2026-04-03T16:21:34.505Z</time></trkpt><trkpt lat="44.9216882" lon="9.6790802"><ele>149.0</ele><time>2026-04-03T16:21:35.496Z</time></trkpt><trkpt lat="44.9215874" lon="9.6790345"><ele>149.4</ele><time>2026-04-03T16:21:36.495Z</time></trkpt><trkpt lat="44.9215072" lon="9.6789946"><ele>149.8</ele><time>2026-04-03T16:21:37.516Z</time></trkpt><trkpt lat="44.9214374" lon="9.6788885"><ele>150.2</ele><time>2026-04-03T16:21:39.509Z</time></trkpt><trkpt lat="44.9214726" lon="9.6787159"><ele>150.6</ele><time>2026-04-03T16:21:41.506Z</time></trkpt><trkpt lat="44.9215111" lon="9.6785941"><ele>151.0</ele><time>2026-04-03T16:21:42.505Z</time></trkpt><trkpt lat="44.9215469" lon="9.6784538"><ele>151.0</ele><time>2026-04-03T16:21:43.491Z</time></trkpt><trkpt lat="44.9215749" lon="9.6783024"><ele>151.0</ele><time>2026-04-03T16:21:44.507Z</time></trkpt><trkpt lat="44.921602" lon="9.6781381"><ele>151.0</ele><time>2026-04-03T16:21:45.513Z</time></trkpt><trkpt lat="44.9216288" lon="9.6779711"><ele>151.0</ele><time>2026-04-03T16:21:46.504Z</time></trkpt><trkpt lat="44.9216578" lon="9.6778001"><ele>151.0</ele><time>2026-04-03T16:21:47.508Z</time></trkpt><trkpt lat="44.9216878" lon="9.6776271"><ele>151.0</ele><time>2026-04-03T16:21:48.495Z</time></trkpt><trkpt lat="44.9217201" lon="9.6774547"><ele>151.0</ele><time>2026-04-03T16:21:49.503Z</time></trkpt><trkpt lat="44.9217507" lon="9.6772856"><ele>151.0</ele><time>2026-04-03T16:21:50.512Z</time></trkpt><trkpt lat="44.921783" lon="9.6771176"><ele>151.0</ele><time>2026-04-03T16:21:51.502Z</time></trkpt><trkpt lat="44.9218159" lon="9.6769481"><ele>151.0</ele><time>2026-04-03T16:21:52.504Z</time></trkpt><trkpt lat="44.9218478" lon="9.676771"><ele>151.0</ele><time>2026-04-03T16:21:53.505Z</time></trkpt><trkpt lat="44.9218809" lon="9.676584"><ele>151.0</ele><time>2026-04-03T16:21:54.506Z</time></trkpt><trkpt lat="44.9219171" lon="9.6763873"><ele>151.0</ele><time>2026-04-03T16:21:55.507Z</time></trkpt><trkpt lat="44.9219575" lon="9.6761808"><ele>151.0</ele><time>2026-04-03T16:21:56.51Z</time></trkpt><trkpt lat="44.922" lon="9.6759676"><ele>151.0</ele><time>2026-04-03T16:21:57.516Z</time></trkpt><trkpt lat="44.9220436" lon="9.6757502"><ele>151.0</ele><time>2026-04-03T16:21:58.51Z</time></trkpt><trkpt lat="44.922085" lon="9.675523"><ele>151.0</ele><time>2026-04-03T16:21:59.503Z</time></trkpt><trkpt lat="44.9221282" lon="9.6752905"><ele>151.0</ele><time>2026-04-03T16:22:00.513Z</time></trkpt><trkpt lat="44.9221716" lon="9.675053"><ele>151.0</ele><time>2026-04-03T16:22:01.501Z</time></trkpt><trkpt lat="44.9222172" lon="9.6748125"><ele>151.0</ele><time>2026-04-03T16:22:02.511Z</time></trkpt><trkpt lat="44.9222633" lon="9.6745744"><ele>151.0</ele><time>2026-04-03T16:22:03.516Z</time></trkpt><trkpt lat="44.9223087" lon="9.6743383"><ele>151.33333333333334</ele><time>2026-04-03T16:22:04.507Z</time></trkpt><trkpt lat="44.9223522" lon="9.6741021"><ele>151.66666666666666</ele><time>2026-04-03T16:22:05.511Z</time></trkpt><trkpt lat="44.9223959" lon="9.6738691"><ele>152.0</ele><time>2026-04-03T16:22:06.511Z</time></trkpt><trkpt lat="44.9224397" lon="9.6736387"><ele>151.66666666666666</ele><time>2026-04-03T16:22:07.505Z</time></trkpt><trkpt lat="44.9224823" lon="9.6734168"><ele>151.33333333333334</ele><time>2026-04-03T16:22:08.502Z</time></trkpt><trkpt lat="44.9225222" lon="9.6732092"><ele>151.0</ele><time>2026-04-03T16:22:09.499Z</time></trkpt><trkpt lat="44.9225578" lon="9.6730163"><ele>150.75</ele><time>2026-04-03T16:22:10.504Z</time></trkpt><trkpt lat="44.9225894" lon="9.6728318"><ele>150.5</ele><time>2026-04-03T16:22:11.514Z</time></trkpt><trkpt lat="44.9226197" lon="9.6726531"><ele>150.25</ele><time>2026-04-03T16:22:12.494Z</time></trkpt><trkpt lat="44.9226506" lon="9.6724815"><ele>150.0</ele><time>2026-04-03T16:22:13.505Z</time></trkpt><trkpt lat="44.9226807" lon="9.672311"><ele>150.0</ele><time>2026-04-03T16:22:14.498Z</time></trkpt><trkpt lat="44.92271" lon="9.6721412"><ele>150.0</ele><time>2026-04-03T16:22:15.51Z</time></trkpt><trkpt lat="44.9227395" lon="9.6719768"><ele>150.0</ele><time>2026-04-03T16:22:16.504Z</time></trkpt><trkpt lat="44.9227697" lon="9.6718151"><ele>150.0</ele><time>2026-04-03T16:22:17.504Z</time></trkpt><trkpt lat="44.9227995" lon="9.6716578"><ele>150.2</ele><time>2026-04-03T16:22:18.499Z</time></trkpt><trkpt lat="44.9228277" lon="9.6715063"><ele>150.4</ele><time>2026-04-03T16:22:19.512Z</time></trkpt><trkpt lat="44.922856" lon="9.6713584"><ele>150.6</ele><time>2026-04-03T16:22:20.508Z</time></trkpt><trkpt lat="44.922884" lon="9.6712149"><ele>150.8</ele><time>2026-04-03T16:22:21.507Z</time></trkpt><trkpt lat="44.9229128" lon="9.6710741"><ele>151.0</ele><time>2026-04-03T16:22:22.495Z</time></trkpt><trkpt lat="44.922942" lon="9.6709307"><ele>151.0</ele><time>2026-04-03T16:22:23.516Z</time></trkpt><trkpt lat="44.9229702" lon="9.670787"><ele>151.0</ele><time>2026-04-03T16:22:24.498Z</time></trkpt><trkpt lat="44.9229986" lon="9.6706468"><ele>151.0</ele><time>2026-04-03T16:22:25.513Z</time></trkpt><trkpt lat="44.9230259" lon="9.6705091"><ele>151.0</ele><time>2026-04-03T16:22:26.501Z</time></trkpt><trkpt lat="44.9230512" lon="9.6703769"><ele>151.0</ele><time>2026-04-03T16:22:27.509Z</time></trkpt><trkpt lat="44.9230704" lon="9.6702667"><ele>151.2</ele><time>2026-04-03T16:22:28.508Z</time></trkpt><trkpt lat="44.9230853" lon="9.670151"><ele>151.39999999999998</ele><time>2026-04-03T16:22:30.509Z</time></trkpt><trkpt lat="44.9230101" lon="9.6700512"><ele>151.6</ele><time>2026-04-03T16:22:38.494Z</time></trkpt><trkpt lat="44.9229264" lon="9.6700429"><ele>151.79999999999998</ele><time>2026-04-03T16:22:39.492Z</time></trkpt><trkpt lat="44.9228212" lon="9.6700572"><ele>152.0</ele><time>2026-04-03T16:22:40.489Z</time></trkpt><trkpt lat="44.9226939" lon="9.6700693"><ele>152.33333333333331</ele><time>2026-04-03T16:22:41.498Z</time></trkpt><trkpt lat="44.9225493" lon="9.670086"><ele>152.66666666666666</ele><time>2026-04-03T16:22:42.496Z</time></trkpt><trkpt lat="44.9223977" lon="9.6701154"><ele>153.0</ele><time>2026-04-03T16:22:43.507Z</time></trkpt><trkpt lat="44.9222419" lon="9.6701516"><ele>153.0</ele><time>2026-04-03T16:22:44.5Z</time></trkpt><trkpt lat="44.9220773" lon="9.6701843"><ele>153.0</ele><time>2026-04-03T16:22:45.496Z</time></trkpt><trkpt lat="44.9219107" lon="9.6702186"><ele>153.0</ele><time>2026-04-03T16:22:46.501Z</time></trkpt><trkpt lat="44.9217359" lon="9.6702533"><ele>153.0</ele><time>2026-04-03T16:22:47.499Z</time></trkpt><trkpt lat="44.9215646" lon="9.6702841"><ele>153.0</ele><time>2026-04-03T16:22:48.491Z</time></trkpt><trkpt lat="44.9214047" lon="9.6703103"><ele>153.0</ele><time>2026-04-03T16:22:49.497Z</time></trkpt><trkpt lat="44.921257" lon="9.6703344"><ele>153.0</ele><time>2026-04-03T16:22:50.489Z</time></trkpt><trkpt lat="44.9211147" lon="9.6703623"><ele>153.0</ele><time>2026-04-03T16:22:51.497Z</time></trkpt><trkpt lat="44.920978" lon="9.6703887"><ele>153.0</ele><time>2026-04-03T16:22:52.491Z</time></trkpt><trkpt lat="44.9208482" lon="9.6704088"><ele>153.0</ele><time>2026-04-03T16:22:53.491Z</time></trkpt><trkpt lat="44.9207239" lon="9.670423"><ele>153.0</ele><time>2026-04-03T16:22:54.495Z</time></trkpt><trkpt lat="44.9206032" lon="9.6704308"><ele>153.0</ele><time>2026-04-03T16:22:55.492Z</time></trkpt><trkpt lat="44.920487" lon="9.6704323"><ele>153.0</ele><time>2026-04-03T16:22:56.498Z</time></trkpt><trkpt lat="44.9203714" lon="9.6704231"><ele>153.0</ele><time>2026-04-03T16:22:57.489Z</time></trkpt><trkpt lat="44.9202572" lon="9.6704032"><ele>153.0</ele><time>2026-04-03T16:22:58.494Z</time></trkpt><trkpt lat="44.9201441" lon="9.6703754"><ele>153.0</ele><time>2026-04-03T16:22:59.49Z</time></trkpt><trkpt lat="44.9200319" lon="9.6703339"><ele>153.0</ele><time>2026-04-03T16:23:00.493Z</time></trkpt><trkpt lat="44.9199217" lon="9.6702865"><ele>153.0</ele><time>2026-04-03T16:23:01.491Z</time></trkpt><trkpt lat="44.9198121" lon="9.6702378"><ele>153.8</ele><time>2026-04-03T16:23:02.49Z</time></trkpt><trkpt lat="44.9197027" lon="9.6701923"><ele>154.60000000000002</ele><time>2026-04-03T16:23:03.494Z</time></trkpt><trkpt lat="44.9195975" lon="9.67015"><ele>155.39999999999998</ele><time>2026-04-03T16:23:04.487Z</time></trkpt><trkpt lat="44.9194899" lon="9.6701159"><ele>156.2</ele><time>2026-04-03T16:23:05.484Z</time></trkpt><trkpt lat="44.9193827" lon="9.6700914"><ele>157.0</ele><time>2026-04-03T16:23:06.491Z</time></trkpt><trkpt lat="44.9192768" lon="9.6700797"><ele>157.8</ele><time>2026-04-03T16:23:07.492Z</time></trkpt><trkpt lat="44.9191725" lon="9.6700733"><ele>158.6</ele><time>2026-04-03T16:23:08.484Z</time></trkpt><trkpt lat="44.9190743" lon="9.6700678"><ele>159.4</ele><time>2026-04-03T16:23:09.491Z</time></trkpt><trkpt lat="44.9189781" lon="9.6700591"><ele>160.20000000000002</ele><time>2026-04-03T16:23:10.493Z</time></trkpt><trkpt lat="44.918874" lon="9.6700491"><ele>161.0</ele><time>2026-04-03T16:23:11.489Z</time></trkpt><trkpt lat="44.9187611" lon="9.6700387"><ele>161.0</ele><time>2026-04-03T16:23:12.491Z</time></trkpt><trkpt lat="44.9186473" lon="9.6700319"><ele>161.0</ele><time>2026-04-03T16:23:13.493Z</time></trkpt><trkpt lat="44.9185367" lon="9.6700279"><ele>161.0</ele><time>2026-04-03T16:23:14.49Z</time></trkpt><trkpt lat="44.9184285" lon="9.6700226"><ele>161.0</ele><time>2026-04-03T16:23:15.485Z</time></trkpt><trkpt lat="44.9183219" lon="9.6700108"><ele>161.0</ele><time>2026-04-03T16:23:16.494Z</time></trkpt><trkpt lat="44.9182189" lon="9.66999"><ele>161.0</ele><time>2026-04-03T16:23:17.494Z</time></trkpt><trkpt lat="44.9181201" lon="9.6699642"><ele>161.0</ele><time>2026-04-03T16:23:18.491Z</time></trkpt><trkpt lat="44.9180222" lon="9.669932"><ele>161.0</ele><time>2026-04-03T16:23:19.497Z</time></trkpt><trkpt lat="44.9179292" lon="9.66989"><ele>161.0</ele><time>2026-04-03T16:23:20.486Z</time></trkpt><trkpt lat="44.9178364" lon="9.6698402"><ele>161.0</ele><time>2026-04-03T16:23:21.49Z</time></trkpt><trkpt lat="44.9177442" lon="9.6697849"><ele>161.0</ele><time>2026-04-03T16:23:22.486Z</time></trkpt><trkpt lat="44.9176487" lon="9.6697268"><ele>161.0</ele><time>2026-04-03T16:23:23.486Z</time></trkpt><trkpt lat="44.9175498" lon="9.6696708"><ele>161.0</ele><time>2026-04-03T16:23:24.496Z</time></trkpt><trkpt lat="44.9174476" lon="9.6696195"><ele>161.0</ele><time>2026-04-03T16:23:25.491Z</time></trkpt><trkpt lat="44.9173415" lon="9.6695731"><ele>161.0</ele><time>2026-04-03T16:23:26.494Z</time></trkpt><trkpt lat="44.9172308" lon="9.6695274"><ele>161.0</ele><time>2026-04-03T16:23:27.49Z</time></trkpt><trkpt lat="44.9171153" lon="9.6694865"><ele>161.0</ele><time>2026-04-03T16:23:28.491Z</time></trkpt><trkpt lat="44.9169969" lon="9.669451"><ele>161.0</ele><time>2026-04-03T16:23:29.486Z</time></trkpt><trkpt lat="44.9168778" lon="9.6694212"><ele>161.0</ele><time>2026-04-03T16:23:30.494Z</time></trkpt><trkpt lat="44.9167622" lon="9.6693976"><ele>161.60000000000002</ele><time>2026-04-03T16:23:31.494Z</time></trkpt><trkpt lat="44.9166497" lon="9.6693739"><ele>162.2</ele><time>2026-04-03T16:23:32.495Z</time></trkpt><trkpt lat="44.9165396" lon="9.66935"><ele>162.8</ele><time>2026-04-03T16:23:33.494Z</time></trkpt><trkpt lat="44.9164308" lon="9.6693283"><ele>163.39999999999998</ele><time>2026-04-03T16:23:34.488Z</time></trkpt><trkpt lat="44.9163245" lon="9.669309"><ele>164.0</ele><time>2026-04-03T16:23:35.49Z</time></trkpt><trkpt lat="44.916218" lon="9.6692904"><ele>164.0</ele><time>2026-04-03T16:23:36.496Z</time></trkpt><trkpt lat="44.9161122" lon="9.6692729"><ele>164.0</ele><time>2026-04-03T16:23:37.495Z</time></trkpt><trkpt lat="44.9160056" lon="9.6692574"><ele>164.0</ele><time>2026-04-03T16:23:38.495Z</time></trkpt><trkpt lat="44.9159061" lon="9.6692387"><ele>164.0</ele><time>2026-04-03T16:23:39.493Z</time></trkpt><trkpt lat="44.9158121" lon="9.6692223"><ele>164.0</ele><time>2026-04-03T16:23:40.487Z</time></trkpt><trkpt lat="44.915724" lon="9.6692101"><ele>164.0</ele><time>2026-04-03T16:23:41.491Z</time></trkpt><trkpt lat="44.9156462" lon="9.6691979"><ele>164.0</ele><time>2026-04-03T16:23:42.489Z</time></trkpt><trkpt lat="44.9155832" lon="9.6691886"><ele>164.0</ele><time>2026-04-03T16:23:43.494Z</time></trkpt><trkpt lat="44.915499" lon="9.6691732"><ele>164.0</ele><time>2026-04-03T16:23:45.495Z</time></trkpt><trkpt lat="44.9154192" lon="9.669165"><ele>164.0</ele><time>2026-04-03T16:24:02.5Z</time></trkpt><trkpt lat="44.9153512" lon="9.6691502"><ele>164.0</ele><time>2026-04-03T16:24:03.503Z</time></trkpt><trkpt lat="44.9152649" lon="9.669134"><ele>164.0</ele><time>2026-04-03T16:24:04.5Z</time></trkpt><trkpt lat="44.9151703" lon="9.6691168"><ele>164.0</ele><time>2026-04-03T16:24:05.502Z</time></trkpt><trkpt lat="44.9150645" lon="9.6690995"><ele>164.0</ele><time>2026-04-03T16:24:06.503Z</time></trkpt><trkpt lat="44.914954" lon="9.6690809"><ele>164.0</ele><time>2026-04-03T16:24:07.502Z</time></trkpt><trkpt lat="44.9148432" lon="9.6690571"><ele>164.0</ele><time>2026-04-03T16:24:08.5Z</time></trkpt><trkpt lat="44.9147355" lon="9.6690372"><ele>164.2</ele><time>2026-04-03T16:24:09.501Z</time></trkpt><trkpt lat="44.9146284" lon="9.6690157"><ele>164.39999999999998</ele><time>2026-04-03T16:24:10.505Z</time></trkpt><trkpt lat="44.9145221" lon="9.6689957"><ele>164.6</ele><time>2026-04-03T16:24:11.494Z</time></trkpt><trkpt lat="44.9144189" lon="9.6689805"><ele>164.8</ele><time>2026-04-03T16:24:12.504Z</time></trkpt><trkpt lat="44.9143193" lon="9.6689624"><ele>165.0</ele><time>2026-04-03T16:24:13.497Z</time></trkpt><trkpt lat="44.9142194" lon="9.6689481"><ele>165.0</ele><time>2026-04-03T16:24:14.492Z</time></trkpt><trkpt lat="44.9141189" lon="9.6689367"><ele>165.0</ele><time>2026-04-03T16:24:15.505Z</time></trkpt><trkpt lat="44.9140178" lon="9.6689292"><ele>165.0</ele><time>2026-04-03T16:24:16.5Z</time></trkpt><trkpt lat="44.9139162" lon="9.668925"><ele>165.0</ele><time>2026-04-03T16:24:17.505Z</time></trkpt><trkpt lat="44.913815" lon="9.6689231"><ele>165.0</ele><time>2026-04-03T16:24:18.496Z</time></trkpt><trkpt lat="44.9137136" lon="9.6689282"><ele>165.0</ele><time>2026-04-03T16:24:19.496Z</time></trkpt><trkpt lat="44.9136082" lon="9.6689373"><ele>165.0</ele><time>2026-04-03T16:24:20.51Z</time></trkpt><trkpt lat="44.9135025" lon="9.6689499"><ele>165.0</ele><time>2026-04-03T16:24:21.501Z</time></trkpt><trkpt lat="44.9133931" lon="9.6689612"><ele>165.0</ele><time>2026-04-03T16:24:22.501Z</time></trkpt><trkpt lat="44.9132823" lon="9.6689683"><ele>165.0</ele><time>2026-04-03T16:24:23.496Z</time></trkpt><trkpt lat="44.9131717" lon="9.6689648"><ele>165.5</ele><time>2026-04-03T16:24:24.496Z</time></trkpt><trkpt lat="44.913062" lon="9.6689441"><ele>166.0</ele><time>2026-04-03T16:24:25.51Z</time></trkpt><trkpt lat="44.9129519" lon="9.6689111"><ele>166.5</ele><time>2026-04-03T16:24:26.496Z</time></trkpt><trkpt lat="44.9128379" lon="9.6688692"><ele>167.0</ele><time>2026-04-03T16:24:27.504Z</time></trkpt><trkpt lat="44.9127179" lon="9.6688213"><ele>167.0</ele><time>2026-04-03T16:24:28.502Z</time></trkpt><trkpt lat="44.9125902" lon="9.6687687"><ele>167.0</ele><time>2026-04-03T16:24:29.501Z</time></trkpt><trkpt lat="44.9124621" lon="9.6687092"><ele>167.0</ele><time>2026-04-03T16:24:30.51Z</time></trkpt><trkpt lat="44.9123332" lon="9.668649"><ele>167.0</ele><time>2026-04-03T16:24:31.501Z</time></trkpt><trkpt lat="44.9122058" lon="9.6685868"><ele>167.25</ele><time>2026-04-03T16:24:32.5Z</time></trkpt><trkpt lat="44.9120797" lon="9.6685247"><ele>167.5</ele><time>2026-04-03T16:24:33.501Z</time></trkpt><trkpt lat="44.9119552" lon="9.6684659"><ele>167.75</ele><time>2026-04-03T16:24:34.503Z</time></trkpt><trkpt lat="44.9118268" lon="9.6684051"><ele>168.0</ele><time>2026-04-03T16:24:35.508Z</time></trkpt><trkpt lat="44.9116998" lon="9.668343"><ele>168.25</ele><time>2026-04-03T16:24:36.5Z</time></trkpt><trkpt lat="44.9115782" lon="9.6682809"><ele>168.5</ele><time>2026-04-03T16:24:37.499Z</time></trkpt><trkpt lat="44.9114583" lon="9.6682227"><ele>168.75</ele><time>2026-04-03T16:24:38.496Z</time></trkpt><trkpt lat="44.9113418" lon="9.6681695"><ele>169.0</ele><time>2026-04-03T16:24:39.508Z</time></trkpt><trkpt lat="44.9112281" lon="9.6681158"><ele>169.0</ele><time>2026-04-03T16:24:40.5Z</time></trkpt><trkpt lat="44.9111179" lon="9.6680603"><ele>169.0</ele><time>2026-04-03T16:24:41.503Z</time></trkpt><trkpt lat="44.911006" lon="9.6680055"><ele>169.0</ele><time>2026-04-03T16:24:42.511Z</time></trkpt><trkpt lat="44.9108915" lon="9.6679588"><ele>169.0</ele><time>2026-04-03T16:24:43.504Z</time></trkpt><trkpt lat="44.910772" lon="9.6679238"><ele>169.25</ele><time>2026-04-03T16:24:44.505Z</time></trkpt><trkpt lat="44.9106512" lon="9.667901"><ele>169.5</ele><time>2026-04-03T16:24:45.503Z</time></trkpt><trkpt lat="44.9105265" lon="9.6678911"><ele>169.75</ele><time>2026-04-03T16:24:46.505Z</time></trkpt><trkpt lat="44.9103954" lon="9.6678869"><ele>170.0</ele><time>2026-04-03T16:24:47.505Z</time></trkpt><trkpt lat="44.9102615" lon="9.6678796"><ele>170.0</ele><time>2026-04-03T16:24:48.5Z</time></trkpt><trkpt lat="44.9101269" lon="9.6678688"><ele>170.0</ele><time>2026-04-03T16:24:49.5Z</time></trkpt><trkpt lat="44.9099913" lon="9.6678588"><ele>170.0</ele><time>2026-04-03T16:24:50.505Z</time></trkpt><trkpt lat="44.909856" lon="9.6678495"><ele>170.0</ele><time>2026-04-03T16:24:51.492Z</time></trkpt><trkpt lat="44.9097191" lon="9.6678374"><ele>170.25</ele><time>2026-04-03T16:24:52.505Z</time></trkpt><trkpt lat="44.9095858" lon="9.6678224"><ele>170.5</ele><time>2026-04-03T16:24:53.5Z</time></trkpt><trkpt lat="44.9094543" lon="9.6678011"><ele>170.75</ele><time>2026-04-03T16:24:54.493Z</time></trkpt><trkpt lat="44.909326" lon="9.6677688"><ele>171.0</ele><time>2026-04-03T16:24:55.5Z</time></trkpt><trkpt lat="44.9092047" lon="9.6677115"><ele>171.5</ele><time>2026-04-03T16:24:56.5Z</time></trkpt><trkpt lat="44.9090907" lon="9.6676395"><ele>172.0</ele><time>2026-04-03T16:24:57.511Z</time></trkpt><trkpt lat="44.9089782" lon="9.6675508"><ele>172.5</ele><time>2026-04-03T16:24:58.507Z</time></trkpt><trkpt lat="44.9088668" lon="9.6674592"><ele>173.0</ele><time>2026-04-03T16:24:59.505Z</time></trkpt><trkpt lat="44.9087585" lon="9.6673684"><ele>173.0</ele><time>2026-04-03T16:25:00.507Z</time></trkpt><trkpt lat="44.9086519" lon="9.6672753"><ele>173.0</ele><time>2026-04-03T16:25:01.496Z</time></trkpt><trkpt lat="44.9085443" lon="9.6671791"><ele>173.0</ele><time>2026-04-03T16:25:02.503Z</time></trkpt><trkpt lat="44.9084393" lon="9.6670768"><ele>173.0</ele><time>2026-04-03T16:25:03.511Z</time></trkpt><trkpt lat="44.9083363" lon="9.6669641"><ele>172.5</ele><time>2026-04-03T16:25:04.501Z</time></trkpt><trkpt lat="44.9082382" lon="9.6668394"><ele>172.0</ele><time>2026-04-03T16:25:05.497Z</time></trkpt><trkpt lat="44.9081359" lon="9.6667106"><ele>171.5</ele><time>2026-04-03T16:25:06.493Z</time></trkpt><trkpt lat="44.9080318" lon="9.666579"><ele>171.0</ele><time>2026-04-03T16:25:07.505Z</time></trkpt><trkpt lat="44.9079285" lon="9.6664529"><ele>171.0</ele><time>2026-04-03T16:25:08.509Z</time></trkpt><trkpt lat="44.9078324" lon="9.6663364"><ele>171.0</ele><time>2026-04-03T16:25:09.503Z</time></trkpt><trkpt lat="44.9077477" lon="9.6662346"><ele>171.0</ele><time>2026-04-03T16:25:10.508Z</time></trkpt><trkpt lat="44.9076805" lon="9.6661596"><ele>171.0</ele><time>2026-04-03T16:25:11.504Z</time></trkpt><trkpt lat="44.9075725" lon="9.6661322"><ele>171.0</ele><time>2026-04-03T16:25:13.516Z</time></trkpt><trkpt lat="44.907476" lon="9.6662469"><ele>171.25</ele><time>2026-04-03T16:25:15.492Z</time></trkpt><trkpt lat="44.9074093" lon="9.6663394"><ele>171.5</ele><time>2026-04-03T16:25:16.491Z</time></trkpt><trkpt lat="44.9073289" lon="9.6664518"><ele>171.75</ele><time>2026-04-03T16:25:17.514Z</time></trkpt><trkpt lat="44.9072449" lon="9.6665713"><ele>172.0</ele><time>2026-04-03T16:25:18.489Z</time></trkpt><trkpt lat="44.907152" lon="9.6666952"><ele>172.0</ele><time>2026-04-03T16:25:19.51Z</time></trkpt><trkpt lat="44.9070595" lon="9.6668182"><ele>172.0</ele><time>2026-04-03T16:25:20.496Z</time></trkpt><trkpt lat="44.906968" lon="9.6669417"><ele>172.0</ele><time>2026-04-03T16:25:21.503Z</time></trkpt><trkpt lat="44.906874" lon="9.6670661"><ele>172.0</ele><time>2026-04-03T16:25:22.495Z</time></trkpt><trkpt lat="44.9067788" lon="9.6671869"><ele>172.5</ele><time>2026-04-03T16:25:23.506Z</time></trkpt><trkpt lat="44.9066818" lon="9.6673052"><ele>173.0</ele><time>2026-04-03T16:25:24.5Z</time></trkpt><trkpt lat="44.9065855" lon="9.6674212"><ele>173.5</ele><time>2026-04-03T16:25:25.507Z</time></trkpt><trkpt lat="44.9064898" lon="9.6675345"><ele>174.0</ele><time>2026-04-03T16:25:26.495Z</time></trkpt><trkpt lat="44.9063969" lon="9.6676489"><ele>174.0</ele><time>2026-04-03T16:25:27.492Z</time></trkpt><trkpt lat="44.9063097" lon="9.6677635"><ele>174.0</ele><time>2026-04-03T16:25:28.501Z</time></trkpt><trkpt lat="44.9062296" lon="9.6678793"><ele>174.0</ele><time>2026-04-03T16:25:29.508Z</time></trkpt><trkpt lat="44.9061581" lon="9.667983"><ele>174.0</ele><time>2026-04-03T16:25:30.506Z</time></trkpt><trkpt lat="44.9060986" lon="9.6680683"><ele>174.0</ele><time>2026-04-03T16:25:31.508Z</time></trkpt><trkpt lat="44.9060524" lon="9.6681352"><ele>174.0</ele><time>2026-04-03T16:25:32.509Z</time></trkpt><trkpt lat="44.9059846" lon="9.6682383"><ele>174.0</ele><time>2026-04-03T16:25:34.508Z</time></trkpt><trkpt lat="44.9059412" lon="9.6683899"><ele>174.0</ele><time>2026-04-03T16:25:36.506Z</time></trkpt><trkpt lat="44.9059233" lon="9.6684939"><ele>174.0</ele><time>2026-04-03T16:25:37.51Z</time></trkpt><trkpt lat="44.9059083" lon="9.6686116"><ele>174.0</ele><time>2026-04-03T16:25:38.518Z</time></trkpt><trkpt lat="44.9058943" lon="9.6687236"><ele>173.5</ele><time>2026-04-03T16:25:39.512Z</time></trkpt><trkpt lat="44.9058773" lon="9.668816"><ele>173.0</ele><time>2026-04-03T16:25:40.518Z</time></trkpt><trkpt lat="44.9058163" lon="9.6688737"><ele>172.5</ele><time>2026-04-03T16:25:43.501Z</time></trkpt><trkpt lat="44.9057431" lon="9.668868"><ele>172.0</ele><time>2026-04-03T16:25:45.503Z</time></trkpt><trkpt lat="44.905632" lon="9.6688013"><ele>171.5</ele><time>2026-04-03T16:25:47.506Z</time></trkpt><trkpt lat="44.9055744" lon="9.6687591"><ele>171.0</ele><time>2026-04-03T16:25:48.498Z</time></trkpt><trkpt lat="44.9055125" lon="9.6687131"><ele>171.0</ele><time>2026-04-03T16:25:49.506Z</time></trkpt><trkpt lat="44.9054472" lon="9.6686643"><ele>171.0</ele><time>2026-04-03T16:25:50.498Z</time></trkpt><trkpt lat="44.9053812" lon="9.6686054"><ele>171.0</ele><time>2026-04-03T16:25:51.504Z</time></trkpt><trkpt lat="44.9053144" lon="9.6685412"><ele>171.0</ele><time>2026-04-03T16:25:52.498Z</time></trkpt><trkpt lat="44.9052468" lon="9.668472"><ele>171.0</ele><time>2026-04-03T16:25:53.507Z</time></trkpt><trkpt lat="44.9051776" lon="9.6684028"><ele>171.0</ele><time>2026-04-03T16:25:54.496Z</time></trkpt><trkpt lat="44.9051067" lon="9.6683292"><ele>171.8</ele><time>2026-04-03T16:25:55.509Z</time></trkpt><trkpt lat="44.905038" lon="9.6682504"><ele>172.60000000000002</ele><time>2026-04-03T16:25:56.495Z</time></trkpt><trkpt lat="44.9049727" lon="9.6681669"><ele>173.4</ele><time>2026-04-03T16:25:57.505Z</time></trkpt><trkpt lat="44.9049114" lon="9.6680759"><ele>174.2</ele><time>2026-04-03T16:25:58.501Z</time></trkpt><trkpt lat="44.9048501" lon="9.6679752"><ele>175.0</ele><time>2026-04-03T16:25:59.503Z</time></trkpt><trkpt lat="44.9047887" lon="9.6678658"><ele>175.83333333333334</ele><time>2026-04-03T16:26:00.496Z</time></trkpt><trkpt lat="44.9047279" lon="9.6677592"><ele>176.66666666666669</ele><time>2026-04-03T16:26:01.501Z</time></trkpt><trkpt lat="44.9046727" lon="9.6676639"><ele>177.5</ele><time>2026-04-03T16:26:02.491Z</time></trkpt><trkpt lat="44.9046241" lon="9.667581"><ele>178.33333333333334</ele><time>2026-04-03T16:26:03.508Z</time></trkpt><trkpt lat="44.9045805" lon="9.6675067"><ele>179.16666666666666</ele><time>2026-04-03T16:26:04.513Z</time></trkpt><trkpt lat="44.9045407" lon="9.6674343"><ele>180.0</ele><time>2026-04-03T16:26:05.499Z</time></trkpt><trkpt lat="44.9045005" lon="9.6673628"><ele>180.0</ele><time>2026-04-03T16:26:06.503Z</time></trkpt><trkpt lat="44.9044564" lon="9.6672899"><ele>180.0</ele><time>2026-04-03T16:26:07.503Z</time></trkpt><trkpt lat="44.9044031" lon="9.6672265"><ele>180.0</ele><time>2026-04-03T16:26:08.505Z</time></trkpt><trkpt lat="44.9043357" lon="9.6671726"><ele>180.0</ele><time>2026-04-03T16:26:09.506Z</time></trkpt><trkpt lat="44.9042566" lon="9.6671168"><ele>180.0</ele><time>2026-04-03T16:26:10.503Z</time></trkpt><trkpt lat="44.904158" lon="9.6670633"><ele>180.0</ele><time>2026-04-03T16:26:11.491Z</time></trkpt><trkpt lat="44.9040472" lon="9.6670216"><ele>179.2</ele><time>2026-04-03T16:26:12.502Z</time></trkpt><trkpt lat="44.9039347" lon="9.666993"><ele>178.4</ele><time>2026-04-03T16:26:13.49Z</time></trkpt><trkpt lat="44.9038228" lon="9.666976"><ele>177.60000000000002</ele><time>2026-04-03T16:26:14.507Z</time></trkpt><trkpt lat="44.903723" lon="9.6669722"><ele>176.8</ele><time>2026-04-03T16:26:15.503Z</time></trkpt><trkpt lat="44.9036403" lon="9.6669768"><ele>176.0</ele><time>2026-04-03T16:26:16.488Z</time></trkpt><trkpt lat="44.9035678" lon="9.666981"><ele>176.0</ele><time>2026-04-03T16:26:17.501Z</time></trkpt><trkpt lat="44.9034922" lon="9.6669665"><ele>176.0</ele><time>2026-04-03T16:26:18.496Z</time></trkpt><trkpt lat="44.9034069" lon="9.6669418"><ele>176.0</ele><time>2026-04-03T16:26:19.498Z</time></trkpt><trkpt lat="44.9033206" lon="9.6669056"><ele>176.0</ele><time>2026-04-03T16:26:20.49Z</time></trkpt><trkpt lat="44.9032383" lon="9.6668597"><ele>176.0</ele><time>2026-04-03T16:26:21.494Z</time></trkpt><trkpt lat="44.903163" lon="9.6668022"><ele>176.0</ele><time>2026-04-03T16:26:22.496Z</time></trkpt><trkpt lat="44.9030961" lon="9.6667357"><ele>176.5</ele><time>2026-04-03T16:26:23.495Z</time></trkpt><trkpt lat="44.9030368" lon="9.6666617"><ele>177.0</ele><time>2026-04-03T16:26:24.501Z</time></trkpt><trkpt lat="44.9029855" lon="9.6665815"><ele>177.5</ele><time>2026-04-03T16:26:25.491Z</time></trkpt><trkpt lat="44.9029426" lon="9.6664946"><ele>178.0</ele><time>2026-04-03T16:26:26.492Z</time></trkpt><trkpt lat="44.9029025" lon="9.6663977"><ele>178.5</ele><time>2026-04-03T16:26:27.501Z</time></trkpt><trkpt lat="44.9028578" lon="9.666301"><ele>179.0</ele><time>2026-04-03T16:26:28.501Z</time></trkpt><trkpt lat="44.902811" lon="9.6662134"><ele>179.5</ele><time>2026-04-03T16:26:29.501Z</time></trkpt><trkpt lat="44.9027505" lon="9.6660967"><ele>180.0</ele><time>2026-04-03T16:26:31.497Z</time></trkpt><trkpt lat="44.9027391" lon="9.6659895"><ele>180.5</ele><time>2026-04-03T16:26:35.492Z</time></trkpt><trkpt lat="44.9028002" lon="9.6659672"><ele>181.0</ele><time>2026-04-03T16:26:37.495Z</time></trkpt><trkpt lat="44.9028941" lon="9.6659801"><ele>181.5</ele><time>2026-04-03T16:26:39.503Z</time></trkpt><trkpt lat="44.9029943" lon="9.665938"><ele>182.0</ele><time>2026-04-03T16:26:41.513Z</time></trkpt><trkpt lat="44.9030607" lon="9.6658265"><ele>182.0</ele><time>2026-04-03T16:26:43.497Z</time></trkpt><trkpt lat="44.9030949" lon="9.6657433"><ele>182.0</ele><time>2026-04-03T16:26:44.502Z</time></trkpt><trkpt lat="44.9031313" lon="9.6656455"><ele>182.0</ele><time>2026-04-03T16:26:45.503Z</time></trkpt><trkpt lat="44.9031735" lon="9.6655546"><ele>182.0</ele><time>2026-04-03T16:26:46.508Z</time></trkpt><trkpt lat="44.9032229" lon="9.6654599"><ele>182.0</ele><time>2026-04-03T16:26:47.493Z</time></trkpt><trkpt lat="44.9032738" lon="9.6653597"><ele>182.0</ele><time>2026-04-03T16:26:48.497Z</time></trkpt><trkpt lat="44.9033248" lon="9.6652597"><ele>182.0</ele><time>2026-04-03T16:26:49.5Z</time></trkpt><trkpt lat="44.9033696" lon="9.6651617"><ele>182.0</ele><time>2026-04-03T16:26:50.498Z</time></trkpt><trkpt lat="44.9034044" lon="9.6650702"><ele>182.0</ele><time>2026-04-03T16:26:51.509Z</time></trkpt><trkpt lat="44.9034537" lon="9.6649097"><ele>182.0</ele><time>2026-04-03T16:26:53.513Z</time></trkpt><trkpt lat="44.9034757" lon="9.6648229"><ele>182.0</ele><time>2026-04-03T16:26:54.492Z</time></trkpt><trkpt lat="44.9035008" lon="9.6647264"><ele>182.0</ele><time>2026-04-03T16:26:55.5Z</time></trkpt><trkpt lat="44.9035287" lon="9.6646332"><ele>182.0</ele><time>2026-04-03T16:26:56.493Z</time></trkpt><trkpt lat="44.9035569" lon="9.6645421"><ele>182.0</ele><time>2026-04-03T16:26:57.489Z</time></trkpt><trkpt lat="44.9035852" lon="9.6644511"><ele>182.0</ele><time>2026-04-03T16:26:58.499Z</time></trkpt><trkpt lat="44.9036152" lon="9.6643642"><ele>182.0</ele><time>2026-04-03T16:26:59.499Z</time></trkpt><trkpt lat="44.9036442" lon="9.6642705"><ele>182.0</ele><time>2026-04-03T16:27:00.502Z</time></trkpt><trkpt lat="44.9036732" lon="9.664168"><ele>182.0</ele><time>2026-04-03T16:27:01.495Z</time></trkpt><trkpt lat="44.9037035" lon="9.6640604"><ele>182.0</ele><time>2026-04-03T16:27:02.489Z</time></trkpt><trkpt lat="44.9037308" lon="9.6639522"><ele>181.83333333333331</ele><time>2026-04-03T16:27:03.497Z</time></trkpt><trkpt lat="44.9037584" lon="9.6638446"><ele>181.66666666666666</ele><time>2026-04-03T16:27:04.501Z</time></trkpt><trkpt lat="44.9037847" lon="9.6637366"><ele>181.5</ele><time>2026-04-03T16:27:05.503Z</time></trkpt><trkpt lat="44.9038115" lon="9.6636324"><ele>181.33333333333334</ele><time>2026-04-03T16:27:06.49Z</time></trkpt><trkpt lat="44.903837" lon="9.6635292"><ele>181.16666666666669</ele><time>2026-04-03T16:27:07.486Z</time></trkpt><trkpt lat="44.9038581" lon="9.663429"><ele>181.0</ele><time>2026-04-03T16:27:08.488Z</time></trkpt><trkpt lat="44.9038756" lon="9.663335"><ele>180.8</ele><time>2026-04-03T16:27:09.486Z</time></trkpt><trkpt lat="44.9038939" lon="9.6631883"><ele>180.60000000000002</ele><time>2026-04-03T16:27:11.491Z</time></trkpt><trkpt lat="44.9038583" lon="9.6630743"><ele>180.4</ele><time>2026-04-03T16:27:25.491Z</time></trkpt><trkpt lat="44.9037813" lon="9.6630611"><ele>180.2</ele><time>2026-04-03T16:27:26.498Z</time></trkpt><trkpt lat="44.9036671" lon="9.6630591"><ele>180.0</ele><time>2026-04-03T16:27:27.494Z</time></trkpt><trkpt lat="44.9035308" lon="9.6630664"><ele>180.33333333333334</ele><time>2026-04-03T16:27:28.494Z</time></trkpt><trkpt lat="44.9033747" lon="9.663074"><ele>180.66666666666669</ele><time>2026-04-03T16:27:29.493Z</time></trkpt><trkpt lat="44.9032069" lon="9.6630796"><ele>181.0</ele><time>2026-04-03T16:27:30.496Z</time></trkpt><trkpt lat="44.90304" lon="9.6630837"><ele>181.0</ele><time>2026-04-03T16:27:31.493Z</time></trkpt><trkpt lat="44.9028738" lon="9.6630761"><ele>181.0</ele><time>2026-04-03T16:27:32.496Z</time></trkpt><trkpt lat="44.9027073" lon="9.6630508"><ele>181.0</ele><time>2026-04-03T16:27:33.503Z</time></trkpt><trkpt lat="44.9025412" lon="9.663002"><ele>181.33333333333334</ele><time>2026-04-03T16:27:34.493Z</time></trkpt><trkpt lat="44.9023771" lon="9.6629366"><ele>181.66666666666666</ele><time>2026-04-03T16:27:35.492Z</time></trkpt><trkpt lat="44.902215" lon="9.6628556"><ele>182.0</ele><time>2026-04-03T16:27:36.49Z</time></trkpt><trkpt lat="44.9020507" lon="9.6627659"><ele>182.0</ele><time>2026-04-03T16:27:37.489Z</time></trkpt><trkpt lat="44.901885" lon="9.6626742"><ele>182.0</ele><time>2026-04-03T16:27:38.494Z</time></trkpt><trkpt lat="44.9017238" lon="9.6625833"><ele>182.0</ele><time>2026-04-03T16:27:39.489Z</time></trkpt><trkpt lat="44.9015642" lon="9.6624957"><ele>182.0</ele><time>2026-04-03T16:27:40.498Z</time></trkpt><trkpt lat="44.9014058" lon="9.6624052"><ele>182.0</ele><time>2026-04-03T16:27:41.492Z</time></trkpt><trkpt lat="44.9012526" lon="9.6623085"><ele>182.0</ele><time>2026-04-03T16:27:42.493Z</time></trkpt><trkpt lat="44.9011067" lon="9.6621955"><ele>182.0</ele><time>2026-04-03T16:27:43.494Z</time></trkpt><trkpt lat="44.9009671" lon="9.6620758"><ele>182.0</ele><time>2026-04-03T16:27:44.488Z</time></trkpt><trkpt lat="44.9008358" lon="9.6619618"><ele>182.0</ele><time>2026-04-03T16:27:45.496Z</time></trkpt><trkpt lat="44.9007064" lon="9.6618528"><ele>183.33333333333331</ele><time>2026-04-03T16:27:46.489Z</time></trkpt><trkpt lat="44.900574" lon="9.6617481"><ele>184.66666666666666</ele><time>2026-04-03T16:27:47.496Z</time></trkpt><trkpt lat="44.9004339" lon="9.6616525"><ele>186.0</ele><time>2026-04-03T16:27:48.49Z</time></trkpt><trkpt lat="44.900292" lon="9.6615608"><ele>186.0</ele><time>2026-04-03T16:27:49.49Z</time></trkpt><trkpt lat="44.9001508" lon="9.6614698"><ele>186.0</ele><time>2026-04-03T16:27:50.494Z</time></trkpt><trkpt lat="44.9000106" lon="9.6613804"><ele>186.0</ele><time>2026-04-03T16:27:51.492Z</time></trkpt><trkpt lat="44.8998737" lon="9.6612949"><ele>186.0</ele><time>2026-04-03T16:27:52.499Z</time></trkpt><trkpt lat="44.8997393" lon="9.6612137"><ele>186.0</ele><time>2026-04-03T16:27:53.496Z</time></trkpt><trkpt lat="44.8996063" lon="9.6611305"><ele>186.0</ele><time>2026-04-03T16:27:54.49Z</time></trkpt><trkpt lat="44.899479" lon="9.6610473"><ele>186.0</ele><time>2026-04-03T16:27:55.495Z</time></trkpt><trkpt lat="44.8993552" lon="9.6609598"><ele>186.75</ele><time>2026-04-03T16:27:56.498Z</time></trkpt><trkpt lat="44.8992375" lon="9.660875"><ele>187.5</ele><time>2026-04-03T16:27:57.496Z</time></trkpt><trkpt lat="44.8991269" lon="9.6607947"><ele>188.25</ele><time>2026-04-03T16:27:58.493Z</time></trkpt><trkpt lat="44.8990232" lon="9.6607142"><ele>189.0</ele><time>2026-04-03T16:27:59.495Z</time></trkpt><trkpt lat="44.8989282" lon="9.660635"><ele>189.0</ele><time>2026-04-03T16:28:00.489Z</time></trkpt><trkpt lat="44.8988398" lon="9.6605597"><ele>189.0</ele><time>2026-04-03T16:28:01.492Z</time></trkpt><trkpt lat="44.8987554" lon="9.6604897"><ele>189.0</ele><time>2026-04-03T16:28:02.494Z</time></trkpt><trkpt lat="44.8986753" lon="9.6604226"><ele>189.0</ele><time>2026-04-03T16:28:03.496Z</time></trkpt><trkpt lat="44.8986026" lon="9.6603581"><ele>189.0</ele><time>2026-04-03T16:28:04.498Z</time></trkpt><trkpt lat="44.8985373" lon="9.6603003"><ele>188.79999999999998</ele><time>2026-04-03T16:28:05.494Z</time></trkpt><trkpt lat="44.8984742" lon="9.6602491"><ele>188.6</ele><time>2026-04-03T16:28:07.493Z</time></trkpt><trkpt lat="44.8983945" lon="9.6601782"><ele>188.4</ele><time>2026-04-03T16:28:11.491Z</time></trkpt><trkpt lat="44.8982943" lon="9.6600991"><ele>188.2</ele><time>2026-04-03T16:28:13.495Z</time></trkpt><trkpt lat="44.8981885" lon="9.6600033"><ele>188.0</ele><time>2026-04-03T16:28:15.49Z</time></trkpt><trkpt lat="44.8981279" lon="9.6599466"><ele>188.0</ele><time>2026-04-03T16:28:16.49Z</time></trkpt><trkpt lat="44.8980628" lon="9.659884"><ele>188.0</ele><time>2026-04-03T16:28:17.494Z</time></trkpt><trkpt lat="44.8979904" lon="9.6598154"><ele>188.0</ele><time>2026-04-03T16:28:18.497Z</time></trkpt><trkpt lat="44.897919" lon="9.6597477"><ele>188.0</ele><time>2026-04-03T16:28:19.496Z</time></trkpt><trkpt lat="44.8978535" lon="9.6596802"><ele>188.0</ele><time>2026-04-03T16:28:20.496Z</time></trkpt><trkpt lat="44.8977818" lon="9.6596066"><ele>188.0</ele><time>2026-04-03T16:28:21.49Z</time></trkpt><trkpt lat="44.8977055" lon="9.6595303"><ele>188.0</ele><time>2026-04-03T16:28:22.491Z</time></trkpt><trkpt lat="44.89762" lon="9.6594524"><ele>188.0</ele><time>2026-04-03T16:28:23.488Z</time></trkpt><trkpt lat="44.8975263" lon="9.6593734"><ele>188.0</ele><time>2026-04-03T16:28:24.485Z</time></trkpt><trkpt lat="44.8974267" lon="9.6592928"><ele>188.0</ele><time>2026-04-03T16:28:25.49Z</time></trkpt><trkpt lat="44.8973199" lon="9.6592105"><ele>188.0</ele><time>2026-04-03T16:28:26.493Z</time></trkpt><trkpt lat="44.8972078" lon="9.6591221"><ele>189.0</ele><time>2026-04-03T16:28:27.495Z</time></trkpt><trkpt lat="44.8970964" lon="9.659038"><ele>190.0</ele><time>2026-04-03T16:28:28.489Z</time></trkpt><trkpt lat="44.8969868" lon="9.6589581"><ele>191.0</ele><time>2026-04-03T16:28:29.491Z</time></trkpt><trkpt lat="44.8968807" lon="9.6588794"><ele>192.0</ele><time>2026-04-03T16:28:30.493Z</time></trkpt><trkpt lat="44.8967782" lon="9.6588061"><ele>192.25</ele><time>2026-04-03T16:28:31.49Z</time></trkpt><trkpt lat="44.8966761" lon="9.65873"><ele>192.5</ele><time>2026-04-03T16:28:32.492Z</time></trkpt><trkpt lat="44.8965735" lon="9.6586479"><ele>192.75</ele><time>2026-04-03T16:28:33.491Z</time></trkpt><trkpt lat="44.8964689" lon="9.6585609"><ele>193.0</ele><time>2026-04-03T16:28:34.495Z</time></trkpt><trkpt lat="44.896362" lon="9.6584727"><ele>193.5</ele><time>2026-04-03T16:28:35.491Z</time></trkpt><trkpt lat="44.8962562" lon="9.6583842"><ele>194.0</ele><time>2026-04-03T16:28:36.489Z</time></trkpt><trkpt lat="44.8961539" lon="9.6582896"><ele>194.5</ele><time>2026-04-03T16:28:37.495Z</time></trkpt><trkpt lat="44.8960545" lon="9.6581885"><ele>195.0</ele><time>2026-04-03T16:28:38.495Z</time></trkpt><trkpt lat="44.8959572" lon="9.6580861"><ele>194.75</ele><time>2026-04-03T16:28:39.495Z</time></trkpt><trkpt lat="44.8958596" lon="9.6579847"><ele>194.5</ele><time>2026-04-03T16:28:40.49Z</time></trkpt><trkpt lat="44.8957583" lon="9.6578896"><ele>194.25</ele><time>2026-04-03T16:28:41.493Z</time></trkpt><trkpt lat="44.8956517" lon="9.6578019"><ele>194.0</ele><time>2026-04-03T16:28:42.496Z</time></trkpt><trkpt lat="44.8955402" lon="9.6577208"><ele>193.75</ele><time>2026-04-03T16:28:43.5Z</time></trkpt><trkpt lat="44.8954258" lon="9.6576397"><ele>193.5</ele><time>2026-04-03T16:28:44.494Z</time></trkpt><trkpt lat="44.8953036" lon="9.6575508"><ele>193.25</ele><time>2026-04-03T16:28:45.491Z</time></trkpt><trkpt lat="44.8951705" lon="9.657455"><ele>193.0</ele><time>2026-04-03T16:28:46.493Z</time></trkpt><trkpt lat="44.8950278" lon="9.6573537"><ele>195.0</ele><time>2026-04-03T16:28:47.494Z</time></trkpt><trkpt lat="44.8948789" lon="9.6572464"><ele>197.0</ele><time>2026-04-03T16:28:48.498Z</time></trkpt><trkpt lat="44.8947258" lon="9.657134"><ele>199.0</ele><time>2026-04-03T16:28:49.491Z</time></trkpt><trkpt lat="44.894569" lon="9.657016"><ele>198.66666666666666</ele><time>2026-04-03T16:28:50.491Z</time></trkpt><trkpt lat="44.8944081" lon="9.6568969"><ele>198.33333333333331</ele><time>2026-04-03T16:28:51.491Z</time></trkpt><trkpt lat="44.8942479" lon="9.656779"><ele>198.0</ele><time>2026-04-03T16:28:52.493Z</time></trkpt><trkpt lat="44.8940936" lon="9.6566677"><ele>198.0</ele><time>2026-04-03T16:28:53.492Z</time></trkpt><trkpt lat="44.8939456" lon="9.6565602"><ele>198.0</ele><time>2026-04-03T16:28:54.488Z</time></trkpt><trkpt lat="44.8938023" lon="9.6564551"><ele>198.0</ele><time>2026-04-03T16:28:55.497Z</time></trkpt><trkpt lat="44.8936675" lon="9.6563564"><ele>198.0</ele><time>2026-04-03T16:28:56.502Z</time></trkpt><trkpt lat="44.8935441" lon="9.6562667"><ele>198.0</ele><time>2026-04-03T16:28:57.488Z</time></trkpt><trkpt lat="44.8934377" lon="9.6561902"><ele>198.0</ele><time>2026-04-03T16:28:58.5Z</time></trkpt><trkpt lat="44.8933502" lon="9.6561306"><ele>198.0</ele><time>2026-04-03T16:28:59.49Z</time></trkpt><trkpt lat="44.8932697" lon="9.6560859"><ele>198.0</ele><time>2026-04-03T16:29:00.497Z</time></trkpt><trkpt lat="44.893178" lon="9.6560723"><ele>198.25</ele><time>2026-04-03T16:29:01.492Z</time></trkpt><trkpt lat="44.8930737" lon="9.6560763"><ele>198.5</ele><time>2026-04-03T16:29:02.49Z</time></trkpt><trkpt lat="44.8929657" lon="9.6560705"><ele>198.75</ele><time>2026-04-03T16:29:03.496Z</time></trkpt><trkpt lat="44.8928478" lon="9.6560527"><ele>199.0</ele><time>2026-04-03T16:29:04.489Z</time></trkpt><trkpt lat="44.8927264" lon="9.6560379"><ele>199.0</ele><time>2026-04-03T16:29:05.499Z</time></trkpt><trkpt lat="44.8926045" lon="9.656042"><ele>199.0</ele><time>2026-04-03T16:29:06.498Z</time></trkpt><trkpt lat="44.8924851" lon="9.6560576"><ele>199.0</ele><time>2026-04-03T16:29:07.5Z</time></trkpt><trkpt lat="44.8923696" lon="9.656076"><ele>199.0</ele><time>2026-04-03T16:29:08.496Z</time></trkpt><trkpt lat="44.8922612" lon="9.6560897"><ele>199.0</ele><time>2026-04-03T16:29:09.49Z</time></trkpt><trkpt lat="44.8921613" lon="9.6560848"><ele>199.0</ele><time>2026-04-03T16:29:10.487Z</time></trkpt><trkpt lat="44.8920664" lon="9.6560551"><ele>199.0</ele><time>2026-04-03T16:29:11.489Z</time></trkpt><trkpt lat="44.8919729" lon="9.6560007"><ele>199.0</ele><time>2026-04-03T16:29:12.496Z</time></trkpt><trkpt lat="44.8918788" lon="9.6559252"><ele>199.0</ele><time>2026-04-03T16:29:13.488Z</time></trkpt><trkpt lat="44.8917869" lon="9.6558293"><ele>198.0</ele><time>2026-04-03T16:29:14.495Z</time></trkpt><trkpt lat="44.8917001" lon="9.6557141"><ele>197.0</ele><time>2026-04-03T16:29:15.487Z</time></trkpt><trkpt lat="44.89162" lon="9.6555929"><ele>196.0</ele><time>2026-04-03T16:29:16.491Z</time></trkpt><trkpt lat="44.8915447" lon="9.6554731"><ele>195.0</ele><time>2026-04-03T16:29:17.495Z</time></trkpt><trkpt lat="44.8914708" lon="9.6553545"><ele>195.66666666666666</ele><time>2026-04-03T16:29:18.486Z</time></trkpt><trkpt lat="44.8914021" lon="9.6552352"><ele>196.33333333333331</ele><time>2026-04-03T16:29:19.496Z</time></trkpt><trkpt lat="44.8913396" lon="9.6551178"><ele>197.0</ele><time>2026-04-03T16:29:20.492Z</time></trkpt><trkpt lat="44.8912821" lon="9.6550184"><ele>197.66666666666666</ele><time>2026-04-03T16:29:21.49Z</time></trkpt><trkpt lat="44.8912344" lon="9.6549402"><ele>198.33333333333331</ele><time>2026-04-03T16:29:22.495Z</time></trkpt><trkpt lat="44.8911953" lon="9.6548696"><ele>199.0</ele><time>2026-04-03T16:29:23.495Z</time></trkpt><trkpt lat="44.8911208" lon="9.6547213"><ele>199.0</ele><time>2026-04-03T16:29:25.491Z</time></trkpt><trkpt lat="44.8910804" lon="9.6546248"><ele>199.0</ele><time>2026-04-03T16:29:26.496Z</time></trkpt><trkpt lat="44.8910343" lon="9.6545161"><ele>199.0</ele><time>2026-04-03T16:29:27.489Z</time></trkpt><trkpt lat="44.8909815" lon="9.6543943"><ele>199.0</ele><time>2026-04-03T16:29:28.488Z</time></trkpt><trkpt lat="44.8909244" lon="9.6542783"><ele>199.0</ele><time>2026-04-03T16:29:29.486Z</time></trkpt><trkpt lat="44.8908609" lon="9.6541707"><ele>198.6</ele><time>2026-04-03T16:29:30.492Z</time></trkpt><trkpt lat="44.8907876" lon="9.6540685"><ele>198.2</ele><time>2026-04-03T16:29:31.487Z</time></trkpt><trkpt lat="44.8907086" lon="9.653971"><ele>197.79999999999998</ele><time>2026-04-03T16:29:32.492Z</time></trkpt><trkpt lat="44.890623" lon="9.6538764"><ele>197.39999999999998</ele><time>2026-04-03T16:29:33.495Z</time></trkpt><trkpt lat="44.8905374" lon="9.6537876"><ele>197.0</ele><time>2026-04-03T16:29:34.496Z</time></trkpt><trkpt lat="44.8904502" lon="9.6537028"><ele>197.0</ele><time>2026-04-03T16:29:35.5Z</time></trkpt><trkpt lat="44.8903612" lon="9.6536264"><ele>197.0</ele><time>2026-04-03T16:29:36.488Z</time></trkpt><trkpt lat="44.890274" lon="9.653553"><ele>197.0</ele><time>2026-04-03T16:29:37.49Z</time></trkpt><trkpt lat="44.8901872" lon="9.6534674"><ele>197.0</ele><time>2026-04-03T16:29:38.49Z</time></trkpt><trkpt lat="44.8901008" lon="9.653373"><ele>197.0</ele><time>2026-04-03T16:29:39.487Z</time></trkpt><trkpt lat="44.8900148" lon="9.6532761"><ele>195.75</ele><time>2026-04-03T16:29:40.5Z</time></trkpt><trkpt lat="44.8899294" lon="9.6531762"><ele>194.5</ele><time>2026-04-03T16:29:41.495Z</time></trkpt><trkpt lat="44.8898429" lon="9.6530766"><ele>193.25</ele><time>2026-04-03T16:29:42.489Z</time></trkpt><trkpt lat="44.8897561" lon="9.6529695"><ele>192.0</ele><time>2026-04-03T16:29:43.495Z</time></trkpt><trkpt lat="44.8896571" lon="9.6528484"><ele>193.33333333333331</ele><time>2026-04-03T16:29:44.489Z</time></trkpt><trkpt lat="44.8895376" lon="9.6527071"><ele>194.66666666666666</ele><time>2026-04-03T16:29:45.497Z</time></trkpt><trkpt lat="44.8894039" lon="9.6525525"><ele>196.0</ele><time>2026-04-03T16:29:46.492Z</time></trkpt><trkpt lat="44.8892683" lon="9.6523879"><ele>193.66666666666666</ele><time>2026-04-03T16:29:47.493Z</time></trkpt><trkpt lat="44.8891315" lon="9.6522303"><ele>191.33333333333331</ele><time>2026-04-03T16:29:48.496Z</time></trkpt><trkpt lat="44.8889935" lon="9.6520902"><ele>189.0</ele><time>2026-04-03T16:29:49.487Z</time></trkpt><trkpt lat="44.888852" lon="9.651981"><ele>189.66666666666666</ele><time>2026-04-03T16:29:50.497Z</time></trkpt><trkpt lat="44.8886971" lon="9.6519035"><ele>190.33333333333331</ele><time>2026-04-03T16:29:51.485Z</time></trkpt><trkpt lat="44.888541" lon="9.65184"><ele>191.0</ele><time>2026-04-03T16:29:52.492Z</time></trkpt><trkpt lat="44.8883857" lon="9.651778"><ele>191.0</ele><time>2026-04-03T16:29:53.491Z</time></trkpt><trkpt lat="44.8882344" lon="9.6517203"><ele>191.0</ele><time>2026-04-03T16:29:54.501Z</time></trkpt><trkpt lat="44.8880884" lon="9.651662"><ele>191.0</ele><time>2026-04-03T16:29:55.497Z</time></trkpt><trkpt lat="44.8879431" lon="9.6515914"><ele>191.0</ele><time>2026-04-03T16:29:56.5Z</time></trkpt><trkpt lat="44.8878014" lon="9.6515031"><ele>191.0</ele><time>2026-04-03T16:29:57.5Z</time></trkpt><trkpt lat="44.8876674" lon="9.6514014"><ele>191.0</ele><time>2026-04-03T16:29:58.509Z</time></trkpt><trkpt lat="44.8875354" lon="9.6513035"><ele>190.0</ele><time>2026-04-03T16:29:59.49Z</time></trkpt><trkpt lat="44.8874045" lon="9.6512244"><ele>189.0</ele><time>2026-04-03T16:30:00.495Z</time></trkpt><trkpt lat="44.8872683" lon="9.6511716"><ele>188.0</ele><time>2026-04-03T16:30:01.485Z</time></trkpt><trkpt lat="44.8871246" lon="9.6511472"><ele>187.0</ele><time>2026-04-03T16:30:02.483Z</time></trkpt><trkpt lat="44.8869758" lon="9.6511508"><ele>187.0</ele><time>2026-04-03T16:30:03.49Z</time></trkpt><trkpt lat="44.8868237" lon="9.651175"><ele>187.0</ele><time>2026-04-03T16:30:04.494Z</time></trkpt><trkpt lat="44.8866675" lon="9.651221"><ele>187.0</ele><time>2026-04-03T16:30:05.488Z</time></trkpt><trkpt lat="44.8865091" lon="9.6512853"><ele>187.0</ele><time>2026-04-03T16:30:06.491Z</time></trkpt><trkpt lat="44.8863659" lon="9.6513458"><ele>187.0</ele><time>2026-04-03T16:30:07.492Z</time></trkpt><trkpt lat="44.8862296" lon="9.651394"><ele>187.0</ele><time>2026-04-03T16:30:08.503Z</time></trkpt><trkpt lat="44.8860984" lon="9.6514232"><ele>187.0</ele><time>2026-04-03T16:30:09.492Z</time></trkpt><trkpt lat="44.8859709" lon="9.651421"><ele>187.5</ele><time>2026-04-03T16:30:10.495Z</time></trkpt><trkpt lat="44.885844" lon="9.651377"><ele>188.0</ele><time>2026-04-03T16:30:11.489Z</time></trkpt><trkpt lat="44.8857239" lon="9.6513093"><ele>188.5</ele><time>2026-04-03T16:30:12.494Z</time></trkpt><trkpt lat="44.8856124" lon="9.6512448"><ele>189.0</ele><time>2026-04-03T16:30:13.489Z</time></trkpt><trkpt lat="44.8855138" lon="9.6511794"><ele>189.16666666666666</ele><time>2026-04-03T16:30:14.49Z</time></trkpt><trkpt lat="44.8854308" lon="9.6511096"><ele>189.33333333333334</ele><time>2026-04-03T16:30:15.495Z</time></trkpt><trkpt lat="44.8853753" lon="9.6510269"><ele>189.5</ele><time>2026-04-03T16:30:16.489Z</time></trkpt><trkpt lat="44.8853458" lon="9.6509282"><ele>189.66666666666669</ele><time>2026-04-03T16:30:17.487Z</time></trkpt><trkpt lat="44.8853341" lon="9.650812"><ele>189.83333333333334</ele><time>2026-04-03T16:30:18.488Z</time></trkpt><trkpt lat="44.8853297" lon="9.6506822"><ele>190.0</ele><time>2026-04-03T16:30:19.493Z</time></trkpt><trkpt lat="44.8853245" lon="9.6505426"><ele>190.0</ele><time>2026-04-03T16:30:20.491Z</time></trkpt><trkpt lat="44.8853171" lon="9.6503977"><ele>190.0</ele><time>2026-04-03T16:30:21.497Z</time></trkpt><trkpt lat="44.8853087" lon="9.6502528"><ele>190.0</ele><time>2026-04-03T16:30:22.489Z</time></trkpt><trkpt lat="44.885301" lon="9.650123"><ele>190.0</ele><time>2026-04-03T16:30:23.497Z</time></trkpt><trkpt lat="44.8852935" lon="9.650015"><ele>190.0</ele><time>2026-04-03T16:30:24.494Z</time></trkpt><trkpt lat="44.88529" lon="9.6498955"><ele>191.0</ele><time>2026-04-03T16:30:26.493Z</time></trkpt><trkpt lat="44.8852709" lon="9.6497766"><ele>192.0</ele><time>2026-04-03T16:30:33.501Z</time></trkpt><trkpt lat="44.8851553" lon="9.6497093"><ele>193.0</ele><time>2026-04-03T16:30:35.486Z</time></trkpt><trkpt lat="44.885068" lon="9.6496842"><ele>194.0</ele><time>2026-04-03T16:30:36.488Z</time></trkpt><trkpt lat="44.8849563" lon="9.6496603"><ele>195.0</ele><time>2026-04-03T16:30:37.493Z</time></trkpt><trkpt lat="44.8848243" lon="9.6496344"><ele>195.0</ele><time>2026-04-03T16:30:38.495Z</time></trkpt><trkpt lat="44.884682" lon="9.6496197"><ele>195.0</ele><time>2026-04-03T16:30:39.498Z</time></trkpt><trkpt lat="44.8845377" lon="9.6496154"><ele>195.0</ele><time>2026-04-03T16:30:40.497Z</time></trkpt><trkpt lat="44.8843803" lon="9.6496129"><ele>195.0</ele><time>2026-04-03T16:30:41.49Z</time></trkpt><trkpt lat="44.8842114" lon="9.6496124"><ele>194.66666666666669</ele><time>2026-04-03T16:30:42.5Z</time></trkpt><trkpt lat="44.8840334" lon="9.6496147"><ele>194.33333333333334</ele><time>2026-04-03T16:30:43.502Z</time></trkpt><trkpt lat="44.883849" lon="9.6496159"><ele>194.0</ele><time>2026-04-03T16:30:44.496Z</time></trkpt><trkpt lat="44.8836666" lon="9.6496167"><ele>194.0</ele><time>2026-04-03T16:30:45.498Z</time></trkpt><trkpt lat="44.8834886" lon="9.6496168"><ele>194.0</ele><time>2026-04-03T16:30:46.494Z</time></trkpt><trkpt lat="44.8833097" lon="9.6496108"><ele>194.0</ele><time>2026-04-03T16:30:47.491Z</time></trkpt><trkpt lat="44.8831328" lon="9.6495922"><ele>193.66666666666669</ele><time>2026-04-03T16:30:48.491Z</time></trkpt><trkpt lat="44.8829536" lon="9.6495487"><ele>193.33333333333331</ele><time>2026-04-03T16:30:49.491Z</time></trkpt><trkpt lat="44.8827649" lon="9.6494821"><ele>193.0</ele><time>2026-04-03T16:30:50.495Z</time></trkpt><trkpt lat="44.8825707" lon="9.6493846"><ele>193.0</ele><time>2026-04-03T16:30:51.495Z</time></trkpt><trkpt lat="44.8823756" lon="9.6492645"><ele>193.0</ele><time>2026-04-03T16:30:52.491Z</time></trkpt><trkpt lat="44.8821792" lon="9.6491339"><ele>193.0</ele><time>2026-04-03T16:30:53.505Z</time></trkpt><trkpt lat="44.8819791" lon="9.6490011"><ele>193.0</ele><time>2026-04-03T16:30:54.497Z</time></trkpt><trkpt lat="44.8817754" lon="9.6488696"><ele>193.0</ele><time>2026-04-03T16:30:55.493Z</time></trkpt><trkpt lat="44.8815714" lon="9.6487438"><ele>193.0</ele><time>2026-04-03T16:30:56.493Z</time></trkpt><trkpt lat="44.8813646" lon="9.6486345"><ele>193.66666666666666</ele><time>2026-04-03T16:30:57.495Z</time></trkpt><trkpt lat="44.8811572" lon="9.6485481"><ele>194.33333333333331</ele><time>2026-04-03T16:30:58.492Z</time></trkpt><trkpt lat="44.8809441" lon="9.6484887"><ele>195.0</ele><time>2026-04-03T16:30:59.502Z</time></trkpt><trkpt lat="44.8807281" lon="9.6484549"><ele>194.66666666666669</ele><time>2026-04-03T16:31:00.497Z</time></trkpt><trkpt lat="44.8805111" lon="9.6484425"><ele>194.33333333333334</ele><time>2026-04-03T16:31:01.486Z</time></trkpt><trkpt lat="44.8802936" lon="9.6484398"><ele>194.0</ele><time>2026-04-03T16:31:02.491Z</time></trkpt><trkpt lat="44.8800717" lon="9.6484313"><ele>194.0</ele><time>2026-04-03T16:31:03.494Z</time></trkpt><trkpt lat="44.8798428" lon="9.6484213"><ele>194.0</ele><time>2026-04-03T16:31:04.49Z</time></trkpt><trkpt lat="44.8796077" lon="9.6484084"><ele>194.0</ele><time>2026-04-03T16:31:05.489Z</time></trkpt><trkpt lat="44.879369" lon="9.6483941"><ele>194.0</ele><time>2026-04-03T16:31:06.492Z</time></trkpt><trkpt lat="44.8791321" lon="9.6483815"><ele>196.5</ele><time>2026-04-03T16:31:07.49Z</time></trkpt><trkpt lat="44.8788981" lon="9.6483803"><ele>199.0</ele><time>2026-04-03T16:31:08.489Z</time></trkpt><trkpt lat="44.878669" lon="9.6483868"><ele>199.0</ele><time>2026-04-03T16:31:09.487Z</time></trkpt><trkpt lat="44.8784526" lon="9.6483876"><ele>199.0</ele><time>2026-04-03T16:31:10.499Z</time></trkpt><trkpt lat="44.8782448" lon="9.6483714"><ele>199.0</ele><time>2026-04-03T16:31:11.492Z</time></trkpt><trkpt lat="44.8780452" lon="9.6483227"><ele>199.66666666666666</ele><time>2026-04-03T16:31:12.492Z</time></trkpt><trkpt lat="44.8778546" lon="9.6482424"><ele>200.33333333333331</ele><time>2026-04-03T16:31:13.494Z</time></trkpt><trkpt lat="44.8776731" lon="9.6481272"><ele>201.0</ele><time>2026-04-03T16:31:14.492Z</time></trkpt><trkpt lat="44.8774995" lon="9.6479863"><ele>201.0</ele><time>2026-04-03T16:31:15.49Z</time></trkpt><trkpt lat="44.8773261" lon="9.6478386"><ele>201.0</ele><time>2026-04-03T16:31:16.491Z</time></trkpt><trkpt lat="44.8771586" lon="9.6476941"><ele>201.0</ele><time>2026-04-03T16:31:17.493Z</time></trkpt><trkpt lat="44.8769898" lon="9.6475468"><ele>202.0</ele><time>2026-04-03T16:31:18.499Z</time></trkpt><trkpt lat="44.8768273" lon="9.6473944"><ele>203.0</ele><time>2026-04-03T16:31:19.496Z</time></trkpt><trkpt lat="44.8766689" lon="9.6472305"><ele>204.0</ele><time>2026-04-03T16:31:20.494Z</time></trkpt><trkpt lat="44.8765139" lon="9.64706"><ele>206.66666666666669</ele><time>2026-04-03T16:31:21.495Z</time></trkpt><trkpt lat="44.8763629" lon="9.6468841"><ele>209.33333333333334</ele><time>2026-04-03T16:31:22.498Z</time></trkpt><trkpt lat="44.8762072" lon="9.6467062"><ele>212.0</ele><time>2026-04-03T16:31:23.492Z</time></trkpt><trkpt lat="44.8760522" lon="9.6465244"><ele>212.33333333333334</ele><time>2026-04-03T16:31:24.493Z</time></trkpt><trkpt lat="44.8759003" lon="9.6463368"><ele>212.66666666666669</ele><time>2026-04-03T16:31:25.488Z</time></trkpt><trkpt lat="44.8757547" lon="9.6461395"><ele>213.0</ele><time>2026-04-03T16:31:26.491Z</time></trkpt><trkpt lat="44.875622" lon="9.6459435"><ele>213.0</ele><time>2026-04-03T16:31:27.491Z</time></trkpt><trkpt lat="44.8755003" lon="9.6457622"><ele>213.0</ele><time>2026-04-03T16:31:28.495Z</time></trkpt><trkpt lat="44.8753842" lon="9.6455886"><ele>213.0</ele><time>2026-04-03T16:31:29.488Z</time></trkpt><trkpt lat="44.8752774" lon="9.6454211"><ele>211.0</ele><time>2026-04-03T16:31:30.492Z</time></trkpt><trkpt lat="44.8751686" lon="9.6452583"><ele>209.0</ele><time>2026-04-03T16:31:31.49Z</time></trkpt><trkpt lat="44.8750636" lon="9.6451013"><ele>207.0</ele><time>2026-04-03T16:31:32.493Z</time></trkpt><trkpt lat="44.8749631" lon="9.6449435"><ele>207.0</ele><time>2026-04-03T16:31:33.49Z</time></trkpt><trkpt lat="44.8748713" lon="9.644789"><ele>207.0</ele><time>2026-04-03T16:31:34.491Z</time></trkpt><trkpt lat="44.8747914" lon="9.644634"><ele>207.0</ele><time>2026-04-03T16:31:35.489Z</time></trkpt><trkpt lat="44.8747186" lon="9.6444818"><ele>207.0</ele><time>2026-04-03T16:31:36.488Z</time></trkpt><trkpt lat="44.8746532" lon="9.6443345"><ele>210.6</ele><time>2026-04-03T16:31:37.485Z</time></trkpt><trkpt lat="44.8745915" lon="9.6441967"><ele>214.2</ele><time>2026-04-03T16:31:38.483Z</time></trkpt><trkpt lat="44.8745357" lon="9.6440611"><ele>217.8</ele><time>2026-04-03T16:31:39.49Z</time></trkpt><trkpt lat="44.8744852" lon="9.6439324"><ele>221.4</ele><time>2026-04-03T16:31:40.489Z</time></trkpt><trkpt lat="44.8744379" lon="9.6438127"><ele>225.0</ele><time>2026-04-03T16:31:41.488Z</time></trkpt><trkpt lat="44.8743905" lon="9.6437077"><ele>227.5</ele><time>2026-04-03T16:31:42.492Z</time></trkpt><trkpt lat="44.8743354" lon="9.6436255"><ele>230.0</ele><time>2026-04-03T16:31:43.487Z</time></trkpt><trkpt lat="44.874275" lon="9.6435772"><ele>232.5</ele><time>2026-04-03T16:31:44.49Z</time></trkpt><trkpt lat="44.8742069" lon="9.6435631"><ele>235.0</ele><time>2026-04-03T16:31:45.491Z</time></trkpt><trkpt lat="44.8741366" lon="9.6435801"><ele>237.5</ele><time>2026-04-03T16:31:46.486Z</time></trkpt><trkpt lat="44.8740631" lon="9.6436161"><ele>240.0</ele><time>2026-04-03T16:31:47.486Z</time></trkpt><trkpt lat="44.873981" lon="9.6436569"><ele>233.16666666666666</ele><time>2026-04-03T16:31:48.487Z</time></trkpt><trkpt lat="44.8739021" lon="9.6436967"><ele>226.33333333333331</ele><time>2026-04-03T16:31:49.488Z</time></trkpt><trkpt lat="44.8738224" lon="9.6437365"><ele>219.5</ele><time>2026-04-03T16:31:50.492Z</time></trkpt><trkpt lat="44.8737406" lon="9.6437696"><ele>212.66666666666666</ele><time>2026-04-03T16:31:51.486Z</time></trkpt><trkpt lat="44.8736591" lon="9.6438071"><ele>205.83333333333331</ele><time>2026-04-03T16:31:52.487Z</time></trkpt><trkpt lat="44.8735804" lon="9.643841"><ele>199.0</ele><time>2026-04-03T16:31:53.492Z</time></trkpt><trkpt lat="44.8735091" lon="9.6438718"><ele>198.99999999999997</ele><time>2026-04-03T16:31:54.485Z</time></trkpt><trkpt lat="44.8734423" lon="9.6439006"><ele>199.0</ele><time>2026-04-03T16:31:55.493Z</time></trkpt><trkpt lat="44.8733774" lon="9.6439288"><ele>199.0</ele><time>2026-04-03T16:31:56.494Z</time></trkpt><trkpt lat="44.8733127" lon="9.643956"><ele>199.0</ele><time>2026-04-03T16:31:57.486Z</time></trkpt><trkpt lat="44.8732491" lon="9.6439837"><ele>199.0</ele><time>2026-04-03T16:31:58.491Z</time></trkpt><trkpt lat="44.8731855" lon="9.6440107"><ele>198.99999999999997</ele><time>2026-04-03T16:31:59.495Z</time></trkpt><trkpt lat="44.8731255" lon="9.6440391"><ele>199.0</ele><time>2026-04-03T16:32:00.489Z</time></trkpt><trkpt lat="44.8730039" lon="9.6440794"><ele>199.0</ele><time>2026-04-03T16:32:02.487Z</time></trkpt><trkpt lat="44.8728892" lon="9.6440407"><ele>199.0</ele><time>2026-04-03T16:32:04.498Z</time></trkpt><trkpt lat="44.8727875" lon="9.6439329"><ele>199.0</ele><time>2026-04-03T16:32:06.489Z</time></trkpt><trkpt lat="44.8727385" lon="9.6438634"><ele>199.0</ele><time>2026-04-03T16:32:07.492Z</time></trkpt><trkpt lat="44.8726855" lon="9.6437894"><ele>199.0</ele><time>2026-04-03T16:32:08.495Z</time></trkpt><trkpt lat="44.8726248" lon="9.6437084"><ele>200.0</ele><time>2026-04-03T16:32:09.487Z</time></trkpt><trkpt lat="44.8725576" lon="9.6436171"><ele>201.0</ele><time>2026-04-03T16:32:10.486Z</time></trkpt><trkpt lat="44.8724833" lon="9.6435127"><ele>202.0</ele><time>2026-04-03T16:32:11.485Z</time></trkpt><trkpt lat="44.8724043" lon="9.643405"><ele>203.0</ele><time>2026-04-03T16:32:12.491Z</time></trkpt><trkpt lat="44.8723268" lon="9.6432972"><ele>204.0</ele><time>2026-04-03T16:32:13.488Z</time></trkpt><trkpt lat="44.8722515" lon="9.643194"><ele>204.0</ele><time>2026-04-03T16:32:14.498Z</time></trkpt><trkpt lat="44.8721752" lon="9.6430957"><ele>204.0</ele><time>2026-04-03T16:32:15.492Z</time></trkpt><trkpt lat="44.8720977" lon="9.6429946"><ele>204.0</ele><time>2026-04-03T16:32:16.497Z</time></trkpt><trkpt lat="44.8720225" lon="9.6428921"><ele>204.0</ele><time>2026-04-03T16:32:17.498Z</time></trkpt><trkpt lat="44.8719487" lon="9.6427893"><ele>204.0</ele><time>2026-04-03T16:32:18.5Z</time></trkpt><trkpt lat="44.8718768" lon="9.642687"><ele>204.39999999999998</ele><time>2026-04-03T16:32:19.492Z</time></trkpt><trkpt lat="44.8718043" lon="9.6425836"><ele>204.8</ele><time>2026-04-03T16:32:20.492Z</time></trkpt><trkpt lat="44.8717297" lon="9.6424791"><ele>205.2</ele><time>2026-04-03T16:32:21.491Z</time></trkpt><trkpt lat="44.8716574" lon="9.6423787"><ele>205.60000000000002</ele><time>2026-04-03T16:32:22.496Z</time></trkpt><trkpt lat="44.8715835" lon="9.6422785"><ele>206.0</ele><time>2026-04-03T16:32:23.488Z</time></trkpt><trkpt lat="44.8715097" lon="9.6421775"><ele>206.0</ele><time>2026-04-03T16:32:24.489Z</time></trkpt><trkpt lat="44.8714353" lon="9.6420774"><ele>206.0</ele><time>2026-04-03T16:32:25.486Z</time></trkpt><trkpt lat="44.871364" lon="9.6419743"><ele>206.0</ele><time>2026-04-03T16:32:26.491Z</time></trkpt><trkpt lat="44.8712909" lon="9.6418713"><ele>206.0</ele><time>2026-04-03T16:32:27.49Z</time></trkpt><trkpt lat="44.8712169" lon="9.6417706"><ele>206.0</ele><time>2026-04-03T16:32:28.486Z</time></trkpt><trkpt lat="44.8711433" lon="9.6416772"><ele>205.50000000000003</ele><time>2026-04-03T16:32:29.491Z</time></trkpt><trkpt lat="44.8710781" lon="9.6415932"><ele>205.0</ele><time>2026-04-03T16:32:30.49Z</time></trkpt><trkpt lat="44.871018" lon="9.6415189"><ele>204.5</ele><time>2026-04-03T16:32:31.486Z</time></trkpt><trkpt lat="44.870959" lon="9.6414526"><ele>204.0</ele><time>2026-04-03T16:32:32.495Z</time></trkpt><trkpt lat="44.8708988" lon="9.6413912"><ele>203.50000000000003</ele><time>2026-04-03T16:32:33.495Z</time></trkpt><trkpt lat="44.8708367" lon="9.6413293"><ele>203.0</ele><time>2026-04-03T16:32:34.5Z</time></trkpt><trkpt lat="44.8707689" lon="9.6412655"><ele>203.83333333333334</ele><time>2026-04-03T16:32:35.494Z</time></trkpt><trkpt lat="44.8706967" lon="9.6411987"><ele>204.66666666666669</ele><time>2026-04-03T16:32:36.489Z</time></trkpt><trkpt lat="44.8706218" lon="9.6411344"><ele>205.5</ele><time>2026-04-03T16:32:37.501Z</time></trkpt><trkpt lat="44.870546" lon="9.6410753"><ele>206.33333333333331</ele><time>2026-04-03T16:32:38.495Z</time></trkpt><trkpt lat="44.8704701" lon="9.6410216"><ele>207.16666666666666</ele><time>2026-04-03T16:32:39.49Z</time></trkpt><trkpt lat="44.8703906" lon="9.6409733"><ele>208.0</ele><time>2026-04-03T16:32:40.5Z</time></trkpt><trkpt lat="44.8703077" lon="9.6409273"><ele>208.0</ele><time>2026-04-03T16:32:41.486Z</time></trkpt><trkpt lat="44.8702212" lon="9.6408818"><ele>208.0</ele><time>2026-04-03T16:32:42.498Z</time></trkpt><trkpt lat="44.8701315" lon="9.6408396"><ele>208.0</ele><time>2026-04-03T16:32:43.5Z</time></trkpt><trkpt lat="44.8700392" lon="9.6408004"><ele>208.0</ele><time>2026-04-03T16:32:44.493Z</time></trkpt><trkpt lat="44.8699459" lon="9.6407623"><ele>208.0</ele><time>2026-04-03T16:32:45.496Z</time></trkpt><trkpt lat="44.869849" lon="9.6407275"><ele>208.4</ele><time>2026-04-03T16:32:46.498Z</time></trkpt><trkpt lat="44.8697485" lon="9.6406981"><ele>208.8</ele><time>2026-04-03T16:32:47.495Z</time></trkpt><trkpt lat="44.8696488" lon="9.6406702"><ele>209.2</ele><time>2026-04-03T16:32:48.508Z</time></trkpt><trkpt lat="44.8695493" lon="9.6406427"><ele>209.6</ele><time>2026-04-03T16:32:49.507Z</time></trkpt><trkpt lat="44.8694567" lon="9.6406142"><ele>210.0</ele><time>2026-04-03T16:32:50.506Z</time></trkpt><trkpt lat="44.8693689" lon="9.6405851"><ele>210.0</ele><time>2026-04-03T16:32:51.501Z</time></trkpt><trkpt lat="44.8692825" lon="9.6405576"><ele>210.0</ele><time>2026-04-03T16:32:52.493Z</time></trkpt><trkpt lat="44.869197" lon="9.6405279"><ele>210.0</ele><time>2026-04-03T16:32:53.502Z</time></trkpt><trkpt lat="44.8691132" lon="9.640498"><ele>210.0</ele><time>2026-04-03T16:32:54.496Z</time></trkpt><trkpt lat="44.8690313" lon="9.6404695"><ele>210.0</ele><time>2026-04-03T16:32:55.511Z</time></trkpt><trkpt lat="44.8689518" lon="9.6404436"><ele>210.0</ele><time>2026-04-03T16:32:56.5Z</time></trkpt><trkpt lat="44.8688749" lon="9.6404162"><ele>210.33333333333334</ele><time>2026-04-03T16:32:57.505Z</time></trkpt><trkpt lat="44.8687971" lon="9.64039"><ele>210.66666666666669</ele><time>2026-04-03T16:32:58.502Z</time></trkpt><trkpt lat="44.8687213" lon="9.6403667"><ele>211.0</ele><time>2026-04-03T16:32:59.511Z</time></trkpt><trkpt lat="44.8686328" lon="9.6403441"><ele>211.33333333333334</ele><time>2026-04-03T16:33:01.498Z</time></trkpt><trkpt lat="44.8685572" lon="9.6403184"><ele>211.66666666666669</ele><time>2026-04-03T16:33:03.507Z</time></trkpt><trkpt lat="44.8684896" lon="9.6403019"><ele>212.0</ele><time>2026-04-03T16:33:04.509Z</time></trkpt><trkpt lat="44.8684053" lon="9.6402751"><ele>212.2</ele><time>2026-04-03T16:33:05.51Z</time></trkpt><trkpt lat="44.8683102" lon="9.6402407"><ele>212.39999999999998</ele><time>2026-04-03T16:33:06.503Z</time></trkpt><trkpt lat="44.8682076" lon="9.6402127"><ele>212.60000000000002</ele><time>2026-04-03T16:33:07.493Z</time></trkpt><trkpt lat="44.8681071" lon="9.6401988"><ele>212.8</ele><time>2026-04-03T16:33:08.504Z</time></trkpt><trkpt lat="44.8680057" lon="9.6401918"><ele>213.0</ele><time>2026-04-03T16:33:09.504Z</time></trkpt><trkpt lat="44.8678988" lon="9.640192"><ele>213.0</ele><time>2026-04-03T16:33:10.501Z</time></trkpt><trkpt lat="44.8677901" lon="9.6401973"><ele>213.0</ele><time>2026-04-03T16:33:11.501Z</time></trkpt><trkpt lat="44.8676851" lon="9.6402142"><ele>213.0</ele><time>2026-04-03T16:33:12.486Z</time></trkpt><trkpt lat="44.8675869" lon="9.6402399"><ele>213.0</ele><time>2026-04-03T16:33:13.5Z</time></trkpt><trkpt lat="44.8675009" lon="9.6402739"><ele>213.0</ele><time>2026-04-03T16:33:14.5Z</time></trkpt><trkpt lat="44.8674184" lon="9.640308"><ele>213.33333333333334</ele><time>2026-04-03T16:33:15.499Z</time></trkpt><trkpt lat="44.8673416" lon="9.6403511"><ele>213.66666666666669</ele><time>2026-04-03T16:33:16.507Z</time></trkpt><trkpt lat="44.8672659" lon="9.6403917"><ele>214.0</ele><time>2026-04-03T16:33:17.507Z</time></trkpt><trkpt lat="44.8671891" lon="9.6404313"><ele>214.33333333333334</ele><time>2026-04-03T16:33:18.501Z</time></trkpt><trkpt lat="44.8671121" lon="9.6404719"><ele>214.66666666666669</ele><time>2026-04-03T16:33:19.494Z</time></trkpt><trkpt lat="44.8670382" lon="9.6405156"><ele>215.0</ele><time>2026-04-03T16:33:20.502Z</time></trkpt><trkpt lat="44.8669646" lon="9.6405613"><ele>215.00000000000003</ele><time>2026-04-03T16:33:21.509Z</time></trkpt><trkpt lat="44.8668897" lon="9.6406055"><ele>215.0</ele><time>2026-04-03T16:33:22.502Z</time></trkpt><trkpt lat="44.8668103" lon="9.6406453"><ele>215.0</ele><time>2026-04-03T16:33:23.501Z</time></trkpt><trkpt lat="44.8667305" lon="9.6406824"><ele>215.0</ele><time>2026-04-03T16:33:24.495Z</time></trkpt><trkpt lat="44.8666498" lon="9.6407081"><ele>215.00000000000003</ele><time>2026-04-03T16:33:25.504Z</time></trkpt><trkpt lat="44.8665675" lon="9.6407241"><ele>215.0</ele><time>2026-04-03T16:33:26.5Z</time></trkpt><trkpt lat="44.8664891" lon="9.640729"><ele>215.00000000000003</ele><time>2026-04-03T16:33:27.508Z</time></trkpt><trkpt lat="44.8664121" lon="9.6407269"><ele>215.0</ele><time>2026-04-03T16:33:28.502Z</time></trkpt><trkpt lat="44.8663362" lon="9.6407181"><ele>215.0</ele><time>2026-04-03T16:33:29.506Z</time></trkpt><trkpt lat="44.8662625" lon="9.6407072"><ele>215.0</ele><time>2026-04-03T16:33:30.508Z</time></trkpt><trkpt lat="44.8661947" lon="9.6406932"><ele>215.00000000000003</ele><time>2026-04-03T16:33:31.505Z</time></trkpt><trkpt lat="44.8660905" lon="9.6406653"><ele>215.0</ele><time>2026-04-03T16:33:33.51Z</time></trkpt><trkpt lat="44.8660283" lon="9.6406385"><ele>215.0</ele><time>2026-04-03T16:33:35.501Z</time></trkpt><trkpt lat="44.8659482" lon="9.6406414"><ele>215.0</ele><time>2026-04-03T16:33:38.52Z</time></trkpt><trkpt lat="44.865937" lon="9.6407645"><ele>215.0</ele><time>2026-04-03T16:33:40.501Z</time></trkpt><trkpt lat="44.8659676" lon="9.640847"><ele>215.0</ele><time>2026-04-03T16:33:41.489Z</time></trkpt><trkpt lat="44.8660106" lon="9.6409196"><ele>215.0</ele><time>2026-04-03T16:33:42.498Z</time></trkpt><trkpt lat="44.8660568" lon="9.6409867"><ele>215.0</ele><time>2026-04-03T16:33:43.495Z</time></trkpt><trkpt lat="44.8661012" lon="9.6410542"><ele>215.0</ele><time>2026-04-03T16:33:44.503Z</time></trkpt><trkpt lat="44.8661754" lon="9.6411796"><ele>215.2</ele><time>2026-04-03T16:33:46.502Z</time></trkpt><trkpt lat="44.866183" lon="9.6413017"><ele>215.4</ele><time>2026-04-03T16:33:48.511Z</time></trkpt><trkpt lat="44.866124" lon="9.6414814"><ele>215.60000000000002</ele><time>2026-04-03T16:33:50.509Z</time></trkpt><trkpt lat="44.8660803" lon="9.6416022"><ele>215.8</ele><time>2026-04-03T16:33:51.502Z</time></trkpt><trkpt lat="44.8660387" lon="9.6417339"><ele>216.0</ele><time>2026-04-03T16:33:52.507Z</time></trkpt><trkpt lat="44.8659939" lon="9.6418597"><ele>216.33333333333334</ele><time>2026-04-03T16:33:53.509Z</time></trkpt><trkpt lat="44.8659489" lon="9.6419783"><ele>216.66666666666669</ele><time>2026-04-03T16:33:54.503Z</time></trkpt><trkpt lat="44.8659042" lon="9.6420931"><ele>217.0</ele><time>2026-04-03T16:33:55.494Z</time></trkpt><trkpt lat="44.8658634" lon="9.642205"><ele>217.33333333333334</ele><time>2026-04-03T16:33:56.5Z</time></trkpt><trkpt lat="44.8658261" lon="9.6423144"><ele>217.66666666666669</ele><time>2026-04-03T16:33:57.501Z</time></trkpt><trkpt lat="44.8657904" lon="9.642421"><ele>218.0</ele><time>2026-04-03T16:33:58.51Z</time></trkpt><trkpt lat="44.8657522" lon="9.6425246"><ele>218.16666666666669</ele><time>2026-04-03T16:33:59.501Z</time></trkpt><trkpt lat="44.8657126" lon="9.6426331"><ele>218.33333333333334</ele><time>2026-04-03T16:34:00.504Z</time></trkpt><trkpt lat="44.8656733" lon="9.6427439"><ele>218.5</ele><time>2026-04-03T16:34:01.509Z</time></trkpt><trkpt lat="44.8656301" lon="9.642856"><ele>218.66666666666669</ele><time>2026-04-03T16:34:02.51Z</time></trkpt><trkpt lat="44.8655872" lon="9.6429715"><ele>218.83333333333334</ele><time>2026-04-03T16:34:03.511Z</time></trkpt><trkpt lat="44.8655461" lon="9.643088"><ele>219.0</ele><time>2026-04-03T16:34:04.508Z</time></trkpt><trkpt lat="44.8655055" lon="9.6432077"><ele>219.39999999999998</ele><time>2026-04-03T16:34:05.508Z</time></trkpt><trkpt lat="44.8654614" lon="9.6433304"><ele>219.79999999999998</ele><time>2026-04-03T16:34:06.513Z</time></trkpt><trkpt lat="44.865414" lon="9.643453"><ele>220.20000000000002</ele><time>2026-04-03T16:34:07.5Z</time></trkpt><trkpt lat="44.8653627" lon="9.6435743"><ele>220.60000000000002</ele><time>2026-04-03T16:34:08.498Z</time></trkpt><trkpt lat="44.8653133" lon="9.6436968"><ele>221.0</ele><time>2026-04-03T16:34:09.502Z</time></trkpt><trkpt lat="44.8652685" lon="9.643819"><ele>221.20000000000002</ele><time>2026-04-03T16:34:10.5Z</time></trkpt><trkpt lat="44.8652294" lon="9.6439368"><ele>221.40000000000003</ele><time>2026-04-03T16:34:11.499Z</time></trkpt><trkpt lat="44.8651884" lon="9.6440539"><ele>221.6</ele><time>2026-04-03T16:34:12.5Z</time></trkpt><trkpt lat="44.8651468" lon="9.6441738"><ele>221.8</ele><time>2026-04-03T16:34:13.513Z</time></trkpt><trkpt lat="44.8651044" lon="9.6442971"><ele>222.0</ele><time>2026-04-03T16:34:14.5Z</time></trkpt><trkpt lat="44.8650602" lon="9.6444213"><ele>223.2</ele><time>2026-04-03T16:34:15.508Z</time></trkpt><trkpt lat="44.8650157" lon="9.6445438"><ele>224.39999999999998</ele><time>2026-04-03T16:34:16.49Z</time></trkpt><trkpt lat="44.8649731" lon="9.6446649"><ele>225.60000000000002</ele><time>2026-04-03T16:34:17.507Z</time></trkpt><trkpt lat="44.8649311" lon="9.644783"><ele>226.8</ele><time>2026-04-03T16:34:18.494Z</time></trkpt><trkpt lat="44.8648888" lon="9.6448995"><ele>228.0</ele><time>2026-04-03T16:34:19.508Z</time></trkpt><trkpt lat="44.8648464" lon="9.6450131"><ele>228.0</ele><time>2026-04-03T16:34:20.504Z</time></trkpt><trkpt lat="44.864802" lon="9.6451173"><ele>228.0</ele><time>2026-04-03T16:34:21.503Z</time></trkpt><trkpt lat="44.8647514" lon="9.645204"><ele>228.0</ele><time>2026-04-03T16:34:22.503Z</time></trkpt><trkpt lat="44.8646882" lon="9.6452745"><ele>228.0</ele><time>2026-04-03T16:34:23.506Z</time></trkpt><trkpt lat="44.8646134" lon="9.6453154"><ele>228.0</ele><time>2026-04-03T16:34:24.496Z</time></trkpt><trkpt lat="44.8645331" lon="9.6453151"><ele>228.0</ele><time>2026-04-03T16:34:25.509Z</time></trkpt><trkpt lat="44.8644466" lon="9.6452764"><ele>228.0</ele><time>2026-04-03T16:34:26.507Z</time></trkpt><trkpt lat="44.8643577" lon="9.6452163"><ele>228.0</ele><time>2026-04-03T16:34:27.494Z</time></trkpt><trkpt lat="44.864268" lon="9.6451433"><ele>228.0</ele><time>2026-04-03T16:34:28.495Z</time></trkpt><trkpt lat="44.8641777" lon="9.6450742"><ele>228.0</ele><time>2026-04-03T16:34:29.496Z</time></trkpt><trkpt lat="44.8640938" lon="9.6450106"><ele>228.0</ele><time>2026-04-03T16:34:30.508Z</time></trkpt><trkpt lat="44.8640166" lon="9.6449557"><ele>228.66666666666666</ele><time>2026-04-03T16:34:31.509Z</time></trkpt><trkpt lat="44.8639528" lon="9.6449181"><ele>229.33333333333331</ele><time>2026-04-03T16:34:32.491Z</time></trkpt><trkpt lat="44.8638502" lon="9.6449518"><ele>230.0</ele><time>2026-04-03T16:34:34.497Z</time></trkpt><trkpt lat="44.8638083" lon="9.6450279"><ele>230.66666666666666</ele><time>2026-04-03T16:34:35.502Z</time></trkpt><trkpt lat="44.8637702" lon="9.6451342"><ele>231.33333333333331</ele><time>2026-04-03T16:34:36.492Z</time></trkpt><trkpt lat="44.8637296" lon="9.6452607"><ele>232.0</ele><time>2026-04-03T16:34:37.51Z</time></trkpt><trkpt lat="44.8636836" lon="9.6453948"><ele>232.75</ele><time>2026-04-03T16:34:38.492Z</time></trkpt><trkpt lat="44.863635" lon="9.6455397"><ele>233.5</ele><time>2026-04-03T16:34:39.505Z</time></trkpt><trkpt lat="44.8635876" lon="9.6456897"><ele>234.25</ele><time>2026-04-03T16:34:40.499Z</time></trkpt><trkpt lat="44.8635381" lon="9.6458443"><ele>235.0</ele><time>2026-04-03T16:34:41.507Z</time></trkpt><trkpt lat="44.8634888" lon="9.6459987"><ele>236.4</ele><time>2026-04-03T16:34:42.496Z</time></trkpt><trkpt lat="44.863437" lon="9.6461483"><ele>237.8</ele><time>2026-04-03T16:34:43.5Z</time></trkpt><trkpt lat="44.8633887" lon="9.6462892"><ele>239.2</ele><time>2026-04-03T16:34:44.497Z</time></trkpt><trkpt lat="44.8633446" lon="9.6464209"><ele>240.6</ele><time>2026-04-03T16:34:45.504Z</time></trkpt><trkpt lat="44.863304" lon="9.646545"><ele>242.0</ele><time>2026-04-03T16:34:46.508Z</time></trkpt><trkpt lat="44.8632586" lon="9.6466613"><ele>242.0</ele><time>2026-04-03T16:34:47.498Z</time></trkpt><trkpt lat="44.863207" lon="9.6467702"><ele>242.0</ele><time>2026-04-03T16:34:48.5Z</time></trkpt><trkpt lat="44.8631461" lon="9.6468681"><ele>242.0</ele><time>2026-04-03T16:34:49.496Z</time></trkpt><trkpt lat="44.8630671" lon="9.6469493"><ele>242.0</ele><time>2026-04-03T16:34:50.514Z</time></trkpt><trkpt lat="44.8629766" lon="9.6470254"><ele>242.0</ele><time>2026-04-03T16:34:51.499Z</time></trkpt><trkpt lat="44.8628827" lon="9.6470896"><ele>242.2</ele><time>2026-04-03T16:34:52.493Z</time></trkpt><trkpt lat="44.8627832" lon="9.6471397"><ele>242.39999999999998</ele><time>2026-04-03T16:34:53.502Z</time></trkpt><trkpt lat="44.8626867" lon="9.6471792"><ele>242.60000000000002</ele><time>2026-04-03T16:34:54.494Z</time></trkpt><trkpt lat="44.8625836" lon="9.6472141"><ele>242.8</ele><time>2026-04-03T16:34:55.496Z</time></trkpt><trkpt lat="44.8624695" lon="9.6472386"><ele>243.0</ele><time>2026-04-03T16:34:56.497Z</time></trkpt><trkpt lat="44.8623444" lon="9.6472615"><ele>243.0</ele><time>2026-04-03T16:34:57.508Z</time></trkpt><trkpt lat="44.8622172" lon="9.6472793"><ele>243.0</ele><time>2026-04-03T16:34:58.501Z</time></trkpt><trkpt lat="44.8620953" lon="9.6473026"><ele>243.0</ele><time>2026-04-03T16:34:59.499Z</time></trkpt><trkpt lat="44.861971" lon="9.6473308"><ele>243.0</ele><time>2026-04-03T16:35:00.503Z</time></trkpt><trkpt lat="44.8618457" lon="9.6473525"><ele>244.25</ele><time>2026-04-03T16:35:01.498Z</time></trkpt><trkpt lat="44.8617229" lon="9.6473662"><ele>245.5</ele><time>2026-04-03T16:35:02.506Z</time></trkpt><trkpt lat="44.8616056" lon="9.6473862"><ele>246.75</ele><time>2026-04-03T16:35:03.516Z</time></trkpt><trkpt lat="44.8614945" lon="9.647424"><ele>248.0</ele><time>2026-04-03T16:35:04.496Z</time></trkpt><trkpt lat="44.8613877" lon="9.6474744"><ele>248.0</ele><time>2026-04-03T16:35:05.493Z</time></trkpt><trkpt lat="44.8612831" lon="9.6475222"><ele>248.0</ele><time>2026-04-03T16:35:06.51Z</time></trkpt><trkpt lat="44.8611823" lon="9.6475643"><ele>248.0</ele><time>2026-04-03T16:35:07.504Z</time></trkpt><trkpt lat="44.8610905" lon="9.6475964"><ele>248.0</ele><time>2026-04-03T16:35:08.499Z</time></trkpt><trkpt lat="44.8610066" lon="9.6476067"><ele>248.0</ele><time>2026-04-03T16:35:09.492Z</time></trkpt><trkpt lat="44.8609255" lon="9.6476037"><ele>248.4</ele><time>2026-04-03T16:35:10.5Z</time></trkpt><trkpt lat="44.8608448" lon="9.6476218"><ele>248.8</ele><time>2026-04-03T16:35:11.498Z</time></trkpt><trkpt lat="44.8607656" lon="9.6476815"><ele>249.2</ele><time>2026-04-03T16:35:12.51Z</time></trkpt><trkpt lat="44.8606905" lon="9.6477867"><ele>249.6</ele><time>2026-04-03T16:35:13.506Z</time></trkpt><trkpt lat="44.8606255" lon="9.6479189"><ele>250.0</ele><time>2026-04-03T16:35:14.506Z</time></trkpt><trkpt lat="44.8605685" lon="9.6480606"><ele>250.0</ele><time>2026-04-03T16:35:15.489Z</time></trkpt><trkpt lat="44.860518" lon="9.6482037"><ele>250.0</ele><time>2026-04-03T16:35:16.493Z</time></trkpt><trkpt lat="44.8604597" lon="9.6483408"><ele>250.0</ele><time>2026-04-03T16:35:17.497Z</time></trkpt><trkpt lat="44.8603918" lon="9.6484607"><ele>250.0</ele><time>2026-04-03T16:35:18.508Z</time></trkpt><trkpt lat="44.8603157" lon="9.6485598"><ele>250.0</ele><time>2026-04-03T16:35:19.499Z</time></trkpt><trkpt lat="44.8602369" lon="9.6486474"><ele>249.6</ele><time>2026-04-03T16:35:20.508Z</time></trkpt><trkpt lat="44.8601522" lon="9.6487368"><ele>249.2</ele><time>2026-04-03T16:35:21.497Z</time></trkpt><trkpt lat="44.8600718" lon="9.6488261"><ele>248.8</ele><time>2026-04-03T16:35:22.507Z</time></trkpt><trkpt lat="44.859996" lon="9.6489115"><ele>248.4</ele><time>2026-04-03T16:35:23.497Z</time></trkpt><trkpt lat="44.8599227" lon="9.6489922"><ele>248.0</ele><time>2026-04-03T16:35:24.499Z</time></trkpt><trkpt lat="44.8598476" lon="9.6490671"><ele>250.75</ele><time>2026-04-03T16:35:25.506Z</time></trkpt><trkpt lat="44.8597547" lon="9.649138"><ele>253.5</ele><time>2026-04-03T16:35:26.498Z</time></trkpt><trkpt lat="44.8596385" lon="9.6492026"><ele>256.25</ele><time>2026-04-03T16:35:27.5Z</time></trkpt><trkpt lat="44.8595054" lon="9.6492669"><ele>259.0</ele><time>2026-04-03T16:35:28.498Z</time></trkpt><trkpt lat="44.8593644" lon="9.6493457"><ele>259.0</ele><time>2026-04-03T16:35:29.493Z</time></trkpt><trkpt lat="44.8592348" lon="9.649461"><ele>259.0</ele><time>2026-04-03T16:35:30.501Z</time></trkpt><trkpt lat="44.8591115" lon="9.6496069"><ele>259.0</ele><time>2026-04-03T16:35:31.488Z</time></trkpt><trkpt lat="44.8589912" lon="9.6497819"><ele>259.0</ele><time>2026-04-03T16:35:32.498Z</time></trkpt><trkpt lat="44.8588777" lon="9.6499612"><ele>259.0</ele><time>2026-04-03T16:35:33.496Z</time></trkpt><trkpt lat="44.8587693" lon="9.6501454"><ele>259.0</ele><time>2026-04-03T16:35:34.503Z</time></trkpt><trkpt lat="44.8586759" lon="9.6503446"><ele>259.0</ele><time>2026-04-03T16:35:35.495Z</time></trkpt><trkpt lat="44.858603" lon="9.6505548"><ele>259.0</ele><time>2026-04-03T16:35:36.5Z</time></trkpt><trkpt lat="44.8585453" lon="9.650759"><ele>259.0</ele><time>2026-04-03T16:35:37.497Z</time></trkpt><trkpt lat="44.8584812" lon="9.6509384"><ele>260.25</ele><time>2026-04-03T16:35:38.491Z</time></trkpt><trkpt lat="44.8584175" lon="9.65111"><ele>261.5</ele><time>2026-04-03T16:35:39.494Z</time></trkpt><trkpt lat="44.858349" lon="9.6512759"><ele>262.75</ele><time>2026-04-03T16:35:40.496Z</time></trkpt><trkpt lat="44.8582871" lon="9.6514394"><ele>264.0</ele><time>2026-04-03T16:35:41.51Z</time></trkpt><trkpt lat="44.8582335" lon="9.6515925"><ele>264.0</ele><time>2026-04-03T16:35:42.495Z</time></trkpt><trkpt lat="44.8581851" lon="9.6517175"><ele>264.0</ele><time>2026-04-03T16:35:43.504Z</time></trkpt><trkpt lat="44.858146" lon="9.6518162"><ele>264.0</ele><time>2026-04-03T16:35:44.497Z</time></trkpt><trkpt lat="44.8581162" lon="9.6518946"><ele>264.0</ele><time>2026-04-03T16:35:45.5Z</time></trkpt><trkpt lat="44.8580812" lon="9.6520154"><ele>264.0</ele><time>2026-04-03T16:35:47.502Z</time></trkpt><trkpt lat="44.8581023" lon="9.6521192"><ele>264.0</ele><time>2026-04-03T16:35:49.503Z</time></trkpt><trkpt lat="44.8582048" lon="9.6521752"><ele>264.8</ele><time>2026-04-03T16:35:51.5Z</time></trkpt><trkpt lat="44.8582822" lon="9.6521724"><ele>265.59999999999997</ele><time>2026-04-03T16:35:52.499Z</time></trkpt><trkpt lat="44.8583725" lon="9.652124"><ele>266.4</ele><time>2026-04-03T16:35:53.494Z</time></trkpt><trkpt lat="44.8584803" lon="9.652033"><ele>267.2</ele><time>2026-04-03T16:35:54.489Z</time></trkpt><trkpt lat="44.8585955" lon="9.6519184"><ele>268.0</ele><time>2026-04-03T16:35:55.498Z</time></trkpt><trkpt lat="44.8587121" lon="9.6518004"><ele>268.0</ele><time>2026-04-03T16:35:56.497Z</time></trkpt><trkpt lat="44.8588315" lon="9.65169"><ele>268.0</ele><time>2026-04-03T16:35:57.508Z</time></trkpt><trkpt lat="44.8589603" lon="9.6515813"><ele>268.0</ele><time>2026-04-03T16:35:58.492Z</time></trkpt><trkpt lat="44.8590955" lon="9.6514766"><ele>268.0</ele><time>2026-04-03T16:35:59.49Z</time></trkpt><trkpt lat="44.8592249" lon="9.6513759"><ele>268.75</ele><time>2026-04-03T16:36:00.49Z</time></trkpt><trkpt lat="44.8593447" lon="9.651283"><ele>269.5</ele><time>2026-04-03T16:36:01.503Z</time></trkpt><trkpt lat="44.8594544" lon="9.6511933"><ele>270.25</ele><time>2026-04-03T16:36:02.499Z</time></trkpt><trkpt lat="44.8595594" lon="9.6511188"><ele>271.0</ele><time>2026-04-03T16:36:03.505Z</time></trkpt><trkpt lat="44.8596553" lon="9.6510667"><ele>271.0</ele><time>2026-04-03T16:36:04.489Z</time></trkpt><trkpt lat="44.8597401" lon="9.6510435"><ele>271.0</ele><time>2026-04-03T16:36:05.496Z</time></trkpt><trkpt lat="44.8598143" lon="9.6510596"><ele>271.0</ele><time>2026-04-03T16:36:06.492Z</time></trkpt><trkpt lat="44.85987" lon="9.6511205"><ele>271.0</ele><time>2026-04-03T16:36:07.502Z</time></trkpt><trkpt lat="44.8598995" lon="9.6512103"><ele>271.0</ele><time>2026-04-03T16:36:08.496Z</time></trkpt><trkpt lat="44.8599207" lon="9.651333"><ele>271.0</ele><time>2026-04-03T16:36:09.511Z</time></trkpt><trkpt lat="44.8599417" lon="9.6514715"><ele>271.0</ele><time>2026-04-03T16:36:10.502Z</time></trkpt><trkpt lat="44.859967" lon="9.6516259"><ele>271.0</ele><time>2026-04-03T16:36:11.491Z</time></trkpt><trkpt lat="44.8599932" lon="9.6517927"><ele>271.0</ele><time>2026-04-03T16:36:12.493Z</time></trkpt><trkpt lat="44.8600201" lon="9.6519731"><ele>271.0</ele><time>2026-04-03T16:36:13.491Z</time></trkpt><trkpt lat="44.8600488" lon="9.6521646"><ele>273.66666666666663</ele><time>2026-04-03T16:36:14.498Z</time></trkpt><trkpt lat="44.8600854" lon="9.6523632"><ele>276.3333333333333</ele><time>2026-04-03T16:36:15.494Z</time></trkpt><trkpt lat="44.8601274" lon="9.6525673"><ele>279.0</ele><time>2026-04-03T16:36:16.506Z</time></trkpt><trkpt lat="44.860172" lon="9.6527747"><ele>282.75</ele><time>2026-04-03T16:36:17.499Z</time></trkpt><trkpt lat="44.8602206" lon="9.6529764"><ele>286.5</ele><time>2026-04-03T16:36:18.508Z</time></trkpt><trkpt lat="44.8602679" lon="9.6531583"><ele>290.25</ele><time>2026-04-03T16:36:19.499Z</time></trkpt><trkpt lat="44.8603027" lon="9.6533233"><ele>294.0</ele><time>2026-04-03T16:36:20.496Z</time></trkpt><trkpt lat="44.8603145" lon="9.6534781"><ele>295.59999999999997</ele><time>2026-04-03T16:36:21.501Z</time></trkpt><trkpt lat="44.8602997" lon="9.653623"><ele>297.2</ele><time>2026-04-03T16:36:22.5Z</time></trkpt><trkpt lat="44.8602584" lon="9.6537373"><ele>298.79999999999995</ele><time>2026-04-03T16:36:23.512Z</time></trkpt><trkpt lat="44.8601867" lon="9.6538149"><ele>300.4</ele><time>2026-04-03T16:36:24.497Z</time></trkpt><trkpt lat="44.8601006" lon="9.6538567"><ele>302.0</ele><time>2026-04-03T16:36:25.499Z</time></trkpt><trkpt lat="44.8599953" lon="9.6538562"><ele>302.0</ele><time>2026-04-03T16:36:26.502Z</time></trkpt><trkpt lat="44.8598838" lon="9.6537958"><ele>302.0</ele><time>2026-04-03T16:36:27.497Z</time></trkpt><trkpt lat="44.8597756" lon="9.6536745"><ele>302.0</ele><time>2026-04-03T16:36:28.508Z</time></trkpt><trkpt lat="44.8596815" lon="9.6535219"><ele>302.0</ele><time>2026-04-03T16:36:29.503Z</time></trkpt><trkpt lat="44.8595994" lon="9.6533503"><ele>299.25</ele><time>2026-04-03T16:36:30.495Z</time></trkpt><trkpt lat="44.859524" lon="9.6531781"><ele>296.5</ele><time>2026-04-03T16:36:31.495Z</time></trkpt><trkpt lat="44.8594495" lon="9.6530074"><ele>293.75</ele><time>2026-04-03T16:36:32.496Z</time></trkpt><trkpt lat="44.8593751" lon="9.65286"><ele>291.0</ele><time>2026-04-03T16:36:33.502Z</time></trkpt><trkpt lat="44.8593009" lon="9.6527503"><ele>290.8</ele><time>2026-04-03T16:36:34.507Z</time></trkpt><trkpt lat="44.8592174" lon="9.6526892"><ele>290.6</ele><time>2026-04-03T16:36:35.504Z</time></trkpt><trkpt lat="44.8591283" lon="9.6526884"><ele>290.4</ele><time>2026-04-03T16:36:36.487Z</time></trkpt><trkpt lat="44.8590371" lon="9.6527483"><ele>290.2</ele><time>2026-04-03T16:36:37.509Z</time></trkpt><trkpt lat="44.858948" lon="9.6528395"><ele>290.0</ele><time>2026-04-03T16:36:38.495Z</time></trkpt><trkpt lat="44.8588599" lon="9.6529542"><ele>294.75</ele><time>2026-04-03T16:36:39.495Z</time></trkpt><trkpt lat="44.8587814" lon="9.6530989"><ele>299.5</ele><time>2026-04-03T16:36:40.492Z</time></trkpt><trkpt lat="44.8587184" lon="9.6532714"><ele>304.25</ele><time>2026-04-03T16:36:41.49Z</time></trkpt><trkpt lat="44.8586684" lon="9.6534374"><ele>309.0</ele><time>2026-04-03T16:36:42.509Z</time></trkpt><trkpt lat="44.8586294" lon="9.6535905"><ele>311.2</ele><time>2026-04-03T16:36:43.51Z</time></trkpt><trkpt lat="44.8586091" lon="9.6537348"><ele>313.4</ele><time>2026-04-03T16:36:44.498Z</time></trkpt><trkpt lat="44.8586177" lon="9.6538713"><ele>315.6</ele><time>2026-04-03T16:36:45.497Z</time></trkpt><trkpt lat="44.8586483" lon="9.653993"><ele>317.8</ele><time>2026-04-03T16:36:46.505Z</time></trkpt><trkpt lat="44.8586956" lon="9.6540738"><ele>320.0</ele><time>2026-04-03T16:36:47.506Z</time></trkpt><trkpt lat="44.858807" lon="9.654076"><ele>320.0</ele><time>2026-04-03T16:36:49.497Z</time></trkpt><trkpt lat="44.8588594" lon="9.654022"><ele>320.0</ele><time>2026-04-03T16:36:50.489Z</time></trkpt><trkpt lat="44.8588908" lon="9.6539245"><ele>320.0</ele><time>2026-04-03T16:36:51.488Z</time></trkpt><trkpt lat="44.8589019" lon="9.6537963"><ele>320.0</ele><time>2026-04-03T16:36:52.494Z</time></trkpt><trkpt lat="44.8589141" lon="9.6536793"><ele>320.0</ele><time>2026-04-03T16:36:53.491Z</time></trkpt><trkpt lat="44.8590066" lon="9.6536202"><ele>320.0</ele><time>2026-04-03T16:36:55.49Z</time></trkpt><trkpt lat="44.8590632" lon="9.6537016"><ele>320.0</ele><time>2026-04-03T16:36:56.496Z</time></trkpt><trkpt lat="44.8591319" lon="9.6538603"><ele>320.0</ele><time>2026-04-03T16:36:57.496Z</time></trkpt><trkpt lat="44.8592054" lon="9.6540369"><ele>320.0</ele><time>2026-04-03T16:36:58.488Z</time></trkpt><trkpt lat="44.8592761" lon="9.6542002"><ele>320.0</ele><time>2026-04-03T16:36:59.49Z</time></trkpt><trkpt lat="44.8593359" lon="9.6543387"><ele>319.0</ele><time>2026-04-03T16:37:00.491Z</time></trkpt><trkpt lat="44.859379" lon="9.654465"><ele>318.0</ele><time>2026-04-03T16:37:01.485Z</time></trkpt><trkpt lat="44.8594071" lon="9.6545981"><ele>317.0</ele><time>2026-04-03T16:37:02.492Z</time></trkpt><trkpt lat="44.8594196" lon="9.6547462"><ele>316.0</ele><time>2026-04-03T16:37:03.492Z</time></trkpt><trkpt lat="44.85942" lon="9.6549114"><ele>315.0</ele><time>2026-04-03T16:37:04.497Z</time></trkpt><trkpt lat="44.8594198" lon="9.6550716"><ele>315.0</ele><time>2026-04-03T16:37:05.485Z</time></trkpt><trkpt lat="44.859431" lon="9.6552263"><ele>315.0</ele><time>2026-04-03T16:37:06.509Z</time></trkpt><trkpt lat="44.8594588" lon="9.6553815"><ele>315.0</ele><time>2026-04-03T16:37:07.492Z</time></trkpt><trkpt lat="44.8594981" lon="9.6555212"><ele>315.0</ele><time>2026-04-03T16:37:08.486Z</time></trkpt><trkpt lat="44.8595427" lon="9.6556549"><ele>315.0</ele><time>2026-04-03T16:37:09.485Z</time></trkpt><trkpt lat="44.8595953" lon="9.6557831"><ele>318.8</ele><time>2026-04-03T16:37:10.488Z</time></trkpt><trkpt lat="44.8596471" lon="9.6559111"><ele>322.6</ele><time>2026-04-03T16:37:11.491Z</time></trkpt><trkpt lat="44.8596817" lon="9.6560379"><ele>326.4</ele><time>2026-04-03T16:37:12.484Z</time></trkpt><trkpt lat="44.859692" lon="9.6561606"><ele>330.2</ele><time>2026-04-03T16:37:13.497Z</time></trkpt><trkpt lat="44.8596814" lon="9.6562863"><ele>334.0</ele><time>2026-04-03T16:37:14.492Z</time></trkpt><trkpt lat="44.859648" lon="9.656415"><ele>336.5</ele><time>2026-04-03T16:37:15.489Z</time></trkpt><trkpt lat="44.8595946" lon="9.6565494"><ele>339.0</ele><time>2026-04-03T16:37:16.489Z</time></trkpt><trkpt lat="44.8595389" lon="9.6566896"><ele>341.5</ele><time>2026-04-03T16:37:17.489Z</time></trkpt><trkpt lat="44.8594863" lon="9.6568413"><ele>344.0</ele><time>2026-04-03T16:37:18.499Z</time></trkpt><trkpt lat="44.8594334" lon="9.6569953"><ele>343.5</ele><time>2026-04-03T16:37:19.489Z</time></trkpt><trkpt lat="44.8593818" lon="9.6571476"><ele>343.0</ele><time>2026-04-03T16:37:20.489Z</time></trkpt><trkpt lat="44.8593329" lon="9.6573"><ele>342.5</ele><time>2026-04-03T16:37:21.489Z</time></trkpt><trkpt lat="44.8592835" lon="9.6574477"><ele>342.0</ele><time>2026-04-03T16:37:22.492Z</time></trkpt><trkpt lat="44.8592363" lon="9.6575961"><ele>342.0</ele><time>2026-04-03T16:37:23.491Z</time></trkpt><trkpt lat="44.8591814" lon="9.6577416"><ele>342.0</ele><time>2026-04-03T16:37:24.493Z</time></trkpt><trkpt lat="44.8591125" lon="9.6578868"><ele>342.0</ele><time>2026-04-03T16:37:25.499Z</time></trkpt><trkpt lat="44.8590226" lon="9.6580317"><ele>342.0</ele><time>2026-04-03T16:37:26.487Z</time></trkpt><trkpt lat="44.8589133" lon="9.6581811"><ele>343.3333333333333</ele><time>2026-04-03T16:37:27.497Z</time></trkpt><trkpt lat="44.8587967" lon="9.6583524"><ele>344.66666666666663</ele><time>2026-04-03T16:37:28.495Z</time></trkpt><trkpt lat="44.8586753" lon="9.6585327"><ele>346.0</ele><time>2026-04-03T16:37:29.49Z</time></trkpt><trkpt lat="44.8585439" lon="9.6587344"><ele>348.0</ele><time>2026-04-03T16:37:30.487Z</time></trkpt><trkpt lat="44.858403" lon="9.6589554"><ele>350.0</ele><time>2026-04-03T16:37:31.492Z</time></trkpt><trkpt lat="44.8582514" lon="9.6591793"><ele>352.0</ele><time>2026-04-03T16:37:32.498Z</time></trkpt><trkpt lat="44.8581003" lon="9.6593913"><ele>355.66666666666663</ele><time>2026-04-03T16:37:33.502Z</time></trkpt><trkpt lat="44.8579592" lon="9.659592"><ele>359.3333333333333</ele><time>2026-04-03T16:37:34.493Z</time></trkpt><trkpt lat="44.8578345" lon="9.6597795"><ele>363.0</ele><time>2026-04-03T16:37:35.489Z</time></trkpt><trkpt lat="44.8577168" lon="9.6599498"><ele>362.6666666666667</ele><time>2026-04-03T16:37:36.493Z</time></trkpt><trkpt lat="44.8576146" lon="9.6601187"><ele>362.33333333333337</ele><time>2026-04-03T16:37:37.489Z</time></trkpt><trkpt lat="44.8575293" lon="9.660292"><ele>362.0</ele><time>2026-04-03T16:37:38.494Z</time></trkpt><trkpt lat="44.8574567" lon="9.6604811"><ele>364.5</ele><time>2026-04-03T16:37:39.499Z</time></trkpt><trkpt lat="44.8573972" lon="9.6606839"><ele>367.0</ele><time>2026-04-03T16:37:40.493Z</time></trkpt><trkpt lat="44.8573525" lon="9.6608859"><ele>369.5</ele><time>2026-04-03T16:37:41.495Z</time></trkpt><trkpt lat="44.8573185" lon="9.66107"><ele>372.0</ele><time>2026-04-03T16:37:42.494Z</time></trkpt><trkpt lat="44.8572658" lon="9.6612162"><ele>372.5</ele><time>2026-04-03T16:37:43.495Z</time></trkpt><trkpt lat="44.8571832" lon="9.6613264"><ele>373.0</ele><time>2026-04-03T16:37:44.491Z</time></trkpt><trkpt lat="44.8570804" lon="9.6614184"><ele>373.5</ele><time>2026-04-03T16:37:45.491Z</time></trkpt><trkpt lat="44.8569711" lon="9.6614939"><ele>374.0</ele><time>2026-04-03T16:37:46.502Z</time></trkpt><trkpt lat="44.8568727" lon="9.6615566"><ele>373.6</ele><time>2026-04-03T16:37:47.497Z</time></trkpt><trkpt lat="44.8567855" lon="9.6616118"><ele>373.2</ele><time>2026-04-03T16:37:48.493Z</time></trkpt><trkpt lat="44.8567108" lon="9.6616632"><ele>372.8</ele><time>2026-04-03T16:37:49.494Z</time></trkpt><trkpt lat="44.8566216" lon="9.6617315"><ele>372.40000000000003</ele><time>2026-04-03T16:37:51.495Z</time></trkpt><trkpt lat="44.8566257" lon="9.6618408"><ele>372.0</ele><time>2026-04-03T16:37:54.497Z</time></trkpt><trkpt lat="44.8567188" lon="9.6618618"><ele>372.0</ele><time>2026-04-03T16:37:56.494Z</time></trkpt><trkpt lat="44.8567851" lon="9.6618521"><ele>372.0</ele><time>2026-04-03T16:37:57.5Z</time></trkpt><trkpt lat="44.8568671" lon="9.6618364"><ele>372.0</ele><time>2026-04-03T16:37:58.495Z</time></trkpt><trkpt lat="44.8569566" lon="9.6618211"><ele>372.0</ele><time>2026-04-03T16:37:59.495Z</time></trkpt><trkpt lat="44.8570471" lon="9.6618088"><ele>372.0</ele><time>2026-04-03T16:38:00.492Z</time></trkpt><trkpt lat="44.857138" lon="9.6617832"><ele>372.0</ele><time>2026-04-03T16:38:01.492Z</time></trkpt><trkpt lat="44.8572271" lon="9.6617404"><ele>372.3333333333333</ele><time>2026-04-03T16:38:02.5Z</time></trkpt><trkpt lat="44.8573091" lon="9.6616848"><ele>372.6666666666667</ele><time>2026-04-03T16:38:03.498Z</time></trkpt><trkpt lat="44.8573871" lon="9.6616272"><ele>373.0</ele><time>2026-04-03T16:38:04.502Z</time></trkpt><trkpt lat="44.8574603" lon="9.6615742"><ele>373.33333333333337</ele><time>2026-04-03T16:38:05.497Z</time></trkpt><trkpt lat="44.8575289" lon="9.6615264"><ele>373.6666666666667</ele><time>2026-04-03T16:38:06.494Z</time></trkpt><trkpt lat="44.8575993" lon="9.6614779"><ele>374.0</ele><time>2026-04-03T16:38:07.496Z</time></trkpt><trkpt lat="44.8576786" lon="9.6614146"><ele>376.5</ele><time>2026-04-03T16:38:08.497Z</time></trkpt><trkpt lat="44.8577618" lon="9.6613403"><ele>379.0</ele><time>2026-04-03T16:38:09.498Z</time></trkpt><trkpt lat="44.8578457" lon="9.6612703"><ele>381.5</ele><time>2026-04-03T16:38:10.5Z</time></trkpt><trkpt lat="44.8579209" lon="9.6612238"><ele>384.0</ele><time>2026-04-03T16:38:11.495Z</time></trkpt><trkpt lat="44.8579873" lon="9.6612057"><ele>386.49999999999994</ele><time>2026-04-03T16:38:12.493Z</time></trkpt><trkpt lat="44.8580555" lon="9.6612109"><ele>389.0</ele><time>2026-04-03T16:38:13.494Z</time></trkpt><trkpt lat="44.8581265" lon="9.6612465"><ele>388.99999999999994</ele><time>2026-04-03T16:38:14.496Z</time></trkpt><trkpt lat="44.8581973" lon="9.661301"><ele>389.0</ele><time>2026-04-03T16:38:15.497Z</time></trkpt><trkpt lat="44.8582624" lon="9.6613546"><ele>389.0</ele><time>2026-04-03T16:38:16.49Z</time></trkpt><trkpt lat="44.8583173" lon="9.6613981"><ele>389.0</ele><time>2026-04-03T16:38:17.493Z</time></trkpt><trkpt lat="44.8584104" lon="9.6614595"><ele>388.99999999999994</ele><time>2026-04-03T16:38:19.495Z</time></trkpt><trkpt lat="44.8584843" lon="9.6615211"><ele>389.0</ele><time>2026-04-03T16:38:21.496Z</time></trkpt><trkpt lat="44.8585444" lon="9.6615854"><ele>389.66666666666663</ele><time>2026-04-03T16:38:23.497Z</time></trkpt><trkpt lat="44.8586318" lon="9.6616685"><ele>390.3333333333333</ele><time>2026-04-03T16:38:25.49Z</time></trkpt><trkpt lat="44.8586873" lon="9.6617177"><ele>391.0</ele><time>2026-04-03T16:38:26.495Z</time></trkpt><trkpt lat="44.8587455" lon="9.6617688"><ele>391.66666666666663</ele><time>2026-04-03T16:38:27.497Z</time></trkpt><trkpt lat="44.8588057" lon="9.6618249"><ele>392.3333333333333</ele><time>2026-04-03T16:38:28.493Z</time></trkpt><trkpt lat="44.8588972" lon="9.6619187"><ele>393.0</ele><time>2026-04-03T16:38:30.495Z</time></trkpt><trkpt lat="44.858963" lon="9.6619956"><ele>393.0</ele><time>2026-04-03T16:38:32.5Z</time></trkpt><trkpt lat="44.8590248" lon="9.6620729"><ele>393.0</ele><time>2026-04-03T16:38:34.49Z</time></trkpt><trkpt lat="44.8590927" lon="9.66215"><ele>393.0</ele><time>2026-04-03T16:38:36.499Z</time></trkpt><trkpt lat="44.8591564" lon="9.6622062"><ele>393.0</ele><time>2026-04-03T16:38:38.49Z</time></trkpt><trkpt lat="44.8592186" lon="9.6622452"><ele>393.0</ele><time>2026-04-03T16:38:40.494Z</time></trkpt><trkpt lat="44.8592944" lon="9.6622599"><ele>393.0</ele><time>2026-04-03T16:38:43.505Z</time></trkpt><trkpt lat="44.8592205" lon="9.6622247"><ele>393.0</ele><time>2026-04-03T16:38:50.495Z</time></trkpt><trkpt lat="44.8591518" lon="9.6622034"><ele>393.0</ele><time>2026-04-03T16:38:52.503Z</time></trkpt><trkpt lat="44.8590662" lon="9.6621271"><ele>393.0</ele><time>2026-04-03T16:38:54.492Z</time></trkpt><trkpt lat="44.8589609" lon="9.662006"><ele>393.0</ele><time>2026-04-03T16:38:56.496Z</time></trkpt><trkpt lat="44.8589042" lon="9.6619281"><ele>393.0</ele><time>2026-04-03T16:38:57.494Z</time></trkpt><trkpt lat="44.8588454" lon="9.661853"><ele>394.0</ele><time>2026-04-03T16:38:58.492Z</time></trkpt><trkpt lat="44.8587868" lon="9.661788"><ele>395.0</ele><time>2026-04-03T16:38:59.495Z</time></trkpt><trkpt lat="44.8587266" lon="9.661732"><ele>396.0</ele><time>2026-04-03T16:39:00.495Z</time></trkpt><trkpt lat="44.8586688" lon="9.6616854"><ele>397.0</ele><time>2026-04-03T16:39:01.503Z</time></trkpt><trkpt lat="44.8585733" lon="9.6616024"><ele>398.0</ele><time>2026-04-03T16:39:03.505Z</time></trkpt><trkpt lat="44.8585138" lon="9.6615498"><ele>399.0</ele><time>2026-04-03T16:39:06.495Z</time></trkpt><trkpt lat="44.8584592" lon="9.6614988"><ele>397.0</ele><time>2026-04-03T16:40:20.508Z</time></trkpt><trkpt lat="44.8583541" lon="9.6614261"><ele>395.0</ele><time>2026-04-03T16:40:22.524Z</time></trkpt><trkpt lat="44.8582839" lon="9.6613739"><ele>393.0</ele><time>2026-04-03T16:40:23.501Z</time></trkpt><trkpt lat="44.8582012" lon="9.661313"><ele>391.0</ele><time>2026-04-03T16:40:24.498Z</time></trkpt><trkpt lat="44.8581206" lon="9.6612507"><ele>389.0</ele><time>2026-04-03T16:40:25.509Z</time></trkpt><trkpt lat="44.8580499" lon="9.6612135"><ele>389.0</ele><time>2026-04-03T16:40:26.51Z</time></trkpt><trkpt lat="44.857982" lon="9.6612124"><ele>389.0</ele><time>2026-04-03T16:40:27.511Z</time></trkpt><trkpt lat="44.8579022" lon="9.6612484"><ele>389.0</ele><time>2026-04-03T16:40:28.51Z</time></trkpt><trkpt lat="44.8578112" lon="9.6613205"><ele>389.0</ele><time>2026-04-03T16:40:29.51Z</time></trkpt><trkpt lat="44.8577025" lon="9.6614152"><ele>389.0</ele><time>2026-04-03T16:40:30.509Z</time></trkpt><trkpt lat="44.8575926" lon="9.6615074"><ele>385.25</ele><time>2026-04-03T16:40:31.507Z</time></trkpt><trkpt lat="44.8574812" lon="9.6615932"><ele>381.5</ele><time>2026-04-03T16:40:32.516Z</time></trkpt><trkpt lat="44.8573713" lon="9.6616671"><ele>377.75</ele><time>2026-04-03T16:40:33.508Z</time></trkpt><trkpt lat="44.8572741" lon="9.6617315"><ele>374.0</ele><time>2026-04-03T16:40:34.506Z</time></trkpt><trkpt lat="44.8571858" lon="9.6617818"><ele>374.0</ele><time>2026-04-03T16:40:35.504Z</time></trkpt><trkpt lat="44.8571048" lon="9.6618131"><ele>374.0</ele><time>2026-04-03T16:40:36.506Z</time></trkpt><trkpt lat="44.8570283" lon="9.6618281"><ele>374.0</ele><time>2026-04-03T16:40:37.503Z</time></trkpt><trkpt lat="44.8569553" lon="9.6618346"><ele>374.0</ele><time>2026-04-03T16:40:38.508Z</time></trkpt><trkpt lat="44.8568859" lon="9.661838"><ele>374.0</ele><time>2026-04-03T16:40:39.505Z</time></trkpt><trkpt lat="44.8568182" lon="9.6618399"><ele>374.0</ele><time>2026-04-03T16:40:40.503Z</time></trkpt><trkpt lat="44.8567037" lon="9.661833"><ele>373.6666666666667</ele><time>2026-04-03T16:40:42.508Z</time></trkpt><trkpt lat="44.8566231" lon="9.6618011"><ele>373.33333333333337</ele><time>2026-04-03T16:40:44.501Z</time></trkpt><trkpt lat="44.8565156" lon="9.6617861"><ele>373.0</ele><time>2026-04-03T16:40:46.502Z</time></trkpt><trkpt lat="44.8564463" lon="9.6618047"><ele>372.6666666666667</ele><time>2026-04-03T16:40:47.504Z</time></trkpt><trkpt lat="44.8563676" lon="9.661843"><ele>372.3333333333333</ele><time>2026-04-03T16:40:48.506Z</time></trkpt><trkpt lat="44.8562842" lon="9.6619014"><ele>372.0</ele><time>2026-04-03T16:40:49.503Z</time></trkpt><trkpt lat="44.8561967" lon="9.6619664"><ele>371.8</ele><time>2026-04-03T16:40:50.495Z</time></trkpt><trkpt lat="44.8561132" lon="9.6620379"><ele>371.6</ele><time>2026-04-03T16:40:51.499Z</time></trkpt><trkpt lat="44.8560289" lon="9.6621065"><ele>371.40000000000003</ele><time>2026-04-03T16:40:52.5Z</time></trkpt><trkpt lat="44.8559407" lon="9.662171"><ele>371.20000000000005</ele><time>2026-04-03T16:40:53.493Z</time></trkpt><trkpt lat="44.8558499" lon="9.6622386"><ele>371.0</ele><time>2026-04-03T16:40:54.509Z</time></trkpt><trkpt lat="44.8557544" lon="9.6623086"><ele>372.5</ele><time>2026-04-03T16:40:55.492Z</time></trkpt><trkpt lat="44.8556545" lon="9.6623759"><ele>374.0</ele><time>2026-04-03T16:40:56.499Z</time></trkpt><trkpt lat="44.8555488" lon="9.6624469"><ele>375.5</ele><time>2026-04-03T16:40:57.502Z</time></trkpt><trkpt lat="44.8554463" lon="9.662526"><ele>377.0</ele><time>2026-04-03T16:40:58.508Z</time></trkpt><trkpt lat="44.8553486" lon="9.6626116"><ele>377.0</ele><time>2026-04-03T16:40:59.497Z</time></trkpt><trkpt lat="44.8552599" lon="9.6627115"><ele>377.0</ele><time>2026-04-03T16:41:00.505Z</time></trkpt><trkpt lat="44.8551885" lon="9.6628307"><ele>377.0</ele><time>2026-04-03T16:41:01.509Z</time></trkpt><trkpt lat="44.8551415" lon="9.6629679"><ele>377.0</ele><time>2026-04-03T16:41:02.504Z</time></trkpt><trkpt lat="44.8551252" lon="9.6631098"><ele>377.0</ele><time>2026-04-03T16:41:03.514Z</time></trkpt><trkpt lat="44.8551359" lon="9.6632432"><ele>377.0</ele><time>2026-04-03T16:41:04.502Z</time></trkpt><trkpt lat="44.8551766" lon="9.66336"><ele>377.0</ele><time>2026-04-03T16:41:05.502Z</time></trkpt><trkpt lat="44.8552455" lon="9.6634641"><ele>377.0</ele><time>2026-04-03T16:41:06.499Z</time></trkpt><trkpt lat="44.8553311" lon="9.6635665"><ele>377.0</ele><time>2026-04-03T16:41:07.507Z</time></trkpt><trkpt lat="44.8554215" lon="9.6636809"><ele>377.0</ele><time>2026-04-03T16:41:08.498Z</time></trkpt><trkpt lat="44.8555103" lon="9.6638145"><ele>379.5</ele><time>2026-04-03T16:41:09.511Z</time></trkpt><trkpt lat="44.8555961" lon="9.6639616"><ele>382.0</ele><time>2026-04-03T16:41:10.499Z</time></trkpt><trkpt lat="44.8556764" lon="9.6641258"><ele>384.5</ele><time>2026-04-03T16:41:11.494Z</time></trkpt><trkpt lat="44.8557553" lon="9.6642962"><ele>387.0</ele><time>2026-04-03T16:41:12.492Z</time></trkpt><trkpt lat="44.8558348" lon="9.6644579"><ele>388.0</ele><time>2026-04-03T16:41:13.5Z</time></trkpt><trkpt lat="44.8559164" lon="9.6645996"><ele>389.0</ele><time>2026-04-03T16:41:14.496Z</time></trkpt><trkpt lat="44.8559914" lon="9.6647386"><ele>390.0</ele><time>2026-04-03T16:41:15.502Z</time></trkpt><trkpt lat="44.8560539" lon="9.6648741"><ele>391.0</ele><time>2026-04-03T16:41:16.5Z</time></trkpt><trkpt lat="44.856101" lon="9.665002"><ele>391.0</ele><time>2026-04-03T16:41:17.502Z</time></trkpt><trkpt lat="44.8561237" lon="9.665137"><ele>391.0</ele><time>2026-04-03T16:41:18.496Z</time></trkpt><trkpt lat="44.856122" lon="9.665277"><ele>391.0</ele><time>2026-04-03T16:41:19.493Z</time></trkpt><trkpt lat="44.8560977" lon="9.6654245"><ele>391.0</ele><time>2026-04-03T16:41:20.493Z</time></trkpt><trkpt lat="44.8560528" lon="9.6655767"><ele>391.0</ele><time>2026-04-03T16:41:21.509Z</time></trkpt><trkpt lat="44.856" lon="9.6657347"><ele>391.6</ele><time>2026-04-03T16:41:22.491Z</time></trkpt><trkpt lat="44.8559527" lon="9.6658877"><ele>392.20000000000005</ele><time>2026-04-03T16:41:23.497Z</time></trkpt><trkpt lat="44.855901" lon="9.6660284"><ele>392.79999999999995</ele><time>2026-04-03T16:41:24.503Z</time></trkpt><trkpt lat="44.8558503" lon="9.6661599"><ele>393.4</ele><time>2026-04-03T16:41:25.497Z</time></trkpt><trkpt lat="44.8558056" lon="9.6662795"><ele>394.0</ele><time>2026-04-03T16:41:26.505Z</time></trkpt><trkpt lat="44.8557705" lon="9.6663829"><ele>394.0</ele><time>2026-04-03T16:41:27.499Z</time></trkpt><trkpt lat="44.8557381" lon="9.666476"><ele>394.0</ele><time>2026-04-03T16:41:28.506Z</time></trkpt><trkpt lat="44.8557073" lon="9.6665648"><ele>394.0</ele><time>2026-04-03T16:41:29.495Z</time></trkpt><trkpt lat="44.8556781" lon="9.66665"><ele>394.0</ele><time>2026-04-03T16:41:30.501Z</time></trkpt><trkpt lat="44.8556461" lon="9.6667337"><ele>394.0</ele><time>2026-04-03T16:41:31.493Z</time></trkpt><trkpt lat="44.8556137" lon="9.6668173"><ele>394.0</ele><time>2026-04-03T16:41:32.498Z</time></trkpt><trkpt lat="44.8555763" lon="9.6668961"><ele>394.0</ele><time>2026-04-03T16:41:33.502Z</time></trkpt><trkpt lat="44.8555339" lon="9.6669681"><ele>393.6</ele><time>2026-04-03T16:41:34.506Z</time></trkpt><trkpt lat="44.8554607" lon="9.6670985"><ele>393.2</ele><time>2026-04-03T16:41:36.502Z</time></trkpt><trkpt lat="44.8553983" lon="9.6672112"><ele>392.8</ele><time>2026-04-03T16:41:38.506Z</time></trkpt><trkpt lat="44.8553252" lon="9.66733"><ele>392.40000000000003</ele><time>2026-04-03T16:41:40.498Z</time></trkpt><trkpt lat="44.8552352" lon="9.6674312"><ele>392.0</ele><time>2026-04-03T16:41:42.502Z</time></trkpt><trkpt lat="44.8551769" lon="9.667465"><ele>391.6</ele><time>2026-04-03T16:41:43.507Z</time></trkpt><trkpt lat="44.8550976" lon="9.6674791"><ele>391.20000000000005</ele><time>2026-04-03T16:41:44.504Z</time></trkpt><trkpt lat="44.855011" lon="9.6674574"><ele>390.8</ele><time>2026-04-03T16:41:45.504Z</time></trkpt><trkpt lat="44.8549125" lon="9.6673967"><ele>390.4</ele><time>2026-04-03T16:41:46.502Z</time></trkpt><trkpt lat="44.8547926" lon="9.6673179"><ele>390.0</ele><time>2026-04-03T16:41:47.502Z</time></trkpt><trkpt lat="44.8546683" lon="9.6672463"><ele>390.0</ele><time>2026-04-03T16:41:48.492Z</time></trkpt><trkpt lat="44.8545506" lon="9.6671936"><ele>390.0</ele><time>2026-04-03T16:41:49.509Z</time></trkpt><trkpt lat="44.8544372" lon="9.6671616"><ele>390.0</ele><time>2026-04-03T16:41:50.504Z</time></trkpt><trkpt lat="44.8543301" lon="9.667159"><ele>390.0</ele><time>2026-04-03T16:41:51.502Z</time></trkpt><trkpt lat="44.8542312" lon="9.6671865"><ele>390.0</ele><time>2026-04-03T16:41:52.506Z</time></trkpt><trkpt lat="44.8541376" lon="9.667233"><ele>389.4</ele><time>2026-04-03T16:41:53.502Z</time></trkpt><trkpt lat="44.8540507" lon="9.6673004"><ele>388.8</ele><time>2026-04-03T16:41:54.509Z</time></trkpt><trkpt lat="44.8539706" lon="9.6673706"><ele>388.20000000000005</ele><time>2026-04-03T16:41:55.504Z</time></trkpt><trkpt lat="44.8538911" lon="9.6674332"><ele>387.6</ele><time>2026-04-03T16:41:56.501Z</time></trkpt><trkpt lat="44.8538122" lon="9.6674864"><ele>387.0</ele><time>2026-04-03T16:41:57.507Z</time></trkpt><trkpt lat="44.8537275" lon="9.6675297"><ele>387.0</ele><time>2026-04-03T16:41:58.504Z</time></trkpt><trkpt lat="44.8536405" lon="9.6675564"><ele>387.0</ele><time>2026-04-03T16:41:59.506Z</time></trkpt><trkpt lat="44.8535522" lon="9.6675696"><ele>387.0</ele><time>2026-04-03T16:42:00.522Z</time></trkpt><trkpt lat="44.8534607" lon="9.6675609"><ele>387.0</ele><time>2026-04-03T16:42:01.5Z</time></trkpt><trkpt lat="44.8533617" lon="9.6675285"><ele>387.0</ele><time>2026-04-03T16:42:02.506Z</time></trkpt><trkpt lat="44.8532621" lon="9.6674946"><ele>386.20000000000005</ele><time>2026-04-03T16:42:03.51Z</time></trkpt><trkpt lat="44.8531639" lon="9.66746"><ele>385.4</ele><time>2026-04-03T16:42:04.509Z</time></trkpt><trkpt lat="44.8530648" lon="9.6674263"><ele>384.6</ele><time>2026-04-03T16:42:05.51Z</time></trkpt><trkpt lat="44.8529671" lon="9.6673909"><ele>383.79999999999995</ele><time>2026-04-03T16:42:06.502Z</time></trkpt><trkpt lat="44.8528723" lon="9.6673543"><ele>383.0</ele><time>2026-04-03T16:42:07.496Z</time></trkpt><trkpt lat="44.8527799" lon="9.667317"><ele>383.0</ele><time>2026-04-03T16:42:08.505Z</time></trkpt><trkpt lat="44.8526895" lon="9.6672757"><ele>383.0</ele><time>2026-04-03T16:42:09.51Z</time></trkpt><trkpt lat="44.8526041" lon="9.667235"><ele>383.0</ele><time>2026-04-03T16:42:10.499Z</time></trkpt><trkpt lat="44.8525352" lon="9.6671984"><ele>383.0</ele><time>2026-04-03T16:42:11.502Z</time></trkpt><trkpt lat="44.8524616" lon="9.6671644"><ele>383.0</ele><time>2026-04-03T16:42:13.507Z</time></trkpt><trkpt lat="44.8523904" lon="9.6672633"><ele>383.0</ele><time>2026-04-03T16:42:16.5Z</time></trkpt><trkpt lat="44.8523749" lon="9.6673521"><ele>382.0</ele><time>2026-04-03T16:42:17.508Z</time></trkpt><trkpt lat="44.852375" lon="9.6674624"><ele>381.0</ele><time>2026-04-03T16:42:18.494Z</time></trkpt><trkpt lat="44.8523906" lon="9.6675868"><ele>380.0</ele><time>2026-04-03T16:42:19.502Z</time></trkpt><trkpt lat="44.8524236" lon="9.6677246"><ele>379.0</ele><time>2026-04-03T16:42:20.49Z</time></trkpt><trkpt lat="44.8524716" lon="9.6678726"><ele>378.0</ele><time>2026-04-03T16:42:21.51Z</time></trkpt><trkpt lat="44.852523" lon="9.6680256"><ele>378.0</ele><time>2026-04-03T16:42:22.505Z</time></trkpt><trkpt lat="44.8525719" lon="9.6681811"><ele>378.0</ele><time>2026-04-03T16:42:23.507Z</time></trkpt><trkpt lat="44.8526198" lon="9.668338"><ele>378.0</ele><time>2026-04-03T16:42:24.494Z</time></trkpt><trkpt lat="44.8526646" lon="9.6684863"><ele>378.0</ele><time>2026-04-03T16:42:25.5Z</time></trkpt><trkpt lat="44.8527024" lon="9.6686296"><ele>375.2</ele><time>2026-04-03T16:42:26.502Z</time></trkpt><trkpt lat="44.8527374" lon="9.6687652"><ele>372.4</ele><time>2026-04-03T16:42:27.501Z</time></trkpt><trkpt lat="44.8527614" lon="9.6688964"><ele>369.59999999999997</ele><time>2026-04-03T16:42:28.498Z</time></trkpt><trkpt lat="44.8527745" lon="9.6690313"><ele>366.79999999999995</ele><time>2026-04-03T16:42:29.5Z</time></trkpt><trkpt lat="44.8527789" lon="9.6691715"><ele>364.0</ele><time>2026-04-03T16:42:30.507Z</time></trkpt><trkpt lat="44.8527851" lon="9.6693154"><ele>364.0</ele><time>2026-04-03T16:42:31.499Z</time></trkpt><trkpt lat="44.8528059" lon="9.6694619"><ele>364.0</ele><time>2026-04-03T16:42:32.505Z</time></trkpt><trkpt lat="44.8528448" lon="9.669609"><ele>364.0</ele><time>2026-04-03T16:42:33.496Z</time></trkpt><trkpt lat="44.8528938" lon="9.6697604"><ele>364.0</ele><time>2026-04-03T16:42:34.501Z</time></trkpt><trkpt lat="44.8529502" lon="9.6699096"><ele>364.0</ele><time>2026-04-03T16:42:35.494Z</time></trkpt><trkpt lat="44.8530084" lon="9.6700518"><ele>364.0</ele><time>2026-04-03T16:42:36.501Z</time></trkpt><trkpt lat="44.8530659" lon="9.6701897"><ele>364.0</ele><time>2026-04-03T16:42:37.499Z</time></trkpt><trkpt lat="44.8531215" lon="9.6703221"><ele>364.0</ele><time>2026-04-03T16:42:38.499Z</time></trkpt><trkpt lat="44.8531751" lon="9.6704505"><ele>364.0</ele><time>2026-04-03T16:42:39.501Z</time></trkpt><trkpt lat="44.8532268" lon="9.6705776"><ele>363.79999999999995</ele><time>2026-04-03T16:42:40.502Z</time></trkpt><trkpt lat="44.8532764" lon="9.6707052"><ele>363.59999999999997</ele><time>2026-04-03T16:42:41.507Z</time></trkpt><trkpt lat="44.853324" lon="9.6708309"><ele>363.4</ele><time>2026-04-03T16:42:42.504Z</time></trkpt><trkpt lat="44.8533688" lon="9.6709567"><ele>363.2</ele><time>2026-04-03T16:42:43.508Z</time></trkpt><trkpt lat="44.8534076" lon="9.6710791"><ele>363.0</ele><time>2026-04-03T16:42:44.509Z</time></trkpt><trkpt lat="44.853441" lon="9.6711924"><ele>359.8333333333333</ele><time>2026-04-03T16:42:45.513Z</time></trkpt><trkpt lat="44.8534674" lon="9.6713012"><ele>356.6666666666667</ele><time>2026-04-03T16:42:46.499Z</time></trkpt><trkpt lat="44.8534875" lon="9.6714118"><ele>353.5</ele><time>2026-04-03T16:42:47.508Z</time></trkpt><trkpt lat="44.8535027" lon="9.6715259"><ele>350.33333333333337</ele><time>2026-04-03T16:42:48.509Z</time></trkpt><trkpt lat="44.8535159" lon="9.6716394"><ele>347.1666666666667</ele><time>2026-04-03T16:42:49.516Z</time></trkpt><trkpt lat="44.853525" lon="9.6717528"><ele>344.0</ele><time>2026-04-03T16:42:50.51Z</time></trkpt><trkpt lat="44.8535278" lon="9.671864"><ele>342.5</ele><time>2026-04-03T16:42:51.504Z</time></trkpt><trkpt lat="44.8535242" lon="9.6719744"><ele>341.0</ele><time>2026-04-03T16:42:52.498Z</time></trkpt><trkpt lat="44.8535297" lon="9.6720927"><ele>339.5</ele><time>2026-04-03T16:42:53.508Z</time></trkpt><trkpt lat="44.853553" lon="9.6722163"><ele>338.0</ele><time>2026-04-03T16:42:54.509Z</time></trkpt><trkpt lat="44.8535945" lon="9.6723372"><ele>336.5</ele><time>2026-04-03T16:42:55.509Z</time></trkpt><trkpt lat="44.8536423" lon="9.6724609"><ele>335.0</ele><time>2026-04-03T16:42:56.511Z</time></trkpt><trkpt lat="44.8536869" lon="9.672578"><ele>335.0</ele><time>2026-04-03T16:42:57.509Z</time></trkpt><trkpt lat="44.8537188" lon="9.6726879"><ele>335.0</ele><time>2026-04-03T16:42:58.505Z</time></trkpt><trkpt lat="44.853739" lon="9.6727907"><ele>335.0</ele><time>2026-04-03T16:42:59.511Z</time></trkpt><trkpt lat="44.8537443" lon="9.672883"><ele>335.0</ele><time>2026-04-03T16:43:00.509Z</time></trkpt><trkpt lat="44.8537007" lon="9.6730385"><ele>335.0</ele><time>2026-04-03T16:43:02.507Z</time></trkpt><trkpt lat="44.853652" lon="9.6731011"><ele>335.0</ele><time>2026-04-03T16:43:03.518Z</time></trkpt><trkpt lat="44.853591" lon="9.6731493"><ele>335.2</ele><time>2026-04-03T16:43:04.512Z</time></trkpt><trkpt lat="44.8535113" lon="9.673192"><ele>335.4</ele><time>2026-04-03T16:43:05.502Z</time></trkpt><trkpt lat="44.8534111" lon="9.6732468"><ele>335.6</ele><time>2026-04-03T16:43:06.496Z</time></trkpt><trkpt lat="44.8533015" lon="9.6733239"><ele>335.8</ele><time>2026-04-03T16:43:07.509Z</time></trkpt><trkpt lat="44.8531876" lon="9.6734225"><ele>336.0</ele><time>2026-04-03T16:43:08.508Z</time></trkpt><trkpt lat="44.853068" lon="9.6735143"><ele>336.6</ele><time>2026-04-03T16:43:09.501Z</time></trkpt><trkpt lat="44.8529665" lon="9.6735894"><ele>337.20000000000005</ele><time>2026-04-03T16:43:10.499Z</time></trkpt><trkpt lat="44.8528896" lon="9.6736741"><ele>337.79999999999995</ele><time>2026-04-03T16:43:11.501Z</time></trkpt><trkpt lat="44.8528385" lon="9.6737883"><ele>338.4</ele><time>2026-04-03T16:43:12.499Z</time></trkpt><trkpt lat="44.8528041" lon="9.6739215"><ele>339.0</ele><time>2026-04-03T16:43:13.504Z</time></trkpt><trkpt lat="44.852784" lon="9.674062"><ele>337.0</ele><time>2026-04-03T16:43:14.505Z</time></trkpt><trkpt lat="44.8527762" lon="9.6742081"><ele>335.0</ele><time>2026-04-03T16:43:15.51Z</time></trkpt><trkpt lat="44.8527872" lon="9.6743592"><ele>333.0</ele><time>2026-04-03T16:43:16.508Z</time></trkpt><trkpt lat="44.8528123" lon="9.6745123"><ele>331.0</ele><time>2026-04-03T16:43:17.509Z</time></trkpt><trkpt lat="44.8528372" lon="9.6746667"><ele>329.0</ele><time>2026-04-03T16:43:18.513Z</time></trkpt><trkpt lat="44.8528462" lon="9.6748212"><ele>328.0</ele><time>2026-04-03T16:43:19.509Z</time></trkpt><trkpt lat="44.8528303" lon="9.6749638"><ele>327.0</ele><time>2026-04-03T16:43:20.51Z</time></trkpt><trkpt lat="44.8527939" lon="9.6750823"><ele>326.0</ele><time>2026-04-03T16:43:21.499Z</time></trkpt><trkpt lat="44.8527478" lon="9.6751755"><ele>325.0</ele><time>2026-04-03T16:43:22.501Z</time></trkpt><trkpt lat="44.8526978" lon="9.6752526"><ele>324.0</ele><time>2026-04-03T16:43:23.501Z</time></trkpt><trkpt lat="44.852657" lon="9.6753237"><ele>323.0</ele><time>2026-04-03T16:43:24.502Z</time></trkpt><trkpt lat="44.8526047" lon="9.6754645"><ele>322.5</ele><time>2026-04-03T16:43:26.503Z</time></trkpt><trkpt lat="44.8525556" lon="9.6755974"><ele>322.0</ele><time>2026-04-03T16:43:28.495Z</time></trkpt><trkpt lat="44.8525024" lon="9.6757442"><ele>321.5</ele><time>2026-04-03T16:43:30.503Z</time></trkpt><trkpt lat="44.8524777" lon="9.675833"><ele>321.0</ele><time>2026-04-03T16:43:31.505Z</time></trkpt><trkpt lat="44.8524531" lon="9.6759337"><ele>320.5</ele><time>2026-04-03T16:43:32.51Z</time></trkpt><trkpt lat="44.8524293" lon="9.6760458"><ele>320.0</ele><time>2026-04-03T16:43:33.512Z</time></trkpt><trkpt lat="44.8524063" lon="9.6761625"><ele>318.0</ele><time>2026-04-03T16:43:34.504Z</time></trkpt><trkpt lat="44.8523795" lon="9.6762763"><ele>316.0</ele><time>2026-04-03T16:43:35.509Z</time></trkpt><trkpt lat="44.8523481" lon="9.6763759"><ele>314.0</ele><time>2026-04-03T16:43:36.505Z</time></trkpt><trkpt lat="44.8523109" lon="9.6764524"><ele>312.0</ele><time>2026-04-03T16:43:37.505Z</time></trkpt><trkpt lat="44.8522277" lon="9.6765435"><ele>310.0</ele><time>2026-04-03T16:43:39.502Z</time></trkpt><trkpt lat="44.8520998" lon="9.6766311"><ele>310.0</ele><time>2026-04-03T16:43:41.491Z</time></trkpt><trkpt lat="44.85201" lon="9.6766736"><ele>310.0</ele><time>2026-04-03T16:43:42.493Z</time></trkpt><trkpt lat="44.8519166" lon="9.6767216"><ele>310.0</ele><time>2026-04-03T16:43:43.512Z</time></trkpt><trkpt lat="44.8518249" lon="9.6767831"><ele>310.0</ele><time>2026-04-03T16:43:44.497Z</time></trkpt><trkpt lat="44.8517345" lon="9.6768388"><ele>310.0</ele><time>2026-04-03T16:43:45.501Z</time></trkpt><trkpt lat="44.8516378" lon="9.6768809"><ele>308.0</ele><time>2026-04-03T16:43:46.498Z</time></trkpt><trkpt lat="44.8515357" lon="9.6768943"><ele>306.0</ele><time>2026-04-03T16:43:47.506Z</time></trkpt><trkpt lat="44.8514246" lon="9.67688"><ele>304.0</ele><time>2026-04-03T16:43:48.495Z</time></trkpt><trkpt lat="44.8513079" lon="9.6768534"><ele>302.0</ele><time>2026-04-03T16:43:49.493Z</time></trkpt><trkpt lat="44.8511927" lon="9.676836"><ele>300.0</ele><time>2026-04-03T16:43:50.504Z</time></trkpt><trkpt lat="44.8510794" lon="9.676831"><ele>300.0</ele><time>2026-04-03T16:43:51.495Z</time></trkpt><trkpt lat="44.8509638" lon="9.6768349"><ele>300.0</ele><time>2026-04-03T16:43:52.499Z</time></trkpt><trkpt lat="44.8508497" lon="9.6768367"><ele>300.0</ele><time>2026-04-03T16:43:53.497Z</time></trkpt><trkpt lat="44.8507479" lon="9.6768417"><ele>300.0</ele><time>2026-04-03T16:43:54.506Z</time></trkpt><trkpt lat="44.8506605" lon="9.6768683"><ele>300.0</ele><time>2026-04-03T16:43:55.506Z</time></trkpt><trkpt lat="44.850591" lon="9.6769372"><ele>297.0</ele><time>2026-04-03T16:43:56.494Z</time></trkpt><trkpt lat="44.8505427" lon="9.6770417"><ele>294.0</ele><time>2026-04-03T16:43:57.519Z</time></trkpt><trkpt lat="44.8505011" lon="9.6771798"><ele>291.0</ele><time>2026-04-03T16:43:58.498Z</time></trkpt><trkpt lat="44.8504499" lon="9.6773313"><ele>288.0</ele><time>2026-04-03T16:43:59.501Z</time></trkpt><trkpt lat="44.8503955" lon="9.677489"><ele>285.0</ele><time>2026-04-03T16:44:00.505Z</time></trkpt><trkpt lat="44.8503419" lon="9.6776453"><ele>284.8</ele><time>2026-04-03T16:44:01.495Z</time></trkpt><trkpt lat="44.8502964" lon="9.6778033"><ele>284.6</ele><time>2026-04-03T16:44:02.506Z</time></trkpt><trkpt lat="44.8502731" lon="9.677956"><ele>284.4</ele><time>2026-04-03T16:44:03.505Z</time></trkpt><trkpt lat="44.8502765" lon="9.6781032"><ele>284.2</ele><time>2026-04-03T16:44:04.499Z</time></trkpt><trkpt lat="44.8502919" lon="9.6782389"><ele>284.0</ele><time>2026-04-03T16:44:05.499Z</time></trkpt><trkpt lat="44.8503043" lon="9.6783575"><ele>284.0</ele><time>2026-04-03T16:44:06.501Z</time></trkpt><trkpt lat="44.8503001" lon="9.6784567"><ele>284.0</ele><time>2026-04-03T16:44:07.496Z</time></trkpt><trkpt lat="44.8502796" lon="9.6785433"><ele>284.0</ele><time>2026-04-03T16:44:08.492Z</time></trkpt><trkpt lat="44.8502373" lon="9.678627"><ele>284.0</ele><time>2026-04-03T16:44:09.496Z</time></trkpt><trkpt lat="44.8501874" lon="9.6787024"><ele>284.0</ele><time>2026-04-03T16:44:10.498Z</time></trkpt><trkpt lat="44.8501118" lon="9.6787697"><ele>284.0</ele><time>2026-04-03T16:44:11.506Z</time></trkpt><trkpt lat="44.8500212" lon="9.6788274"><ele>285.5</ele><time>2026-04-03T16:44:12.501Z</time></trkpt><trkpt lat="44.8499346" lon="9.6788676"><ele>287.0</ele><time>2026-04-03T16:44:13.499Z</time></trkpt><trkpt lat="44.8498609" lon="9.6789054"><ele>288.5</ele><time>2026-04-03T16:44:14.492Z</time></trkpt><trkpt lat="44.849806" lon="9.6789656"><ele>290.0</ele><time>2026-04-03T16:44:15.496Z</time></trkpt><trkpt lat="44.8497717" lon="9.6790472"><ele>291.5</ele><time>2026-04-03T16:44:16.51Z</time></trkpt><trkpt lat="44.8497595" lon="9.6791447"><ele>293.0</ele><time>2026-04-03T16:44:17.492Z</time></trkpt><trkpt lat="44.849759" lon="9.679253"><ele>293.0</ele><time>2026-04-03T16:44:18.502Z</time></trkpt><trkpt lat="44.8497594" lon="9.6793786"><ele>293.0</ele><time>2026-04-03T16:44:19.501Z</time></trkpt><trkpt lat="44.8497657" lon="9.6794991"><ele>293.0</ele><time>2026-04-03T16:44:20.497Z</time></trkpt><trkpt lat="44.8497725" lon="9.6796042"><ele>293.0</ele><time>2026-04-03T16:44:21.514Z</time></trkpt><trkpt lat="44.8497827" lon="9.679762"><ele>293.0</ele><time>2026-04-03T16:44:23.498Z</time></trkpt><trkpt lat="44.8497993" lon="9.6798891"><ele>294.4</ele><time>2026-04-03T16:44:25.509Z</time></trkpt><trkpt lat="44.8498135" lon="9.6800092"><ele>295.8</ele><time>2026-04-03T16:44:27.493Z</time></trkpt><trkpt lat="44.8498315" lon="9.6801104"><ele>297.2</ele><time>2026-04-03T16:44:29.5Z</time></trkpt><trkpt lat="44.849858" lon="9.6802291"><ele>298.6</ele><time>2026-04-03T16:44:31.507Z</time></trkpt><trkpt lat="44.8498822" lon="9.6803638"><ele>300.0</ele><time>2026-04-03T16:44:33.503Z</time></trkpt><trkpt lat="44.849887" lon="9.6805155"><ele>300.6666666666667</ele><time>2026-04-03T16:44:35.495Z</time></trkpt><trkpt lat="44.8498555" lon="9.6806682"><ele>301.3333333333333</ele><time>2026-04-03T16:44:37.497Z</time></trkpt><trkpt lat="44.8498131" lon="9.6807444"><ele>302.0</ele><time>2026-04-03T16:44:38.493Z</time></trkpt><trkpt lat="44.8497556" lon="9.680809"><ele>302.66666666666663</ele><time>2026-04-03T16:44:39.501Z</time></trkpt><trkpt lat="44.8496905" lon="9.6808613"><ele>303.3333333333333</ele><time>2026-04-03T16:44:40.5Z</time></trkpt><trkpt lat="44.8496142" lon="9.6808944"><ele>304.0</ele><time>2026-04-03T16:44:41.507Z</time></trkpt><trkpt lat="44.8495351" lon="9.6809048"><ele>304.0</ele><time>2026-04-03T16:44:42.506Z</time></trkpt><trkpt lat="44.8494605" lon="9.6808914"><ele>304.0</ele><time>2026-04-03T16:44:43.493Z</time></trkpt><trkpt lat="44.8493943" lon="9.6808631"><ele>304.0</ele><time>2026-04-03T16:44:44.505Z</time></trkpt><trkpt lat="44.8493384" lon="9.6808116"><ele>304.0</ele><time>2026-04-03T16:44:45.495Z</time></trkpt><trkpt lat="44.8492631" lon="9.6807247"><ele>304.0</ele><time>2026-04-03T16:44:47.517Z</time></trkpt><trkpt lat="44.8491612" lon="9.6806252"><ele>304.0</ele><time>2026-04-03T16:45:03.507Z</time></trkpt><trkpt lat="44.8490942" lon="9.6805676"><ele>304.8</ele><time>2026-04-03T16:45:04.503Z</time></trkpt><trkpt lat="44.8490169" lon="9.6805074"><ele>305.59999999999997</ele><time>2026-04-03T16:45:05.491Z</time></trkpt><trkpt lat="44.848924" lon="9.680447"><ele>306.4</ele><time>2026-04-03T16:45:06.505Z</time></trkpt><trkpt lat="44.8488165" lon="9.6803888"><ele>307.2</ele><time>2026-04-03T16:45:07.501Z</time></trkpt><trkpt lat="44.8487055" lon="9.6803275"><ele>308.0</ele><time>2026-04-03T16:45:08.507Z</time></trkpt><trkpt lat="44.8486045" lon="9.680256"><ele>308.0</ele><time>2026-04-03T16:45:09.505Z</time></trkpt><trkpt lat="44.848515" lon="9.6801872"><ele>308.0</ele><time>2026-04-03T16:45:10.504Z</time></trkpt><trkpt lat="44.8484432" lon="9.6801473"><ele>308.0</ele><time>2026-04-03T16:45:11.511Z</time></trkpt><trkpt lat="44.8483511" lon="9.6801713"><ele>308.0</ele><time>2026-04-03T16:45:13.493Z</time></trkpt><trkpt lat="44.8482589" lon="9.6802989"><ele>308.0</ele><time>2026-04-03T16:45:15.494Z</time></trkpt><trkpt lat="44.8482069" lon="9.6803762"><ele>311.6666666666667</ele><time>2026-04-03T16:45:16.493Z</time></trkpt><trkpt lat="44.8481682" lon="9.6804701"><ele>315.33333333333337</ele><time>2026-04-03T16:45:17.497Z</time></trkpt><trkpt lat="44.8481449" lon="9.6805774"><ele>319.0</ele><time>2026-04-03T16:45:18.49Z</time></trkpt><trkpt lat="44.8481209" lon="9.6806945"><ele>322.6666666666667</ele><time>2026-04-03T16:45:19.491Z</time></trkpt><trkpt lat="44.8480927" lon="9.680817"><ele>326.3333333333333</ele><time>2026-04-03T16:45:20.489Z</time></trkpt><trkpt lat="44.8480557" lon="9.6809362"><ele>330.0</ele><time>2026-04-03T16:45:21.494Z</time></trkpt><trkpt lat="44.8480101" lon="9.6810468"><ele>330.8</ele><time>2026-04-03T16:45:22.496Z</time></trkpt><trkpt lat="44.8479657" lon="9.6811591"><ele>331.6</ele><time>2026-04-03T16:45:23.49Z</time></trkpt><trkpt lat="44.847925" lon="9.681288"><ele>332.4</ele><time>2026-04-03T16:45:24.492Z</time></trkpt><trkpt lat="44.8478904" lon="9.6814249"><ele>333.2</ele><time>2026-04-03T16:45:25.5Z</time></trkpt><trkpt lat="44.8478746" lon="9.6815487"><ele>334.0</ele><time>2026-04-03T16:45:26.493Z</time></trkpt><trkpt lat="44.8478896" lon="9.681676"><ele>334.0</ele><time>2026-04-03T16:45:27.495Z</time></trkpt><trkpt lat="44.8479361" lon="9.6818077"><ele>334.0</ele><time>2026-04-03T16:45:28.491Z</time></trkpt><trkpt lat="44.8480051" lon="9.6819489"><ele>334.0</ele><time>2026-04-03T16:45:29.501Z</time></trkpt><trkpt lat="44.8480824" lon="9.6821012"><ele>334.0</ele><time>2026-04-03T16:45:30.5Z</time></trkpt><trkpt lat="44.8481589" lon="9.6822483"><ele>337.0</ele><time>2026-04-03T16:45:31.49Z</time></trkpt><trkpt lat="44.8482268" lon="9.6823809"><ele>340.0</ele><time>2026-04-03T16:45:32.49Z</time></trkpt><trkpt lat="44.8482825" lon="9.6825036"><ele>343.0</ele><time>2026-04-03T16:45:33.491Z</time></trkpt><trkpt lat="44.8483233" lon="9.6826335"><ele>346.0</ele><time>2026-04-03T16:45:34.49Z</time></trkpt><trkpt lat="44.8483528" lon="9.682773"><ele>349.0</ele><time>2026-04-03T16:45:35.493Z</time></trkpt><trkpt lat="44.8483696" lon="9.6829161"><ele>352.25</ele><time>2026-04-03T16:45:36.509Z</time></trkpt><trkpt lat="44.8483859" lon="9.6830679"><ele>355.5</ele><time>2026-04-03T16:45:37.503Z</time></trkpt><trkpt lat="44.8484069" lon="9.683234"><ele>358.75</ele><time>2026-04-03T16:45:38.513Z</time></trkpt><trkpt lat="44.8484285" lon="9.6834163"><ele>362.0</ele><time>2026-04-03T16:45:39.516Z</time></trkpt><trkpt lat="44.848448" lon="9.6836003"><ele>360.25</ele><time>2026-04-03T16:45:40.501Z</time></trkpt><trkpt lat="44.8484616" lon="9.6837796"><ele>358.5</ele><time>2026-04-03T16:45:41.504Z</time></trkpt><trkpt lat="44.848472" lon="9.6839539"><ele>356.75</ele><time>2026-04-03T16:45:42.494Z</time></trkpt><trkpt lat="44.8484672" lon="9.6841378"><ele>355.0</ele><time>2026-04-03T16:45:43.494Z</time></trkpt><trkpt lat="44.8484495" lon="9.6843311"><ele>362.0</ele><time>2026-04-03T16:45:44.498Z</time></trkpt><trkpt lat="44.8484289" lon="9.6845252"><ele>369.0</ele><time>2026-04-03T16:45:45.494Z</time></trkpt><trkpt lat="44.848421" lon="9.6847149"><ele>376.0</ele><time>2026-04-03T16:45:46.495Z</time></trkpt><trkpt lat="44.8484261" lon="9.6848917"><ele>383.0</ele><time>2026-04-03T16:45:47.497Z</time></trkpt><trkpt lat="44.84845" lon="9.685053"><ele>381.2</ele><time>2026-04-03T16:45:48.495Z</time></trkpt><trkpt lat="44.8484911" lon="9.6851994"><ele>379.4</ele><time>2026-04-03T16:45:49.489Z</time></trkpt><trkpt lat="44.8485349" lon="9.6853274"><ele>377.59999999999997</ele><time>2026-04-03T16:45:50.491Z</time></trkpt><trkpt lat="44.8485805" lon="9.6854441"><ele>375.79999999999995</ele><time>2026-04-03T16:45:51.497Z</time></trkpt><trkpt lat="44.848639" lon="9.685556"><ele>374.0</ele><time>2026-04-03T16:45:52.49Z</time></trkpt><trkpt lat="44.8486986" lon="9.6856801"><ele>374.0</ele><time>2026-04-03T16:45:53.496Z</time></trkpt><trkpt lat="44.8487525" lon="9.6858189"><ele>374.0</ele><time>2026-04-03T16:45:54.497Z</time></trkpt><trkpt lat="44.8488039" lon="9.6859651"><ele>374.0</ele><time>2026-04-03T16:45:55.501Z</time></trkpt><trkpt lat="44.8488469" lon="9.6861158"><ele>374.0</ele><time>2026-04-03T16:45:56.498Z</time></trkpt><trkpt lat="44.8488792" lon="9.6862688"><ele>375.25</ele><time>2026-04-03T16:45:57.497Z</time></trkpt><trkpt lat="44.8489025" lon="9.6864345"><ele>376.5</ele><time>2026-04-03T16:45:58.501Z</time></trkpt><trkpt lat="44.8489181" lon="9.6866101"><ele>377.75</ele><time>2026-04-03T16:45:59.497Z</time></trkpt><trkpt lat="44.848936" lon="9.6867951"><ele>379.0</ele><time>2026-04-03T16:46:00.496Z</time></trkpt><trkpt lat="44.8489561" lon="9.6869942"><ele>379.5</ele><time>2026-04-03T16:46:01.496Z</time></trkpt><trkpt lat="44.8489712" lon="9.6871906"><ele>380.0</ele><time>2026-04-03T16:46:02.495Z</time></trkpt><trkpt lat="44.8489856" lon="9.6873798"><ele>380.5</ele><time>2026-04-03T16:46:03.502Z</time></trkpt><trkpt lat="44.8489965" lon="9.687563"><ele>381.0</ele><time>2026-04-03T16:46:04.501Z</time></trkpt><trkpt lat="44.8490039" lon="9.6877371"><ele>380.6666666666667</ele><time>2026-04-03T16:46:05.489Z</time></trkpt><trkpt lat="44.8490102" lon="9.6878887"><ele>380.3333333333333</ele><time>2026-04-03T16:46:06.504Z</time></trkpt><trkpt lat="44.8490164" lon="9.6879961"><ele>380.0</ele><time>2026-04-03T16:46:07.502Z</time></trkpt><trkpt lat="44.8490161" lon="9.6880931"><ele>379.66666666666663</ele><time>2026-04-03T16:46:09.503Z</time></trkpt><trkpt lat="44.84906" lon="9.6882154"><ele>379.3333333333333</ele><time>2026-04-03T16:46:15.502Z</time></trkpt><trkpt lat="44.8491111" lon="9.6882739"><ele>379.0</ele><time>2026-04-03T16:46:16.498Z</time></trkpt><trkpt lat="44.8491733" lon="9.6883453"><ele>379.0</ele><time>2026-04-03T16:46:17.496Z</time></trkpt><trkpt lat="44.849246" lon="9.6884272"><ele>379.0</ele><time>2026-04-03T16:46:18.491Z</time></trkpt><trkpt lat="44.8493184" lon="9.6885091"><ele>379.0</ele><time>2026-04-03T16:46:19.494Z</time></trkpt><trkpt lat="44.8493852" lon="9.6885821"><ele>379.0</ele><time>2026-04-03T16:46:20.496Z</time></trkpt><trkpt lat="44.8494477" lon="9.6886464"><ele>379.0</ele><time>2026-04-03T16:46:21.492Z</time></trkpt><trkpt lat="44.8495181" lon="9.688706"><ele>379.0</ele><time>2026-04-03T16:46:22.496Z</time></trkpt><trkpt lat="44.8496062" lon="9.6887733"><ele>379.6</ele><time>2026-04-03T16:46:23.498Z</time></trkpt><trkpt lat="44.8497086" lon="9.6888466"><ele>380.2</ele><time>2026-04-03T16:46:24.499Z</time></trkpt><trkpt lat="44.8498081" lon="9.688915"><ele>380.8</ele><time>2026-04-03T16:46:25.494Z</time></trkpt><trkpt lat="44.8498935" lon="9.6889935"><ele>381.40000000000003</ele><time>2026-04-03T16:46:26.499Z</time></trkpt><trkpt lat="44.8499788" lon="9.6891017"><ele>382.0</ele><time>2026-04-03T16:46:27.495Z</time></trkpt><trkpt lat="44.850072" lon="9.6892349"><ele>381.75</ele><time>2026-04-03T16:46:28.493Z</time></trkpt><trkpt lat="44.8501678" lon="9.6893898"><ele>381.5</ele><time>2026-04-03T16:46:29.494Z</time></trkpt><trkpt lat="44.8502604" lon="9.6895513"><ele>381.25</ele><time>2026-04-03T16:46:30.494Z</time></trkpt><trkpt lat="44.8503506" lon="9.6897165"><ele>381.0</ele><time>2026-04-03T16:46:31.498Z</time></trkpt><trkpt lat="44.8504357" lon="9.6898752"><ele>381.0</ele><time>2026-04-03T16:46:32.498Z</time></trkpt><trkpt lat="44.8505221" lon="9.6900183"><ele>381.0</ele><time>2026-04-03T16:46:33.5Z</time></trkpt><trkpt lat="44.8506121" lon="9.6901474"><ele>381.0</ele><time>2026-04-03T16:46:34.497Z</time></trkpt><trkpt lat="44.8507093" lon="9.6902528"><ele>381.0</ele><time>2026-04-03T16:46:35.498Z</time></trkpt><trkpt lat="44.8508156" lon="9.6903326"><ele>379.75</ele><time>2026-04-03T16:46:36.496Z</time></trkpt><trkpt lat="44.8509267" lon="9.6904204"><ele>378.5</ele><time>2026-04-03T16:46:37.498Z</time></trkpt><trkpt lat="44.8510391" lon="9.6905302"><ele>377.25</ele><time>2026-04-03T16:46:38.509Z</time></trkpt><trkpt lat="44.8511414" lon="9.6906622"><ele>376.0</ele><time>2026-04-03T16:46:39.496Z</time></trkpt><trkpt lat="44.85123" lon="9.6908176"><ele>376.0</ele><time>2026-04-03T16:46:40.498Z</time></trkpt><trkpt lat="44.8513137" lon="9.6909872"><ele>376.0</ele><time>2026-04-03T16:46:41.49Z</time></trkpt><trkpt lat="44.8514004" lon="9.6911591"><ele>376.0</ele><time>2026-04-03T16:46:42.495Z</time></trkpt><trkpt lat="44.8514968" lon="9.6913182"><ele>376.0</ele><time>2026-04-03T16:46:43.496Z</time></trkpt><trkpt lat="44.8516" lon="9.6914534"><ele>376.75</ele><time>2026-04-03T16:46:44.496Z</time></trkpt><trkpt lat="44.8517019" lon="9.6915587"><ele>377.5</ele><time>2026-04-03T16:46:45.496Z</time></trkpt><trkpt lat="44.851816" lon="9.6916163"><ele>378.25</ele><time>2026-04-03T16:46:46.494Z</time></trkpt><trkpt lat="44.8519364" lon="9.6916378"><ele>379.0</ele><time>2026-04-03T16:46:47.509Z</time></trkpt><trkpt lat="44.8520514" lon="9.691624"><ele>380.6</ele><time>2026-04-03T16:46:48.501Z</time></trkpt><trkpt lat="44.8521633" lon="9.6915793"><ele>382.2</ele><time>2026-04-03T16:46:49.495Z</time></trkpt><trkpt lat="44.8522709" lon="9.6915263"><ele>383.8</ele><time>2026-04-03T16:46:50.494Z</time></trkpt><trkpt lat="44.8523778" lon="9.6914847"><ele>385.40000000000003</ele><time>2026-04-03T16:46:51.495Z</time></trkpt><trkpt lat="44.852477" lon="9.6914604"><ele>387.0</ele><time>2026-04-03T16:46:52.496Z</time></trkpt><trkpt lat="44.8525812" lon="9.6914683"><ele>385.6</ele><time>2026-04-03T16:46:53.493Z</time></trkpt><trkpt lat="44.8526874" lon="9.6914973"><ele>384.20000000000005</ele><time>2026-04-03T16:46:54.495Z</time></trkpt><trkpt lat="44.8527872" lon="9.6915485"><ele>382.8</ele><time>2026-04-03T16:46:55.503Z</time></trkpt><trkpt lat="44.8528777" lon="9.6916157"><ele>381.4</ele><time>2026-04-03T16:46:56.495Z</time></trkpt><trkpt lat="44.8529529" lon="9.6916852"><ele>380.0</ele><time>2026-04-03T16:46:57.495Z</time></trkpt><trkpt lat="44.8530324" lon="9.691748"><ele>380.0</ele><time>2026-04-03T16:46:58.494Z</time></trkpt><trkpt lat="44.8531256" lon="9.6918093"><ele>380.0</ele><time>2026-04-03T16:46:59.499Z</time></trkpt><trkpt lat="44.853224" lon="9.6918728"><ele>380.0</ele><time>2026-04-03T16:47:00.499Z</time></trkpt><trkpt lat="44.8533304" lon="9.6919398"><ele>380.0</ele><time>2026-04-03T16:47:01.497Z</time></trkpt><trkpt lat="44.8534394" lon="9.6920175"><ele>379.5</ele><time>2026-04-03T16:47:02.505Z</time></trkpt><trkpt lat="44.8535465" lon="9.6921029"><ele>379.0</ele><time>2026-04-03T16:47:03.504Z</time></trkpt><trkpt lat="44.8536523" lon="9.6921975"><ele>378.5</ele><time>2026-04-03T16:47:04.493Z</time></trkpt><trkpt lat="44.8537538" lon="9.6922949"><ele>378.0</ele><time>2026-04-03T16:47:05.497Z</time></trkpt><trkpt lat="44.8538499" lon="9.6923879"><ele>378.0</ele><time>2026-04-03T16:47:06.496Z</time></trkpt><trkpt lat="44.8539375" lon="9.6924719"><ele>378.0</ele><time>2026-04-03T16:47:07.499Z</time></trkpt><trkpt lat="44.8540141" lon="9.6925441"><ele>378.0</ele><time>2026-04-03T16:47:08.492Z</time></trkpt><trkpt lat="44.8540787" lon="9.6926007"><ele>378.0</ele><time>2026-04-03T16:47:09.494Z</time></trkpt><trkpt lat="44.8541371" lon="9.6926463"><ele>378.0</ele><time>2026-04-03T16:47:10.499Z</time></trkpt><trkpt lat="44.8541993" lon="9.6926909"><ele>378.0</ele><time>2026-04-03T16:47:11.498Z</time></trkpt><trkpt lat="44.8542782" lon="9.6927514"><ele>377.25</ele><time>2026-04-03T16:47:12.495Z</time></trkpt><trkpt lat="44.854373" lon="9.6928264"><ele>376.5</ele><time>2026-04-03T16:47:13.5Z</time></trkpt><trkpt lat="44.854481" lon="9.6929136"><ele>375.75</ele><time>2026-04-03T16:47:14.497Z</time></trkpt><trkpt lat="44.8545907" lon="9.6930093"><ele>375.0</ele><time>2026-04-03T16:47:15.497Z</time></trkpt><trkpt lat="44.8546963" lon="9.6931068"><ele>375.0</ele><time>2026-04-03T16:47:16.494Z</time></trkpt><trkpt lat="44.8547954" lon="9.6932093"><ele>375.0</ele><time>2026-04-03T16:47:17.493Z</time></trkpt><trkpt lat="44.8548903" lon="9.6933129"><ele>375.0</ele><time>2026-04-03T16:47:18.494Z</time></trkpt><trkpt lat="44.8549728" lon="9.6934046"><ele>375.0</ele><time>2026-04-03T16:47:19.5Z</time></trkpt><trkpt lat="44.8550377" lon="9.6934822"><ele>375.0</ele><time>2026-04-03T16:47:20.498Z</time></trkpt><trkpt lat="44.8550799" lon="9.6935522"><ele>374.0</ele><time>2026-04-03T16:47:21.502Z</time></trkpt><trkpt lat="44.8550913" lon="9.6937156"><ele>373.0</ele><time>2026-04-03T16:47:23.502Z</time></trkpt><trkpt lat="44.8550488" lon="9.6937874"><ele>372.0</ele><time>2026-04-03T16:47:24.508Z</time></trkpt><trkpt lat="44.8549755" lon="9.6938626"><ele>371.0</ele><time>2026-04-03T16:47:25.498Z</time></trkpt><trkpt lat="44.8548815" lon="9.6939363"><ele>370.0</ele><time>2026-04-03T16:47:26.495Z</time></trkpt><trkpt lat="44.8547684" lon="9.6940086"><ele>370.0</ele><time>2026-04-03T16:47:27.5Z</time></trkpt><trkpt lat="44.8546569" lon="9.694082"><ele>370.0</ele><time>2026-04-03T16:47:28.498Z</time></trkpt><trkpt lat="44.854568" lon="9.6941584"><ele>370.0</ele><time>2026-04-03T16:47:29.501Z</time></trkpt><trkpt lat="44.8545022" lon="9.6942401"><ele>370.0</ele><time>2026-04-03T16:47:30.498Z</time></trkpt><trkpt lat="44.8544678" lon="9.6943383"><ele>370.0</ele><time>2026-04-03T16:47:31.499Z</time></trkpt><trkpt lat="44.8544652" lon="9.6944525"><ele>368.4</ele><time>2026-04-03T16:47:32.491Z</time></trkpt><trkpt lat="44.8544815" lon="9.6945781"><ele>366.8</ele><time>2026-04-03T16:47:33.497Z</time></trkpt><trkpt lat="44.8545178" lon="9.6947157"><ele>365.20000000000005</ele><time>2026-04-03T16:47:34.505Z</time></trkpt><trkpt lat="44.8545694" lon="9.6948638"><ele>363.6</ele><time>2026-04-03T16:47:35.49Z</time></trkpt><trkpt lat="44.8546269" lon="9.6950167"><ele>362.0</ele><time>2026-04-03T16:47:36.499Z</time></trkpt><trkpt lat="44.8546812" lon="9.6951749"><ele>360.0</ele><time>2026-04-03T16:47:37.501Z</time></trkpt><trkpt lat="44.8547354" lon="9.6953316"><ele>358.0</ele><time>2026-04-03T16:47:38.501Z</time></trkpt><trkpt lat="44.8547892" lon="9.6954832"><ele>356.0</ele><time>2026-04-03T16:47:39.494Z</time></trkpt><trkpt lat="44.8548402" lon="9.6956305"><ele>354.0</ele><time>2026-04-03T16:47:40.499Z</time></trkpt><trkpt lat="44.8548884" lon="9.6957808"><ele>354.0</ele><time>2026-04-03T16:47:41.494Z</time></trkpt><trkpt lat="44.8549323" lon="9.6959437"><ele>354.0</ele><time>2026-04-03T16:47:42.49Z</time></trkpt><trkpt lat="44.854972" lon="9.6961131"><ele>354.0</ele><time>2026-04-03T16:47:43.49Z</time></trkpt><trkpt lat="44.855009" lon="9.6962842"><ele>354.0</ele><time>2026-04-03T16:47:44.494Z</time></trkpt><trkpt lat="44.8550455" lon="9.6964476"><ele>353.4</ele><time>2026-04-03T16:47:45.491Z</time></trkpt><trkpt lat="44.8550805" lon="9.6965994"><ele>352.79999999999995</ele><time>2026-04-03T16:47:46.492Z</time></trkpt><trkpt lat="44.8551257" lon="9.6967361"><ele>352.20000000000005</ele><time>2026-04-03T16:47:47.495Z</time></trkpt><trkpt lat="44.8551842" lon="9.6968621"><ele>351.6</ele><time>2026-04-03T16:47:48.491Z</time></trkpt><trkpt lat="44.8552455" lon="9.6969889"><ele>351.0</ele><time>2026-04-03T16:47:49.494Z</time></trkpt><trkpt lat="44.8553032" lon="9.6971211"><ele>350.25</ele><time>2026-04-03T16:47:50.498Z</time></trkpt><trkpt lat="44.8553565" lon="9.6972563"><ele>349.5</ele><time>2026-04-03T16:47:51.496Z</time></trkpt><trkpt lat="44.8554156" lon="9.6973931"><ele>348.75</ele><time>2026-04-03T16:47:52.489Z</time></trkpt><trkpt lat="44.8554904" lon="9.6975262"><ele>348.0</ele><time>2026-04-03T16:47:53.493Z</time></trkpt><trkpt lat="44.8555821" lon="9.6976592"><ele>348.5</ele><time>2026-04-03T16:47:54.49Z</time></trkpt><trkpt lat="44.8556803" lon="9.6977965"><ele>349.0</ele><time>2026-04-03T16:47:55.498Z</time></trkpt><trkpt lat="44.8557786" lon="9.697942"><ele>349.5</ele><time>2026-04-03T16:47:56.497Z</time></trkpt><trkpt lat="44.8558759" lon="9.6980928"><ele>350.0</ele><time>2026-04-03T16:47:57.491Z</time></trkpt><trkpt lat="44.8559714" lon="9.6982429"><ele>350.0</ele><time>2026-04-03T16:47:58.497Z</time></trkpt><trkpt lat="44.8560679" lon="9.6983858"><ele>350.0</ele><time>2026-04-03T16:47:59.496Z</time></trkpt><trkpt lat="44.8561678" lon="9.698521"><ele>350.0</ele><time>2026-04-03T16:48:00.495Z</time></trkpt><trkpt lat="44.8562763" lon="9.6986407"><ele>350.0</ele><time>2026-04-03T16:48:01.494Z</time></trkpt><trkpt lat="44.8563945" lon="9.6987485"><ele>350.0</ele><time>2026-04-03T16:48:02.49Z</time></trkpt><trkpt lat="44.8565142" lon="9.6988524"><ele>350.0</ele><time>2026-04-03T16:48:03.51Z</time></trkpt><trkpt lat="44.8566345" lon="9.6989595"><ele>350.0</ele><time>2026-04-03T16:48:04.507Z</time></trkpt><trkpt lat="44.8567576" lon="9.6990646"><ele>350.0</ele><time>2026-04-03T16:48:05.512Z</time></trkpt><trkpt lat="44.8568818" lon="9.6991677"><ele>350.0</ele><time>2026-04-03T16:48:06.505Z</time></trkpt><trkpt lat="44.8570079" lon="9.6992707"><ele>350.0</ele><time>2026-04-03T16:48:07.503Z</time></trkpt><trkpt lat="44.8571328" lon="9.6993764"><ele>350.0</ele><time>2026-04-03T16:48:08.499Z</time></trkpt><trkpt lat="44.8572547" lon="9.6994825"><ele>350.0</ele><time>2026-04-03T16:48:09.495Z</time></trkpt><trkpt lat="44.8573736" lon="9.6995874"><ele>350.25</ele><time>2026-04-03T16:48:10.5Z</time></trkpt><trkpt lat="44.857492" lon="9.6996912"><ele>350.5</ele><time>2026-04-03T16:48:11.498Z</time></trkpt><trkpt lat="44.8576096" lon="9.6997933"><ele>350.75</ele><time>2026-04-03T16:48:12.492Z</time></trkpt><trkpt lat="44.8577271" lon="9.6998967"><ele>351.0</ele><time>2026-04-03T16:48:13.493Z</time></trkpt><trkpt lat="44.8578405" lon="9.6999989"><ele>351.0</ele><time>2026-04-03T16:48:14.497Z</time></trkpt><trkpt lat="44.8579497" lon="9.7001062"><ele>351.0</ele><time>2026-04-03T16:48:15.495Z</time></trkpt><trkpt lat="44.8580568" lon="9.7002168"><ele>351.0</ele><time>2026-04-03T16:48:16.5Z</time></trkpt><trkpt lat="44.8581635" lon="9.7003286"><ele>351.0</ele><time>2026-04-03T16:48:17.494Z</time></trkpt><trkpt lat="44.8582646" lon="9.7004393"><ele>351.4</ele><time>2026-04-03T16:48:18.494Z</time></trkpt><trkpt lat="44.8583594" lon="9.700548"><ele>351.8</ele><time>2026-04-03T16:48:19.492Z</time></trkpt><trkpt lat="44.8584453" lon="9.7006413"><ele>352.2</ele><time>2026-04-03T16:48:20.495Z</time></trkpt><trkpt lat="44.8585211" lon="9.7007046"><ele>352.59999999999997</ele><time>2026-04-03T16:48:21.505Z</time></trkpt><trkpt lat="44.8585914" lon="9.7007422"><ele>353.0</ele><time>2026-04-03T16:48:22.505Z</time></trkpt><trkpt lat="44.8586656" lon="9.7007746"><ele>352.33333333333337</ele><time>2026-04-03T16:48:23.5Z</time></trkpt><trkpt lat="44.8587473" lon="9.700816"><ele>351.6666666666667</ele><time>2026-04-03T16:48:24.496Z</time></trkpt><trkpt lat="44.8588301" lon="9.7008582"><ele>351.0</ele><time>2026-04-03T16:48:25.492Z</time></trkpt><trkpt lat="44.8589116" lon="9.7009011"><ele>350.3333333333333</ele><time>2026-04-03T16:48:26.508Z</time></trkpt><trkpt lat="44.8589789" lon="9.7009483"><ele>349.66666666666663</ele><time>2026-04-03T16:48:27.491Z</time></trkpt><trkpt lat="44.8590291" lon="9.7010021"><ele>349.0</ele><time>2026-04-03T16:48:28.5Z</time></trkpt><trkpt lat="44.8590822" lon="9.7011332"><ele>348.5</ele><time>2026-04-03T16:48:30.494Z</time></trkpt><trkpt lat="44.8590856" lon="9.7013287"><ele>348.0</ele><time>2026-04-03T16:48:32.49Z</time></trkpt><trkpt lat="44.8590791" lon="9.7014703"><ele>347.5</ele><time>2026-04-03T16:48:33.491Z</time></trkpt><trkpt lat="44.8590783" lon="9.7016326"><ele>347.0</ele><time>2026-04-03T16:48:34.493Z</time></trkpt><trkpt lat="44.859097" lon="9.7017916"><ele>345.5</ele><time>2026-04-03T16:48:35.495Z</time></trkpt><trkpt lat="44.8591341" lon="9.701941"><ele>344.0</ele><time>2026-04-03T16:48:36.5Z</time></trkpt><trkpt lat="44.8591866" lon="9.7020797"><ele>342.5</ele><time>2026-04-03T16:48:37.497Z</time></trkpt><trkpt lat="44.8592522" lon="9.7022141"><ele>341.0</ele><time>2026-04-03T16:48:38.499Z</time></trkpt><trkpt lat="44.859323" lon="9.7023458"><ele>341.0</ele><time>2026-04-03T16:48:39.494Z</time></trkpt><trkpt lat="44.8593965" lon="9.7024801"><ele>341.0</ele><time>2026-04-03T16:48:40.492Z</time></trkpt><trkpt lat="44.8594776" lon="9.7026151"><ele>341.0</ele><time>2026-04-03T16:48:41.496Z</time></trkpt><trkpt lat="44.8595658" lon="9.7027541"><ele>341.0</ele><time>2026-04-03T16:48:42.501Z</time></trkpt><trkpt lat="44.8596563" lon="9.702901"><ele>340.25</ele><time>2026-04-03T16:48:43.501Z</time></trkpt><trkpt lat="44.8597508" lon="9.7030555"><ele>339.5</ele><time>2026-04-03T16:48:44.497Z</time></trkpt><trkpt lat="44.8598514" lon="9.7032101"><ele>338.75</ele><time>2026-04-03T16:48:45.494Z</time></trkpt><trkpt lat="44.859959" lon="9.7033571"><ele>338.0</ele><time>2026-04-03T16:48:46.499Z</time></trkpt><trkpt lat="44.8600748" lon="9.7034947"><ele>336.5</ele><time>2026-04-03T16:48:47.5Z</time></trkpt><trkpt lat="44.8601975" lon="9.703625"><ele>335.0</ele><time>2026-04-03T16:48:48.507Z</time></trkpt><trkpt lat="44.8603185" lon="9.7037478"><ele>333.5</ele><time>2026-04-03T16:48:49.494Z</time></trkpt><trkpt lat="44.8604369" lon="9.7038642"><ele>332.0</ele><time>2026-04-03T16:48:50.505Z</time></trkpt><trkpt lat="44.8605569" lon="9.7039809"><ele>332.0</ele><time>2026-04-03T16:48:51.496Z</time></trkpt><trkpt lat="44.8606772" lon="9.7041028"><ele>332.0</ele><time>2026-04-03T16:48:52.496Z</time></trkpt><trkpt lat="44.8607977" lon="9.7042248"><ele>332.0</ele><time>2026-04-03T16:48:53.496Z</time></trkpt><trkpt lat="44.8609185" lon="9.7043454"><ele>332.0</ele><time>2026-04-03T16:48:54.495Z</time></trkpt><trkpt lat="44.8610414" lon="9.704473"><ele>331.0</ele><time>2026-04-03T16:48:55.506Z</time></trkpt><trkpt lat="44.8611632" lon="9.7046027"><ele>330.0</ele><time>2026-04-03T16:48:56.499Z</time></trkpt><trkpt lat="44.8612843" lon="9.7047295"><ele>329.0</ele><time>2026-04-03T16:48:57.499Z</time></trkpt><trkpt lat="44.8614063" lon="9.7048521"><ele>329.0</ele><time>2026-04-03T16:48:58.497Z</time></trkpt><trkpt lat="44.8615276" lon="9.7049766"><ele>329.0</ele><time>2026-04-03T16:48:59.49Z</time></trkpt><trkpt lat="44.861647" lon="9.7050992"><ele>329.0</ele><time>2026-04-03T16:49:00.493Z</time></trkpt><trkpt lat="44.8617648" lon="9.7052224"><ele>329.0</ele><time>2026-04-03T16:49:01.494Z</time></trkpt><trkpt lat="44.8618793" lon="9.7053425"><ele>328.75</ele><time>2026-04-03T16:49:02.5Z</time></trkpt><trkpt lat="44.8619982" lon="9.705456"><ele>328.5</ele><time>2026-04-03T16:49:03.502Z</time></trkpt><trkpt lat="44.8621217" lon="9.7055659"><ele>328.25</ele><time>2026-04-03T16:49:04.507Z</time></trkpt><trkpt lat="44.8622462" lon="9.7056723"><ele>328.0</ele><time>2026-04-03T16:49:05.499Z</time></trkpt><trkpt lat="44.8623692" lon="9.7057682"><ele>328.0</ele><time>2026-04-03T16:49:06.498Z</time></trkpt><trkpt lat="44.8624965" lon="9.7058517"><ele>328.0</ele><time>2026-04-03T16:49:07.51Z</time></trkpt><trkpt lat="44.8626292" lon="9.7059222"><ele>328.0</ele><time>2026-04-03T16:49:08.493Z</time></trkpt><trkpt lat="44.8627667" lon="9.7059761"><ele>328.0</ele><time>2026-04-03T16:49:09.504Z</time></trkpt><trkpt lat="44.8629051" lon="9.706015"><ele>325.79999999999995</ele><time>2026-04-03T16:49:10.5Z</time></trkpt><trkpt lat="44.863036" lon="9.7060485"><ele>323.59999999999997</ele><time>2026-04-03T16:49:11.498Z</time></trkpt><trkpt lat="44.8631454" lon="9.7060928"><ele>321.4</ele><time>2026-04-03T16:49:12.494Z</time></trkpt><trkpt lat="44.8632303" lon="9.7061617"><ele>319.2</ele><time>2026-04-03T16:49:13.503Z</time></trkpt><trkpt lat="44.8632968" lon="9.706256"><ele>317.0</ele><time>2026-04-03T16:49:14.5Z</time></trkpt><trkpt lat="44.8633505" lon="9.7063744"><ele>317.0</ele><time>2026-04-03T16:49:15.495Z</time></trkpt><trkpt lat="44.8633949" lon="9.7065113"><ele>317.0</ele><time>2026-04-03T16:49:16.501Z</time></trkpt><trkpt lat="44.8634398" lon="9.7066566"><ele>317.0</ele><time>2026-04-03T16:49:17.495Z</time></trkpt><trkpt lat="44.8634815" lon="9.7068172"><ele>317.0</ele><time>2026-04-03T16:49:18.499Z</time></trkpt><trkpt lat="44.8635101" lon="9.7070044"><ele>313.0</ele><time>2026-04-03T16:49:19.499Z</time></trkpt><trkpt lat="44.8635218" lon="9.7072278"><ele>309.0</ele><time>2026-04-03T16:49:20.497Z</time></trkpt><trkpt lat="44.8635211" lon="9.7074618"><ele>305.0</ele><time>2026-04-03T16:49:21.506Z</time></trkpt><trkpt lat="44.8635231" lon="9.7076759"><ele>306.0</ele><time>2026-04-03T16:49:22.497Z</time></trkpt><trkpt lat="44.8635328" lon="9.7078746"><ele>307.0</ele><time>2026-04-03T16:49:23.49Z</time></trkpt><trkpt lat="44.8635565" lon="9.7080572"><ele>308.0</ele><time>2026-04-03T16:49:24.5Z</time></trkpt><trkpt lat="44.863586" lon="9.7082269"><ele>309.0</ele><time>2026-04-03T16:49:25.495Z</time></trkpt><trkpt lat="44.8636153" lon="9.7083782"><ele>309.0</ele><time>2026-04-03T16:49:26.495Z</time></trkpt><trkpt lat="44.8636588" lon="9.7085042"><ele>309.0</ele><time>2026-04-03T16:49:27.501Z</time></trkpt><trkpt lat="44.8637198" lon="9.7086081"><ele>309.0</ele><time>2026-04-03T16:49:28.497Z</time></trkpt><trkpt lat="44.8638037" lon="9.7086972"><ele>309.0</ele><time>2026-04-03T16:49:29.5Z</time></trkpt><trkpt lat="44.8639086" lon="9.7087682"><ele>309.0</ele><time>2026-04-03T16:49:30.497Z</time></trkpt><trkpt lat="44.8640335" lon="9.7088336"><ele>305.5</ele><time>2026-04-03T16:49:31.499Z</time></trkpt><trkpt lat="44.8641657" lon="9.7088923"><ele>302.0</ele><time>2026-04-03T16:49:32.501Z</time></trkpt><trkpt lat="44.8642929" lon="9.7089473"><ele>298.5</ele><time>2026-04-03T16:49:33.504Z</time></trkpt><trkpt lat="44.8644052" lon="9.7090052"><ele>295.0</ele><time>2026-04-03T16:49:34.498Z</time></trkpt><trkpt lat="44.8645032" lon="9.7090705"><ele>293.75</ele><time>2026-04-03T16:49:35.497Z</time></trkpt><trkpt lat="44.8645953" lon="9.7091594"><ele>292.5</ele><time>2026-04-03T16:49:36.497Z</time></trkpt><trkpt lat="44.8646782" lon="9.7092649"><ele>291.25</ele><time>2026-04-03T16:49:37.499Z</time></trkpt><trkpt lat="44.8647627" lon="9.7093731"><ele>290.0</ele><time>2026-04-03T16:49:38.498Z</time></trkpt><trkpt lat="44.8648488" lon="9.7094755"><ele>289.25</ele><time>2026-04-03T16:49:39.495Z</time></trkpt><trkpt lat="44.864939" lon="9.7095743"><ele>288.5</ele><time>2026-04-03T16:49:40.495Z</time></trkpt><trkpt lat="44.8650324" lon="9.7096808"><ele>287.75</ele><time>2026-04-03T16:49:41.5Z</time></trkpt><trkpt lat="44.8651298" lon="9.7097981"><ele>287.0</ele><time>2026-04-03T16:49:42.498Z</time></trkpt><trkpt lat="44.8652318" lon="9.7099281"><ele>286.0</ele><time>2026-04-03T16:49:43.5Z</time></trkpt><trkpt lat="44.8653333" lon="9.7100689"><ele>285.0</ele><time>2026-04-03T16:49:44.5Z</time></trkpt><trkpt lat="44.8654297" lon="9.7102139"><ele>284.0</ele><time>2026-04-03T16:49:45.501Z</time></trkpt><trkpt lat="44.8655227" lon="9.7103604"><ele>283.0</ele><time>2026-04-03T16:49:46.496Z</time></trkpt><trkpt lat="44.8656094" lon="9.7105082"><ele>283.0</ele><time>2026-04-03T16:49:47.494Z</time></trkpt><trkpt lat="44.8656935" lon="9.7106561"><ele>283.0</ele><time>2026-04-03T16:49:48.502Z</time></trkpt><trkpt lat="44.8657823" lon="9.7108044"><ele>283.0</ele><time>2026-04-03T16:49:49.495Z</time></trkpt><trkpt lat="44.8658767" lon="9.7109509"><ele>283.0</ele><time>2026-04-03T16:49:50.499Z</time></trkpt><trkpt lat="44.8659757" lon="9.7111012"><ele>281.0</ele><time>2026-04-03T16:49:51.491Z</time></trkpt><trkpt lat="44.866074" lon="9.7112561"><ele>279.0</ele><time>2026-04-03T16:49:52.494Z</time></trkpt><trkpt lat="44.8661733" lon="9.7114155"><ele>277.0</ele><time>2026-04-03T16:49:53.503Z</time></trkpt><trkpt lat="44.8662741" lon="9.711574"><ele>275.0</ele><time>2026-04-03T16:49:54.497Z</time></trkpt><trkpt lat="44.8663778" lon="9.7117216"><ele>275.0</ele><time>2026-04-03T16:49:55.495Z</time></trkpt><trkpt lat="44.8664872" lon="9.7118492"><ele>275.0</ele><time>2026-04-03T16:49:56.495Z</time></trkpt><trkpt lat="44.8666036" lon="9.71196"><ele>275.0</ele><time>2026-04-03T16:49:57.498Z</time></trkpt><trkpt lat="44.8667302" lon="9.7120648"><ele>275.0</ele><time>2026-04-03T16:49:58.512Z</time></trkpt><trkpt lat="44.8668651" lon="9.7121696"><ele>273.33333333333337</ele><time>2026-04-03T16:49:59.506Z</time></trkpt><trkpt lat="44.8670072" lon="9.712285"><ele>271.6666666666667</ele><time>2026-04-03T16:50:00.511Z</time></trkpt><trkpt lat="44.8671598" lon="9.7124066"><ele>270.0</ele><time>2026-04-03T16:50:01.515Z</time></trkpt><trkpt lat="44.8673091" lon="9.7125239"><ele>270.0</ele><time>2026-04-03T16:50:02.497Z</time></trkpt><trkpt lat="44.8674423" lon="9.7126271"><ele>270.0</ele><time>2026-04-03T16:50:03.511Z</time></trkpt><trkpt lat="44.8675589" lon="9.71273"><ele>270.0</ele><time>2026-04-03T16:50:04.496Z</time></trkpt><trkpt lat="44.8676594" lon="9.7128464"><ele>270.0</ele><time>2026-04-03T16:50:05.499Z</time></trkpt><trkpt lat="44.8677536" lon="9.712981"><ele>271.75</ele><time>2026-04-03T16:50:06.49Z</time></trkpt><trkpt lat="44.86785" lon="9.713122"><ele>273.5</ele><time>2026-04-03T16:50:07.493Z</time></trkpt><trkpt lat="44.8679507" lon="9.7132657"><ele>275.25</ele><time>2026-04-03T16:50:08.493Z</time></trkpt><trkpt lat="44.8680502" lon="9.7134027"><ele>277.0</ele><time>2026-04-03T16:50:09.496Z</time></trkpt><trkpt lat="44.8681501" lon="9.7135196"><ele>275.25</ele><time>2026-04-03T16:50:10.496Z</time></trkpt><trkpt lat="44.8682537" lon="9.7136158"><ele>273.5</ele><time>2026-04-03T16:50:11.504Z</time></trkpt><trkpt lat="44.8683557" lon="9.7137008"><ele>271.75</ele><time>2026-04-03T16:50:12.493Z</time></trkpt><trkpt lat="44.8684593" lon="9.7137865"><ele>270.0</ele><time>2026-04-03T16:50:13.502Z</time></trkpt><trkpt lat="44.8685628" lon="9.7138759"><ele>269.75</ele><time>2026-04-03T16:50:14.503Z</time></trkpt><trkpt lat="44.868666" lon="9.7139618"><ele>269.5</ele><time>2026-04-03T16:50:15.498Z</time></trkpt><trkpt lat="44.8687691" lon="9.7140442"><ele>269.25</ele><time>2026-04-03T16:50:16.493Z</time></trkpt><trkpt lat="44.8688723" lon="9.7141234"><ele>269.0</ele><time>2026-04-03T16:50:17.498Z</time></trkpt><trkpt lat="44.8689737" lon="9.7142089"><ele>269.0</ele><time>2026-04-03T16:50:18.5Z</time></trkpt><trkpt lat="44.8690704" lon="9.7143068"><ele>269.0</ele><time>2026-04-03T16:50:19.499Z</time></trkpt><trkpt lat="44.869164" lon="9.71442"><ele>269.0</ele><time>2026-04-03T16:50:20.501Z</time></trkpt><trkpt lat="44.869256" lon="9.7145437"><ele>269.0</ele><time>2026-04-03T16:50:21.512Z</time></trkpt><trkpt lat="44.8693474" lon="9.7146714"><ele>270.0</ele><time>2026-04-03T16:50:22.5Z</time></trkpt><trkpt lat="44.8694402" lon="9.7147999"><ele>271.0</ele><time>2026-04-03T16:50:23.493Z</time></trkpt><trkpt lat="44.8695322" lon="9.7149293"><ele>272.0</ele><time>2026-04-03T16:50:24.499Z</time></trkpt><trkpt lat="44.8696222" lon="9.7150578"><ele>273.0</ele><time>2026-04-03T16:50:25.497Z</time></trkpt><trkpt lat="44.869716" lon="9.715186"><ele>271.5</ele><time>2026-04-03T16:50:26.506Z</time></trkpt><trkpt lat="44.8698117" lon="9.7153144"><ele>270.0</ele><time>2026-04-03T16:50:27.494Z</time></trkpt><trkpt lat="44.8699041" lon="9.7154421"><ele>268.5</ele><time>2026-04-03T16:50:28.5Z</time></trkpt><trkpt lat="44.8699917" lon="9.715572"><ele>267.0</ele><time>2026-04-03T16:50:29.495Z</time></trkpt><trkpt lat="44.8700766" lon="9.7157022"><ele>267.25</ele><time>2026-04-03T16:50:30.494Z</time></trkpt><trkpt lat="44.8701568" lon="9.7158372"><ele>267.5</ele><time>2026-04-03T16:50:31.492Z</time></trkpt><trkpt lat="44.8702313" lon="9.7159826"><ele>267.75</ele><time>2026-04-03T16:50:32.494Z</time></trkpt><trkpt lat="44.8703002" lon="9.7161356"><ele>268.0</ele><time>2026-04-03T16:50:33.498Z</time></trkpt><trkpt lat="44.8703681" lon="9.7162932"><ele>266.75</ele><time>2026-04-03T16:50:34.495Z</time></trkpt><trkpt lat="44.8704378" lon="9.7164524"><ele>265.5</ele><time>2026-04-03T16:50:35.497Z</time></trkpt><trkpt lat="44.8705107" lon="9.7166072"><ele>264.25</ele><time>2026-04-03T16:50:36.496Z</time></trkpt><trkpt lat="44.8705809" lon="9.7167525"><ele>263.0</ele><time>2026-04-03T16:50:37.494Z</time></trkpt><trkpt lat="44.8706428" lon="9.7168761"><ele>262.5</ele><time>2026-04-03T16:50:38.502Z</time></trkpt><trkpt lat="44.8706918" lon="9.7169784"><ele>262.0</ele><time>2026-04-03T16:50:39.496Z</time></trkpt><trkpt lat="44.8707345" lon="9.717068"><ele>261.5</ele><time>2026-04-03T16:50:40.495Z</time></trkpt><trkpt lat="44.8707749" lon="9.717152"><ele>261.0</ele><time>2026-04-03T16:50:41.498Z</time></trkpt><trkpt lat="44.8708179" lon="9.7172267"><ele>260.5</ele><time>2026-04-03T16:50:42.5Z</time></trkpt><trkpt lat="44.8708607" lon="9.7172955"><ele>260.0</ele><time>2026-04-03T16:50:43.498Z</time></trkpt><trkpt lat="44.8709486" lon="9.7174093"><ele>260.0</ele><time>2026-04-03T16:50:45.497Z</time></trkpt><trkpt lat="44.8710508" lon="9.7175145"><ele>260.0</ele><time>2026-04-03T16:50:47.495Z</time></trkpt><trkpt lat="44.8711055" lon="9.7175738"><ele>260.0</ele><time>2026-04-03T16:50:48.5Z</time></trkpt><trkpt lat="44.8711666" lon="9.717641"><ele>260.0</ele><time>2026-04-03T16:50:49.5Z</time></trkpt><trkpt lat="44.8712348" lon="9.717715"><ele>260.0</ele><time>2026-04-03T16:50:50.494Z</time></trkpt><trkpt lat="44.8713148" lon="9.7177948"><ele>258.6</ele><time>2026-04-03T16:50:51.494Z</time></trkpt><trkpt lat="44.8714041" lon="9.7178792"><ele>257.2</ele><time>2026-04-03T16:50:52.494Z</time></trkpt><trkpt lat="44.8714979" lon="9.7179684"><ele>255.8</ele><time>2026-04-03T16:50:53.496Z</time></trkpt><trkpt lat="44.8715921" lon="9.7180594"><ele>254.4</ele><time>2026-04-03T16:50:54.494Z</time></trkpt><trkpt lat="44.8716835" lon="9.7181497"><ele>253.0</ele><time>2026-04-03T16:50:55.505Z</time></trkpt><trkpt lat="44.8717721" lon="9.7182394"><ele>253.4</ele><time>2026-04-03T16:50:56.498Z</time></trkpt><trkpt lat="44.8718584" lon="9.7183276"><ele>253.8</ele><time>2026-04-03T16:50:57.498Z</time></trkpt><trkpt lat="44.8719448" lon="9.7184122"><ele>254.2</ele><time>2026-04-03T16:50:58.495Z</time></trkpt><trkpt lat="44.8720305" lon="9.7184932"><ele>254.6</ele><time>2026-04-03T16:50:59.493Z</time></trkpt><trkpt lat="44.8721169" lon="9.7185765"><ele>255.0</ele><time>2026-04-03T16:51:00.493Z</time></trkpt><trkpt lat="44.8722045" lon="9.7186587"><ele>254.8</ele><time>2026-04-03T16:51:01.496Z</time></trkpt><trkpt lat="44.8722955" lon="9.7187398"><ele>254.6</ele><time>2026-04-03T16:51:02.496Z</time></trkpt><trkpt lat="44.8723887" lon="9.7188238"><ele>254.39999999999998</ele><time>2026-04-03T16:51:03.497Z</time></trkpt><trkpt lat="44.8724846" lon="9.7189104"><ele>254.2</ele><time>2026-04-03T16:51:04.497Z</time></trkpt><trkpt lat="44.872583" lon="9.7189962"><ele>254.0</ele><time>2026-04-03T16:51:05.497Z</time></trkpt><trkpt lat="44.8726807" lon="9.7190794"><ele>254.0</ele><time>2026-04-03T16:51:06.496Z</time></trkpt><trkpt lat="44.8727785" lon="9.719159"><ele>254.0</ele><time>2026-04-03T16:51:07.497Z</time></trkpt><trkpt lat="44.8728785" lon="9.7192367"><ele>254.0</ele><time>2026-04-03T16:51:08.496Z</time></trkpt><trkpt lat="44.8729807" lon="9.719312"><ele>254.0</ele><time>2026-04-03T16:51:09.499Z</time></trkpt><trkpt lat="44.8730871" lon="9.7193857"><ele>253.0</ele><time>2026-04-03T16:51:10.498Z</time></trkpt><trkpt lat="44.873196" lon="9.7194569"><ele>252.0</ele><time>2026-04-03T16:51:11.495Z</time></trkpt><trkpt lat="44.8733073" lon="9.7195306"><ele>251.0</ele><time>2026-04-03T16:51:12.5Z</time></trkpt><trkpt lat="44.8734197" lon="9.7196061"><ele>250.0</ele><time>2026-04-03T16:51:13.508Z</time></trkpt><trkpt lat="44.8735325" lon="9.7196851"><ele>250.0</ele><time>2026-04-03T16:51:14.493Z</time></trkpt><trkpt lat="44.8736449" lon="9.7197695"><ele>250.0</ele><time>2026-04-03T16:51:15.499Z</time></trkpt><trkpt lat="44.8737568" lon="9.7198578"><ele>250.0</ele><time>2026-04-03T16:51:16.494Z</time></trkpt><trkpt lat="44.8738684" lon="9.7199523"><ele>250.0</ele><time>2026-04-03T16:51:17.502Z</time></trkpt><trkpt lat="44.8739787" lon="9.7200525"><ele>250.0</ele><time>2026-04-03T16:51:18.499Z</time></trkpt><trkpt lat="44.8740863" lon="9.7201594"><ele>250.0</ele><time>2026-04-03T16:51:19.497Z</time></trkpt><trkpt lat="44.8741909" lon="9.720276"><ele>250.0</ele><time>2026-04-03T16:51:20.492Z</time></trkpt><trkpt lat="44.8742889" lon="9.7203997"><ele>250.0</ele><time>2026-04-03T16:51:21.494Z</time></trkpt><trkpt lat="44.8743785" lon="9.7205372"><ele>248.25</ele><time>2026-04-03T16:51:22.49Z</time></trkpt><trkpt lat="44.8744556" lon="9.7206863"><ele>246.5</ele><time>2026-04-03T16:51:23.495Z</time></trkpt><trkpt lat="44.8745255" lon="9.7208383"><ele>244.75</ele><time>2026-04-03T16:51:24.496Z</time></trkpt><trkpt lat="44.8746001" lon="9.7209817"><ele>243.0</ele><time>2026-04-03T16:51:25.492Z</time></trkpt><trkpt lat="44.8746865" lon="9.7211088"><ele>242.75</ele><time>2026-04-03T16:51:26.497Z</time></trkpt><trkpt lat="44.8747825" lon="9.7212256"><ele>242.5</ele><time>2026-04-03T16:51:27.493Z</time></trkpt><trkpt lat="44.874881" lon="9.7213307"><ele>242.25</ele><time>2026-04-03T16:51:28.495Z</time></trkpt><trkpt lat="44.8749796" lon="9.7214234"><ele>242.0</ele><time>2026-04-03T16:51:29.494Z</time></trkpt><trkpt lat="44.8750663" lon="9.7215075"><ele>241.66666666666669</ele><time>2026-04-03T16:51:30.497Z</time></trkpt><trkpt lat="44.875131" lon="9.7215871"><ele>241.33333333333334</ele><time>2026-04-03T16:51:31.505Z</time></trkpt><trkpt lat="44.8751736" lon="9.7216748"><ele>241.0</ele><time>2026-04-03T16:51:32.503Z</time></trkpt><trkpt lat="44.8751975" lon="9.7217841"><ele>240.66666666666669</ele><time>2026-04-03T16:51:33.49Z</time></trkpt><trkpt lat="44.8752016" lon="9.7219115"><ele>240.33333333333334</ele><time>2026-04-03T16:51:34.495Z</time></trkpt><trkpt lat="44.8751939" lon="9.7220333"><ele>240.0</ele><time>2026-04-03T16:51:35.493Z</time></trkpt><trkpt lat="44.8752003" lon="9.7221408"><ele>239.66666666666666</ele><time>2026-04-03T16:51:36.498Z</time></trkpt><trkpt lat="44.8752347" lon="9.7222311"><ele>239.33333333333331</ele><time>2026-04-03T16:51:37.492Z</time></trkpt><trkpt lat="44.8752912" lon="9.7222915"><ele>239.0</ele><time>2026-04-03T16:51:38.497Z</time></trkpt><trkpt lat="44.8753671" lon="9.7223259"><ele>238.66666666666666</ele><time>2026-04-03T16:51:39.495Z</time></trkpt><trkpt lat="44.8754461" lon="9.7223604"><ele>238.33333333333331</ele><time>2026-04-03T16:51:40.494Z</time></trkpt><trkpt lat="44.8755146" lon="9.7224101"><ele>238.0</ele><time>2026-04-03T16:51:41.498Z</time></trkpt><trkpt lat="44.8755585" lon="9.7224851"><ele>237.99999999999997</ele><time>2026-04-03T16:51:42.504Z</time></trkpt><trkpt lat="44.8755698" lon="9.7225792"><ele>238.0</ele><time>2026-04-03T16:51:43.496Z</time></trkpt><trkpt lat="44.8755462" lon="9.7226771"><ele>238.0</ele><time>2026-04-03T16:51:44.496Z</time></trkpt><trkpt lat="44.8754981" lon="9.7227758"><ele>238.0</ele><time>2026-04-03T16:51:45.498Z</time></trkpt><trkpt lat="44.8754397" lon="9.7228801"><ele>237.99999999999997</ele><time>2026-04-03T16:51:46.501Z</time></trkpt><trkpt lat="44.8753865" lon="9.7229838"><ele>238.0</ele><time>2026-04-03T16:51:47.495Z</time></trkpt><trkpt lat="44.8753366" lon="9.723084"><ele>236.99999999999997</ele><time>2026-04-03T16:51:48.498Z</time></trkpt><trkpt lat="44.8752874" lon="9.7231822"><ele>236.0</ele><time>2026-04-03T16:51:49.496Z</time></trkpt><trkpt lat="44.8752376" lon="9.7232774"><ele>235.0</ele><time>2026-04-03T16:51:50.5Z</time></trkpt><trkpt lat="44.8751985" lon="9.7233577"><ele>234.0</ele><time>2026-04-03T16:51:51.495Z</time></trkpt><trkpt lat="44.8751649" lon="9.723443"><ele>232.99999999999997</ele><time>2026-04-03T16:51:53.507Z</time></trkpt><trkpt lat="44.8751831" lon="9.7235398"><ele>232.0</ele><time>2026-04-03T16:52:29.5Z</time></trkpt><trkpt lat="44.8752343" lon="9.723644"><ele>231.2</ele><time>2026-04-03T16:52:31.496Z</time></trkpt><trkpt lat="44.8752787" lon="9.7237171"><ele>230.39999999999998</ele><time>2026-04-03T16:52:32.499Z</time></trkpt><trkpt lat="44.8753415" lon="9.7238"><ele>229.60000000000002</ele><time>2026-04-03T16:52:33.505Z</time></trkpt><trkpt lat="44.8754206" lon="9.7238974"><ele>228.8</ele><time>2026-04-03T16:52:34.501Z</time></trkpt><trkpt lat="44.8755046" lon="9.7239927"><ele>228.0</ele><time>2026-04-03T16:52:35.501Z</time></trkpt><trkpt lat="44.8755954" lon="9.7240684"><ele>228.0</ele><time>2026-04-03T16:52:36.507Z</time></trkpt><trkpt lat="44.8756774" lon="9.7241488"><ele>228.0</ele><time>2026-04-03T16:52:37.51Z</time></trkpt><trkpt lat="44.8757392" lon="9.7242561"><ele>228.0</ele><time>2026-04-03T16:52:38.509Z</time></trkpt><trkpt lat="44.8757548" lon="9.7243819"><ele>228.0</ele><time>2026-04-03T16:52:39.513Z</time></trkpt><trkpt lat="44.8757297" lon="9.7245118"><ele>228.0</ele><time>2026-04-03T16:52:40.518Z</time></trkpt><trkpt lat="44.8757029" lon="9.7246346"><ele>226.83333333333334</ele><time>2026-04-03T16:52:41.516Z</time></trkpt><trkpt lat="44.8756963" lon="9.7247538"><ele>225.66666666666669</ele><time>2026-04-03T16:52:42.513Z</time></trkpt><trkpt lat="44.875706" lon="9.7248715"><ele>224.5</ele><time>2026-04-03T16:52:43.507Z</time></trkpt><trkpt lat="44.8757231" lon="9.7249899"><ele>223.33333333333334</ele><time>2026-04-03T16:52:44.511Z</time></trkpt><trkpt lat="44.8757445" lon="9.7251185"><ele>222.16666666666669</ele><time>2026-04-03T16:52:45.502Z</time></trkpt><trkpt lat="44.875769" lon="9.7252526"><ele>221.0</ele><time>2026-04-03T16:52:46.513Z</time></trkpt><trkpt lat="44.8757954" lon="9.7253876"><ele>220.8</ele><time>2026-04-03T16:52:47.517Z</time></trkpt><trkpt lat="44.8758318" lon="9.7255169"><ele>220.60000000000002</ele><time>2026-04-03T16:52:48.518Z</time></trkpt><trkpt lat="44.8758806" lon="9.7256363"><ele>220.4</ele><time>2026-04-03T16:52:49.515Z</time></trkpt><trkpt lat="44.8759405" lon="9.7257533"><ele>220.2</ele><time>2026-04-03T16:52:50.5Z</time></trkpt><trkpt lat="44.8760098" lon="9.7258764"><ele>220.0</ele><time>2026-04-03T16:52:51.5Z</time></trkpt><trkpt lat="44.87609" lon="9.7260091"><ele>219.0</ele><time>2026-04-03T16:52:52.503Z</time></trkpt><trkpt lat="44.8761823" lon="9.7261516"><ele>218.0</ele><time>2026-04-03T16:52:53.517Z</time></trkpt><trkpt lat="44.8762811" lon="9.7262995"><ele>217.0</ele><time>2026-04-03T16:52:54.517Z</time></trkpt><trkpt lat="44.8763818" lon="9.7264577"><ele>216.0</ele><time>2026-04-03T16:52:55.514Z</time></trkpt><trkpt lat="44.8764835" lon="9.7266189"><ele>216.0</ele><time>2026-04-03T16:52:56.514Z</time></trkpt><trkpt lat="44.8765878" lon="9.7267784"><ele>216.0</ele><time>2026-04-03T16:52:57.519Z</time></trkpt><trkpt lat="44.8766952" lon="9.7269347"><ele>216.0</ele><time>2026-04-03T16:52:58.518Z</time></trkpt><trkpt lat="44.8768102" lon="9.7270903"><ele>214.0</ele><time>2026-04-03T16:52:59.517Z</time></trkpt><trkpt lat="44.8769312" lon="9.7272428"><ele>212.0</ele><time>2026-04-03T16:53:00.518Z</time></trkpt><trkpt lat="44.8770557" lon="9.7273978"><ele>210.0</ele><time>2026-04-03T16:53:01.517Z</time></trkpt><trkpt lat="44.8771761" lon="9.7275605"><ele>209.33333333333331</ele><time>2026-04-03T16:53:02.514Z</time></trkpt><trkpt lat="44.8772909" lon="9.7277298"><ele>208.66666666666666</ele><time>2026-04-03T16:53:03.52Z</time></trkpt><trkpt lat="44.8774033" lon="9.7279008"><ele>208.0</ele><time>2026-04-03T16:53:04.518Z</time></trkpt><trkpt lat="44.8775175" lon="9.7280725"><ele>207.0</ele><time>2026-04-03T16:53:05.517Z</time></trkpt><trkpt lat="44.8776328" lon="9.728245"><ele>206.0</ele><time>2026-04-03T16:53:06.516Z</time></trkpt><trkpt lat="44.8777501" lon="9.7284154"><ele>205.0</ele><time>2026-04-03T16:53:07.519Z</time></trkpt><trkpt lat="44.8778662" lon="9.7285851"><ele>204.75</ele><time>2026-04-03T16:53:08.518Z</time></trkpt><trkpt lat="44.8779779" lon="9.7287455"><ele>204.5</ele><time>2026-04-03T16:53:09.518Z</time></trkpt><trkpt lat="44.8780815" lon="9.7288959"><ele>204.25</ele><time>2026-04-03T16:53:10.519Z</time></trkpt><trkpt lat="44.878172" lon="9.7290401"><ele>204.0</ele><time>2026-04-03T16:53:11.519Z</time></trkpt><trkpt lat="44.87824" lon="9.7291865"><ele>204.0</ele><time>2026-04-03T16:53:12.52Z</time></trkpt><trkpt lat="44.8782887" lon="9.7293495"><ele>204.0</ele><time>2026-04-03T16:53:13.507Z</time></trkpt><trkpt lat="44.8783313" lon="9.7295322"><ele>204.0</ele><time>2026-04-03T16:53:14.52Z</time></trkpt><trkpt lat="44.8783754" lon="9.7297305"><ele>204.0</ele><time>2026-04-03T16:53:15.515Z</time></trkpt><trkpt lat="44.8784282" lon="9.7299426"><ele>202.0</ele><time>2026-04-03T16:53:16.519Z</time></trkpt><trkpt lat="44.8784846" lon="9.7301686"><ele>200.0</ele><time>2026-04-03T16:53:17.518Z</time></trkpt><trkpt lat="44.8785395" lon="9.7304085"><ele>198.0</ele><time>2026-04-03T16:53:18.521Z</time></trkpt><trkpt lat="44.8785913" lon="9.7306566"><ele>196.66666666666669</ele><time>2026-04-03T16:53:19.499Z</time></trkpt><trkpt lat="44.8786458" lon="9.730905"><ele>195.33333333333334</ele><time>2026-04-03T16:53:20.507Z</time></trkpt><trkpt lat="44.8787035" lon="9.7311528"><ele>194.0</ele><time>2026-04-03T16:53:21.504Z</time></trkpt><trkpt lat="44.8787609" lon="9.7314002"><ele>194.0</ele><time>2026-04-03T16:53:22.507Z</time></trkpt><trkpt lat="44.8788165" lon="9.731646"><ele>194.0</ele><time>2026-04-03T16:53:23.521Z</time></trkpt><trkpt lat="44.8788689" lon="9.7318893"><ele>194.0</ele><time>2026-04-03T16:53:24.522Z</time></trkpt><trkpt lat="44.8789187" lon="9.7321233"><ele>194.0</ele><time>2026-04-03T16:53:25.504Z</time></trkpt><trkpt lat="44.8789638" lon="9.7323382"><ele>194.0</ele><time>2026-04-03T16:53:26.504Z</time></trkpt><trkpt lat="44.8790061" lon="9.7325302"><ele>194.0</ele><time>2026-04-03T16:53:27.516Z</time></trkpt><trkpt lat="44.8790585" lon="9.7326988"><ele>194.0</ele><time>2026-04-03T16:53:28.52Z</time></trkpt><trkpt lat="44.879127" lon="9.7328427"><ele>193.2</ele><time>2026-04-03T16:53:29.521Z</time></trkpt><trkpt lat="44.879206" lon="9.7329609"><ele>192.39999999999998</ele><time>2026-04-03T16:53:30.521Z</time></trkpt><trkpt lat="44.8792843" lon="9.7330593"><ele>191.6</ele><time>2026-04-03T16:53:31.521Z</time></trkpt><trkpt lat="44.8793619" lon="9.7331497"><ele>190.8</ele><time>2026-04-03T16:53:32.52Z</time></trkpt><trkpt lat="44.8794452" lon="9.733241"><ele>190.0</ele><time>2026-04-03T16:53:33.521Z</time></trkpt><trkpt lat="44.8795358" lon="9.733339"><ele>189.5</ele><time>2026-04-03T16:53:34.519Z</time></trkpt><trkpt lat="44.8796375" lon="9.7334484"><ele>189.0</ele><time>2026-04-03T16:53:35.519Z</time></trkpt><trkpt lat="44.8797477" lon="9.733576"><ele>188.5</ele><time>2026-04-03T16:53:36.518Z</time></trkpt><trkpt lat="44.8798615" lon="9.7337133"><ele>188.0</ele><time>2026-04-03T16:53:37.522Z</time></trkpt><trkpt lat="44.8799813" lon="9.7338529"><ele>186.66666666666666</ele><time>2026-04-03T16:53:38.52Z</time></trkpt><trkpt lat="44.8801077" lon="9.7339942"><ele>185.33333333333334</ele><time>2026-04-03T16:53:39.519Z</time></trkpt><trkpt lat="44.8802396" lon="9.7341476"><ele>184.0</ele><time>2026-04-03T16:53:40.52Z</time></trkpt><trkpt lat="44.8803751" lon="9.7343079"><ele>184.0</ele><time>2026-04-03T16:53:41.521Z</time></trkpt><trkpt lat="44.8805139" lon="9.7344741"><ele>184.0</ele><time>2026-04-03T16:53:42.505Z</time></trkpt><trkpt lat="44.880656" lon="9.7346432"><ele>184.0</ele><time>2026-04-03T16:53:43.523Z</time></trkpt><trkpt lat="44.8808007" lon="9.7348119"><ele>184.33333333333334</ele><time>2026-04-03T16:53:44.52Z</time></trkpt><trkpt lat="44.8809444" lon="9.7349803"><ele>184.66666666666666</ele><time>2026-04-03T16:53:45.521Z</time></trkpt><trkpt lat="44.881087" lon="9.7351517"><ele>185.0</ele><time>2026-04-03T16:53:46.519Z</time></trkpt><trkpt lat="44.881228" lon="9.7353239"><ele>185.0</ele><time>2026-04-03T16:53:47.518Z</time></trkpt><trkpt lat="44.8813685" lon="9.7354936"><ele>185.0</ele><time>2026-04-03T16:53:48.52Z</time></trkpt><trkpt lat="44.8815085" lon="9.7356622"><ele>185.0</ele><time>2026-04-03T16:53:49.519Z</time></trkpt><trkpt lat="44.8816482" lon="9.7358339"><ele>185.0</ele><time>2026-04-03T16:53:50.52Z</time></trkpt><trkpt lat="44.8817884" lon="9.7360028"><ele>185.0</ele><time>2026-04-03T16:53:51.519Z</time></trkpt><trkpt lat="44.8819273" lon="9.7361708"><ele>185.0</ele><time>2026-04-03T16:53:52.515Z</time></trkpt><trkpt lat="44.882064" lon="9.7363362"><ele>185.0</ele><time>2026-04-03T16:53:53.524Z</time></trkpt><trkpt lat="44.8821973" lon="9.7364981"><ele>185.0</ele><time>2026-04-03T16:53:54.509Z</time></trkpt><trkpt lat="44.882327" lon="9.7366526"><ele>185.0</ele><time>2026-04-03T16:53:55.52Z</time></trkpt><trkpt lat="44.8824529" lon="9.7368048"><ele>185.0</ele><time>2026-04-03T16:53:56.521Z</time></trkpt><trkpt lat="44.8825785" lon="9.7369545"><ele>185.0</ele><time>2026-04-03T16:53:57.52Z</time></trkpt><trkpt lat="44.8827054" lon="9.7371058"><ele>185.0</ele><time>2026-04-03T16:53:58.52Z</time></trkpt><trkpt lat="44.8828334" lon="9.7372606"><ele>184.33333333333331</ele><time>2026-04-03T16:53:59.509Z</time></trkpt><trkpt lat="44.8829667" lon="9.7374248"><ele>183.66666666666666</ele><time>2026-04-03T16:54:00.518Z</time></trkpt><trkpt lat="44.8831091" lon="9.7375985"><ele>183.0</ele><time>2026-04-03T16:54:01.519Z</time></trkpt><trkpt lat="44.883263" lon="9.7377789"><ele>183.0</ele><time>2026-04-03T16:54:02.52Z</time></trkpt><trkpt lat="44.8834262" lon="9.7379686"><ele>183.0</ele><time>2026-04-03T16:54:03.517Z</time></trkpt><trkpt lat="44.8835924" lon="9.7381643"><ele>183.0</ele><time>2026-04-03T16:54:04.517Z</time></trkpt><trkpt lat="44.8837615" lon="9.7383617"><ele>181.66666666666666</ele><time>2026-04-03T16:54:05.516Z</time></trkpt><trkpt lat="44.8839308" lon="9.7385674"><ele>180.33333333333331</ele><time>2026-04-03T16:54:06.52Z</time></trkpt><trkpt lat="44.8841016" lon="9.7387683"><ele>179.0</ele><time>2026-04-03T16:54:07.519Z</time></trkpt><trkpt lat="44.8842728" lon="9.7389663"><ele>178.66666666666666</ele><time>2026-04-03T16:54:08.519Z</time></trkpt><trkpt lat="44.8844403" lon="9.7391593"><ele>178.33333333333334</ele><time>2026-04-03T16:54:09.52Z</time></trkpt><trkpt lat="44.8845996" lon="9.7393397"><ele>178.0</ele><time>2026-04-03T16:54:10.519Z</time></trkpt><trkpt lat="44.8847502" lon="9.7395131"><ele>177.0</ele><time>2026-04-03T16:54:11.519Z</time></trkpt><trkpt lat="44.8848917" lon="9.7396773"><ele>176.0</ele><time>2026-04-03T16:54:12.52Z</time></trkpt><trkpt lat="44.8850255" lon="9.7398341"><ele>175.0</ele><time>2026-04-03T16:54:13.519Z</time></trkpt><trkpt lat="44.8851538" lon="9.7399834"><ele>175.0</ele><time>2026-04-03T16:54:14.521Z</time></trkpt><trkpt lat="44.8852792" lon="9.7401268"><ele>175.0</ele><time>2026-04-03T16:54:15.517Z</time></trkpt><trkpt lat="44.8854032" lon="9.7402713"><ele>175.0</ele><time>2026-04-03T16:54:16.52Z</time></trkpt><trkpt lat="44.8855274" lon="9.7404178"><ele>174.66666666666669</ele><time>2026-04-03T16:54:17.521Z</time></trkpt><trkpt lat="44.8856496" lon="9.7405629"><ele>174.33333333333334</ele><time>2026-04-03T16:54:18.521Z</time></trkpt><trkpt lat="44.885768" lon="9.7407041"><ele>174.0</ele><time>2026-04-03T16:54:19.516Z</time></trkpt><trkpt lat="44.8858852" lon="9.7408449"><ele>173.66666666666666</ele><time>2026-04-03T16:54:20.521Z</time></trkpt><trkpt lat="44.8860006" lon="9.7409861"><ele>173.33333333333331</ele><time>2026-04-03T16:54:21.521Z</time></trkpt><trkpt lat="44.8861148" lon="9.7411274"><ele>173.0</ele><time>2026-04-03T16:54:22.521Z</time></trkpt><trkpt lat="44.8862286" lon="9.7412676"><ele>173.0</ele><time>2026-04-03T16:54:23.52Z</time></trkpt><trkpt lat="44.8863464" lon="9.7414057"><ele>173.0</ele><time>2026-04-03T16:54:24.52Z</time></trkpt><trkpt lat="44.8864648" lon="9.7415438"><ele>173.0</ele><time>2026-04-03T16:54:25.521Z</time></trkpt><trkpt lat="44.8865804" lon="9.7416808"><ele>173.0</ele><time>2026-04-03T16:54:26.522Z</time></trkpt><trkpt lat="44.8866917" lon="9.7418148"><ele>173.0</ele><time>2026-04-03T16:54:27.517Z</time></trkpt><trkpt lat="44.8868028" lon="9.7419465"><ele>173.0</ele><time>2026-04-03T16:54:28.515Z</time></trkpt><trkpt lat="44.886915" lon="9.7420778"><ele>173.0</ele><time>2026-04-03T16:54:29.518Z</time></trkpt><trkpt lat="44.8870272" lon="9.7422078"><ele>172.5</ele><time>2026-04-03T16:54:30.521Z</time></trkpt><trkpt lat="44.8871383" lon="9.7423389"><ele>172.0</ele><time>2026-04-03T16:54:31.521Z</time></trkpt><trkpt lat="44.887247" lon="9.7424684"><ele>171.5</ele><time>2026-04-03T16:54:32.521Z</time></trkpt><trkpt lat="44.8873531" lon="9.7425958"><ele>171.0</ele><time>2026-04-03T16:54:33.522Z</time></trkpt><trkpt lat="44.8874616" lon="9.7427213"><ele>170.5</ele><time>2026-04-03T16:54:34.516Z</time></trkpt><trkpt lat="44.8875727" lon="9.7428483"><ele>170.0</ele><time>2026-04-03T16:54:35.521Z</time></trkpt><trkpt lat="44.8876868" lon="9.7429804"><ele>169.5</ele><time>2026-04-03T16:54:36.522Z</time></trkpt><trkpt lat="44.8878029" lon="9.7431158"><ele>169.0</ele><time>2026-04-03T16:54:37.505Z</time></trkpt><trkpt lat="44.8879198" lon="9.7432541"><ele>168.66666666666669</ele><time>2026-04-03T16:54:38.498Z</time></trkpt><trkpt lat="44.8880359" lon="9.7433939"><ele>168.33333333333334</ele><time>2026-04-03T16:54:39.502Z</time></trkpt><trkpt lat="44.8881499" lon="9.7435334"><ele>168.0</ele><time>2026-04-03T16:54:40.503Z</time></trkpt><trkpt lat="44.8882621" lon="9.7436688"><ele>168.0</ele><time>2026-04-03T16:54:41.52Z</time></trkpt><trkpt lat="44.888372" lon="9.7437994"><ele>168.0</ele><time>2026-04-03T16:54:42.52Z</time></trkpt><trkpt lat="44.8884797" lon="9.7439297"><ele>168.0</ele><time>2026-04-03T16:54:43.522Z</time></trkpt><trkpt lat="44.888585" lon="9.7440597"><ele>168.0</ele><time>2026-04-03T16:54:44.517Z</time></trkpt><trkpt lat="44.8886903" lon="9.7441895"><ele>167.75</ele><time>2026-04-03T16:54:45.521Z</time></trkpt><trkpt lat="44.8887954" lon="9.7443163"><ele>167.5</ele><time>2026-04-03T16:54:46.522Z</time></trkpt><trkpt lat="44.8889018" lon="9.7444411"><ele>167.25</ele><time>2026-04-03T16:54:47.509Z</time></trkpt><trkpt lat="44.8890093" lon="9.7445651"><ele>167.0</ele><time>2026-04-03T16:54:48.522Z</time></trkpt><trkpt lat="44.889116" lon="9.7446897"><ele>166.75</ele><time>2026-04-03T16:54:49.523Z</time></trkpt><trkpt lat="44.8892206" lon="9.7448142"><ele>166.5</ele><time>2026-04-03T16:54:50.521Z</time></trkpt><trkpt lat="44.8893235" lon="9.7449372"><ele>166.25</ele><time>2026-04-03T16:54:51.518Z</time></trkpt><trkpt lat="44.8894254" lon="9.7450623"><ele>166.0</ele><time>2026-04-03T16:54:52.522Z</time></trkpt><trkpt lat="44.8895288" lon="9.7451885"><ele>165.5</ele><time>2026-04-03T16:54:53.526Z</time></trkpt><trkpt lat="44.8896328" lon="9.7453141"><ele>165.0</ele><time>2026-04-03T16:54:54.521Z</time></trkpt><trkpt lat="44.8897394" lon="9.7454352"><ele>164.5</ele><time>2026-04-03T16:54:55.52Z</time></trkpt><trkpt lat="44.8898444" lon="9.7455559"><ele>164.0</ele><time>2026-04-03T16:54:56.503Z</time></trkpt><trkpt lat="44.8899493" lon="9.7456796"><ele>164.0</ele><time>2026-04-03T16:54:57.522Z</time></trkpt><trkpt lat="44.8900547" lon="9.745807"><ele>164.0</ele><time>2026-04-03T16:54:58.521Z</time></trkpt><trkpt lat="44.8901612" lon="9.7459347"><ele>164.0</ele><time>2026-04-03T16:54:59.521Z</time></trkpt><trkpt lat="44.890267" lon="9.7460649"><ele>164.0</ele><time>2026-04-03T16:55:00.521Z</time></trkpt><trkpt lat="44.8903725" lon="9.7461939"><ele>163.5</ele><time>2026-04-03T16:55:01.518Z</time></trkpt><trkpt lat="44.8904789" lon="9.7463237"><ele>163.0</ele><time>2026-04-03T16:55:02.518Z</time></trkpt><trkpt lat="44.8905876" lon="9.7464536"><ele>162.5</ele><time>2026-04-03T16:55:03.523Z</time></trkpt><trkpt lat="44.8906964" lon="9.7465831"><ele>162.0</ele><time>2026-04-03T16:55:04.518Z</time></trkpt><trkpt lat="44.8908041" lon="9.7467119"><ele>162.0</ele><time>2026-04-03T16:55:05.518Z</time></trkpt><trkpt lat="44.890912" lon="9.7468368"><ele>162.0</ele><time>2026-04-03T16:55:06.519Z</time></trkpt><trkpt lat="44.8910203" lon="9.7469606"><ele>162.0</ele><time>2026-04-03T16:55:07.513Z</time></trkpt><trkpt lat="44.8911268" lon="9.7470859"><ele>162.0</ele><time>2026-04-03T16:55:08.513Z</time></trkpt><trkpt lat="44.891232" lon="9.7472116"><ele>161.0</ele><time>2026-04-03T16:55:09.516Z</time></trkpt><trkpt lat="44.8913344" lon="9.7473355"><ele>160.0</ele><time>2026-04-03T16:55:10.52Z</time></trkpt><trkpt lat="44.8914369" lon="9.7474578"><ele>159.0</ele><time>2026-04-03T16:55:11.517Z</time></trkpt><trkpt lat="44.8915398" lon="9.7475796"><ele>158.0</ele><time>2026-04-03T16:55:12.519Z</time></trkpt><trkpt lat="44.8916423" lon="9.7477036"><ele>158.0</ele><time>2026-04-03T16:55:13.526Z</time></trkpt><trkpt lat="44.8917422" lon="9.7478298"><ele>158.0</ele><time>2026-04-03T16:55:14.52Z</time></trkpt><trkpt lat="44.8918391" lon="9.7479619"><ele>158.0</ele><time>2026-04-03T16:55:15.522Z</time></trkpt><trkpt lat="44.8919348" lon="9.7481039"><ele>158.0</ele><time>2026-04-03T16:55:16.521Z</time></trkpt><trkpt lat="44.892032" lon="9.7482579"><ele>157.75</ele><time>2026-04-03T16:55:17.522Z</time></trkpt><trkpt lat="44.8921287" lon="9.7484189"><ele>157.5</ele><time>2026-04-03T16:55:18.516Z</time></trkpt><trkpt lat="44.8922206" lon="9.7485835"><ele>157.25</ele><time>2026-04-03T16:55:19.518Z</time></trkpt><trkpt lat="44.8923045" lon="9.7487491"><ele>157.0</ele><time>2026-04-03T16:55:20.521Z</time></trkpt><trkpt lat="44.8923797" lon="9.7489136"><ele>156.25</ele><time>2026-04-03T16:55:21.521Z</time></trkpt><trkpt lat="44.8924484" lon="9.7490753"><ele>155.5</ele><time>2026-04-03T16:55:22.521Z</time></trkpt><trkpt lat="44.8925165" lon="9.7492281"><ele>154.75</ele><time>2026-04-03T16:55:23.519Z</time></trkpt><trkpt lat="44.8925855" lon="9.7493694"><ele>154.0</ele><time>2026-04-03T16:55:24.521Z</time></trkpt><trkpt lat="44.8926542" lon="9.7495047"><ele>153.25</ele><time>2026-04-03T16:55:25.522Z</time></trkpt><trkpt lat="44.8927223" lon="9.7496388"><ele>152.5</ele><time>2026-04-03T16:55:26.521Z</time></trkpt><trkpt lat="44.8927941" lon="9.749775"><ele>151.75</ele><time>2026-04-03T16:55:27.523Z</time></trkpt><trkpt lat="44.89287" lon="9.7499165"><ele>151.0</ele><time>2026-04-03T16:55:28.521Z</time></trkpt><trkpt lat="44.8929471" lon="9.7500639"><ele>151.5</ele><time>2026-04-03T16:55:29.521Z</time></trkpt><trkpt lat="44.8930224" lon="9.7502138"><ele>152.0</ele><time>2026-04-03T16:55:30.521Z</time></trkpt><trkpt lat="44.8930962" lon="9.750364"><ele>152.5</ele><time>2026-04-03T16:55:31.521Z</time></trkpt><trkpt lat="44.8931712" lon="9.7505109"><ele>153.0</ele><time>2026-04-03T16:55:32.516Z</time></trkpt><trkpt lat="44.8932474" lon="9.7506571"><ele>153.0</ele><time>2026-04-03T16:55:33.519Z</time></trkpt><trkpt lat="44.8933257" lon="9.7508095"><ele>153.0</ele><time>2026-04-03T16:55:34.515Z</time></trkpt><trkpt lat="44.8934057" lon="9.7509655"><ele>153.0</ele><time>2026-04-03T16:55:35.517Z</time></trkpt><trkpt lat="44.8934843" lon="9.751121"><ele>153.0</ele><time>2026-04-03T16:55:36.52Z</time></trkpt><trkpt lat="44.8935583" lon="9.7512746"><ele>152.75</ele><time>2026-04-03T16:55:37.52Z</time></trkpt><trkpt lat="44.8936257" lon="9.751427"><ele>152.5</ele><time>2026-04-03T16:55:38.517Z</time></trkpt><trkpt lat="44.8936896" lon="9.7515814"><ele>152.25</ele><time>2026-04-03T16:55:39.503Z</time></trkpt><trkpt lat="44.8937517" lon="9.7517373"><ele>152.0</ele><time>2026-04-03T16:55:40.512Z</time></trkpt><trkpt lat="44.893814" lon="9.7518906"><ele>152.0</ele><time>2026-04-03T16:55:41.517Z</time></trkpt><trkpt lat="44.8938764" lon="9.7520348"><ele>152.0</ele><time>2026-04-03T16:55:42.517Z</time></trkpt><trkpt lat="44.8939379" lon="9.7521709"><ele>152.0</ele><time>2026-04-03T16:55:43.521Z</time></trkpt><trkpt lat="44.8939979" lon="9.7522983"><ele>152.0</ele><time>2026-04-03T16:55:44.517Z</time></trkpt><trkpt lat="44.8940553" lon="9.7524228"><ele>152.0</ele><time>2026-04-03T16:55:45.517Z</time></trkpt><trkpt lat="44.8941131" lon="9.7525469"><ele>152.0</ele><time>2026-04-03T16:55:46.517Z</time></trkpt><trkpt lat="44.8941701" lon="9.7526646"><ele>152.0</ele><time>2026-04-03T16:55:47.519Z</time></trkpt><trkpt lat="44.8942191" lon="9.7527584"><ele>152.0</ele><time>2026-04-03T16:55:48.523Z</time></trkpt><trkpt lat="44.8942802" lon="9.752859"><ele>152.0</ele><time>2026-04-03T16:55:50.52Z</time></trkpt><trkpt lat="44.8943351" lon="9.7529405"><ele>152.0</ele><time>2026-04-03T16:55:52.521Z</time></trkpt><trkpt lat="44.8943791" lon="9.7530079"><ele>152.0</ele><time>2026-04-03T16:55:53.525Z</time></trkpt><trkpt lat="44.8944292" lon="9.7530954"><ele>151.0</ele><time>2026-04-03T16:55:54.514Z</time></trkpt><trkpt lat="44.8944826" lon="9.7531878"><ele>150.0</ele><time>2026-04-03T16:55:55.52Z</time></trkpt><trkpt lat="44.8945368" lon="9.7532897"><ele>149.0</ele><time>2026-04-03T16:55:56.521Z</time></trkpt><trkpt lat="44.894593" lon="9.7533969"><ele>148.0</ele><time>2026-04-03T16:55:57.522Z</time></trkpt><trkpt lat="44.8946527" lon="9.7535101"><ele>147.0</ele><time>2026-04-03T16:55:58.522Z</time></trkpt><trkpt lat="44.8947147" lon="9.7536301"><ele>146.6</ele><time>2026-04-03T16:55:59.523Z</time></trkpt><trkpt lat="44.8947799" lon="9.7537504"><ele>146.2</ele><time>2026-04-03T16:56:00.521Z</time></trkpt><trkpt lat="44.8948471" lon="9.75387"><ele>145.8</ele><time>2026-04-03T16:56:01.519Z</time></trkpt><trkpt lat="44.8949132" lon="9.7539888"><ele>145.4</ele><time>2026-04-03T16:56:02.52Z</time></trkpt><trkpt lat="44.8949731" lon="9.7541102"><ele>145.0</ele><time>2026-04-03T16:56:03.52Z</time></trkpt><trkpt lat="44.8950306" lon="9.7542332"><ele>145.0</ele><time>2026-04-03T16:56:04.521Z</time></trkpt><trkpt lat="44.895086" lon="9.7543545"><ele>145.0</ele><time>2026-04-03T16:56:05.518Z</time></trkpt><trkpt lat="44.8951415" lon="9.7544738"><ele>145.0</ele><time>2026-04-03T16:56:06.519Z</time></trkpt><trkpt lat="44.8951983" lon="9.7545965"><ele>145.0</ele><time>2026-04-03T16:56:07.521Z</time></trkpt><trkpt lat="44.8952541" lon="9.7547192"><ele>145.0</ele><time>2026-04-03T16:56:08.522Z</time></trkpt><trkpt lat="44.8953052" lon="9.7548364"><ele>144.83333333333334</ele><time>2026-04-03T16:56:09.52Z</time></trkpt><trkpt lat="44.8953518" lon="9.7549448"><ele>144.66666666666669</ele><time>2026-04-03T16:56:10.52Z</time></trkpt><trkpt lat="44.8953959" lon="9.7550451"><ele>144.5</ele><time>2026-04-03T16:56:11.52Z</time></trkpt><trkpt lat="44.8954403" lon="9.7551424"><ele>144.33333333333334</ele><time>2026-04-03T16:56:12.521Z</time></trkpt><trkpt lat="44.8954945" lon="9.7552387"><ele>144.16666666666666</ele><time>2026-04-03T16:56:13.527Z</time></trkpt><trkpt lat="44.8955631" lon="9.7553297"><ele>144.0</ele><time>2026-04-03T16:56:14.513Z</time></trkpt><trkpt lat="44.8956467" lon="9.7554072"><ele>143.75</ele><time>2026-04-03T16:56:15.522Z</time></trkpt><trkpt lat="44.8957434" lon="9.7554797"><ele>143.5</ele><time>2026-04-03T16:56:16.523Z</time></trkpt><trkpt lat="44.8958568" lon="9.7555581"><ele>143.25</ele><time>2026-04-03T16:56:17.522Z</time></trkpt><trkpt lat="44.8959865" lon="9.7556467"><ele>143.0</ele><time>2026-04-03T16:56:18.522Z</time></trkpt><trkpt lat="44.8961264" lon="9.7557517"><ele>142.66666666666666</ele><time>2026-04-03T16:56:19.51Z</time></trkpt><trkpt lat="44.8962681" lon="9.755858"><ele>142.33333333333334</ele><time>2026-04-03T16:56:20.522Z</time></trkpt><trkpt lat="44.8964111" lon="9.7559579"><ele>142.0</ele><time>2026-04-03T16:56:21.522Z</time></trkpt><trkpt lat="44.8965625" lon="9.7560455"><ele>141.66666666666669</ele><time>2026-04-03T16:56:22.521Z</time></trkpt><trkpt lat="44.8967202" lon="9.7561164"><ele>141.33333333333334</ele><time>2026-04-03T16:56:23.527Z</time></trkpt><trkpt lat="44.8968817" lon="9.7561815"><ele>141.0</ele><time>2026-04-03T16:56:24.521Z</time></trkpt><trkpt lat="44.8970458" lon="9.756243"><ele>141.66666666666666</ele><time>2026-04-03T16:56:25.522Z</time></trkpt><trkpt lat="44.8972055" lon="9.7563119"><ele>142.33333333333331</ele><time>2026-04-03T16:56:26.523Z</time></trkpt><trkpt lat="44.897361" lon="9.7563937"><ele>143.0</ele><time>2026-04-03T16:56:27.523Z</time></trkpt><trkpt lat="44.8975142" lon="9.7564855"><ele>142.33333333333331</ele><time>2026-04-03T16:56:28.524Z</time></trkpt><trkpt lat="44.8976652" lon="9.7565764"><ele>141.66666666666666</ele><time>2026-04-03T16:56:29.524Z</time></trkpt><trkpt lat="44.8978153" lon="9.7566582"><ele>141.0</ele><time>2026-04-03T16:56:30.522Z</time></trkpt><trkpt lat="44.8979671" lon="9.7567174"><ele>141.0</ele><time>2026-04-03T16:56:31.516Z</time></trkpt><trkpt lat="44.8981177" lon="9.7567562"><ele>141.0</ele><time>2026-04-03T16:56:32.523Z</time></trkpt><trkpt lat="44.8982688" lon="9.756785"><ele>141.0</ele><time>2026-04-03T16:56:33.518Z</time></trkpt><trkpt lat="44.8984199" lon="9.7568191"><ele>140.0</ele><time>2026-04-03T16:56:34.511Z</time></trkpt><trkpt lat="44.8985703" lon="9.7568725"><ele>139.0</ele><time>2026-04-03T16:56:35.518Z</time></trkpt><trkpt lat="44.8987206" lon="9.7569588"><ele>138.0</ele><time>2026-04-03T16:56:36.52Z</time></trkpt><trkpt lat="44.8988686" lon="9.7570739"><ele>138.0</ele><time>2026-04-03T16:56:37.52Z</time></trkpt><trkpt lat="44.8990079" lon="9.7571953"><ele>138.0</ele><time>2026-04-03T16:56:38.518Z</time></trkpt><trkpt lat="44.8991456" lon="9.7572991"><ele>138.0</ele><time>2026-04-03T16:56:39.52Z</time></trkpt><trkpt lat="44.8992853" lon="9.7573985"><ele>137.66666666666666</ele><time>2026-04-03T16:56:40.519Z</time></trkpt><trkpt lat="44.8994251" lon="9.7575124"><ele>137.33333333333331</ele><time>2026-04-03T16:56:41.519Z</time></trkpt><trkpt lat="44.8995611" lon="9.7576505"><ele>137.0</ele><time>2026-04-03T16:56:42.517Z</time></trkpt><trkpt lat="44.8996945" lon="9.7578006"><ele>137.0</ele><time>2026-04-03T16:56:43.523Z</time></trkpt><trkpt lat="44.8998303" lon="9.7579512"><ele>137.0</ele><time>2026-04-03T16:56:44.522Z</time></trkpt><trkpt lat="44.89997" lon="9.7581053"><ele>137.0</ele><time>2026-04-03T16:56:45.52Z</time></trkpt><trkpt lat="44.9001092" lon="9.7582582"><ele>136.0</ele><time>2026-04-03T16:56:46.523Z</time></trkpt><trkpt lat="44.9002403" lon="9.7584038"><ele>135.0</ele><time>2026-04-03T16:56:47.522Z</time></trkpt><trkpt lat="44.9003618" lon="9.7585421"><ele>134.0</ele><time>2026-04-03T16:56:48.522Z</time></trkpt><trkpt lat="44.9004754" lon="9.7586711"><ele>133.0</ele><time>2026-04-03T16:56:49.52Z</time></trkpt><trkpt lat="44.9005835" lon="9.7587937"><ele>132.0</ele><time>2026-04-03T16:56:50.519Z</time></trkpt><trkpt lat="44.9006874" lon="9.7589114"><ele>131.0</ele><time>2026-04-03T16:56:51.52Z</time></trkpt><trkpt lat="44.9007896" lon="9.759016"><ele>130.0</ele><time>2026-04-03T16:56:52.521Z</time></trkpt><trkpt lat="44.9008983" lon="9.7590936"><ele>130.0</ele><time>2026-04-03T16:56:53.523Z</time></trkpt><trkpt lat="44.9010175" lon="9.7591417"><ele>130.0</ele><time>2026-04-03T16:56:54.52Z</time></trkpt><trkpt lat="44.9011491" lon="9.7591545"><ele>130.0</ele><time>2026-04-03T16:56:55.52Z</time></trkpt><trkpt lat="44.9012942" lon="9.7591527"><ele>130.0</ele><time>2026-04-03T16:56:56.52Z</time></trkpt><trkpt lat="44.901455" lon="9.7591523"><ele>130.0</ele><time>2026-04-03T16:56:57.522Z</time></trkpt><trkpt lat="44.9016224" lon="9.7591576"><ele>130.0</ele><time>2026-04-03T16:56:58.519Z</time></trkpt><trkpt lat="44.9017851" lon="9.7591782"><ele>130.0</ele><time>2026-04-03T16:56:59.522Z</time></trkpt><trkpt lat="44.9019427" lon="9.7592231"><ele>131.0</ele><time>2026-04-03T16:57:00.521Z</time></trkpt><trkpt lat="44.9020956" lon="9.7592977"><ele>132.0</ele><time>2026-04-03T16:57:01.516Z</time></trkpt><trkpt lat="44.9022368" lon="9.7593938"><ele>133.0</ele><time>2026-04-03T16:57:02.515Z</time></trkpt><trkpt lat="44.9023625" lon="9.7595059"><ele>133.0</ele><time>2026-04-03T16:57:03.522Z</time></trkpt><trkpt lat="44.9024699" lon="9.7596243"><ele>133.0</ele><time>2026-04-03T16:57:04.514Z</time></trkpt><trkpt lat="44.9025634" lon="9.7597459"><ele>133.0</ele><time>2026-04-03T16:57:05.515Z</time></trkpt><trkpt lat="44.9026496" lon="9.7598767"><ele>133.0</ele><time>2026-04-03T16:57:06.519Z</time></trkpt><trkpt lat="44.9027403" lon="9.7599857"><ele>132.75</ele><time>2026-04-03T16:57:07.521Z</time></trkpt><trkpt lat="44.902842" lon="9.7600701"><ele>132.5</ele><time>2026-04-03T16:57:08.518Z</time></trkpt><trkpt lat="44.9029534" lon="9.7601197"><ele>132.25</ele><time>2026-04-03T16:57:09.516Z</time></trkpt><trkpt lat="44.9030697" lon="9.7601461"><ele>132.0</ele><time>2026-04-03T16:57:10.515Z</time></trkpt><trkpt lat="44.9031878" lon="9.7601547"><ele>132.0</ele><time>2026-04-03T16:57:11.52Z</time></trkpt><trkpt lat="44.9033089" lon="9.7601516"><ele>132.0</ele><time>2026-04-03T16:57:12.513Z</time></trkpt><trkpt lat="44.9034313" lon="9.7601469"><ele>132.0</ele><time>2026-04-03T16:57:13.52Z</time></trkpt><trkpt lat="44.903561" lon="9.7601583"><ele>132.0</ele><time>2026-04-03T16:57:14.52Z</time></trkpt><trkpt lat="44.9036961" lon="9.7601907"><ele>131.0</ele><time>2026-04-03T16:57:15.52Z</time></trkpt><trkpt lat="44.903837" lon="9.7602395"><ele>130.0</ele><time>2026-04-03T16:57:16.522Z</time></trkpt><trkpt lat="44.903982" lon="9.7602895"><ele>129.0</ele><time>2026-04-03T16:57:17.517Z</time></trkpt><trkpt lat="44.9041297" lon="9.7603387"><ele>128.0</ele><time>2026-04-03T16:57:18.519Z</time></trkpt><trkpt lat="44.904278" lon="9.7603881"><ele>127.25</ele><time>2026-04-03T16:57:19.523Z</time></trkpt><trkpt lat="44.9044236" lon="9.7604401"><ele>126.5</ele><time>2026-04-03T16:57:20.518Z</time></trkpt><trkpt lat="44.9045642" lon="9.7604887"><ele>125.75</ele><time>2026-04-03T16:57:21.518Z</time></trkpt><trkpt lat="44.9047033" lon="9.7605335"><ele>125.0</ele><time>2026-04-03T16:57:22.52Z</time></trkpt><trkpt lat="44.9048428" lon="9.7605756"><ele>125.0</ele><time>2026-04-03T16:57:23.52Z</time></trkpt><trkpt lat="44.9049812" lon="9.7606161"><ele>125.0</ele><time>2026-04-03T16:57:24.518Z</time></trkpt><trkpt lat="44.9051168" lon="9.7606595"><ele>125.0</ele><time>2026-04-03T16:57:25.518Z</time></trkpt><trkpt lat="44.9052514" lon="9.7607057"><ele>125.0</ele><time>2026-04-03T16:57:26.52Z</time></trkpt><trkpt lat="44.9053853" lon="9.7607521"><ele>125.25</ele><time>2026-04-03T16:57:27.518Z</time></trkpt><trkpt lat="44.9055152" lon="9.7607929"><ele>125.5</ele><time>2026-04-03T16:57:28.519Z</time></trkpt><trkpt lat="44.9056381" lon="9.7608348"><ele>125.75</ele><time>2026-04-03T16:57:29.515Z</time></trkpt><trkpt lat="44.9057538" lon="9.7608842"><ele>126.0</ele><time>2026-04-03T16:57:30.518Z</time></trkpt><trkpt lat="44.9058576" lon="9.7609545"><ele>126.0</ele><time>2026-04-03T16:57:31.508Z</time></trkpt><trkpt lat="44.9059501" lon="9.7610552"><ele>126.0</ele><time>2026-04-03T16:57:32.515Z</time></trkpt><trkpt lat="44.9060328" lon="9.7611713"><ele>126.0</ele><time>2026-04-03T16:57:33.503Z</time></trkpt><trkpt lat="44.9061142" lon="9.761273"><ele>126.0</ele><time>2026-04-03T16:57:34.52Z</time></trkpt><trkpt lat="44.9061962" lon="9.7613387"><ele>126.0</ele><time>2026-04-03T16:57:35.521Z</time></trkpt><trkpt lat="44.9062674" lon="9.7613754"><ele>126.0</ele><time>2026-04-03T16:57:36.519Z</time></trkpt><trkpt lat="44.9063253" lon="9.761463"><ele>126.0</ele><time>2026-04-03T16:57:38.525Z</time></trkpt><trkpt lat="44.9062812" lon="9.7616238"><ele>126.0</ele><time>2026-04-03T16:57:40.506Z</time></trkpt><trkpt lat="44.90624" lon="9.7617478"><ele>126.0</ele><time>2026-04-03T16:57:41.503Z</time></trkpt><trkpt lat="44.9061982" lon="9.7618887"><ele>126.0</ele><time>2026-04-03T16:57:42.504Z</time></trkpt><trkpt lat="44.9061605" lon="9.7620185"><ele>125.83333333333333</ele><time>2026-04-03T16:57:43.497Z</time></trkpt><trkpt lat="44.9061264" lon="9.7621336"><ele>125.66666666666666</ele><time>2026-04-03T16:57:44.505Z</time></trkpt><trkpt lat="44.9060906" lon="9.7622382"><ele>125.5</ele><time>2026-04-03T16:57:45.505Z</time></trkpt><trkpt lat="44.906046" lon="9.7623329"><ele>125.33333333333333</ele><time>2026-04-03T16:57:46.5Z</time></trkpt><trkpt lat="44.9059853" lon="9.7624066"><ele>125.16666666666666</ele><time>2026-04-03T16:57:47.506Z</time></trkpt><trkpt lat="44.9059051" lon="9.7624653"><ele>125.0</ele><time>2026-04-03T16:57:48.506Z</time></trkpt><trkpt lat="44.9058104" lon="9.762536"><ele>125.75</ele><time>2026-04-03T16:57:49.508Z</time></trkpt><trkpt lat="44.9056994" lon="9.7626254"><ele>126.5</ele><time>2026-04-03T16:57:50.507Z</time></trkpt><trkpt lat="44.9055827" lon="9.7627192"><ele>127.25</ele><time>2026-04-03T16:57:51.508Z</time></trkpt><trkpt lat="44.9054631" lon="9.7628186"><ele>128.0</ele><time>2026-04-03T16:57:52.507Z</time></trkpt><trkpt lat="44.9053415" lon="9.7629262"><ele>128.25</ele><time>2026-04-03T16:57:53.505Z</time></trkpt><trkpt lat="44.9052212" lon="9.7630337"><ele>128.5</ele><time>2026-04-03T16:57:54.505Z</time></trkpt><trkpt lat="44.9051006" lon="9.7631343"><ele>128.75</ele><time>2026-04-03T16:57:55.502Z</time></trkpt><trkpt lat="44.904975" lon="9.7632217"><ele>129.0</ele><time>2026-04-03T16:57:56.503Z</time></trkpt><trkpt lat="44.9048416" lon="9.7632882"><ele>128.0</ele><time>2026-04-03T16:57:57.505Z</time></trkpt><trkpt lat="44.9046941" lon="9.763322"><ele>127.0</ele><time>2026-04-03T16:57:58.504Z</time></trkpt><trkpt lat="44.9045281" lon="9.7633241"><ele>126.0</ele><time>2026-04-03T16:57:59.506Z</time></trkpt><trkpt lat="44.9043449" lon="9.7633128"><ele>125.0</ele><time>2026-04-03T16:58:00.504Z</time></trkpt><trkpt lat="44.9041521" lon="9.7632968"><ele>124.0</ele><time>2026-04-03T16:58:01.504Z</time></trkpt><trkpt lat="44.9039586" lon="9.763294"><ele>123.0</ele><time>2026-04-03T16:58:02.505Z</time></trkpt><trkpt lat="44.9037685" lon="9.7633145"><ele>123.0</ele><time>2026-04-03T16:58:03.508Z</time></trkpt><trkpt lat="44.9035846" lon="9.7633555"><ele>123.0</ele><time>2026-04-03T16:58:04.503Z</time></trkpt><trkpt lat="44.9034046" lon="9.7634057"><ele>123.0</ele><time>2026-04-03T16:58:05.503Z</time></trkpt><trkpt lat="44.9032264" lon="9.7634571"><ele>123.0</ele><time>2026-04-03T16:58:06.504Z</time></trkpt><trkpt lat="44.9030505" lon="9.7635034"><ele>123.0</ele><time>2026-04-03T16:58:07.506Z</time></trkpt><trkpt lat="44.9028771" lon="9.7635468"><ele>123.0</ele><time>2026-04-03T16:58:08.504Z</time></trkpt><trkpt lat="44.9027031" lon="9.7635932"><ele>125.0</ele><time>2026-04-03T16:58:09.504Z</time></trkpt><trkpt lat="44.902527" lon="9.7636431"><ele>127.0</ele><time>2026-04-03T16:58:10.503Z</time></trkpt><trkpt lat="44.9023477" lon="9.7636951"><ele>129.0</ele><time>2026-04-03T16:58:11.503Z</time></trkpt><trkpt lat="44.9021676" lon="9.7637466"><ele>129.0</ele><time>2026-04-03T16:58:12.503Z</time></trkpt><trkpt lat="44.9019872" lon="9.7637983"><ele>129.0</ele><time>2026-04-03T16:58:13.507Z</time></trkpt><trkpt lat="44.9018054" lon="9.7638513"><ele>129.0</ele><time>2026-04-03T16:58:14.496Z</time></trkpt><trkpt lat="44.9016233" lon="9.7639078"><ele>130.0</ele><time>2026-04-03T16:58:15.504Z</time></trkpt><trkpt lat="44.9014423" lon="9.7639624"><ele>131.0</ele><time>2026-04-03T16:58:16.504Z</time></trkpt><trkpt lat="44.9012597" lon="9.7640177"><ele>132.0</ele><time>2026-04-03T16:58:17.503Z</time></trkpt><trkpt lat="44.9010732" lon="9.764073"><ele>132.0</ele><time>2026-04-03T16:58:18.503Z</time></trkpt></trkseg></trk></gpx>